<?xml version='1.0' encoding='UTF-8'?><gpx version="1.1" creator="JPX - https://github.com/jenetics/jpx" xmlns="http://www.topografix.com/GPX/1/1"><trk><trkseg><trkpt lat="45.5954804" lon="12.3127313"><ele>4.0</ele><time>2026-04-24T15:47:56.988Z</time></trkpt><trkpt lat="45.5955092" lon="12.312448"><ele>4.0</ele><time>2026-04-24T15:47:57.987Z</time></trkpt><trkpt lat="45.595608" lon="12.3122036"><ele>4.0</ele><time>2026-04-24T15:48:05.008Z</time></trkpt><trkpt lat="45.5956507" lon="12.3121222"><ele>3.9999999999999996</ele><time>2026-04-24T15:48:08.996Z</time></trkpt><trkpt lat="45.5957952" lon="12.3122051"><ele>4.0</ele><time>2026-04-24T15:48:12Z</time></trkpt><trkpt lat="45.595852" lon="12.3122839"><ele>4.0</ele><time>2026-04-24T15:48:13.98Z</time></trkpt><trkpt lat="45.5959099" lon="12.3123503"><ele>4.0</ele><time>2026-04-24T15:48:15.984Z</time></trkpt><trkpt lat="45.5959666" lon="12.3124133"><ele>3.9999999999999996</ele><time>2026-04-24T15:48:17.989Z</time></trkpt><trkpt lat="45.5960071" lon="12.3124872"><ele>4.0</ele><time>2026-04-24T15:48:19.986Z</time></trkpt><trkpt lat="45.5960561" lon="12.3125595"><ele>3.9999999999999996</ele><time>2026-04-24T15:48:21.983Z</time></trkpt><trkpt lat="45.5961105" lon="12.3126263"><ele>4.0</ele><time>2026-04-24T15:48:23.991Z</time></trkpt><trkpt lat="45.5961639" lon="12.3126906"><ele>4.0</ele><time>2026-04-24T15:48:25.998Z</time></trkpt><trkpt lat="45.596227" lon="12.3127653"><ele>4.0</ele><time>2026-04-24T15:48:27.993Z</time></trkpt><trkpt lat="45.5962892" lon="12.3128322"><ele>3.9999999999999996</ele><time>2026-04-24T15:48:29.986Z</time></trkpt><trkpt lat="45.5963464" lon="12.3129047"><ele>4.0</ele><time>2026-04-24T15:48:32.004Z</time></trkpt><trkpt lat="45.5964042" lon="12.312966"><ele>3.833333333333333</ele><time>2026-04-24T15:48:34.008Z</time></trkpt><trkpt lat="45.5964632" lon="12.3130381"><ele>3.6666666666666665</ele><time>2026-04-24T15:48:36Z</time></trkpt><trkpt lat="45.596521" lon="12.3131073"><ele>3.5</ele><time>2026-04-24T15:48:38.031Z</time></trkpt><trkpt lat="45.5965854" lon="12.3131712"><ele>3.333333333333333</ele><time>2026-04-24T15:48:40.022Z</time></trkpt><trkpt lat="45.5966527" lon="12.3132288"><ele>3.1666666666666665</ele><time>2026-04-24T15:48:42.012Z</time></trkpt><trkpt lat="45.5967255" lon="12.3132888"><ele>3.0</ele><time>2026-04-24T15:48:44.017Z</time></trkpt><trkpt lat="45.5967933" lon="12.3133507"><ele>3.0</ele><time>2026-04-24T15:48:46.027Z</time></trkpt><trkpt lat="45.5968626" lon="12.313415"><ele>3.0</ele><time>2026-04-24T15:48:48.01Z</time></trkpt><trkpt lat="45.5969345" lon="12.3134897"><ele>3.0</ele><time>2026-04-24T15:48:50.015Z</time></trkpt><trkpt lat="45.5970017" lon="12.3135549"><ele>3.0</ele><time>2026-04-24T15:48:52.029Z</time></trkpt><trkpt lat="45.5970692" lon="12.3136247"><ele>3.0</ele><time>2026-04-24T15:48:54.013Z</time></trkpt><trkpt lat="45.5971388" lon="12.3136936"><ele>3.0</ele><time>2026-04-24T15:48:56.022Z</time></trkpt><trkpt lat="45.5972112" lon="12.3137573"><ele>3.0</ele><time>2026-04-24T15:48:58.011Z</time></trkpt><trkpt lat="45.5972817" lon="12.3138221"><ele>3.0</ele><time>2026-04-24T15:49:00.017Z</time></trkpt><trkpt lat="45.597349" lon="12.3139171"><ele>3.0</ele><time>2026-04-24T15:49:02.002Z</time></trkpt><trkpt lat="45.5973885" lon="12.3140334"><ele>3.0</ele><time>2026-04-24T15:49:04.015Z</time></trkpt><trkpt lat="45.5974157" lon="12.3141528"><ele>3.0</ele><time>2026-04-24T15:49:06.011Z</time></trkpt><trkpt lat="45.5974367" lon="12.3142753"><ele>3.0</ele><time>2026-04-24T15:49:08.011Z</time></trkpt><trkpt lat="45.5974622" lon="12.3143852"><ele>3.0</ele><time>2026-04-24T15:49:10.005Z</time></trkpt><trkpt lat="45.5974931" lon="12.3144963"><ele>3.0</ele><time>2026-04-24T15:49:12.009Z</time></trkpt><trkpt lat="45.5975117" lon="12.3146037"><ele>3.0</ele><time>2026-04-24T15:49:14.007Z</time></trkpt><trkpt lat="45.5975324" lon="12.3147238"><ele>3.0</ele><time>2026-04-24T15:49:16.015Z</time></trkpt><trkpt lat="45.5975454" lon="12.3148479"><ele>3.0</ele><time>2026-04-24T15:49:18.029Z</time></trkpt><trkpt lat="45.5975616" lon="12.314977"><ele>3.0</ele><time>2026-04-24T15:49:20.03Z</time></trkpt><trkpt lat="45.5975836" lon="12.3151045"><ele>2.8</ele><time>2026-04-24T15:49:22.03Z</time></trkpt><trkpt lat="45.5976013" lon="12.3152298"><ele>2.5999999999999996</ele><time>2026-04-24T15:49:24.03Z</time></trkpt><trkpt lat="45.5976148" lon="12.3153568"><ele>2.4000000000000004</ele><time>2026-04-24T15:49:26.015Z</time></trkpt><trkpt lat="45.5976424" lon="12.3154851"><ele>2.2</ele><time>2026-04-24T15:49:28.022Z</time></trkpt><trkpt lat="45.5976773" lon="12.3156082"><ele>2.0</ele><time>2026-04-24T15:49:30.02Z</time></trkpt><trkpt lat="45.5977295" lon="12.3157278"><ele>2.0</ele><time>2026-04-24T15:49:32.03Z</time></trkpt><trkpt lat="45.5977841" lon="12.3158442"><ele>2.0</ele><time>2026-04-24T15:49:34.03Z</time></trkpt><trkpt lat="45.5978403" lon="12.315952"><ele>2.0</ele><time>2026-04-24T15:49:36.038Z</time></trkpt><trkpt lat="45.5979045" lon="12.3160591"><ele>2.0</ele><time>2026-04-24T15:49:38.033Z</time></trkpt><trkpt lat="45.5979683" lon="12.3161621"><ele>2.0</ele><time>2026-04-24T15:49:40.023Z</time></trkpt><trkpt lat="45.598032" lon="12.3162596"><ele>1.9999999999999998</ele><time>2026-04-24T15:49:42.02Z</time></trkpt><trkpt lat="45.5980901" lon="12.3163364"><ele>2.0</ele><time>2026-04-24T15:49:44.018Z</time></trkpt><trkpt lat="45.5981508" lon="12.316411"><ele>2.0</ele><time>2026-04-24T15:49:46.026Z</time></trkpt><trkpt lat="45.5982123" lon="12.3164961"><ele>2.0</ele><time>2026-04-24T15:49:48.016Z</time></trkpt><trkpt lat="45.5982734" lon="12.3165826"><ele>1.9999999999999998</ele><time>2026-04-24T15:49:50.038Z</time></trkpt><trkpt lat="45.5983379" lon="12.316674"><ele>2.0</ele><time>2026-04-24T15:49:52.025Z</time></trkpt><trkpt lat="45.5984049" lon="12.316765"><ele>2.5</ele><time>2026-04-24T15:49:54.014Z</time></trkpt><trkpt lat="45.5984748" lon="12.3168454"><ele>3.0</ele><time>2026-04-24T15:49:56.019Z</time></trkpt><trkpt lat="45.5985471" lon="12.3169276"><ele>3.5</ele><time>2026-04-24T15:49:58.015Z</time></trkpt><trkpt lat="45.5986125" lon="12.3170084"><ele>4.0</ele><time>2026-04-24T15:50:00.04Z</time></trkpt><trkpt lat="45.5986738" lon="12.3170933"><ele>4.5</ele><time>2026-04-24T15:50:02.019Z</time></trkpt><trkpt lat="45.5987455" lon="12.3171659"><ele>5.0</ele><time>2026-04-24T15:50:04.02Z</time></trkpt><trkpt lat="45.5988191" lon="12.3172385"><ele>5.0</ele><time>2026-04-24T15:50:06.017Z</time></trkpt><trkpt lat="45.5988894" lon="12.3173084"><ele>5.0</ele><time>2026-04-24T15:50:08.007Z</time></trkpt><trkpt lat="45.598966" lon="12.3173702"><ele>5.0</ele><time>2026-04-24T15:50:10.026Z</time></trkpt><trkpt lat="45.5990364" lon="12.3174308"><ele>5.0</ele><time>2026-04-24T15:50:12.017Z</time></trkpt><trkpt lat="45.5991136" lon="12.3175218"><ele>5.0</ele><time>2026-04-24T15:50:15.007Z</time></trkpt><trkpt lat="45.5991861" lon="12.3175769"><ele>5.0</ele><time>2026-04-24T15:50:18.016Z</time></trkpt><trkpt lat="45.5992174" lon="12.3176676"><ele>5.0</ele><time>2026-04-24T15:50:22.019Z</time></trkpt><trkpt lat="45.5991836" lon="12.3177909"><ele>5.0</ele><time>2026-04-24T15:50:25.028Z</time></trkpt><trkpt lat="45.5991624" lon="12.3178872"><ele>5.0</ele><time>2026-04-24T15:50:27.012Z</time></trkpt><trkpt lat="45.5991377" lon="12.3179946"><ele>5.0</ele><time>2026-04-24T15:50:29.027Z</time></trkpt><trkpt lat="45.5991067" lon="12.3181104"><ele>5.0</ele><time>2026-04-24T15:50:31.043Z</time></trkpt><trkpt lat="45.5990813" lon="12.3182288"><ele>5.0</ele><time>2026-04-24T15:50:33.039Z</time></trkpt><trkpt lat="45.5990588" lon="12.3183427"><ele>4.666666666666667</ele><time>2026-04-24T15:50:35.023Z</time></trkpt><trkpt lat="45.5990479" lon="12.3184508"><ele>4.333333333333334</ele><time>2026-04-24T15:50:37.023Z</time></trkpt><trkpt lat="45.5990611" lon="12.3185505"><ele>4.0</ele><time>2026-04-24T15:50:39.012Z</time></trkpt><trkpt lat="45.5990579" lon="12.3186467"><ele>3.666666666666667</ele><time>2026-04-24T15:50:41.028Z</time></trkpt><trkpt lat="45.5991028" lon="12.3187629"><ele>3.3333333333333335</ele><time>2026-04-24T15:50:44.013Z</time></trkpt><trkpt lat="45.599199" lon="12.3187987"><ele>3.0</ele><time>2026-04-24T15:50:47.019Z</time></trkpt><trkpt lat="45.5992929" lon="12.3188555"><ele>2.9999999999999996</ele><time>2026-04-24T15:50:49.023Z</time></trkpt><trkpt lat="45.59936" lon="12.3188936"><ele>3.0</ele><time>2026-04-24T15:50:51.017Z</time></trkpt><trkpt lat="45.5994353" lon="12.3189103"><ele>3.0</ele><time>2026-04-24T15:50:53.02Z</time></trkpt><trkpt lat="45.5994979" lon="12.318936"><ele>3.0</ele><time>2026-04-24T15:50:54.018Z</time></trkpt><trkpt lat="45.5995812" lon="12.3189722"><ele>3.0</ele><time>2026-04-24T15:50:56.023Z</time></trkpt><trkpt lat="45.5996447" lon="12.3189947"><ele>2.9999999999999996</ele><time>2026-04-24T15:50:58.016Z</time></trkpt><trkpt lat="45.5997186" lon="12.3190238"><ele>3.0</ele><time>2026-04-24T15:51:00.036Z</time></trkpt><trkpt lat="45.5998115" lon="12.3190699"><ele>3.2</ele><time>2026-04-24T15:51:02.027Z</time></trkpt><trkpt lat="45.5998991" lon="12.3191141"><ele>3.4</ele><time>2026-04-24T15:51:04.023Z</time></trkpt><trkpt lat="45.5999744" lon="12.3191545"><ele>3.6000000000000005</ele><time>2026-04-24T15:51:06.03Z</time></trkpt><trkpt lat="45.6000694" lon="12.3191868"><ele>3.8000000000000003</ele><time>2026-04-24T15:51:08.03Z</time></trkpt><trkpt lat="45.6001668" lon="12.3192319"><ele>4.0</ele><time>2026-04-24T15:51:10.024Z</time></trkpt><trkpt lat="45.6002493" lon="12.3192756"><ele>3.9999999999999996</ele><time>2026-04-24T15:51:12.022Z</time></trkpt><trkpt lat="45.6003312" lon="12.3193114"><ele>4.0</ele><time>2026-04-24T15:51:14.027Z</time></trkpt><trkpt lat="45.6004403" lon="12.3193452"><ele>4.0</ele><time>2026-04-24T15:51:16.04Z</time></trkpt><trkpt lat="45.6005065" lon="12.3193593"><ele>4.0</ele><time>2026-04-24T15:51:18.031Z</time></trkpt><trkpt lat="45.6005867" lon="12.3193924"><ele>3.9999999999999996</ele><time>2026-04-24T15:51:20.019Z</time></trkpt><trkpt lat="45.6006498" lon="12.3194151"><ele>4.0</ele><time>2026-04-24T15:51:21.023Z</time></trkpt><trkpt lat="45.6007256" lon="12.3194382"><ele>4.2</ele><time>2026-04-24T15:51:23.012Z</time></trkpt><trkpt lat="45.6008305" lon="12.319469"><ele>4.4</ele><time>2026-04-24T15:51:25.006Z</time></trkpt><trkpt lat="45.6009251" lon="12.3194956"><ele>4.6</ele><time>2026-04-24T15:51:27.011Z</time></trkpt><trkpt lat="45.6010033" lon="12.3195151"><ele>4.8</ele><time>2026-04-24T15:51:29.012Z</time></trkpt><trkpt lat="45.6011091" lon="12.3195491"><ele>5.0</ele><time>2026-04-24T15:51:31.045Z</time></trkpt><trkpt lat="45.601183" lon="12.3195693"><ele>5.0</ele><time>2026-04-24T15:51:33.023Z</time></trkpt><trkpt lat="45.6012614" lon="12.3195902"><ele>5.0</ele><time>2026-04-24T15:51:35.011Z</time></trkpt><trkpt lat="45.6013341" lon="12.3196019"><ele>5.0</ele><time>2026-04-24T15:51:37.014Z</time></trkpt><trkpt lat="45.6014089" lon="12.3196076"><ele>5.0</ele><time>2026-04-24T15:51:39.008Z</time></trkpt><trkpt lat="45.6014765" lon="12.3196189"><ele>5.0</ele><time>2026-04-24T15:51:41.012Z</time></trkpt><trkpt lat="45.6015437" lon="12.3196365"><ele>5.0</ele><time>2026-04-24T15:51:43.01Z</time></trkpt><trkpt lat="45.60161" lon="12.3196822"><ele>5.0</ele><time>2026-04-24T15:51:45.026Z</time></trkpt><trkpt lat="45.6016769" lon="12.3197216"><ele>5.0</ele><time>2026-04-24T15:51:47.016Z</time></trkpt><trkpt lat="45.6017472" lon="12.3197121"><ele>5.0</ele><time>2026-04-24T15:51:49.004Z</time></trkpt><trkpt lat="45.6018437" lon="12.3197014"><ele>5.0</ele><time>2026-04-24T15:51:51.016Z</time></trkpt><trkpt lat="45.6019148" lon="12.3197102"><ele>5.0</ele><time>2026-04-24T15:51:53.005Z</time></trkpt><trkpt lat="45.6019936" lon="12.3197321"><ele>5.0</ele><time>2026-04-24T15:51:55.025Z</time></trkpt><trkpt lat="45.6021027" lon="12.3197811"><ele>5.0</ele><time>2026-04-24T15:51:57.008Z</time></trkpt><trkpt lat="45.6021647" lon="12.3198105"><ele>4.857142857142857</ele><time>2026-04-24T15:51:59.007Z</time></trkpt><trkpt lat="45.6022398" lon="12.3198551"><ele>4.714285714285714</ele><time>2026-04-24T15:52:01.013Z</time></trkpt><trkpt lat="45.6023099" lon="12.3199062"><ele>4.571428571428571</ele><time>2026-04-24T15:52:03.023Z</time></trkpt><trkpt lat="45.6023794" lon="12.3199419"><ele>4.428571428571429</ele><time>2026-04-24T15:52:05.027Z</time></trkpt><trkpt lat="45.6024546" lon="12.3199583"><ele>4.285714285714286</ele><time>2026-04-24T15:52:07.02Z</time></trkpt><trkpt lat="45.6025251" lon="12.3199656"><ele>4.142857142857142</ele><time>2026-04-24T15:52:09.024Z</time></trkpt><trkpt lat="45.6025871" lon="12.3199925"><ele>4.0</ele><time>2026-04-24T15:52:11.024Z</time></trkpt><trkpt lat="45.6026728" lon="12.3200238"><ele>3.9999999999999996</ele><time>2026-04-24T15:52:14.014Z</time></trkpt><trkpt lat="45.6027423" lon="12.3200502"><ele>4.0</ele><time>2026-04-24T15:52:16.017Z</time></trkpt><trkpt lat="45.6028117" lon="12.3200655"><ele>4.0</ele><time>2026-04-24T15:52:19.006Z</time></trkpt><trkpt lat="45.6029157" lon="12.3200751"><ele>4.0</ele><time>2026-04-24T15:52:22.024Z</time></trkpt><trkpt lat="45.6029821" lon="12.3200868"><ele>3.9999999999999996</ele><time>2026-04-24T15:52:23.019Z</time></trkpt><trkpt lat="45.6030819" lon="12.3201058"><ele>4.0</ele><time>2026-04-24T15:52:25.022Z</time></trkpt><trkpt lat="45.6031769" lon="12.3201312"><ele>4.0</ele><time>2026-04-24T15:52:28.028Z</time></trkpt><trkpt lat="45.6032457" lon="12.3201531"><ele>3.9999999999999996</ele><time>2026-04-24T15:52:29.04Z</time></trkpt><trkpt lat="45.6033079" lon="12.3201717"><ele>4.0</ele><time>2026-04-24T15:52:30.035Z</time></trkpt><trkpt lat="45.6033716" lon="12.3201854"><ele>4.0</ele><time>2026-04-24T15:52:31.017Z</time></trkpt><trkpt lat="45.6034453" lon="12.3201921"><ele>3.9999999999999996</ele><time>2026-04-24T15:52:33.015Z</time></trkpt><trkpt lat="45.6035275" lon="12.3202076"><ele>4.0</ele><time>2026-04-24T15:52:35.022Z</time></trkpt><trkpt lat="45.6035941" lon="12.3202245"><ele>4.0</ele><time>2026-04-24T15:52:36.021Z</time></trkpt><trkpt lat="45.6036796" lon="12.3202375"><ele>3.9999999999999996</ele><time>2026-04-24T15:52:38.024Z</time></trkpt><trkpt lat="45.6037433" lon="12.3202453"><ele>4.0</ele><time>2026-04-24T15:52:40.032Z</time></trkpt><trkpt lat="45.6038079" lon="12.3202398"><ele>4.0</ele><time>2026-04-24T15:52:43.017Z</time></trkpt><trkpt lat="45.6038427" lon="12.3201261"><ele>4.0</ele><time>2026-04-24T15:52:46.009Z</time></trkpt><trkpt lat="45.6038491" lon="12.319999"><ele>3.9999999999999996</ele><time>2026-04-24T15:52:48.033Z</time></trkpt><trkpt lat="45.6038629" lon="12.3198713"><ele>4.0</ele><time>2026-04-24T15:52:50.03Z</time></trkpt><trkpt lat="45.6038733" lon="12.3197468"><ele>4.2</ele><time>2026-04-24T15:52:52.028Z</time></trkpt><trkpt lat="45.6038849" lon="12.3196299"><ele>4.4</ele><time>2026-04-24T15:52:54.015Z</time></trkpt><trkpt lat="45.6038859" lon="12.3195033"><ele>4.6</ele><time>2026-04-24T15:52:56.027Z</time></trkpt><trkpt lat="45.6038884" lon="12.3193777"><ele>4.8</ele><time>2026-04-24T15:52:58.036Z</time></trkpt><trkpt lat="45.6038875" lon="12.3192435"><ele>5.0</ele><time>2026-04-24T15:53:00.019Z</time></trkpt><trkpt lat="45.6038824" lon="12.3191047"><ele>5.0</ele><time>2026-04-24T15:53:02.013Z</time></trkpt><trkpt lat="45.603889" lon="12.3189855"><ele>5.0</ele><time>2026-04-24T15:53:04.029Z</time></trkpt><trkpt lat="45.6038873" lon="12.3188707"><ele>5.0</ele><time>2026-04-24T15:53:06.01Z</time></trkpt><trkpt lat="45.6038905" lon="12.3187498"><ele>5.0</ele><time>2026-04-24T15:53:08.021Z</time></trkpt><trkpt lat="45.603907" lon="12.3186212"><ele>5.0</ele><time>2026-04-24T15:53:10.014Z</time></trkpt><trkpt lat="45.6039128" lon="12.3184896"><ele>5.0</ele><time>2026-04-24T15:53:12.034Z</time></trkpt><trkpt lat="45.6039289" lon="12.3183736"><ele>5.0</ele><time>2026-04-24T15:53:14.023Z</time></trkpt><trkpt lat="45.6039435" lon="12.3182504"><ele>5.0</ele><time>2026-04-24T15:53:16.013Z</time></trkpt><trkpt lat="45.6039516" lon="12.3181328"><ele>5.0</ele><time>2026-04-24T15:53:18.031Z</time></trkpt><trkpt lat="45.6039724" lon="12.3180137"><ele>5.0</ele><time>2026-04-24T15:53:20.017Z</time></trkpt><trkpt lat="45.603995" lon="12.3178909"><ele>5.0</ele><time>2026-04-24T15:53:22.016Z</time></trkpt><trkpt lat="45.6040055" lon="12.3177617"><ele>5.0</ele><time>2026-04-24T15:53:24.028Z</time></trkpt><trkpt lat="45.6040166" lon="12.3176347"><ele>5.0</ele><time>2026-04-24T15:53:26.02Z</time></trkpt><trkpt lat="45.6040305" lon="12.3175002"><ele>5.0</ele><time>2026-04-24T15:53:28.016Z</time></trkpt><trkpt lat="45.6040548" lon="12.317378"><ele>5.0</ele><time>2026-04-24T15:53:30.031Z</time></trkpt><trkpt lat="45.6040836" lon="12.3172492"><ele>5.0</ele><time>2026-04-24T15:53:32.015Z</time></trkpt><trkpt lat="45.6041238" lon="12.3171271"><ele>5.0</ele><time>2026-04-24T15:53:34.015Z</time></trkpt><trkpt lat="45.6041749" lon="12.3170106"><ele>5.0</ele><time>2026-04-24T15:53:36.008Z</time></trkpt><trkpt lat="45.6042209" lon="12.3169051"><ele>5.0</ele><time>2026-04-24T15:53:38.013Z</time></trkpt><trkpt lat="45.604264" lon="12.3167966"><ele>5.0</ele><time>2026-04-24T15:53:40.027Z</time></trkpt><trkpt lat="45.604306" lon="12.3166976"><ele>5.0</ele><time>2026-04-24T15:53:42.016Z</time></trkpt><trkpt lat="45.6043443" lon="12.316581"><ele>5.0</ele><time>2026-04-24T15:53:44.017Z</time></trkpt><trkpt lat="45.6043822" lon="12.3164578"><ele>5.0</ele><time>2026-04-24T15:53:46.025Z</time></trkpt><trkpt lat="45.6044153" lon="12.3163355"><ele>5.0</ele><time>2026-04-24T15:53:48.012Z</time></trkpt><trkpt lat="45.6044175" lon="12.3162002"><ele>5.0</ele><time>2026-04-24T15:53:50.015Z</time></trkpt><trkpt lat="45.6043982" lon="12.3160543"><ele>5.0</ele><time>2026-04-24T15:53:52.024Z</time></trkpt><trkpt lat="45.6043614" lon="12.315926"><ele>5.0</ele><time>2026-04-24T15:53:54.049Z</time></trkpt><trkpt lat="45.6043229" lon="12.3157816"><ele>5.0</ele><time>2026-04-24T15:53:56.013Z</time></trkpt><trkpt lat="45.6043037" lon="12.3156572"><ele>5.0</ele><time>2026-04-24T15:53:58.022Z</time></trkpt><trkpt lat="45.6042964" lon="12.3155364"><ele>5.0</ele><time>2026-04-24T15:54:00.029Z</time></trkpt><trkpt lat="45.604291" lon="12.3154183"><ele>5.0</ele><time>2026-04-24T15:54:02.025Z</time></trkpt><trkpt lat="45.6042838" lon="12.3152703"><ele>5.0</ele><time>2026-04-24T15:54:04.02Z</time></trkpt><trkpt lat="45.6042942" lon="12.3151246"><ele>5.0</ele><time>2026-04-24T15:54:06.029Z</time></trkpt><trkpt lat="45.6043137" lon="12.3149875"><ele>5.0</ele><time>2026-04-24T15:54:08.008Z</time></trkpt><trkpt lat="45.604324" lon="12.3148605"><ele>5.0</ele><time>2026-04-24T15:54:10.018Z</time></trkpt><trkpt lat="45.6043404" lon="12.3147522"><ele>5.0</ele><time>2026-04-24T15:54:12.017Z</time></trkpt><trkpt lat="45.6043529" lon="12.3146269"><ele>5.0</ele><time>2026-04-24T15:54:14.02Z</time></trkpt><trkpt lat="45.6043605" lon="12.3145041"><ele>5.0</ele><time>2026-04-24T15:54:16.02Z</time></trkpt><trkpt lat="45.6043559" lon="12.3143692"><ele>5.0</ele><time>2026-04-24T15:54:18.006Z</time></trkpt><trkpt lat="45.6043417" lon="12.3142185"><ele>5.0</ele><time>2026-04-24T15:54:20.016Z</time></trkpt><trkpt lat="45.6043235" lon="12.3140697"><ele>5.0</ele><time>2026-04-24T15:54:22.038Z</time></trkpt><trkpt lat="45.6043173" lon="12.3139412"><ele>5.0</ele><time>2026-04-24T15:54:24.015Z</time></trkpt><trkpt lat="45.6043132" lon="12.3137749"><ele>5.0</ele><time>2026-04-24T15:54:26.015Z</time></trkpt><trkpt lat="45.6043043" lon="12.313629"><ele>5.0</ele><time>2026-04-24T15:54:28.025Z</time></trkpt><trkpt lat="45.6042982" lon="12.3134879"><ele>5.2</ele><time>2026-04-24T15:54:30.03Z</time></trkpt><trkpt lat="45.604302" lon="12.3133582"><ele>5.4</ele><time>2026-04-24T15:54:32.025Z</time></trkpt><trkpt lat="45.6043196" lon="12.3132105"><ele>5.6</ele><time>2026-04-24T15:54:34.016Z</time></trkpt><trkpt lat="45.6043288" lon="12.3130948"><ele>5.8</ele><time>2026-04-24T15:54:36.014Z</time></trkpt><trkpt lat="45.6043431" lon="12.3129542"><ele>6.0</ele><time>2026-04-24T15:54:38.018Z</time></trkpt><trkpt lat="45.6043721" lon="12.3128335"><ele>6.0</ele><time>2026-04-24T15:54:40.024Z</time></trkpt><trkpt lat="45.6043852" lon="12.3127365"><ele>6.0</ele><time>2026-04-24T15:54:42.026Z</time></trkpt><trkpt lat="45.6044071" lon="12.3126051"><ele>6.0</ele><time>2026-04-24T15:54:44.02Z</time></trkpt><trkpt lat="45.6044186" lon="12.31247"><ele>6.0</ele><time>2026-04-24T15:54:46.021Z</time></trkpt><trkpt lat="45.6044176" lon="12.3123353"><ele>6.0</ele><time>2026-04-24T15:54:48.024Z</time></trkpt><trkpt lat="45.604405" lon="12.3122194"><ele>6.0</ele><time>2026-04-24T15:54:50.023Z</time></trkpt><trkpt lat="45.6044285" lon="12.3121058"><ele>5.666666666666667</ele><time>2026-04-24T15:54:53.024Z</time></trkpt><trkpt lat="45.604422" lon="12.3119957"><ele>5.333333333333333</ele><time>2026-04-24T15:54:58.011Z</time></trkpt><trkpt lat="45.6044761" lon="12.3119392"><ele>5.0</ele><time>2026-04-24T15:55:05.022Z</time></trkpt><trkpt lat="45.6045467" lon="12.3119778"><ele>4.666666666666666</ele><time>2026-04-24T15:55:07.005Z</time></trkpt><trkpt lat="45.6046349" lon="12.3120209"><ele>4.333333333333333</ele><time>2026-04-24T15:55:09.007Z</time></trkpt><trkpt lat="45.6047214" lon="12.3120565"><ele>4.0</ele><time>2026-04-24T15:55:11.017Z</time></trkpt><trkpt lat="45.6048106" lon="12.3120955"><ele>4.0</ele><time>2026-04-24T15:55:13.017Z</time></trkpt><trkpt lat="45.6049044" lon="12.3121402"><ele>4.0</ele><time>2026-04-24T15:55:15.018Z</time></trkpt><trkpt lat="45.6049956" lon="12.3121819"><ele>4.0</ele><time>2026-04-24T15:55:17.012Z</time></trkpt><trkpt lat="45.6050865" lon="12.3122195"><ele>4.0</ele><time>2026-04-24T15:55:19.029Z</time></trkpt><trkpt lat="45.6051794" lon="12.3122621"><ele>4.0</ele><time>2026-04-24T15:55:21.017Z</time></trkpt><trkpt lat="45.6052693" lon="12.3123064"><ele>4.6</ele><time>2026-04-24T15:55:23.012Z</time></trkpt><trkpt lat="45.6053493" lon="12.3123393"><ele>5.2</ele><time>2026-04-24T15:55:25.021Z</time></trkpt><trkpt lat="45.6054426" lon="12.3123828"><ele>5.799999999999999</ele><time>2026-04-24T15:55:27.008Z</time></trkpt><trkpt lat="45.6055304" lon="12.3124244"><ele>6.3999999999999995</ele><time>2026-04-24T15:55:29.026Z</time></trkpt><trkpt lat="45.6056185" lon="12.312476"><ele>7.0</ele><time>2026-04-24T15:55:31.031Z</time></trkpt><trkpt lat="45.6057136" lon="12.3125347"><ele>7.0</ele><time>2026-04-24T15:55:33.008Z</time></trkpt><trkpt lat="45.6058064" lon="12.3125951"><ele>6.999999999999999</ele><time>2026-04-24T15:55:35.021Z</time></trkpt><trkpt lat="45.6058943" lon="12.3126568"><ele>6.999999999999999</ele><time>2026-04-24T15:55:37.028Z</time></trkpt><trkpt lat="45.6059855" lon="12.3127235"><ele>7.0</ele><time>2026-04-24T15:55:39.022Z</time></trkpt><trkpt lat="45.606071" lon="12.312783"><ele>7.0</ele><time>2026-04-24T15:55:41.022Z</time></trkpt><trkpt lat="45.6061578" lon="12.3128583"><ele>6.199999999999999</ele><time>2026-04-24T15:55:43.024Z</time></trkpt><trkpt lat="45.6062407" lon="12.3129272"><ele>5.3999999999999995</ele><time>2026-04-24T15:55:45.019Z</time></trkpt><trkpt lat="45.6063238" lon="12.3130043"><ele>4.6</ele><time>2026-04-24T15:55:47.025Z</time></trkpt><trkpt lat="45.6064082" lon="12.3130879"><ele>3.8</ele><time>2026-04-24T15:55:49.021Z</time></trkpt><trkpt lat="45.606489" lon="12.3131666"><ele>3.0</ele><time>2026-04-24T15:55:51.028Z</time></trkpt><trkpt lat="45.6065612" lon="12.3132469"><ele>3.0</ele><time>2026-04-24T15:55:53.011Z</time></trkpt><trkpt lat="45.6066337" lon="12.3133347"><ele>3.0</ele><time>2026-04-24T15:55:55.025Z</time></trkpt><trkpt lat="45.6067078" lon="12.3134271"><ele>3.0</ele><time>2026-04-24T15:55:57.031Z</time></trkpt><trkpt lat="45.6067778" lon="12.3135155"><ele>3.0</ele><time>2026-04-24T15:55:59.023Z</time></trkpt><trkpt lat="45.6068555" lon="12.313616"><ele>3.0</ele><time>2026-04-24T15:56:01.01Z</time></trkpt><trkpt lat="45.6069315" lon="12.3137253"><ele>3.0</ele><time>2026-04-24T15:56:03.009Z</time></trkpt><trkpt lat="45.6070041" lon="12.3138295"><ele>3.0</ele><time>2026-04-24T15:56:05.012Z</time></trkpt><trkpt lat="45.6070714" lon="12.3139387"><ele>3.0</ele><time>2026-04-24T15:56:07.027Z</time></trkpt><trkpt lat="45.6071254" lon="12.3140378"><ele>3.0</ele><time>2026-04-24T15:56:09.023Z</time></trkpt><trkpt lat="45.6071858" lon="12.3141423"><ele>3.0</ele><time>2026-04-24T15:56:11.012Z</time></trkpt><trkpt lat="45.6072456" lon="12.3142508"><ele>3.1666666666666665</ele><time>2026-04-24T15:56:13.011Z</time></trkpt><trkpt lat="45.6073004" lon="12.3143607"><ele>3.333333333333333</ele><time>2026-04-24T15:56:15.014Z</time></trkpt><trkpt lat="45.6073518" lon="12.3144782"><ele>3.5</ele><time>2026-04-24T15:56:17.019Z</time></trkpt><trkpt lat="45.607395" lon="12.3145826"><ele>3.6666666666666665</ele><time>2026-04-24T15:56:19.016Z</time></trkpt><trkpt lat="45.6074377" lon="12.3146775"><ele>3.833333333333333</ele><time>2026-04-24T15:56:21.016Z</time></trkpt><trkpt lat="45.6074875" lon="12.3147808"><ele>4.0</ele><time>2026-04-24T15:56:23.019Z</time></trkpt><trkpt lat="45.6075298" lon="12.3148971"><ele>4.2</ele><time>2026-04-24T15:56:25.022Z</time></trkpt><trkpt lat="45.6075667" lon="12.3150237"><ele>4.4</ele><time>2026-04-24T15:56:27.017Z</time></trkpt><trkpt lat="45.6076047" lon="12.3151496"><ele>4.6</ele><time>2026-04-24T15:56:29.035Z</time></trkpt><trkpt lat="45.6076435" lon="12.3152741"><ele>4.8</ele><time>2026-04-24T15:56:31.04Z</time></trkpt><trkpt lat="45.6076791" lon="12.3153991"><ele>5.0</ele><time>2026-04-24T15:56:33.01Z</time></trkpt><trkpt lat="45.6077158" lon="12.3155247"><ele>5.6</ele><time>2026-04-24T15:56:35.015Z</time></trkpt><trkpt lat="45.6077479" lon="12.3156565"><ele>6.2</ele><time>2026-04-24T15:56:37.018Z</time></trkpt><trkpt lat="45.6077716" lon="12.3157947"><ele>6.800000000000001</ele><time>2026-04-24T15:56:39.011Z</time></trkpt><trkpt lat="45.6077896" lon="12.3159204"><ele>7.4</ele><time>2026-04-24T15:56:41.025Z</time></trkpt><trkpt lat="45.6078016" lon="12.3160509"><ele>8.0</ele><time>2026-04-24T15:56:43.019Z</time></trkpt><trkpt lat="45.6077921" lon="12.3161836"><ele>7.999999999999999</ele><time>2026-04-24T15:56:45.018Z</time></trkpt><trkpt lat="45.6077499" lon="12.3162952"><ele>8.0</ele><time>2026-04-24T15:56:47.021Z</time></trkpt><trkpt lat="45.6076961" lon="12.3163918"><ele>8.0</ele><time>2026-04-24T15:56:49.02Z</time></trkpt><trkpt lat="45.6076705" lon="12.3165011"><ele>8.0</ele><time>2026-04-24T15:56:51.01Z</time></trkpt><trkpt lat="45.6076828" lon="12.3166198"><ele>7.999999999999999</ele><time>2026-04-24T15:56:53.005Z</time></trkpt><trkpt lat="45.6077195" lon="12.3167349"><ele>8.0</ele><time>2026-04-24T15:56:55.023Z</time></trkpt><trkpt lat="45.6077699" lon="12.3168364"><ele>7.4</ele><time>2026-04-24T15:56:57.037Z</time></trkpt><trkpt lat="45.6078444" lon="12.3169058"><ele>6.800000000000001</ele><time>2026-04-24T15:56:59.02Z</time></trkpt><trkpt lat="45.6079374" lon="12.3169355"><ele>6.2</ele><time>2026-04-24T15:57:01.016Z</time></trkpt><trkpt lat="45.6080412" lon="12.3169154"><ele>5.6</ele><time>2026-04-24T15:57:03.019Z</time></trkpt><trkpt lat="45.6081369" lon="12.3168576"><ele>5.0</ele><time>2026-04-24T15:57:05.012Z</time></trkpt><trkpt lat="45.6082183" lon="12.3167721"><ele>5.0</ele><time>2026-04-24T15:57:07.013Z</time></trkpt><trkpt lat="45.6082953" lon="12.3166681"><ele>5.0</ele><time>2026-04-24T15:57:09.023Z</time></trkpt><trkpt lat="45.6083852" lon="12.3166353"><ele>5.0</ele><time>2026-04-24T15:57:11.02Z</time></trkpt><trkpt lat="45.6084798" lon="12.3165979"><ele>5.0</ele><time>2026-04-24T15:57:13.013Z</time></trkpt><trkpt lat="45.608582" lon="12.3165669"><ele>5.0</ele><time>2026-04-24T15:57:15.02Z</time></trkpt><trkpt lat="45.6086696" lon="12.3165548"><ele>4.5</ele><time>2026-04-24T15:57:17.008Z</time></trkpt><trkpt lat="45.6087553" lon="12.3165407"><ele>4.0</ele><time>2026-04-24T15:57:19.015Z</time></trkpt><trkpt lat="45.6088396" lon="12.3165215"><ele>3.5</ele><time>2026-04-24T15:57:21.009Z</time></trkpt><trkpt lat="45.6089388" lon="12.3165015"><ele>3.0</ele><time>2026-04-24T15:57:23.017Z</time></trkpt><trkpt lat="45.6090344" lon="12.3164794"><ele>2.5</ele><time>2026-04-24T15:57:25.027Z</time></trkpt><trkpt lat="45.609113" lon="12.3164621"><ele>2.0</ele><time>2026-04-24T15:57:27.02Z</time></trkpt><trkpt lat="45.6092229" lon="12.3164302"><ele>2.0</ele><time>2026-04-24T15:57:29.022Z</time></trkpt><trkpt lat="45.6093281" lon="12.3164038"><ele>2.0</ele><time>2026-04-24T15:57:31.009Z</time></trkpt><trkpt lat="45.6094182" lon="12.3163953"><ele>2.0</ele><time>2026-04-24T15:57:33.044Z</time></trkpt><trkpt lat="45.6094937" lon="12.316375"><ele>2.0</ele><time>2026-04-24T15:57:35.017Z</time></trkpt><trkpt lat="45.6096032" lon="12.3163445"><ele>2.0</ele><time>2026-04-24T15:57:37.021Z</time></trkpt><trkpt lat="45.6097034" lon="12.3163172"><ele>2.4000000000000004</ele><time>2026-04-24T15:57:39.029Z</time></trkpt><trkpt lat="45.6097933" lon="12.3162981"><ele>2.8000000000000003</ele><time>2026-04-24T15:57:41.03Z</time></trkpt><trkpt lat="45.6098959" lon="12.31628"><ele>3.2</ele><time>2026-04-24T15:57:43.017Z</time></trkpt><trkpt lat="45.6100125" lon="12.3162679"><ele>3.6</ele><time>2026-04-24T15:57:45.026Z</time></trkpt><trkpt lat="45.6100765" lon="12.3162645"><ele>4.0</ele><time>2026-04-24T15:57:46.016Z</time></trkpt><trkpt lat="45.6101856" lon="12.3162788"><ele>4.0</ele><time>2026-04-24T15:57:48.02Z</time></trkpt><trkpt lat="45.6102835" lon="12.3162925"><ele>4.0</ele><time>2026-04-24T15:57:50.016Z</time></trkpt><trkpt lat="45.6103817" lon="12.3163157"><ele>4.0</ele><time>2026-04-24T15:57:52.016Z</time></trkpt><trkpt lat="45.6104818" lon="12.3163257"><ele>4.0</ele><time>2026-04-24T15:57:54.009Z</time></trkpt><trkpt lat="45.6105683" lon="12.3163198"><ele>4.0</ele><time>2026-04-24T15:57:56.023Z</time></trkpt><trkpt lat="45.6106601" lon="12.3162877"><ele>4.2</ele><time>2026-04-24T15:57:58.028Z</time></trkpt><trkpt lat="45.6107625" lon="12.3162001"><ele>4.4</ele><time>2026-04-24T15:58:00.03Z</time></trkpt><trkpt lat="45.610827" lon="12.3160748"><ele>4.6</ele><time>2026-04-24T15:58:02.01Z</time></trkpt><trkpt lat="45.6108923" lon="12.3159457"><ele>4.8</ele><time>2026-04-24T15:58:04.042Z</time></trkpt><trkpt lat="45.6109265" lon="12.3158024"><ele>5.0</ele><time>2026-04-24T15:58:06.01Z</time></trkpt><trkpt lat="45.6109584" lon="12.3156662"><ele>5.2</ele><time>2026-04-24T15:58:08.012Z</time></trkpt><trkpt lat="45.6110001" lon="12.3155295"><ele>5.4</ele><time>2026-04-24T15:58:10.012Z</time></trkpt><trkpt lat="45.6110341" lon="12.3153998"><ele>5.6</ele><time>2026-04-24T15:58:12.033Z</time></trkpt><trkpt lat="45.6110692" lon="12.3152819"><ele>5.8</ele><time>2026-04-24T15:58:14.026Z</time></trkpt><trkpt lat="45.6111055" lon="12.31515"><ele>6.0</ele><time>2026-04-24T15:58:16.028Z</time></trkpt><trkpt lat="45.6111381" lon="12.3150107"><ele>5.8</ele><time>2026-04-24T15:58:18.005Z</time></trkpt><trkpt lat="45.6111788" lon="12.3148744"><ele>5.6</ele><time>2026-04-24T15:58:20.014Z</time></trkpt><trkpt lat="45.611227" lon="12.3147423"><ele>5.4</ele><time>2026-04-24T15:58:22.03Z</time></trkpt><trkpt lat="45.6112803" lon="12.314629"><ele>5.2</ele><time>2026-04-24T15:58:24.012Z</time></trkpt><trkpt lat="45.6113404" lon="12.3145564"><ele>5.0</ele><time>2026-04-24T15:58:26.044Z</time></trkpt><trkpt lat="45.6114285" lon="12.3144892"><ele>5.0</ele><time>2026-04-24T15:58:28.014Z</time></trkpt><trkpt lat="45.6115039" lon="12.3144641"><ele>5.0</ele><time>2026-04-24T15:58:30.02Z</time></trkpt><trkpt lat="45.6116012" lon="12.3144646"><ele>5.0</ele><time>2026-04-24T15:58:32.017Z</time></trkpt><trkpt lat="45.6117042" lon="12.31447"><ele>5.0</ele><time>2026-04-24T15:58:34.043Z</time></trkpt><trkpt lat="45.6118074" lon="12.3144757"><ele>5.0</ele><time>2026-04-24T15:58:36.023Z</time></trkpt><trkpt lat="45.6119105" lon="12.3144866"><ele>5.2</ele><time>2026-04-24T15:58:38.009Z</time></trkpt><trkpt lat="45.6120181" lon="12.3144881"><ele>5.4</ele><time>2026-04-24T15:58:40.028Z</time></trkpt><trkpt lat="45.6121133" lon="12.3144889"><ele>5.6</ele><time>2026-04-24T15:58:42.039Z</time></trkpt><trkpt lat="45.6122141" lon="12.3144926"><ele>5.8</ele><time>2026-04-24T15:58:44.033Z</time></trkpt><trkpt lat="45.612304" lon="12.3144939"><ele>6.0</ele><time>2026-04-24T15:58:46.023Z</time></trkpt><trkpt lat="45.6123998" lon="12.31446"><ele>6.0</ele><time>2026-04-24T15:58:48.02Z</time></trkpt><trkpt lat="45.6124725" lon="12.3143804"><ele>6.0</ele><time>2026-04-24T15:58:50.016Z</time></trkpt><trkpt lat="45.6125509" lon="12.314294"><ele>6.0</ele><time>2026-04-24T15:58:52.013Z</time></trkpt><trkpt lat="45.612628" lon="12.3142409"><ele>6.0</ele><time>2026-04-24T15:58:54.016Z</time></trkpt><trkpt lat="45.6127153" lon="12.3142076"><ele>6.0</ele><time>2026-04-24T15:58:56.023Z</time></trkpt><trkpt lat="45.6128252" lon="12.3142139"><ele>5.6</ele><time>2026-04-24T15:58:58.035Z</time></trkpt><trkpt lat="45.6129323" lon="12.3142393"><ele>5.199999999999999</ele><time>2026-04-24T15:59:00.01Z</time></trkpt><trkpt lat="45.6130486" lon="12.314265"><ele>4.800000000000001</ele><time>2026-04-24T15:59:02.029Z</time></trkpt><trkpt lat="45.6131593" lon="12.3142935"><ele>4.4</ele><time>2026-04-24T15:59:04.027Z</time></trkpt><trkpt lat="45.6132646" lon="12.3142974"><ele>4.0</ele><time>2026-04-24T15:59:06.024Z</time></trkpt><trkpt lat="45.6133583" lon="12.3142659"><ele>4.0</ele><time>2026-04-24T15:59:08.03Z</time></trkpt><trkpt lat="45.6134247" lon="12.3141847"><ele>4.0</ele><time>2026-04-24T15:59:10.019Z</time></trkpt><trkpt lat="45.6134701" lon="12.3140836"><ele>4.0</ele><time>2026-04-24T15:59:12.024Z</time></trkpt><trkpt lat="45.6134974" lon="12.3139487"><ele>4.0</ele><time>2026-04-24T15:59:14.015Z</time></trkpt><trkpt lat="45.6135183" lon="12.3138102"><ele>4.0</ele><time>2026-04-24T15:59:16.023Z</time></trkpt><trkpt lat="45.613541" lon="12.3136804"><ele>4.0</ele><time>2026-04-24T15:59:18.009Z</time></trkpt><trkpt lat="45.6135591" lon="12.3135462"><ele>4.0</ele><time>2026-04-24T15:59:20.028Z</time></trkpt><trkpt lat="45.6135711" lon="12.3133966"><ele>4.0</ele><time>2026-04-24T15:59:22.03Z</time></trkpt><trkpt lat="45.6135791" lon="12.3132549"><ele>4.0</ele><time>2026-04-24T15:59:24.027Z</time></trkpt><trkpt lat="45.6135873" lon="12.3131131"><ele>4.0</ele><time>2026-04-24T15:59:26.025Z</time></trkpt><trkpt lat="45.6135893" lon="12.3129703"><ele>4.0</ele><time>2026-04-24T15:59:28.005Z</time></trkpt><trkpt lat="45.6135882" lon="12.312828"><ele>4.0</ele><time>2026-04-24T15:59:30.018Z</time></trkpt><trkpt lat="45.6135816" lon="12.3126845"><ele>4.0</ele><time>2026-04-24T15:59:32.008Z</time></trkpt><trkpt lat="45.6135732" lon="12.3125449"><ele>4.0</ele><time>2026-04-24T15:59:34.009Z</time></trkpt><trkpt lat="45.613582" lon="12.3124072"><ele>4.0</ele><time>2026-04-24T15:59:36.016Z</time></trkpt><trkpt lat="45.6135805" lon="12.3122674"><ele>4.0</ele><time>2026-04-24T15:59:38.006Z</time></trkpt><trkpt lat="45.6135918" lon="12.3121281"><ele>4.0</ele><time>2026-04-24T15:59:40.01Z</time></trkpt><trkpt lat="45.613637" lon="12.3120002"><ele>4.0</ele><time>2026-04-24T15:59:42.009Z</time></trkpt><trkpt lat="45.6137125" lon="12.3119168"><ele>4.0</ele><time>2026-04-24T15:59:44.062Z</time></trkpt><trkpt lat="45.6138204" lon="12.3118788"><ele>4.0</ele><time>2026-04-24T15:59:46.026Z</time></trkpt><trkpt lat="45.6139258" lon="12.3118748"><ele>4.0</ele><time>2026-04-24T15:59:48.009Z</time></trkpt><trkpt lat="45.6140284" lon="12.3118756"><ele>4.0</ele><time>2026-04-24T15:59:50.04Z</time></trkpt><trkpt lat="45.6141303" lon="12.3118776"><ele>4.0</ele><time>2026-04-24T15:59:52.014Z</time></trkpt><trkpt lat="45.614235" lon="12.3118768"><ele>4.0</ele><time>2026-04-24T15:59:54.013Z</time></trkpt><trkpt lat="45.6143377" lon="12.3118764"><ele>4.0</ele><time>2026-04-24T15:59:56.01Z</time></trkpt><trkpt lat="45.6144408" lon="12.3118764"><ele>3.8000000000000003</ele><time>2026-04-24T15:59:58.009Z</time></trkpt><trkpt lat="45.6145426" lon="12.3118721"><ele>3.6000000000000005</ele><time>2026-04-24T16:00:00.03Z</time></trkpt><trkpt lat="45.6146461" lon="12.311865"><ele>3.4</ele><time>2026-04-24T16:00:02.032Z</time></trkpt><trkpt lat="45.6147465" lon="12.3118419"><ele>3.2</ele><time>2026-04-24T16:00:04.022Z</time></trkpt><trkpt lat="45.6148473" lon="12.3118103"><ele>3.0</ele><time>2026-04-24T16:00:06.012Z</time></trkpt><trkpt lat="45.6149495" lon="12.3117879"><ele>3.0</ele><time>2026-04-24T16:00:08.014Z</time></trkpt><trkpt lat="45.6150477" lon="12.3117756"><ele>3.0</ele><time>2026-04-24T16:00:10.01Z</time></trkpt><trkpt lat="45.6151501" lon="12.3117675"><ele>3.0</ele><time>2026-04-24T16:00:12.012Z</time></trkpt><trkpt lat="45.6152518" lon="12.3117631"><ele>3.0</ele><time>2026-04-24T16:00:14.033Z</time></trkpt><trkpt lat="45.6153457" lon="12.3117535"><ele>3.0</ele><time>2026-04-24T16:00:16.009Z</time></trkpt><trkpt lat="45.6154412" lon="12.3117422"><ele>3.2</ele><time>2026-04-24T16:00:18.01Z</time></trkpt><trkpt lat="45.6155423" lon="12.3117324"><ele>3.4</ele><time>2026-04-24T16:00:20.008Z</time></trkpt><trkpt lat="45.6156507" lon="12.311731"><ele>3.6000000000000005</ele><time>2026-04-24T16:00:22.025Z</time></trkpt><trkpt lat="45.6157536" lon="12.3117262"><ele>3.8000000000000003</ele><time>2026-04-24T16:00:24.03Z</time></trkpt><trkpt lat="45.6158545" lon="12.3117199"><ele>4.0</ele><time>2026-04-24T16:00:26.015Z</time></trkpt><trkpt lat="45.615957" lon="12.3117148"><ele>4.0</ele><time>2026-04-24T16:00:28.012Z</time></trkpt><trkpt lat="45.6160678" lon="12.3117173"><ele>4.0</ele><time>2026-04-24T16:00:30.012Z</time></trkpt><trkpt lat="45.6161715" lon="12.3117151"><ele>4.0</ele><time>2026-04-24T16:00:32.029Z</time></trkpt><trkpt lat="45.6162768" lon="12.3117144"><ele>4.0</ele><time>2026-04-24T16:00:34.041Z</time></trkpt><trkpt lat="45.6163746" lon="12.3117124"><ele>4.0</ele><time>2026-04-24T16:00:36.034Z</time></trkpt><trkpt lat="45.616473" lon="12.3117095"><ele>4.6</ele><time>2026-04-24T16:00:38.023Z</time></trkpt><trkpt lat="45.6165648" lon="12.3117048"><ele>5.2</ele><time>2026-04-24T16:00:40.009Z</time></trkpt><trkpt lat="45.6166648" lon="12.3116968"><ele>5.799999999999999</ele><time>2026-04-24T16:00:42.016Z</time></trkpt><trkpt lat="45.6167559" lon="12.3116918"><ele>6.3999999999999995</ele><time>2026-04-24T16:00:44.032Z</time></trkpt><trkpt lat="45.6168564" lon="12.3117035"><ele>7.0</ele><time>2026-04-24T16:00:46.012Z</time></trkpt><trkpt lat="45.6169572" lon="12.3117165"><ele>6.3999999999999995</ele><time>2026-04-24T16:00:48.01Z</time></trkpt><trkpt lat="45.6170452" lon="12.3117216"><ele>5.799999999999999</ele><time>2026-04-24T16:00:50.019Z</time></trkpt><trkpt lat="45.6171344" lon="12.3117317"><ele>5.2</ele><time>2026-04-24T16:00:52.012Z</time></trkpt><trkpt lat="45.6172439" lon="12.3117528"><ele>4.6</ele><time>2026-04-24T16:00:54.049Z</time></trkpt><trkpt lat="45.617351" lon="12.311772"><ele>4.0</ele><time>2026-04-24T16:00:56.037Z</time></trkpt><trkpt lat="45.6174732" lon="12.3117918"><ele>4.0</ele><time>2026-04-24T16:00:58.014Z</time></trkpt><trkpt lat="45.6175917" lon="12.3117987"><ele>4.0</ele><time>2026-04-24T16:01:00.046Z</time></trkpt><trkpt lat="45.6177096" lon="12.3118047"><ele>4.0</ele><time>2026-04-24T16:01:02.033Z</time></trkpt><trkpt lat="45.6178183" lon="12.3118095"><ele>4.0</ele><time>2026-04-24T16:01:04.017Z</time></trkpt><trkpt lat="45.6179268" lon="12.3118146"><ele>4.6</ele><time>2026-04-24T16:01:06.013Z</time></trkpt><trkpt lat="45.6180317" lon="12.3118228"><ele>5.2</ele><time>2026-04-24T16:01:08.01Z</time></trkpt><trkpt lat="45.6181374" lon="12.3118378"><ele>5.799999999999999</ele><time>2026-04-24T16:01:10.02Z</time></trkpt><trkpt lat="45.6182424" lon="12.3118574"><ele>6.3999999999999995</ele><time>2026-04-24T16:01:12.023Z</time></trkpt><trkpt lat="45.6183502" lon="12.3118816"><ele>7.0</ele><time>2026-04-24T16:01:14.019Z</time></trkpt><trkpt lat="45.6184543" lon="12.3119012"><ele>7.0</ele><time>2026-04-24T16:01:16.013Z</time></trkpt><trkpt lat="45.6185585" lon="12.3119141"><ele>6.999999999999999</ele><time>2026-04-24T16:01:18.012Z</time></trkpt><trkpt lat="45.6186578" lon="12.3119251"><ele>6.999999999999999</ele><time>2026-04-24T16:01:20.016Z</time></trkpt><trkpt lat="45.618762" lon="12.3119319"><ele>7.0</ele><time>2026-04-24T16:01:21.999Z</time></trkpt><trkpt lat="45.6188665" lon="12.3119326"><ele>7.0</ele><time>2026-04-24T16:01:24.008Z</time></trkpt><trkpt lat="45.6189788" lon="12.3119287"><ele>6.8</ele><time>2026-04-24T16:01:26.018Z</time></trkpt><trkpt lat="45.6190763" lon="12.3119264"><ele>6.6</ele><time>2026-04-24T16:01:28.012Z</time></trkpt><trkpt lat="45.6191745" lon="12.3119021"><ele>6.3999999999999995</ele><time>2026-04-24T16:01:30.024Z</time></trkpt><trkpt lat="45.6192831" lon="12.311866"><ele>6.199999999999999</ele><time>2026-04-24T16:01:32.038Z</time></trkpt><trkpt lat="45.6193518" lon="12.3118505"><ele>6.0</ele><time>2026-04-24T16:01:33.013Z</time></trkpt><trkpt lat="45.6194583" lon="12.3118246"><ele>5.8</ele><time>2026-04-24T16:01:35.023Z</time></trkpt><trkpt lat="45.6195622" lon="12.3117963"><ele>5.6</ele><time>2026-04-24T16:01:37.026Z</time></trkpt><trkpt lat="45.6196629" lon="12.3117786"><ele>5.4</ele><time>2026-04-24T16:01:39.016Z</time></trkpt><trkpt lat="45.619752" lon="12.3117588"><ele>5.2</ele><time>2026-04-24T16:01:41.017Z</time></trkpt><trkpt lat="45.6198448" lon="12.3117295"><ele>5.0</ele><time>2026-04-24T16:01:43.011Z</time></trkpt><trkpt lat="45.6199449" lon="12.3116991"><ele>5.0</ele><time>2026-04-24T16:01:45.018Z</time></trkpt><trkpt lat="45.6200464" lon="12.3116574"><ele>5.0</ele><time>2026-04-24T16:01:47.02Z</time></trkpt><trkpt lat="45.6201499" lon="12.3116147"><ele>5.0</ele><time>2026-04-24T16:01:49.021Z</time></trkpt><trkpt lat="45.6202607" lon="12.3115736"><ele>5.0</ele><time>2026-04-24T16:01:51.01Z</time></trkpt><trkpt lat="45.6203578" lon="12.3115332"><ele>5.0</ele><time>2026-04-24T16:01:53.01Z</time></trkpt><trkpt lat="45.6204548" lon="12.311484"><ele>5.4</ele><time>2026-04-24T16:01:55.009Z</time></trkpt><trkpt lat="45.6205516" lon="12.3114401"><ele>5.8</ele><time>2026-04-24T16:01:57.013Z</time></trkpt><trkpt lat="45.6206515" lon="12.3113947"><ele>6.199999999999999</ele><time>2026-04-24T16:01:59.024Z</time></trkpt><trkpt lat="45.6207521" lon="12.3113457"><ele>6.6</ele><time>2026-04-24T16:02:01.013Z</time></trkpt><trkpt lat="45.6208496" lon="12.3112939"><ele>7.0</ele><time>2026-04-24T16:02:03.013Z</time></trkpt><trkpt lat="45.6209491" lon="12.3112458"><ele>7.0</ele><time>2026-04-24T16:02:05.025Z</time></trkpt><trkpt lat="45.6210481" lon="12.3112028"><ele>6.999999999999999</ele><time>2026-04-24T16:02:07.019Z</time></trkpt><trkpt lat="45.6211516" lon="12.3111591"><ele>6.999999999999999</ele><time>2026-04-24T16:02:09.023Z</time></trkpt><trkpt lat="45.6212546" lon="12.3111128"><ele>7.0</ele><time>2026-04-24T16:02:11.03Z</time></trkpt><trkpt lat="45.6213562" lon="12.3110664"><ele>7.0</ele><time>2026-04-24T16:02:13.015Z</time></trkpt><trkpt lat="45.6214503" lon="12.3110192"><ele>7.000000000000001</ele><time>2026-04-24T16:02:15.016Z</time></trkpt><trkpt lat="45.6215273" lon="12.3109832"><ele>7.0</ele><time>2026-04-24T16:02:17.019Z</time></trkpt><trkpt lat="45.6215979" lon="12.3109488"><ele>7.0</ele><time>2026-04-24T16:02:30.024Z</time></trkpt><trkpt lat="45.6216746" lon="12.3109022"><ele>7.0</ele><time>2026-04-24T16:02:33.032Z</time></trkpt><trkpt lat="45.6217502" lon="12.3108359"><ele>7.000000000000001</ele><time>2026-04-24T16:02:36.008Z</time></trkpt><trkpt lat="45.6218187" lon="12.310777"><ele>7.0</ele><time>2026-04-24T16:02:38.027Z</time></trkpt><trkpt lat="45.6219071" lon="12.3107296"><ele>6.8</ele><time>2026-04-24T16:02:40.016Z</time></trkpt><trkpt lat="45.6220007" lon="12.3106766"><ele>6.6</ele><time>2026-04-24T16:02:42.031Z</time></trkpt><trkpt lat="45.6220983" lon="12.3106158"><ele>6.3999999999999995</ele><time>2026-04-24T16:02:44.043Z</time></trkpt><trkpt lat="45.6221901" lon="12.3105465"><ele>6.199999999999999</ele><time>2026-04-24T16:02:46.019Z</time></trkpt><trkpt lat="45.6222821" lon="12.3104764"><ele>6.0</ele><time>2026-04-24T16:02:48.006Z</time></trkpt><trkpt lat="45.6223748" lon="12.310404"><ele>6.0</ele><time>2026-04-24T16:02:50.019Z</time></trkpt><trkpt lat="45.6224666" lon="12.3103222"><ele>6.0</ele><time>2026-04-24T16:02:52.011Z</time></trkpt><trkpt lat="45.6225512" lon="12.3102375"><ele>6.0</ele><time>2026-04-24T16:02:54.012Z</time></trkpt><trkpt lat="45.6226386" lon="12.3101561"><ele>6.0</ele><time>2026-04-24T16:02:56.009Z</time></trkpt><trkpt lat="45.6227269" lon="12.3100732"><ele>6.0</ele><time>2026-04-24T16:02:58.013Z</time></trkpt><trkpt lat="45.6228168" lon="12.3099954"><ele>5.8</ele><time>2026-04-24T16:03:00.008Z</time></trkpt><trkpt lat="45.6229027" lon="12.3099134"><ele>5.6</ele><time>2026-04-24T16:03:02.024Z</time></trkpt><trkpt lat="45.622991" lon="12.3098396"><ele>5.4</ele><time>2026-04-24T16:03:04.022Z</time></trkpt><trkpt lat="45.6230851" lon="12.3097722"><ele>5.2</ele><time>2026-04-24T16:03:06.016Z</time></trkpt><trkpt lat="45.6231795" lon="12.3097083"><ele>5.0</ele><time>2026-04-24T16:03:08.017Z</time></trkpt><trkpt lat="45.6232749" lon="12.3096459"><ele>5.2</ele><time>2026-04-24T16:03:10.027Z</time></trkpt><trkpt lat="45.623368" lon="12.3096003"><ele>5.4</ele><time>2026-04-24T16:03:12.024Z</time></trkpt><trkpt lat="45.6234519" lon="12.3095607"><ele>5.6</ele><time>2026-04-24T16:03:14.023Z</time></trkpt><trkpt lat="45.6235632" lon="12.3095277"><ele>5.8</ele><time>2026-04-24T16:03:16.015Z</time></trkpt><trkpt lat="45.6236717" lon="12.3094988"><ele>6.0</ele><time>2026-04-24T16:03:18.016Z</time></trkpt><trkpt lat="45.6237747" lon="12.3094882"><ele>6.0</ele><time>2026-04-24T16:03:20.022Z</time></trkpt><trkpt lat="45.6238774" lon="12.3094871"><ele>6.0</ele><time>2026-04-24T16:03:22.006Z</time></trkpt><trkpt lat="45.6239839" lon="12.3094776"><ele>6.0</ele><time>2026-04-24T16:03:24.024Z</time></trkpt><trkpt lat="45.6240785" lon="12.3094766"><ele>6.0</ele><time>2026-04-24T16:03:26.025Z</time></trkpt><trkpt lat="45.6241824" lon="12.3094848"><ele>6.0</ele><time>2026-04-24T16:03:28.012Z</time></trkpt><trkpt lat="45.6242872" lon="12.3095029"><ele>6.0</ele><time>2026-04-24T16:03:30.03Z</time></trkpt><trkpt lat="45.6243793" lon="12.3095512"><ele>6.0</ele><time>2026-04-24T16:03:32.027Z</time></trkpt><trkpt lat="45.6244589" lon="12.3096324"><ele>6.0</ele><time>2026-04-24T16:03:34.019Z</time></trkpt><trkpt lat="45.6245491" lon="12.3097238"><ele>6.0</ele><time>2026-04-24T16:03:36.007Z</time></trkpt><trkpt lat="45.6246373" lon="12.3098206"><ele>6.0</ele><time>2026-04-24T16:03:38.02Z</time></trkpt><trkpt lat="45.6247183" lon="12.3099091"><ele>5.6</ele><time>2026-04-24T16:03:40.029Z</time></trkpt><trkpt lat="45.624793" lon="12.3100024"><ele>5.199999999999999</ele><time>2026-04-24T16:03:42.029Z</time></trkpt><trkpt lat="45.624872" lon="12.3100928"><ele>4.800000000000001</ele><time>2026-04-24T16:03:44.039Z</time></trkpt><trkpt lat="45.6249596" lon="12.3101856"><ele>4.4</ele><time>2026-04-24T16:03:46.021Z</time></trkpt><trkpt lat="45.6250488" lon="12.3102814"><ele>4.0</ele><time>2026-04-24T16:03:48.011Z</time></trkpt><trkpt lat="45.6251284" lon="12.310376"><ele>4.0</ele><time>2026-04-24T16:03:50.034Z</time></trkpt><trkpt lat="45.6252156" lon="12.3104697"><ele>4.0</ele><time>2026-04-24T16:03:52.02Z</time></trkpt><trkpt lat="45.6252962" lon="12.3105675"><ele>4.0</ele><time>2026-04-24T16:03:54.031Z</time></trkpt><trkpt lat="45.6253767" lon="12.3106528"><ele>4.0</ele><time>2026-04-24T16:03:56.015Z</time></trkpt><trkpt lat="45.6254604" lon="12.3107454"><ele>4.0</ele><time>2026-04-24T16:03:58.018Z</time></trkpt><trkpt lat="45.6255474" lon="12.3108213"><ele>3.6</ele><time>2026-04-24T16:04:00.033Z</time></trkpt><trkpt lat="45.6256443" lon="12.3108767"><ele>3.2</ele><time>2026-04-24T16:04:02.03Z</time></trkpt><trkpt lat="45.6257467" lon="12.3109185"><ele>2.8000000000000003</ele><time>2026-04-24T16:04:04.02Z</time></trkpt><trkpt lat="45.6258534" lon="12.3109368"><ele>2.4000000000000004</ele><time>2026-04-24T16:04:06.024Z</time></trkpt><trkpt lat="45.625961" lon="12.310936"><ele>2.0</ele><time>2026-04-24T16:04:08.034Z</time></trkpt><trkpt lat="45.6260713" lon="12.3109183"><ele>2.0</ele><time>2026-04-24T16:04:10.015Z</time></trkpt><trkpt lat="45.6261775" lon="12.3108884"><ele>2.0</ele><time>2026-04-24T16:04:12.023Z</time></trkpt><trkpt lat="45.626287" lon="12.3108603"><ele>2.0</ele><time>2026-04-24T16:04:14.022Z</time></trkpt><trkpt lat="45.6263902" lon="12.310812"><ele>2.0</ele><time>2026-04-24T16:04:16.018Z</time></trkpt><trkpt lat="45.6264772" lon="12.3107709"><ele>2.0</ele><time>2026-04-24T16:04:18.014Z</time></trkpt><trkpt lat="45.6265621" lon="12.310722"><ele>2.0</ele><time>2026-04-24T16:04:20.006Z</time></trkpt><trkpt lat="45.6266558" lon="12.31067"><ele>2.0</ele><time>2026-04-24T16:04:22.024Z</time></trkpt><trkpt lat="45.6267608" lon="12.3106157"><ele>2.0</ele><time>2026-04-24T16:04:24.018Z</time></trkpt><trkpt lat="45.626863" lon="12.3105595"><ele>2.0</ele><time>2026-04-24T16:04:26.025Z</time></trkpt><trkpt lat="45.6269607" lon="12.3105022"><ele>2.0</ele><time>2026-04-24T16:04:28.025Z</time></trkpt><trkpt lat="45.6270621" lon="12.3104328"><ele>2.4000000000000004</ele><time>2026-04-24T16:04:30.026Z</time></trkpt><trkpt lat="45.6271628" lon="12.3103494"><ele>2.8000000000000003</ele><time>2026-04-24T16:04:32.024Z</time></trkpt><trkpt lat="45.6272601" lon="12.3102674"><ele>3.2</ele><time>2026-04-24T16:04:34.03Z</time></trkpt><trkpt lat="45.6273518" lon="12.3101915"><ele>3.6</ele><time>2026-04-24T16:04:36.018Z</time></trkpt><trkpt lat="45.6274515" lon="12.3101419"><ele>4.0</ele><time>2026-04-24T16:04:38.024Z</time></trkpt><trkpt lat="45.6275415" lon="12.3101325"><ele>4.0</ele><time>2026-04-24T16:04:40.024Z</time></trkpt><trkpt lat="45.6276474" lon="12.310151"><ele>4.0</ele><time>2026-04-24T16:04:42.004Z</time></trkpt><trkpt lat="45.6277533" lon="12.3101809"><ele>4.0</ele><time>2026-04-24T16:04:44.028Z</time></trkpt><trkpt lat="45.6278591" lon="12.3102155"><ele>4.0</ele><time>2026-04-24T16:04:46.021Z</time></trkpt><trkpt lat="45.6279636" lon="12.3102463"><ele>4.0</ele><time>2026-04-24T16:04:48.019Z</time></trkpt><trkpt lat="45.6280678" lon="12.3102783"><ele>4.2</ele><time>2026-04-24T16:04:50.035Z</time></trkpt><trkpt lat="45.6281674" lon="12.310317"><ele>4.4</ele><time>2026-04-24T16:04:52.014Z</time></trkpt><trkpt lat="45.6282591" lon="12.3103851"><ele>4.6</ele><time>2026-04-24T16:04:54.013Z</time></trkpt><trkpt lat="45.628334" lon="12.3104829"><ele>4.8</ele><time>2026-04-24T16:04:56.016Z</time></trkpt><trkpt lat="45.6283957" lon="12.3105792"><ele>5.0</ele><time>2026-04-24T16:04:58.027Z</time></trkpt><trkpt lat="45.6284547" lon="12.3106903"><ele>5.0</ele><time>2026-04-24T16:05:00.033Z</time></trkpt><trkpt lat="45.6285082" lon="12.310815"><ele>5.0</ele><time>2026-04-24T16:05:02.01Z</time></trkpt><trkpt lat="45.6285631" lon="12.3109454"><ele>5.0</ele><time>2026-04-24T16:05:04.006Z</time></trkpt><trkpt lat="45.6286166" lon="12.311064"><ele>5.0</ele><time>2026-04-24T16:05:06.01Z</time></trkpt><trkpt lat="45.6286754" lon="12.3111851"><ele>5.0</ele><time>2026-04-24T16:05:08.013Z</time></trkpt><trkpt lat="45.6287283" lon="12.3113129"><ele>5.2</ele><time>2026-04-24T16:05:10.007Z</time></trkpt><trkpt lat="45.6287712" lon="12.311449"><ele>5.4</ele><time>2026-04-24T16:05:12.046Z</time></trkpt><trkpt lat="45.6288221" lon="12.3115972"><ele>5.6</ele><time>2026-04-24T16:05:14.016Z</time></trkpt><trkpt lat="45.6288536" lon="12.3117511"><ele>5.8</ele><time>2026-04-24T16:05:16.026Z</time></trkpt><trkpt lat="45.6288855" lon="12.311892"><ele>6.0</ele><time>2026-04-24T16:05:18.006Z</time></trkpt><trkpt lat="45.6289177" lon="12.3120338"><ele>6.0</ele><time>2026-04-24T16:05:20.014Z</time></trkpt><trkpt lat="45.6289584" lon="12.3121704"><ele>6.0</ele><time>2026-04-24T16:05:22.03Z</time></trkpt><trkpt lat="45.6290116" lon="12.3122927"><ele>6.0</ele><time>2026-04-24T16:05:24.037Z</time></trkpt><trkpt lat="45.629083" lon="12.3124012"><ele>6.0</ele><time>2026-04-24T16:05:26.013Z</time></trkpt><trkpt lat="45.6291571" lon="12.3124808"><ele>6.0</ele><time>2026-04-24T16:05:28.021Z</time></trkpt><trkpt lat="45.6292366" lon="12.3125753"><ele>6.0</ele><time>2026-04-24T16:05:30.007Z</time></trkpt><trkpt lat="45.6293105" lon="12.3126586"><ele>6.0</ele><time>2026-04-24T16:05:32.017Z</time></trkpt><trkpt lat="45.6293696" lon="12.3127225"><ele>6.0</ele><time>2026-04-24T16:05:34.017Z</time></trkpt><trkpt lat="45.6294382" lon="12.3127165"><ele>6.0</ele><time>2026-04-24T16:05:40.01Z</time></trkpt><trkpt lat="45.6294748" lon="12.3126403"><ele>6.0</ele><time>2026-04-24T16:05:46.015Z</time></trkpt><trkpt lat="45.6295535" lon="12.3126297"><ele>6.0</ele><time>2026-04-24T16:06:11.016Z</time></trkpt><trkpt lat="45.6296304" lon="12.3126811"><ele>6.0</ele><time>2026-04-24T16:06:13.017Z</time></trkpt><trkpt lat="45.6297249" lon="12.3127714"><ele>6.0</ele><time>2026-04-24T16:06:15.022Z</time></trkpt><trkpt lat="45.6297984" lon="12.3128773"><ele>6.0</ele><time>2026-04-24T16:06:17.019Z</time></trkpt><trkpt lat="45.6298896" lon="12.3129552"><ele>6.0</ele><time>2026-04-24T16:06:19.029Z</time></trkpt><trkpt lat="45.6299714" lon="12.3130074"><ele>6.0</ele><time>2026-04-24T16:06:21.013Z</time></trkpt><trkpt lat="45.6300347" lon="12.3129522"><ele>6.0</ele><time>2026-04-24T16:06:23.013Z</time></trkpt><trkpt lat="45.6301223" lon="12.3129139"><ele>6.0</ele><time>2026-04-24T16:06:26.017Z</time></trkpt><trkpt lat="45.6302112" lon="12.3130015"><ele>6.0</ele><time>2026-04-24T16:06:28.01Z</time></trkpt><trkpt lat="45.6302996" lon="12.3131009"><ele>6.0</ele><time>2026-04-24T16:06:30.024Z</time></trkpt><trkpt lat="45.6303789" lon="12.3131929"><ele>6.0</ele><time>2026-04-24T16:06:32.023Z</time></trkpt><trkpt lat="45.6304535" lon="12.3132752"><ele>5.3999999999999995</ele><time>2026-04-24T16:06:34.029Z</time></trkpt><trkpt lat="45.6305364" lon="12.3133984"><ele>4.8</ele><time>2026-04-24T16:06:36.005Z</time></trkpt><trkpt lat="45.6305996" lon="12.3134992"><ele>4.199999999999999</ele><time>2026-04-24T16:06:38.015Z</time></trkpt><trkpt lat="45.6306737" lon="12.3136008"><ele>3.5999999999999996</ele><time>2026-04-24T16:06:40.023Z</time></trkpt><trkpt lat="45.6307515" lon="12.3137156"><ele>3.0</ele><time>2026-04-24T16:06:42.027Z</time></trkpt><trkpt lat="45.6308217" lon="12.3138111"><ele>3.0</ele><time>2026-04-24T16:06:44.029Z</time></trkpt><trkpt lat="45.6308939" lon="12.3139166"><ele>3.0</ele><time>2026-04-24T16:06:46.042Z</time></trkpt><trkpt lat="45.6309654" lon="12.3140269"><ele>3.0</ele><time>2026-04-24T16:06:48.028Z</time></trkpt><trkpt lat="45.6310562" lon="12.3141023"><ele>3.0</ele><time>2026-04-24T16:06:50.028Z</time></trkpt><trkpt lat="45.6311517" lon="12.3140963"><ele>3.0</ele><time>2026-04-24T16:06:52.009Z</time></trkpt><trkpt lat="45.6312105" lon="12.3140552"><ele>3.2</ele><time>2026-04-24T16:06:53.031Z</time></trkpt><trkpt lat="45.6312681" lon="12.3140001"><ele>3.4</ele><time>2026-04-24T16:06:54.024Z</time></trkpt><trkpt lat="45.6313485" lon="12.313871"><ele>3.6000000000000005</ele><time>2026-04-24T16:06:56.026Z</time></trkpt><trkpt lat="45.6314119" lon="12.3137522"><ele>3.8000000000000003</ele><time>2026-04-24T16:06:58.02Z</time></trkpt><trkpt lat="45.6314741" lon="12.3136363"><ele>4.0</ele><time>2026-04-24T16:07:00.013Z</time></trkpt><trkpt lat="45.6315393" lon="12.3135335"><ele>4.0</ele><time>2026-04-24T16:07:02.024Z</time></trkpt><trkpt lat="45.6316082" lon="12.3134334"><ele>4.0</ele><time>2026-04-24T16:07:04.021Z</time></trkpt><trkpt lat="45.631674" lon="12.3133291"><ele>4.0</ele><time>2026-04-24T16:07:06.015Z</time></trkpt><trkpt lat="45.6317387" lon="12.3132174"><ele>4.0</ele><time>2026-04-24T16:07:08.018Z</time></trkpt><trkpt lat="45.631805" lon="12.3131381"><ele>4.0</ele><time>2026-04-24T16:07:10.03Z</time></trkpt><trkpt lat="45.6318709" lon="12.3130912"><ele>4.0</ele><time>2026-04-24T16:07:12.033Z</time></trkpt><trkpt lat="45.6319496" lon="12.3130903"><ele>4.0</ele><time>2026-04-24T16:07:14.022Z</time></trkpt><trkpt lat="45.632033" lon="12.3131928"><ele>4.0</ele><time>2026-04-24T16:07:16.014Z</time></trkpt><trkpt lat="45.6321194" lon="12.3133196"><ele>4.0</ele><time>2026-04-24T16:07:18.009Z</time></trkpt><trkpt lat="45.6321973" lon="12.3134284"><ele>4.0</ele><time>2026-04-24T16:07:20.008Z</time></trkpt><trkpt lat="45.632285" lon="12.3135148"><ele>3.8000000000000003</ele><time>2026-04-24T16:07:22.01Z</time></trkpt><trkpt lat="45.6323565" lon="12.3136062"><ele>3.6000000000000005</ele><time>2026-04-24T16:07:24.025Z</time></trkpt><trkpt lat="45.6324364" lon="12.3137096"><ele>3.4</ele><time>2026-04-24T16:07:26.007Z</time></trkpt><trkpt lat="45.632516" lon="12.3138027"><ele>3.2</ele><time>2026-04-24T16:07:28.011Z</time></trkpt><trkpt lat="45.6325916" lon="12.3138867"><ele>3.0</ele><time>2026-04-24T16:07:30.014Z</time></trkpt><trkpt lat="45.632674" lon="12.3139885"><ele>3.0</ele><time>2026-04-24T16:07:32.027Z</time></trkpt><trkpt lat="45.6327547" lon="12.3140926"><ele>3.0</ele><time>2026-04-24T16:07:34.009Z</time></trkpt><trkpt lat="45.6328291" lon="12.314195"><ele>3.0</ele><time>2026-04-24T16:07:36.017Z</time></trkpt><trkpt lat="45.6329204" lon="12.314302"><ele>3.0</ele><time>2026-04-24T16:07:38.014Z</time></trkpt><trkpt lat="45.6329913" lon="12.3143984"><ele>3.0</ele><time>2026-04-24T16:07:40.019Z</time></trkpt><trkpt lat="45.633074" lon="12.3145054"><ele>3.2</ele><time>2026-04-24T16:07:42.005Z</time></trkpt><trkpt lat="45.6331545" lon="12.3145907"><ele>3.4</ele><time>2026-04-24T16:07:44.021Z</time></trkpt><trkpt lat="45.6332383" lon="12.3146781"><ele>3.6000000000000005</ele><time>2026-04-24T16:07:46.025Z</time></trkpt><trkpt lat="45.6333201" lon="12.3147712"><ele>3.8000000000000003</ele><time>2026-04-24T16:07:48.013Z</time></trkpt><trkpt lat="45.6334028" lon="12.3148786"><ele>4.0</ele><time>2026-04-24T16:07:50.009Z</time></trkpt><trkpt lat="45.6334845" lon="12.31498"><ele>4.0</ele><time>2026-04-24T16:07:52.021Z</time></trkpt><trkpt lat="45.6335614" lon="12.3150795"><ele>4.0</ele><time>2026-04-24T16:07:54.013Z</time></trkpt><trkpt lat="45.6336465" lon="12.3151808"><ele>4.0</ele><time>2026-04-24T16:07:56.015Z</time></trkpt><trkpt lat="45.6337296" lon="12.3152749"><ele>4.0</ele><time>2026-04-24T16:07:58.009Z</time></trkpt><trkpt lat="45.6338139" lon="12.3153829"><ele>4.0</ele><time>2026-04-24T16:08:00.034Z</time></trkpt><trkpt lat="45.633899" lon="12.3154866"><ele>3.6</ele><time>2026-04-24T16:08:02.03Z</time></trkpt><trkpt lat="45.6339743" lon="12.3155804"><ele>3.2</ele><time>2026-04-24T16:08:04.015Z</time></trkpt><trkpt lat="45.6340505" lon="12.3156714"><ele>2.8000000000000003</ele><time>2026-04-24T16:08:06.01Z</time></trkpt><trkpt lat="45.6341181" lon="12.3157462"><ele>2.4000000000000004</ele><time>2026-04-24T16:08:08.018Z</time></trkpt><trkpt lat="45.6341865" lon="12.3158251"><ele>2.0</ele><time>2026-04-24T16:08:10.026Z</time></trkpt><trkpt lat="45.6342545" lon="12.3159104"><ele>1.9999999999999998</ele><time>2026-04-24T16:08:12.03Z</time></trkpt><trkpt lat="45.6343132" lon="12.3160113"><ele>2.0</ele><time>2026-04-24T16:08:14.036Z</time></trkpt><trkpt lat="45.6343414" lon="12.3161092"><ele>2.0</ele><time>2026-04-24T16:08:16.017Z</time></trkpt><trkpt lat="45.6343229" lon="12.3162153"><ele>2.0</ele><time>2026-04-24T16:08:18.015Z</time></trkpt><trkpt lat="45.6342817" lon="12.3163558"><ele>1.9999999999999998</ele><time>2026-04-24T16:08:20.026Z</time></trkpt><trkpt lat="45.6342491" lon="12.3164791"><ele>2.0</ele><time>2026-04-24T16:08:22.017Z</time></trkpt><trkpt lat="45.6342202" lon="12.3166386"><ele>1.8</ele><time>2026-04-24T16:08:24.028Z</time></trkpt><trkpt lat="45.6341874" lon="12.3167992"><ele>1.6</ele><time>2026-04-24T16:08:26.035Z</time></trkpt><trkpt lat="45.6341588" lon="12.3169291"><ele>1.4000000000000001</ele><time>2026-04-24T16:08:28.025Z</time></trkpt><trkpt lat="45.6341294" lon="12.3170788"><ele>1.2000000000000002</ele><time>2026-04-24T16:08:30.021Z</time></trkpt><trkpt lat="45.6341002" lon="12.31723"><ele>1.0</ele><time>2026-04-24T16:08:32.023Z</time></trkpt><trkpt lat="45.6340806" lon="12.3173758"><ele>1.0</ele><time>2026-04-24T16:08:34.023Z</time></trkpt><trkpt lat="45.634055" lon="12.3175167"><ele>1.0</ele><time>2026-04-24T16:08:36.012Z</time></trkpt><trkpt lat="45.6340267" lon="12.3176637"><ele>1.0</ele><time>2026-04-24T16:08:38.023Z</time></trkpt><trkpt lat="45.6340026" lon="12.3178148"><ele>1.0</ele><time>2026-04-24T16:08:40.028Z</time></trkpt><trkpt lat="45.6339885" lon="12.3179442"><ele>1.0</ele><time>2026-04-24T16:08:42.036Z</time></trkpt><trkpt lat="45.6339743" lon="12.3180628"><ele>1.2857142857142856</ele><time>2026-04-24T16:08:44.028Z</time></trkpt><trkpt lat="45.6339595" lon="12.3181623"><ele>1.5714285714285712</ele><time>2026-04-24T16:08:46.018Z</time></trkpt><trkpt lat="45.6339419" lon="12.3182658"><ele>1.857142857142857</ele><time>2026-04-24T16:08:48.015Z</time></trkpt><trkpt lat="45.6339129" lon="12.3183732"><ele>2.142857142857143</ele><time>2026-04-24T16:08:50.012Z</time></trkpt><trkpt lat="45.6338936" lon="12.3184834"><ele>2.4285714285714284</ele><time>2026-04-24T16:08:52.036Z</time></trkpt><trkpt lat="45.6338805" lon="12.3185821"><ele>2.714285714285714</ele><time>2026-04-24T16:08:54.022Z</time></trkpt><trkpt lat="45.6338702" lon="12.3186836"><ele>3.0</ele><time>2026-04-24T16:08:56.016Z</time></trkpt><trkpt lat="45.6338519" lon="12.3187889"><ele>2.9999999999999996</ele><time>2026-04-24T16:08:58.021Z</time></trkpt><trkpt lat="45.6338288" lon="12.3188809"><ele>3.0</ele><time>2026-04-24T16:09:00.029Z</time></trkpt><trkpt lat="45.6338013" lon="12.3189752"><ele>3.0</ele><time>2026-04-24T16:09:02.02Z</time></trkpt><trkpt lat="45.6337742" lon="12.3190728"><ele>3.0</ele><time>2026-04-24T16:09:04.025Z</time></trkpt><trkpt lat="45.6337417" lon="12.3191604"><ele>3.0</ele><time>2026-04-24T16:09:06.03Z</time></trkpt><trkpt lat="45.6336987" lon="12.3192771"><ele>2.9999999999999996</ele><time>2026-04-24T16:09:09.032Z</time></trkpt><trkpt lat="45.6336719" lon="12.3193636"><ele>3.0</ele><time>2026-04-24T16:09:11.019Z</time></trkpt><trkpt lat="45.6336407" lon="12.3194625"><ele>3.666666666666667</ele><time>2026-04-24T16:09:14.029Z</time></trkpt><trkpt lat="45.6336019" lon="12.3195804"><ele>4.333333333333334</ele><time>2026-04-24T16:09:17.034Z</time></trkpt><trkpt lat="45.6335604" lon="12.3196878"><ele>5.0</ele><time>2026-04-24T16:09:19.019Z</time></trkpt><trkpt lat="45.6335327" lon="12.3197869"><ele>5.666666666666667</ele><time>2026-04-24T16:09:21.025Z</time></trkpt><trkpt lat="45.6334955" lon="12.3198857"><ele>6.333333333333334</ele><time>2026-04-24T16:09:23.004Z</time></trkpt><trkpt lat="45.6334504" lon="12.3199885"><ele>7.0</ele><time>2026-04-24T16:09:25.02Z</time></trkpt><trkpt lat="45.6333996" lon="12.3201023"><ele>7.0</ele><time>2026-04-24T16:09:27.011Z</time></trkpt><trkpt lat="45.6333519" lon="12.3202246"><ele>6.999999999999999</ele><time>2026-04-24T16:09:29.028Z</time></trkpt><trkpt lat="45.6333035" lon="12.3203479"><ele>6.999999999999999</ele><time>2026-04-24T16:09:31.027Z</time></trkpt><trkpt lat="45.633274" lon="12.3204325"><ele>7.0</ele><time>2026-04-24T16:09:32.027Z</time></trkpt><trkpt lat="45.6332021" lon="12.3205561"><ele>7.0</ele><time>2026-04-24T16:09:34.011Z</time></trkpt><trkpt lat="45.6331137" lon="12.3206755"><ele>7.000000000000001</ele><time>2026-04-24T16:09:36.038Z</time></trkpt><trkpt lat="45.6330344" lon="12.3207405"><ele>7.0</ele><time>2026-04-24T16:09:38.032Z</time></trkpt><trkpt lat="45.6329687" lon="12.3208105"><ele>7.0</ele><time>2026-04-24T16:09:40.037Z</time></trkpt><trkpt lat="45.6329201" lon="12.3209457"><ele>7.0</ele><time>2026-04-24T16:09:42.04Z</time></trkpt><trkpt lat="45.6328861" lon="12.3210275"><ele>7.000000000000001</ele><time>2026-04-24T16:09:43.011Z</time></trkpt><trkpt lat="45.6328254" lon="12.3210874"><ele>7.0</ele><time>2026-04-24T16:09:45.028Z</time></trkpt><trkpt lat="45.6327139" lon="12.3211314"><ele>6.666666666666667</ele><time>2026-04-24T16:09:48.016Z</time></trkpt><trkpt lat="45.6326377" lon="12.3211358"><ele>6.333333333333334</ele><time>2026-04-24T16:09:50.009Z</time></trkpt><trkpt lat="45.6325615" lon="12.3211363"><ele>6.0</ele><time>2026-04-24T16:09:52.013Z</time></trkpt><trkpt lat="45.6324873" lon="12.3211228"><ele>5.666666666666667</ele><time>2026-04-24T16:09:53.028Z</time></trkpt><trkpt lat="45.6324166" lon="12.3211134"><ele>5.333333333333334</ele><time>2026-04-24T16:09:55.017Z</time></trkpt><trkpt lat="45.6323172" lon="12.3211017"><ele>5.0</ele><time>2026-04-24T16:09:57.027Z</time></trkpt><trkpt lat="45.6322024" lon="12.3210862"><ele>5.0</ele><time>2026-04-24T16:09:59.023Z</time></trkpt><trkpt lat="45.6320929" lon="12.3210927"><ele>5.0</ele><time>2026-04-24T16:10:01.022Z</time></trkpt><trkpt lat="45.6319778" lon="12.321111"><ele>5.0</ele><time>2026-04-24T16:10:03.016Z</time></trkpt><trkpt lat="45.6318628" lon="12.3211285"><ele>5.0</ele><time>2026-04-24T16:10:05.025Z</time></trkpt><trkpt lat="45.6317972" lon="12.3211433"><ele>5.0</ele><time>2026-04-24T16:10:07.03Z</time></trkpt><trkpt lat="45.6317281" lon="12.3211369"><ele>4.6</ele><time>2026-04-24T16:10:09.037Z</time></trkpt><trkpt lat="45.6316423" lon="12.3211139"><ele>4.2</ele><time>2026-04-24T16:10:11.027Z</time></trkpt><trkpt lat="45.631527" lon="12.3210564"><ele>3.8</ele><time>2026-04-24T16:10:13.028Z</time></trkpt><trkpt lat="45.6314629" lon="12.3209608"><ele>3.4</ele><time>2026-04-24T16:10:15.026Z</time></trkpt><trkpt lat="45.6314322" lon="12.3208331"><ele>3.0</ele><time>2026-04-24T16:10:17.024Z</time></trkpt><trkpt lat="45.6314365" lon="12.3207226"><ele>3.0</ele><time>2026-04-24T16:10:19.015Z</time></trkpt><trkpt lat="45.6314484" lon="12.3205841"><ele>3.0</ele><time>2026-04-24T16:10:21.022Z</time></trkpt><trkpt lat="45.6314765" lon="12.3204558"><ele>3.0</ele><time>2026-04-24T16:10:23.019Z</time></trkpt><trkpt lat="45.631519" lon="12.3203206"><ele>3.0</ele><time>2026-04-24T16:10:25.009Z</time></trkpt><trkpt lat="45.631563" lon="12.3202135"><ele>3.0</ele><time>2026-04-24T16:10:27.027Z</time></trkpt><trkpt lat="45.6316169" lon="12.320109"><ele>3.2</ele><time>2026-04-24T16:10:29.027Z</time></trkpt><trkpt lat="45.6316692" lon="12.3199789"><ele>3.4</ele><time>2026-04-24T16:10:31.022Z</time></trkpt><trkpt lat="45.6317015" lon="12.3198595"><ele>3.6000000000000005</ele><time>2026-04-24T16:10:33.017Z</time></trkpt><trkpt lat="45.6317378" lon="12.3197291"><ele>3.8000000000000003</ele><time>2026-04-24T16:10:35.017Z</time></trkpt><trkpt lat="45.6317702" lon="12.3195765"><ele>4.0</ele><time>2026-04-24T16:10:37.024Z</time></trkpt><trkpt lat="45.6318036" lon="12.3194508"><ele>4.2</ele><time>2026-04-24T16:10:39.038Z</time></trkpt><trkpt lat="45.6318243" lon="12.3193203"><ele>4.4</ele><time>2026-04-24T16:10:41.013Z</time></trkpt><trkpt lat="45.6318291" lon="12.3191743"><ele>4.6</ele><time>2026-04-24T16:10:43.02Z</time></trkpt><trkpt lat="45.6318257" lon="12.3190136"><ele>4.8</ele><time>2026-04-24T16:10:45.023Z</time></trkpt><trkpt lat="45.6318252" lon="12.3188876"><ele>5.0</ele><time>2026-04-24T16:10:47.05Z</time></trkpt><trkpt lat="45.6318206" lon="12.3187874"><ele>5.4</ele><time>2026-04-24T16:10:48.016Z</time></trkpt><trkpt lat="45.6318154" lon="12.3186283"><ele>5.8</ele><time>2026-04-24T16:10:50.009Z</time></trkpt><trkpt lat="45.6318162" lon="12.3184704"><ele>6.199999999999999</ele><time>2026-04-24T16:10:52.009Z</time></trkpt><trkpt lat="45.6317774" lon="12.318326"><ele>6.6</ele><time>2026-04-24T16:10:54.017Z</time></trkpt><trkpt lat="45.6317336" lon="12.318204"><ele>7.0</ele><time>2026-04-24T16:10:56.018Z</time></trkpt><trkpt lat="45.6316829" lon="12.3180906"><ele>7.199999999999999</ele><time>2026-04-24T16:10:58.03Z</time></trkpt><trkpt lat="45.6316278" lon="12.3179709"><ele>7.3999999999999995</ele><time>2026-04-24T16:11:00.049Z</time></trkpt><trkpt lat="45.631573" lon="12.3178347"><ele>7.6000000000000005</ele><time>2026-04-24T16:11:02.013Z</time></trkpt><trkpt lat="45.6315161" lon="12.317711"><ele>7.800000000000001</ele><time>2026-04-24T16:11:04.026Z</time></trkpt><trkpt lat="45.6314511" lon="12.3176236"><ele>8.0</ele><time>2026-04-24T16:11:06.027Z</time></trkpt><trkpt lat="45.6313681" lon="12.3175396"><ele>7.999999999999999</ele><time>2026-04-24T16:11:08.023Z</time></trkpt><trkpt lat="45.6313008" lon="12.3174702"><ele>8.0</ele><time>2026-04-24T16:11:10.028Z</time></trkpt><trkpt lat="45.6312228" lon="12.3173995"><ele>8.0</ele><time>2026-04-24T16:11:12.012Z</time></trkpt><trkpt lat="45.63116" lon="12.3173304"><ele>8.0</ele><time>2026-04-24T16:11:14.016Z</time></trkpt><trkpt lat="45.6310996" lon="12.3172449"><ele>7.999999999999999</ele><time>2026-04-24T16:11:16.007Z</time></trkpt><trkpt lat="45.6310177" lon="12.3171984"><ele>8.0</ele><time>2026-04-24T16:11:18.027Z</time></trkpt><trkpt lat="45.6309192" lon="12.3172156"><ele>8.0</ele><time>2026-04-24T16:11:20.026Z</time></trkpt><trkpt lat="45.6308331" lon="12.3171992"><ele>8.0</ele><time>2026-04-24T16:11:22.044Z</time></trkpt><trkpt lat="45.6307509" lon="12.3171675"><ele>8.0</ele><time>2026-04-24T16:11:24.027Z</time></trkpt><trkpt lat="45.6306652" lon="12.3171636"><ele>8.0</ele><time>2026-04-24T16:11:26.026Z</time></trkpt><trkpt lat="45.6305621" lon="12.3171298"><ele>8.0</ele><time>2026-04-24T16:11:28.023Z</time></trkpt><trkpt lat="45.6304634" lon="12.317072"><ele>8.0</ele><time>2026-04-24T16:11:30.024Z</time></trkpt><trkpt lat="45.6303531" lon="12.3170195"><ele>8.0</ele><time>2026-04-24T16:11:32.015Z</time></trkpt><trkpt lat="45.6302523" lon="12.3169824"><ele>8.0</ele><time>2026-04-24T16:11:34.039Z</time></trkpt><trkpt lat="45.6301465" lon="12.3169757"><ele>8.0</ele><time>2026-04-24T16:11:36.025Z</time></trkpt><trkpt lat="45.6300419" lon="12.3169597"><ele>8.0</ele><time>2026-04-24T16:11:38.025Z</time></trkpt><trkpt lat="45.6299388" lon="12.3169376"><ele>7.4</ele><time>2026-04-24T16:11:40.021Z</time></trkpt><trkpt lat="45.6298372" lon="12.3169241"><ele>6.800000000000001</ele><time>2026-04-24T16:11:42.025Z</time></trkpt><trkpt lat="45.6297198" lon="12.316915"><ele>6.2</ele><time>2026-04-24T16:11:45.02Z</time></trkpt><trkpt lat="45.6296416" lon="12.3169274"><ele>5.6</ele><time>2026-04-24T16:11:47.046Z</time></trkpt><trkpt lat="45.6295493" lon="12.3169444"><ele>5.0</ele><time>2026-04-24T16:11:49.019Z</time></trkpt><trkpt lat="45.6294468" lon="12.3169645"><ele>4.6</ele><time>2026-04-24T16:11:51.027Z</time></trkpt><trkpt lat="45.6293301" lon="12.316975"><ele>4.2</ele><time>2026-04-24T16:11:53.022Z</time></trkpt><trkpt lat="45.6292331" lon="12.3169938"><ele>3.8</ele><time>2026-04-24T16:11:55.024Z</time></trkpt><trkpt lat="45.6291128" lon="12.3170126"><ele>3.4</ele><time>2026-04-24T16:11:57.029Z</time></trkpt><trkpt lat="45.6290467" lon="12.3170358"><ele>3.0</ele><time>2026-04-24T16:11:59.022Z</time></trkpt><trkpt lat="45.6289502" lon="12.3170439"><ele>3.0</ele><time>2026-04-24T16:12:02.024Z</time></trkpt><trkpt lat="45.628882" lon="12.3170431"><ele>3.0</ele><time>2026-04-24T16:12:05.022Z</time></trkpt><trkpt lat="45.6288109" lon="12.3170355"><ele>3.0</ele><time>2026-04-24T16:12:07.026Z</time></trkpt><trkpt lat="45.628747" lon="12.3170363"><ele>3.0</ele><time>2026-04-24T16:12:09.012Z</time></trkpt><trkpt lat="45.6286714" lon="12.317046"><ele>3.0</ele><time>2026-04-24T16:12:11.035Z</time></trkpt><trkpt lat="45.6285882" lon="12.3170622"><ele>3.0</ele><time>2026-04-24T16:12:13.043Z</time></trkpt><trkpt lat="45.6284971" lon="12.3170895"><ele>3.0</ele><time>2026-04-24T16:12:15.027Z</time></trkpt><trkpt lat="45.6284003" lon="12.3171424"><ele>3.0</ele><time>2026-04-24T16:12:17.006Z</time></trkpt><trkpt lat="45.6283071" lon="12.3172056"><ele>3.0</ele><time>2026-04-24T16:12:19.018Z</time></trkpt><trkpt lat="45.6282394" lon="12.3172524"><ele>3.0</ele><time>2026-04-24T16:12:21.026Z</time></trkpt><trkpt lat="45.6281536" lon="12.3173104"><ele>3.0</ele><time>2026-04-24T16:12:23.018Z</time></trkpt><trkpt lat="45.6280206" lon="12.3173588"><ele>3.2</ele><time>2026-04-24T16:12:25.025Z</time></trkpt><trkpt lat="45.6279425" lon="12.3173999"><ele>3.4</ele><time>2026-04-24T16:12:26.035Z</time></trkpt><trkpt lat="45.6278475" lon="12.3175005"><ele>3.6000000000000005</ele><time>2026-04-24T16:12:28.01Z</time></trkpt><trkpt lat="45.6277917" lon="12.3175527"><ele>3.8000000000000003</ele><time>2026-04-24T16:12:29.031Z</time></trkpt><trkpt lat="45.6276974" lon="12.3176457"><ele>4.0</ele><time>2026-04-24T16:12:31.035Z</time></trkpt><trkpt lat="45.6276398" lon="12.3177311"><ele>3.9999999999999996</ele><time>2026-04-24T16:12:33.009Z</time></trkpt><trkpt lat="45.6275686" lon="12.3178342"><ele>4.0</ele><time>2026-04-24T16:12:35.008Z</time></trkpt><trkpt lat="45.6275133" lon="12.3179051"><ele>4.0</ele><time>2026-04-24T16:12:37.018Z</time></trkpt><trkpt lat="45.6274578" lon="12.3179838"><ele>4.0</ele><time>2026-04-24T16:12:39.028Z</time></trkpt><trkpt lat="45.6274114" lon="12.3180527"><ele>3.9999999999999996</ele><time>2026-04-24T16:12:41.009Z</time></trkpt><trkpt lat="45.6273447" lon="12.3181283"><ele>4.0</ele><time>2026-04-24T16:12:44.025Z</time></trkpt><trkpt lat="45.6272921" lon="12.3181803"><ele>4.166666666666666</ele><time>2026-04-24T16:12:46.006Z</time></trkpt><trkpt lat="45.6272198" lon="12.318244"><ele>4.333333333333333</ele><time>2026-04-24T16:12:49.015Z</time></trkpt><trkpt lat="45.6271562" lon="12.3183106"><ele>4.5</ele><time>2026-04-24T16:12:51.016Z</time></trkpt><trkpt lat="45.6271327" lon="12.3184246"><ele>4.666666666666667</ele><time>2026-04-24T16:12:53.025Z</time></trkpt><trkpt lat="45.6271617" lon="12.318534"><ele>4.833333333333334</ele><time>2026-04-24T16:12:55.035Z</time></trkpt><trkpt lat="45.6271954" lon="12.3186494"><ele>5.0</ele><time>2026-04-24T16:12:57.035Z</time></trkpt><trkpt lat="45.6271827" lon="12.3187682"><ele>5.0</ele><time>2026-04-24T16:12:59.013Z</time></trkpt><trkpt lat="45.6271453" lon="12.3188937"><ele>5.0</ele><time>2026-04-24T16:13:01.014Z</time></trkpt><trkpt lat="45.6271062" lon="12.3190068"><ele>5.0</ele><time>2026-04-24T16:13:03.028Z</time></trkpt><trkpt lat="45.6270799" lon="12.319118"><ele>5.0</ele><time>2026-04-24T16:13:05.037Z</time></trkpt><trkpt lat="45.6270521" lon="12.3192502"><ele>5.0</ele><time>2026-04-24T16:13:07.017Z</time></trkpt><trkpt lat="45.6270338" lon="12.3193783"><ele>5.0</ele><time>2026-04-24T16:13:09.033Z</time></trkpt><trkpt lat="45.6270432" lon="12.3195272"><ele>5.0</ele><time>2026-04-24T16:13:11.024Z</time></trkpt><trkpt lat="45.6270514" lon="12.3196472"><ele>5.0</ele><time>2026-04-24T16:13:13.024Z</time></trkpt><trkpt lat="45.6269917" lon="12.3197047"><ele>5.0</ele><time>2026-04-24T16:13:15.004Z</time></trkpt><trkpt lat="45.626909" lon="12.3197499"><ele>5.0</ele><time>2026-04-24T16:13:17.021Z</time></trkpt><trkpt lat="45.6268233" lon="12.3198421"><ele>4.333333333333334</ele><time>2026-04-24T16:13:19.043Z</time></trkpt><trkpt lat="45.626758" lon="12.3199366"><ele>3.666666666666667</ele><time>2026-04-24T16:13:21.011Z</time></trkpt><trkpt lat="45.6267689" lon="12.3200438"><ele>3.0</ele><time>2026-04-24T16:13:23.006Z</time></trkpt><trkpt lat="45.6268027" lon="12.320124"><ele>2.3333333333333335</ele><time>2026-04-24T16:13:25.993Z</time></trkpt><trkpt lat="45.6268566" lon="12.3202009"><ele>1.6666666666666665</ele><time>2026-04-24T16:13:29.015Z</time></trkpt><trkpt lat="45.6269144" lon="12.3202902"><ele>1.0</ele><time>2026-04-24T16:13:33.013Z</time></trkpt><trkpt lat="45.6269662" lon="12.3203777"><ele>1.3333333333333333</ele><time>2026-04-24T16:13:35.023Z</time></trkpt><trkpt lat="45.6270239" lon="12.3204535"><ele>1.6666666666666665</ele><time>2026-04-24T16:13:37.016Z</time></trkpt><trkpt lat="45.627083" lon="12.3205229"><ele>2.0</ele><time>2026-04-24T16:13:39.016Z</time></trkpt><trkpt lat="45.6271122" lon="12.3206048"><ele>2.3333333333333335</ele><time>2026-04-24T16:13:41.018Z</time></trkpt><trkpt lat="45.6271185" lon="12.3207065"><ele>2.6666666666666665</ele><time>2026-04-24T16:13:43.027Z</time></trkpt><trkpt lat="45.6271169" lon="12.3208297"><ele>3.0</ele><time>2026-04-24T16:13:45.007Z</time></trkpt><trkpt lat="45.6270872" lon="12.3209511"><ele>3.0</ele><time>2026-04-24T16:13:47.018Z</time></trkpt><trkpt lat="45.627045" lon="12.3210921"><ele>3.0</ele><time>2026-04-24T16:13:49.01Z</time></trkpt><trkpt lat="45.6269993" lon="12.3212353"><ele>3.0</ele><time>2026-04-24T16:13:51.019Z</time></trkpt><trkpt lat="45.6269791" lon="12.3213334"><ele>3.0</ele><time>2026-04-24T16:13:52.023Z</time></trkpt><trkpt lat="45.6269558" lon="12.3214699"><ele>3.0</ele><time>2026-04-24T16:13:54.036Z</time></trkpt><trkpt lat="45.6269461" lon="12.3216246"><ele>3.3333333333333335</ele><time>2026-04-24T16:13:56Z</time></trkpt><trkpt lat="45.626941" lon="12.3217432"><ele>3.666666666666667</ele><time>2026-04-24T16:13:58.026Z</time></trkpt><trkpt lat="45.6269318" lon="12.3218348"><ele>4.0</ele><time>2026-04-24T16:14:00.016Z</time></trkpt><trkpt lat="45.6269144" lon="12.3219371"><ele>4.333333333333334</ele><time>2026-04-24T16:14:02.012Z</time></trkpt><trkpt lat="45.626883" lon="12.3220483"><ele>4.666666666666667</ele><time>2026-04-24T16:14:04.013Z</time></trkpt><trkpt lat="45.6268591" lon="12.3221527"><ele>5.0</ele><time>2026-04-24T16:14:06.009Z</time></trkpt><trkpt lat="45.6268316" lon="12.3222606"><ele>5.0</ele><time>2026-04-24T16:14:08.011Z</time></trkpt><trkpt lat="45.6267931" lon="12.3224079"><ele>5.0</ele><time>2026-04-24T16:14:10.009Z</time></trkpt><trkpt lat="45.6267592" lon="12.3225543"><ele>5.0</ele><time>2026-04-24T16:14:12.029Z</time></trkpt><trkpt lat="45.6267263" lon="12.3226872"><ele>5.0</ele><time>2026-04-24T16:14:14.019Z</time></trkpt><trkpt lat="45.6266877" lon="12.322817"><ele>5.0</ele><time>2026-04-24T16:14:16.034Z</time></trkpt><trkpt lat="45.6266498" lon="12.3229778"><ele>5.4</ele><time>2026-04-24T16:14:18.018Z</time></trkpt><trkpt lat="45.6266121" lon="12.3231407"><ele>5.8</ele><time>2026-04-24T16:14:20.013Z</time></trkpt><trkpt lat="45.6266089" lon="12.3232325"><ele>6.199999999999999</ele><time>2026-04-24T16:14:21.031Z</time></trkpt><trkpt lat="45.6266136" lon="12.3233926"><ele>6.6</ele><time>2026-04-24T16:14:23.018Z</time></trkpt><trkpt lat="45.6266384" lon="12.3235525"><ele>7.0</ele><time>2026-04-24T16:14:25.023Z</time></trkpt><trkpt lat="45.6266572" lon="12.3236902"><ele>7.0</ele><time>2026-04-24T16:14:27.023Z</time></trkpt><trkpt lat="45.6266804" lon="12.3238413"><ele>6.999999999999999</ele><time>2026-04-24T16:14:29.004Z</time></trkpt><trkpt lat="45.6267095" lon="12.3240039"><ele>6.999999999999999</ele><time>2026-04-24T16:14:31.011Z</time></trkpt><trkpt lat="45.6267089" lon="12.324107"><ele>7.0</ele><time>2026-04-24T16:14:34.014Z</time></trkpt><trkpt lat="45.626649" lon="12.3242169"><ele>7.0</ele><time>2026-04-24T16:14:37.018Z</time></trkpt><trkpt lat="45.626569" lon="12.324249"><ele>7.000000000000001</ele><time>2026-04-24T16:14:40.039Z</time></trkpt><trkpt lat="45.6265001" lon="12.324205"><ele>7.0</ele><time>2026-04-24T16:14:43.034Z</time></trkpt><trkpt lat="45.6264421" lon="12.3241576"><ele>7.0</ele><time>2026-04-24T16:14:45.024Z</time></trkpt><trkpt lat="45.6263665" lon="12.3240982"><ele>7.0</ele><time>2026-04-24T16:14:47.023Z</time></trkpt><trkpt lat="45.6262684" lon="12.324022"><ele>7.000000000000001</ele><time>2026-04-24T16:14:49.029Z</time></trkpt><trkpt lat="45.6261745" lon="12.3239511"><ele>7.0</ele><time>2026-04-24T16:14:51.038Z</time></trkpt><trkpt lat="45.6260984" lon="12.3238838"><ele>7.000000000000001</ele><time>2026-04-24T16:14:53.029Z</time></trkpt><trkpt lat="45.626016" lon="12.3238021"><ele>7.0</ele><time>2026-04-24T16:14:55.036Z</time></trkpt><trkpt lat="45.6259472" lon="12.3237366"><ele>7.0</ele><time>2026-04-24T16:14:57.036Z</time></trkpt><trkpt lat="45.6258677" lon="12.3236719"><ele>7.0</ele><time>2026-04-24T16:14:59.026Z</time></trkpt><trkpt lat="45.6257827" lon="12.3236062"><ele>7.000000000000001</ele><time>2026-04-24T16:15:01.029Z</time></trkpt><trkpt lat="45.625721" lon="12.3236269"><ele>7.0</ele><time>2026-04-24T16:15:03.025Z</time></trkpt><trkpt lat="45.6256875" lon="12.3237165"><ele>7.0</ele><time>2026-04-24T16:15:05.031Z</time></trkpt><trkpt lat="45.6256361" lon="12.3238161"><ele>6.999999999999999</ele><time>2026-04-24T16:15:07.029Z</time></trkpt><trkpt lat="45.6255877" lon="12.3239105"><ele>6.999999999999999</ele><time>2026-04-24T16:15:09.03Z</time></trkpt><trkpt lat="45.62555" lon="12.3240408"><ele>7.0</ele><time>2026-04-24T16:15:11.027Z</time></trkpt><trkpt lat="45.6255247" lon="12.3241946"><ele>7.0</ele><time>2026-04-24T16:15:13.019Z</time></trkpt><trkpt lat="45.6255071" lon="12.3243494"><ele>6.833333333333334</ele><time>2026-04-24T16:15:15.05Z</time></trkpt><trkpt lat="45.625494" lon="12.3244849"><ele>6.666666666666667</ele><time>2026-04-24T16:15:17.027Z</time></trkpt><trkpt lat="45.6254931" lon="12.3246038"><ele>6.5</ele><time>2026-04-24T16:15:19.032Z</time></trkpt><trkpt lat="45.6254993" lon="12.3247276"><ele>6.333333333333334</ele><time>2026-04-24T16:15:21.047Z</time></trkpt><trkpt lat="45.6254942" lon="12.3248458"><ele>6.166666666666667</ele><time>2026-04-24T16:15:23.048Z</time></trkpt><trkpt lat="45.6254452" lon="12.3249483"><ele>6.0</ele><time>2026-04-24T16:15:25.033Z</time></trkpt><trkpt lat="45.6253992" lon="12.3250666"><ele>5.8</ele><time>2026-04-24T16:15:27.031Z</time></trkpt><trkpt lat="45.62545" lon="12.3251586"><ele>5.6</ele><time>2026-04-24T16:15:30.031Z</time></trkpt><trkpt lat="45.6255322" lon="12.3252282"><ele>5.4</ele><time>2026-04-24T16:15:32.031Z</time></trkpt><trkpt lat="45.6256297" lon="12.3253221"><ele>5.2</ele><time>2026-04-24T16:15:34.032Z</time></trkpt><trkpt lat="45.6256868" lon="12.3253732"><ele>5.0</ele><time>2026-04-24T16:15:35.033Z</time></trkpt><trkpt lat="45.625765" lon="12.3254466"><ele>5.0</ele><time>2026-04-24T16:15:37.025Z</time></trkpt><trkpt lat="45.6258401" lon="12.3255178"><ele>5.0</ele><time>2026-04-24T16:15:39.03Z</time></trkpt><trkpt lat="45.625933" lon="12.3256104"><ele>5.0</ele><time>2026-04-24T16:15:41.024Z</time></trkpt><trkpt lat="45.6260093" lon="12.3256809"><ele>5.0</ele><time>2026-04-24T16:15:43.023Z</time></trkpt><trkpt lat="45.6260984" lon="12.3257705"><ele>5.0</ele><time>2026-04-24T16:15:45.04Z</time></trkpt><trkpt lat="45.6261823" lon="12.3258513"><ele>5.166666666666667</ele><time>2026-04-24T16:15:47.024Z</time></trkpt><trkpt lat="45.6262692" lon="12.3259461"><ele>5.333333333333334</ele><time>2026-04-24T16:15:49.032Z</time></trkpt><trkpt lat="45.6263431" lon="12.3260286"><ele>5.5</ele><time>2026-04-24T16:15:51.035Z</time></trkpt><trkpt lat="45.6264182" lon="12.3260902"><ele>5.666666666666667</ele><time>2026-04-24T16:15:53.023Z</time></trkpt><trkpt lat="45.6264781" lon="12.3261599"><ele>5.833333333333333</ele><time>2026-04-24T16:15:57.011Z</time></trkpt><trkpt lat="45.6265147" lon="12.3262637"><ele>6.0</ele><time>2026-04-24T16:16:00.024Z</time></trkpt><trkpt lat="45.626564" lon="12.3263525"><ele>5.6</ele><time>2026-04-24T16:16:02.018Z</time></trkpt><trkpt lat="45.6266524" lon="12.3264463"><ele>5.199999999999999</ele><time>2026-04-24T16:16:04.999Z</time></trkpt><trkpt lat="45.6267387" lon="12.3265495"><ele>4.800000000000001</ele><time>2026-04-24T16:16:07.027Z</time></trkpt><trkpt lat="45.6267899" lon="12.3266057"><ele>4.4</ele><time>2026-04-24T16:16:08.014Z</time></trkpt><trkpt lat="45.6268833" lon="12.3267196"><ele>4.0</ele><time>2026-04-24T16:16:10.027Z</time></trkpt><trkpt lat="45.6269393" lon="12.326782"><ele>3.8000000000000003</ele><time>2026-04-24T16:16:11.021Z</time></trkpt><trkpt lat="45.6269909" lon="12.3268378"><ele>3.6000000000000005</ele><time>2026-04-24T16:16:12.006Z</time></trkpt><trkpt lat="45.6270836" lon="12.3269391"><ele>3.4</ele><time>2026-04-24T16:16:14.023Z</time></trkpt><trkpt lat="45.6271608" lon="12.3270291"><ele>3.2</ele><time>2026-04-24T16:16:16.025Z</time></trkpt><trkpt lat="45.6272366" lon="12.3271191"><ele>3.0</ele><time>2026-04-24T16:16:18.031Z</time></trkpt><trkpt lat="45.6273204" lon="12.3272157"><ele>3.0</ele><time>2026-04-24T16:16:20.044Z</time></trkpt><trkpt lat="45.6274006" lon="12.3273026"><ele>3.0</ele><time>2026-04-24T16:16:22.034Z</time></trkpt><trkpt lat="45.6274688" lon="12.3273265"><ele>3.0</ele><time>2026-04-24T16:16:24.033Z</time></trkpt><trkpt lat="45.6275409" lon="12.3272769"><ele>3.0</ele><time>2026-04-24T16:16:26.027Z</time></trkpt><trkpt lat="45.6275998" lon="12.3272013"><ele>3.0</ele><time>2026-04-24T16:16:28.026Z</time></trkpt><trkpt lat="45.6276624" lon="12.3270738"><ele>3.0</ele><time>2026-04-24T16:16:30.019Z</time></trkpt><trkpt lat="45.6277293" lon="12.3269386"><ele>3.0</ele><time>2026-04-24T16:16:32.025Z</time></trkpt><trkpt lat="45.6277898" lon="12.3268201"><ele>3.0</ele><time>2026-04-24T16:16:34.021Z</time></trkpt><trkpt lat="45.6278417" lon="12.3267088"><ele>3.0</ele><time>2026-04-24T16:16:36.032Z</time></trkpt><trkpt lat="45.6279044" lon="12.3265805"><ele>3.0</ele><time>2026-04-24T16:16:38.017Z</time></trkpt><trkpt lat="45.6279619" lon="12.3264639"><ele>3.0</ele><time>2026-04-24T16:16:40.029Z</time></trkpt><trkpt lat="45.6280243" lon="12.3263288"><ele>2.6</ele><time>2026-04-24T16:16:42.018Z</time></trkpt><trkpt lat="45.6280947" lon="12.3262039"><ele>2.1999999999999997</ele><time>2026-04-24T16:16:44.039Z</time></trkpt><trkpt lat="45.6281599" lon="12.326085"><ele>1.8</ele><time>2026-04-24T16:16:46.032Z</time></trkpt><trkpt lat="45.6282095" lon="12.3259969"><ele>1.4</ele><time>2026-04-24T16:16:48.029Z</time></trkpt><trkpt lat="45.6282783" lon="12.3258909"><ele>1.0</ele><time>2026-04-24T16:16:50.023Z</time></trkpt><trkpt lat="45.6283076" lon="12.325805"><ele>0.9999999999999999</ele><time>2026-04-24T16:16:52.026Z</time></trkpt><trkpt lat="45.6283523" lon="12.3257205"><ele>1.0</ele><time>2026-04-24T16:16:54.027Z</time></trkpt><trkpt lat="45.6284118" lon="12.3257625"><ele>1.0</ele><time>2026-04-24T16:16:58.036Z</time></trkpt><trkpt lat="45.6284972" lon="12.3258809"><ele>1.0</ele><time>2026-04-24T16:17:01.028Z</time></trkpt><trkpt lat="45.6285694" lon="12.3259599"><ele>0.9999999999999999</ele><time>2026-04-24T16:17:03.039Z</time></trkpt><trkpt lat="45.6286389" lon="12.3260214"><ele>1.0</ele><time>2026-04-24T16:17:05.018Z</time></trkpt><trkpt lat="45.6287296" lon="12.3261119"><ele>1.1666666666666665</ele><time>2026-04-24T16:17:07.033Z</time></trkpt><trkpt lat="45.628803" lon="12.3261908"><ele>1.3333333333333333</ele><time>2026-04-24T16:17:09.025Z</time></trkpt><trkpt lat="45.6288802" lon="12.3262871"><ele>1.5</ele><time>2026-04-24T16:17:11.026Z</time></trkpt><trkpt lat="45.6289491" lon="12.3263986"><ele>1.6666666666666665</ele><time>2026-04-24T16:17:13.029Z</time></trkpt><trkpt lat="45.6289889" lon="12.3264701"><ele>1.8333333333333333</ele><time>2026-04-24T16:17:14.031Z</time></trkpt><trkpt lat="45.6290247" lon="12.32655"><ele>2.0</ele><time>2026-04-24T16:17:15.036Z</time></trkpt><trkpt lat="45.6290608" lon="12.3266353"><ele>2.0</ele><time>2026-04-24T16:17:16.031Z</time></trkpt><trkpt lat="45.6291125" lon="12.3267778"><ele>2.0</ele><time>2026-04-24T16:17:18.015Z</time></trkpt><trkpt lat="45.6291503" lon="12.3269108"><ele>2.0</ele><time>2026-04-24T16:17:20.026Z</time></trkpt><trkpt lat="45.6291751" lon="12.327042"><ele>2.0</ele><time>2026-04-24T16:17:22.032Z</time></trkpt><trkpt lat="45.6292049" lon="12.3271732"><ele>2.0</ele><time>2026-04-24T16:17:24.027Z</time></trkpt><trkpt lat="45.6292234" lon="12.3273031"><ele>2.0</ele><time>2026-04-24T16:17:26.015Z</time></trkpt><trkpt lat="45.6292473" lon="12.3274389"><ele>2.0</ele><time>2026-04-24T16:17:28.009Z</time></trkpt><trkpt lat="45.629275" lon="12.3275621"><ele>2.0</ele><time>2026-04-24T16:17:30.021Z</time></trkpt><trkpt lat="45.6293032" lon="12.327688"><ele>2.0</ele><time>2026-04-24T16:17:32.008Z</time></trkpt><trkpt lat="45.6293405" lon="12.3278187"><ele>2.0</ele><time>2026-04-24T16:17:34.005Z</time></trkpt><trkpt lat="45.6293861" lon="12.3279545"><ele>1.8</ele><time>2026-04-24T16:17:36.02Z</time></trkpt><trkpt lat="45.6294283" lon="12.3280831"><ele>1.6</ele><time>2026-04-24T16:17:38.022Z</time></trkpt><trkpt lat="45.629467" lon="12.3282137"><ele>1.4000000000000001</ele><time>2026-04-24T16:17:40.016Z</time></trkpt><trkpt lat="45.6295079" lon="12.3283434"><ele>1.2000000000000002</ele><time>2026-04-24T16:17:42.011Z</time></trkpt><trkpt lat="45.629542" lon="12.3284553"><ele>1.0</ele><time>2026-04-24T16:17:44.01Z</time></trkpt><trkpt lat="45.6295819" lon="12.3285452"><ele>1.0</ele><time>2026-04-24T16:17:46.015Z</time></trkpt><trkpt lat="45.6296233" lon="12.3286673"><ele>1.0</ele><time>2026-04-24T16:17:48.017Z</time></trkpt><trkpt lat="45.6296699" lon="12.3287901"><ele>1.0</ele><time>2026-04-24T16:17:50.029Z</time></trkpt><trkpt lat="45.6297226" lon="12.3289365"><ele>1.0</ele><time>2026-04-24T16:17:52.026Z</time></trkpt><trkpt lat="45.6297512" lon="12.3290317"><ele>1.0</ele><time>2026-04-24T16:17:54.014Z</time></trkpt><trkpt lat="45.6297863" lon="12.3291265"><ele>1.0</ele><time>2026-04-24T16:17:56.023Z</time></trkpt><trkpt lat="45.6298446" lon="12.3292762"><ele>1.0</ele><time>2026-04-24T16:17:58.015Z</time></trkpt><trkpt lat="45.6298909" lon="12.3294116"><ele>1.0</ele><time>2026-04-24T16:18:00.004Z</time></trkpt><trkpt lat="45.6299266" lon="12.3295257"><ele>1.0</ele><time>2026-04-24T16:18:02.023Z</time></trkpt><trkpt lat="45.6299594" lon="12.3296544"><ele>1.0</ele><time>2026-04-24T16:18:04.021Z</time></trkpt><trkpt lat="45.6299954" lon="12.3297763"><ele>0.6000000000000001</ele><time>2026-04-24T16:18:06.036Z</time></trkpt><trkpt lat="45.6300393" lon="12.3298931"><ele>0.20000000000000007</ele><time>2026-04-24T16:18:08.026Z</time></trkpt><trkpt lat="45.6300752" lon="12.3300059"><ele>-0.20000000000000007</ele><time>2026-04-24T16:18:10.037Z</time></trkpt><trkpt lat="45.6301105" lon="12.3301094"><ele>-0.6000000000000001</ele><time>2026-04-24T16:18:12.026Z</time></trkpt><trkpt lat="45.6301358" lon="12.3302541"><ele>-1.0</ele><time>2026-04-24T16:18:14.026Z</time></trkpt><trkpt lat="45.6301523" lon="12.3303922"><ele>-1.0</ele><time>2026-04-24T16:18:16.03Z</time></trkpt><trkpt lat="45.6301356" lon="12.330534"><ele>-1.0</ele><time>2026-04-24T16:18:18.023Z</time></trkpt><trkpt lat="45.6300965" lon="12.3306774"><ele>-1.0</ele><time>2026-04-24T16:18:20.02Z</time></trkpt><trkpt lat="45.6300517" lon="12.3308015"><ele>-1.0</ele><time>2026-04-24T16:18:22.026Z</time></trkpt><trkpt lat="45.6299999" lon="12.3309005"><ele>-1.0</ele><time>2026-04-24T16:18:24.028Z</time></trkpt><trkpt lat="45.6299384" lon="12.3309971"><ele>-0.8333333333333333</ele><time>2026-04-24T16:18:26.018Z</time></trkpt><trkpt lat="45.6298604" lon="12.3310741"><ele>-0.6666666666666666</ele><time>2026-04-24T16:18:28.019Z</time></trkpt><trkpt lat="45.6297817" lon="12.331153"><ele>-0.5</ele><time>2026-04-24T16:18:30.022Z</time></trkpt><trkpt lat="45.6297102" lon="12.3312091"><ele>-0.3333333333333333</ele><time>2026-04-24T16:18:32.024Z</time></trkpt><trkpt lat="45.6296366" lon="12.3312545"><ele>-0.16666666666666666</ele><time>2026-04-24T16:18:34.029Z</time></trkpt><trkpt lat="45.6295657" lon="12.3312883"><ele>0.0</ele><time>2026-04-24T16:18:36.033Z</time></trkpt><trkpt lat="45.6294677" lon="12.3313184"><ele>0.2</ele><time>2026-04-24T16:18:39.037Z</time></trkpt><trkpt lat="45.6293729" lon="12.3313323"><ele>0.4</ele><time>2026-04-24T16:18:41.023Z</time></trkpt><trkpt lat="45.6292778" lon="12.3313335"><ele>0.6000000000000001</ele><time>2026-04-24T16:18:43.017Z</time></trkpt><trkpt lat="45.6291858" lon="12.331322"><ele>0.8</ele><time>2026-04-24T16:18:45.026Z</time></trkpt><trkpt lat="45.6290834" lon="12.331305"><ele>1.0</ele><time>2026-04-24T16:18:47.018Z</time></trkpt><trkpt lat="45.6289609" lon="12.3312907"><ele>1.0</ele><time>2026-04-24T16:18:49.031Z</time></trkpt><trkpt lat="45.6288614" lon="12.3312873"><ele>1.0</ele><time>2026-04-24T16:18:51.043Z</time></trkpt><trkpt lat="45.628779" lon="12.3312787"><ele>1.0</ele><time>2026-04-24T16:18:53.025Z</time></trkpt><trkpt lat="45.6286772" lon="12.3312831"><ele>1.0</ele><time>2026-04-24T16:18:55.041Z</time></trkpt><trkpt lat="45.6285767" lon="12.3312811"><ele>1.0</ele><time>2026-04-24T16:18:57.031Z</time></trkpt><trkpt lat="45.6284849" lon="12.3313134"><ele>1.0</ele><time>2026-04-24T16:18:59.011Z</time></trkpt><trkpt lat="45.6283897" lon="12.3313611"><ele>1.0</ele><time>2026-04-24T16:19:01.035Z</time></trkpt><trkpt lat="45.628334" lon="12.3314086"><ele>1.0</ele><time>2026-04-24T16:19:02.03Z</time></trkpt><trkpt lat="45.6282303" lon="12.3315063"><ele>1.0</ele><time>2026-04-24T16:19:04.022Z</time></trkpt><trkpt lat="45.628138" lon="12.331589"><ele>1.0</ele><time>2026-04-24T16:19:06.03Z</time></trkpt><trkpt lat="45.6280571" lon="12.3316601"><ele>1.0</ele><time>2026-04-24T16:19:08.031Z</time></trkpt><trkpt lat="45.6279723" lon="12.3317329"><ele>1.0</ele><time>2026-04-24T16:19:10.026Z</time></trkpt><trkpt lat="45.6278927" lon="12.3318039"><ele>1.0</ele><time>2026-04-24T16:19:12.026Z</time></trkpt><trkpt lat="45.6278163" lon="12.331877"><ele>1.0</ele><time>2026-04-24T16:19:14.015Z</time></trkpt><trkpt lat="45.6277056" lon="12.3319753"><ele>1.0</ele><time>2026-04-24T16:19:16.028Z</time></trkpt><trkpt lat="45.6276355" lon="12.3320346"><ele>1.2000000000000002</ele><time>2026-04-24T16:19:17.026Z</time></trkpt><trkpt lat="45.6275684" lon="12.3321131"><ele>1.4000000000000001</ele><time>2026-04-24T16:19:19.021Z</time></trkpt><trkpt lat="45.6274801" lon="12.3321947"><ele>1.6</ele><time>2026-04-24T16:19:21.045Z</time></trkpt><trkpt lat="45.6274049" lon="12.3322663"><ele>1.8</ele><time>2026-04-24T16:19:23.019Z</time></trkpt><trkpt lat="45.6273318" lon="12.3323292"><ele>2.0</ele><time>2026-04-24T16:19:25.029Z</time></trkpt><trkpt lat="45.6272331" lon="12.332417"><ele>1.9999999999999998</ele><time>2026-04-24T16:19:27.028Z</time></trkpt><trkpt lat="45.6271494" lon="12.3324786"><ele>2.0</ele><time>2026-04-24T16:19:29.029Z</time></trkpt><trkpt lat="45.6270888" lon="12.3325466"><ele>2.0</ele><time>2026-04-24T16:19:31.023Z</time></trkpt><trkpt lat="45.6270203" lon="12.3326151"><ele>2.0</ele><time>2026-04-24T16:19:33.03Z</time></trkpt><trkpt lat="45.6269545" lon="12.3326707"><ele>1.9999999999999998</ele><time>2026-04-24T16:19:35.027Z</time></trkpt><trkpt lat="45.6268822" lon="12.3327399"><ele>2.0</ele><time>2026-04-24T16:19:37.014Z</time></trkpt><trkpt lat="45.62679" lon="12.3328061"><ele>2.1666666666666665</ele><time>2026-04-24T16:19:39.035Z</time></trkpt><trkpt lat="45.6267177" lon="12.3328774"><ele>2.333333333333333</ele><time>2026-04-24T16:19:41.03Z</time></trkpt><trkpt lat="45.6266405" lon="12.3329598"><ele>2.5</ele><time>2026-04-24T16:19:43.05Z</time></trkpt><trkpt lat="45.6265735" lon="12.333014"><ele>2.6666666666666665</ele><time>2026-04-24T16:19:45.027Z</time></trkpt><trkpt lat="45.6265073" lon="12.3330685"><ele>2.8333333333333335</ele><time>2026-04-24T16:19:47.028Z</time></trkpt><trkpt lat="45.6264458" lon="12.3331125"><ele>3.0</ele><time>2026-04-24T16:19:49.033Z</time></trkpt><trkpt lat="45.6263702" lon="12.3331495"><ele>3.0</ele><time>2026-04-24T16:19:51.028Z</time></trkpt><trkpt lat="45.6262899" lon="12.3331589"><ele>3.0</ele><time>2026-04-24T16:19:53.022Z</time></trkpt><trkpt lat="45.6261992" lon="12.3331445"><ele>3.0</ele><time>2026-04-24T16:19:55.037Z</time></trkpt><trkpt lat="45.626109" lon="12.3330818"><ele>3.0</ele><time>2026-04-24T16:19:57.03Z</time></trkpt><trkpt lat="45.6260222" lon="12.3330446"><ele>3.0</ele><time>2026-04-24T16:19:59.02Z</time></trkpt><trkpt lat="45.6259544" lon="12.3329556"><ele>3.2</ele><time>2026-04-24T16:20:01.02Z</time></trkpt><trkpt lat="45.6258871" lon="12.3328565"><ele>3.4</ele><time>2026-04-24T16:20:03.03Z</time></trkpt><trkpt lat="45.6258186" lon="12.3327449"><ele>3.6000000000000005</ele><time>2026-04-24T16:20:05.027Z</time></trkpt><trkpt lat="45.6257427" lon="12.3326533"><ele>3.8000000000000003</ele><time>2026-04-24T16:20:07.03Z</time></trkpt><trkpt lat="45.6256868" lon="12.3325692"><ele>4.0</ele><time>2026-04-24T16:20:09.027Z</time></trkpt><trkpt lat="45.6256382" lon="12.3324827"><ele>3.9999999999999996</ele><time>2026-04-24T16:20:11.025Z</time></trkpt><trkpt lat="45.6255732" lon="12.3324037"><ele>4.0</ele><time>2026-04-24T16:20:13.017Z</time></trkpt><trkpt lat="45.6255252" lon="12.3323188"><ele>4.0</ele><time>2026-04-24T16:20:15.037Z</time></trkpt><trkpt lat="45.6254857" lon="12.3322293"><ele>4.0</ele><time>2026-04-24T16:20:17.024Z</time></trkpt><trkpt lat="45.625418" lon="12.3321038"><ele>3.9999999999999996</ele><time>2026-04-24T16:20:19.032Z</time></trkpt><trkpt lat="45.625381" lon="12.3320302"><ele>4.0</ele><time>2026-04-24T16:20:20.037Z</time></trkpt><trkpt lat="45.6253379" lon="12.3319193"><ele>3.6</ele><time>2026-04-24T16:20:23.024Z</time></trkpt><trkpt lat="45.6252999" lon="12.3318376"><ele>3.2</ele><time>2026-04-24T16:20:24.025Z</time></trkpt><trkpt lat="45.6252624" lon="12.3317339"><ele>2.8000000000000003</ele><time>2026-04-24T16:20:26.024Z</time></trkpt><trkpt lat="45.6252062" lon="12.3315633"><ele>2.4000000000000004</ele><time>2026-04-24T16:20:28.026Z</time></trkpt><trkpt lat="45.6251926" lon="12.3314184"><ele>2.0</ele><time>2026-04-24T16:20:30.032Z</time></trkpt><trkpt lat="45.6252174" lon="12.3312782"><ele>1.8333333333333333</ele><time>2026-04-24T16:20:32.009Z</time></trkpt><trkpt lat="45.6252238" lon="12.3311829"><ele>1.6666666666666665</ele><time>2026-04-24T16:20:33.011Z</time></trkpt><trkpt lat="45.6252832" lon="12.3310822"><ele>1.5</ele><time>2026-04-24T16:20:35.019Z</time></trkpt><trkpt lat="45.6253804" lon="12.3310007"><ele>1.3333333333333333</ele><time>2026-04-24T16:20:37.014Z</time></trkpt><trkpt lat="45.625467" lon="12.3309407"><ele>1.1666666666666665</ele><time>2026-04-24T16:20:39.033Z</time></trkpt><trkpt lat="45.6255367" lon="12.3308963"><ele>1.0</ele><time>2026-04-24T16:20:41.029Z</time></trkpt><trkpt lat="45.625605" lon="12.3308823"><ele>0.9999999999999999</ele><time>2026-04-24T16:20:43.012Z</time></trkpt><trkpt lat="45.6256977" lon="12.3308705"><ele>1.0</ele><time>2026-04-24T16:20:45.019Z</time></trkpt><trkpt lat="45.6257962" lon="12.3308627"><ele>1.0</ele><time>2026-04-24T16:20:47.008Z</time></trkpt><trkpt lat="45.625877" lon="12.3308527"><ele>1.0</ele><time>2026-04-24T16:20:49.009Z</time></trkpt><trkpt lat="45.6259536" lon="12.330837"><ele>0.9999999999999999</ele><time>2026-04-24T16:20:51.032Z</time></trkpt><trkpt lat="45.6260319" lon="12.3308412"><ele>1.0</ele><time>2026-04-24T16:20:53.012Z</time></trkpt><trkpt lat="45.6261266" lon="12.330847"><ele>1.2000000000000002</ele><time>2026-04-24T16:20:55.008Z</time></trkpt><trkpt lat="45.6262311" lon="12.3308203"><ele>1.4000000000000001</ele><time>2026-04-24T16:20:57.006Z</time></trkpt><trkpt lat="45.6263138" lon="12.3307734"><ele>1.6</ele><time>2026-04-24T16:20:59.011Z</time></trkpt><trkpt lat="45.6263755" lon="12.3307444"><ele>1.8</ele><time>2026-04-24T16:21:00.023Z</time></trkpt><trkpt lat="45.6264664" lon="12.3306591"><ele>2.0</ele><time>2026-04-24T16:21:02.017Z</time></trkpt><trkpt lat="45.6265322" lon="12.3305458"><ele>2.0</ele><time>2026-04-24T16:21:04.008Z</time></trkpt><trkpt lat="45.6265763" lon="12.3304041"><ele>2.0</ele><time>2026-04-24T16:21:06.01Z</time></trkpt><trkpt lat="45.6265948" lon="12.3302798"><ele>2.0</ele><time>2026-04-24T16:21:08.047Z</time></trkpt><trkpt lat="45.6265907" lon="12.3301784"><ele>2.0</ele><time>2026-04-24T16:21:09.013Z</time></trkpt><trkpt lat="45.6265623" lon="12.3300289"><ele>2.0</ele><time>2026-04-24T16:21:11.018Z</time></trkpt><trkpt lat="45.6265256" lon="12.329896"><ele>2.0</ele><time>2026-04-24T16:21:13.017Z</time></trkpt><trkpt lat="45.6264763" lon="12.3297742"><ele>2.0</ele><time>2026-04-24T16:21:15.008Z</time></trkpt><trkpt lat="45.6264224" lon="12.3296559"><ele>2.0</ele><time>2026-04-24T16:21:17.034Z</time></trkpt><trkpt lat="45.626358" lon="12.3295518"><ele>2.0</ele><time>2026-04-24T16:21:19.015Z</time></trkpt><trkpt lat="45.6262968" lon="12.3294492"><ele>2.0</ele><time>2026-04-24T16:21:21.005Z</time></trkpt><trkpt lat="45.626253" lon="12.3293776"><ele>2.2</ele><time>2026-04-24T16:21:22.009Z</time></trkpt><trkpt lat="45.6261883" lon="12.329285"><ele>2.4000000000000004</ele><time>2026-04-24T16:21:24.013Z</time></trkpt><trkpt lat="45.6261214" lon="12.329205"><ele>2.5999999999999996</ele><time>2026-04-24T16:21:26.011Z</time></trkpt><trkpt lat="45.6260534" lon="12.329131"><ele>2.8</ele><time>2026-04-24T16:21:28.019Z</time></trkpt><trkpt lat="45.6259837" lon="12.3290544"><ele>3.0</ele><time>2026-04-24T16:21:30.022Z</time></trkpt><trkpt lat="45.6258957" lon="12.3289649"><ele>3.1666666666666665</ele><time>2026-04-24T16:21:32.013Z</time></trkpt><trkpt lat="45.625837" lon="12.3289072"><ele>3.333333333333333</ele><time>2026-04-24T16:21:33.007Z</time></trkpt><trkpt lat="45.6257788" lon="12.3288239"><ele>3.5</ele><time>2026-04-24T16:21:35.01Z</time></trkpt><trkpt lat="45.625717" lon="12.3287852"><ele>3.6666666666666665</ele><time>2026-04-24T16:21:37.008Z</time></trkpt><trkpt lat="45.6256461" lon="12.3287637"><ele>3.833333333333333</ele><time>2026-04-24T16:21:39.022Z</time></trkpt><trkpt lat="45.6255789" lon="12.3287309"><ele>4.0</ele><time>2026-04-24T16:21:41.028Z</time></trkpt><trkpt lat="45.62549" lon="12.3286965"><ele>3.9999999999999996</ele><time>2026-04-24T16:21:43.033Z</time></trkpt><trkpt lat="45.625416" lon="12.3286723"><ele>4.0</ele><time>2026-04-24T16:21:45.019Z</time></trkpt><trkpt lat="45.6253424" lon="12.3286585"><ele>4.0</ele><time>2026-04-24T16:21:47.014Z</time></trkpt><trkpt lat="45.6252564" lon="12.3286247"><ele>4.0</ele><time>2026-04-24T16:21:49.008Z</time></trkpt><trkpt lat="45.625183" lon="12.3286083"><ele>3.9999999999999996</ele><time>2026-04-24T16:21:51.027Z</time></trkpt><trkpt lat="45.6250853" lon="12.3285833"><ele>4.0</ele><time>2026-04-24T16:21:53.012Z</time></trkpt><trkpt lat="45.6249771" lon="12.3285581"><ele>4.0</ele><time>2026-04-24T16:21:55.009Z</time></trkpt><trkpt lat="45.6248801" lon="12.3285359"><ele>4.0</ele><time>2026-04-24T16:21:57.011Z</time></trkpt><trkpt lat="45.6247736" lon="12.3285061"><ele>4.0</ele><time>2026-04-24T16:21:59.011Z</time></trkpt><trkpt lat="45.6246899" lon="12.3284757"><ele>4.0</ele><time>2026-04-24T16:22:01.015Z</time></trkpt><trkpt lat="45.6246063" lon="12.3284631"><ele>4.0</ele><time>2026-04-24T16:22:03.007Z</time></trkpt><trkpt lat="45.6245221" lon="12.3284598"><ele>3.833333333333333</ele><time>2026-04-24T16:22:05.03Z</time></trkpt><trkpt lat="45.6244541" lon="12.3284586"><ele>3.6666666666666665</ele><time>2026-04-24T16:22:07.029Z</time></trkpt><trkpt lat="45.6243907" lon="12.3284408"><ele>3.5</ele><time>2026-04-24T16:22:09.034Z</time></trkpt><trkpt lat="45.6242864" lon="12.3284161"><ele>3.333333333333333</ele><time>2026-04-24T16:22:11.012Z</time></trkpt><trkpt lat="45.6241913" lon="12.3284008"><ele>3.1666666666666665</ele><time>2026-04-24T16:22:13.018Z</time></trkpt><trkpt lat="45.6241003" lon="12.3283865"><ele>3.0</ele><time>2026-04-24T16:22:15.028Z</time></trkpt><trkpt lat="45.6240243" lon="12.3283975"><ele>3.0</ele><time>2026-04-24T16:22:17.013Z</time></trkpt><trkpt lat="45.6239617" lon="12.3284082"><ele>3.0</ele><time>2026-04-24T16:22:18.024Z</time></trkpt><trkpt lat="45.6238657" lon="12.3284379"><ele>3.0</ele><time>2026-04-24T16:22:20.024Z</time></trkpt><trkpt lat="45.6237609" lon="12.3284757"><ele>3.0</ele><time>2026-04-24T16:22:22.024Z</time></trkpt><trkpt lat="45.6236493" lon="12.3285142"><ele>3.0</ele><time>2026-04-24T16:22:24.017Z</time></trkpt><trkpt lat="45.6235524" lon="12.3285657"><ele>2.6</ele><time>2026-04-24T16:22:26.019Z</time></trkpt><trkpt lat="45.6234728" lon="12.3286091"><ele>2.1999999999999997</ele><time>2026-04-24T16:22:28.014Z</time></trkpt><trkpt lat="45.6234083" lon="12.3286533"><ele>1.8</ele><time>2026-04-24T16:22:30.023Z</time></trkpt><trkpt lat="45.6233213" lon="12.3286887"><ele>1.4</ele><time>2026-04-24T16:22:32.011Z</time></trkpt><trkpt lat="45.6232248" lon="12.3287348"><ele>1.0</ele><time>2026-04-24T16:22:34.007Z</time></trkpt><trkpt lat="45.6231107" lon="12.3287937"><ele>1.0</ele><time>2026-04-24T16:22:36.009Z</time></trkpt><trkpt lat="45.6230462" lon="12.3288415"><ele>1.0</ele><time>2026-04-24T16:22:37.02Z</time></trkpt><trkpt lat="45.6229334" lon="12.3289341"><ele>1.0</ele><time>2026-04-24T16:22:39.013Z</time></trkpt><trkpt lat="45.6228567" lon="12.3289918"><ele>1.0</ele><time>2026-04-24T16:22:41.006Z</time></trkpt><trkpt lat="45.6227748" lon="12.3290395"><ele>1.0</ele><time>2026-04-24T16:22:43.006Z</time></trkpt><trkpt lat="45.6226693" lon="12.3290918"><ele>1.4</ele><time>2026-04-24T16:22:45.004Z</time></trkpt><trkpt lat="45.6225879" lon="12.3291543"><ele>1.8</ele><time>2026-04-24T16:22:47.013Z</time></trkpt><trkpt lat="45.6224851" lon="12.3292214"><ele>2.1999999999999997</ele><time>2026-04-24T16:22:49.005Z</time></trkpt><trkpt lat="45.6223895" lon="12.3292785"><ele>2.6</ele><time>2026-04-24T16:22:51.011Z</time></trkpt><trkpt lat="45.622304" lon="12.3293385"><ele>3.0</ele><time>2026-04-24T16:22:53.004Z</time></trkpt><trkpt lat="45.6222211" lon="12.3293902"><ele>3.0</ele><time>2026-04-24T16:22:55.007Z</time></trkpt><trkpt lat="45.622134" lon="12.329446"><ele>3.0</ele><time>2026-04-24T16:22:57.017Z</time></trkpt><trkpt lat="45.6220347" lon="12.3295123"><ele>3.0</ele><time>2026-04-24T16:22:59.016Z</time></trkpt><trkpt lat="45.6219442" lon="12.3295682"><ele>3.0</ele><time>2026-04-24T16:23:01.02Z</time></trkpt><trkpt lat="45.6218386" lon="12.3296101"><ele>3.0</ele><time>2026-04-24T16:23:03.035Z</time></trkpt><trkpt lat="45.6217552" lon="12.3296463"><ele>2.6</ele><time>2026-04-24T16:23:05.011Z</time></trkpt><trkpt lat="45.6216865" lon="12.3296944"><ele>2.1999999999999997</ele><time>2026-04-24T16:23:07.016Z</time></trkpt><trkpt lat="45.6216122" lon="12.32976"><ele>1.8</ele><time>2026-04-24T16:23:09.019Z</time></trkpt><trkpt lat="45.6215115" lon="12.3298288"><ele>1.4</ele><time>2026-04-24T16:23:11.013Z</time></trkpt><trkpt lat="45.6214152" lon="12.3299016"><ele>1.0</ele><time>2026-04-24T16:23:13.011Z</time></trkpt><trkpt lat="45.6213407" lon="12.3299978"><ele>1.4</ele><time>2026-04-24T16:23:15.028Z</time></trkpt><trkpt lat="45.621292" lon="12.3301231"><ele>1.8</ele><time>2026-04-24T16:23:17.013Z</time></trkpt><trkpt lat="45.6212403" lon="12.3302382"><ele>2.1999999999999997</ele><time>2026-04-24T16:23:19.015Z</time></trkpt><trkpt lat="45.6212008" lon="12.3303877"><ele>2.6</ele><time>2026-04-24T16:23:21.005Z</time></trkpt><trkpt lat="45.6211829" lon="12.3305227"><ele>3.0</ele><time>2026-04-24T16:23:23.013Z</time></trkpt><trkpt lat="45.6211602" lon="12.3306712"><ele>3.2</ele><time>2026-04-24T16:23:25.014Z</time></trkpt><trkpt lat="45.6211447" lon="12.3308181"><ele>3.4</ele><time>2026-04-24T16:23:27.021Z</time></trkpt><trkpt lat="45.6211269" lon="12.33095"><ele>3.6000000000000005</ele><time>2026-04-24T16:23:29.03Z</time></trkpt><trkpt lat="45.6210961" lon="12.3310723"><ele>3.8000000000000003</ele><time>2026-04-24T16:23:31.016Z</time></trkpt><trkpt lat="45.6210685" lon="12.3311847"><ele>4.0</ele><time>2026-04-24T16:23:33.005Z</time></trkpt><trkpt lat="45.6210398" lon="12.3313035"><ele>3.2</ele><time>2026-04-24T16:23:35.007Z</time></trkpt><trkpt lat="45.6210079" lon="12.3314155"><ele>2.4000000000000004</ele><time>2026-04-24T16:23:37.008Z</time></trkpt><trkpt lat="45.6209603" lon="12.3315305"><ele>1.6</ele><time>2026-04-24T16:23:39.014Z</time></trkpt><trkpt lat="45.6209093" lon="12.3316557"><ele>0.8</ele><time>2026-04-24T16:23:41.02Z</time></trkpt><trkpt lat="45.6208506" lon="12.331781"><ele>0.0</ele><time>2026-04-24T16:23:43.019Z</time></trkpt><trkpt lat="45.6207852" lon="12.3319093"><ele>0.0</ele><time>2026-04-24T16:23:45.062Z</time></trkpt><trkpt lat="45.6207212" lon="12.3320252"><ele>0.0</ele><time>2026-04-24T16:23:47.023Z</time></trkpt><trkpt lat="45.6206504" lon="12.3321402"><ele>0.0</ele><time>2026-04-24T16:23:49.019Z</time></trkpt><trkpt lat="45.6205885" lon="12.3322371"><ele>0.0</ele><time>2026-04-24T16:23:51.034Z</time></trkpt><trkpt lat="45.620518" lon="12.3323193"><ele>0.0</ele><time>2026-04-24T16:23:53.016Z</time></trkpt><trkpt lat="45.6204352" lon="12.332408"><ele>0.4</ele><time>2026-04-24T16:23:55.017Z</time></trkpt><trkpt lat="45.6203556" lon="12.3324884"><ele>0.8</ele><time>2026-04-24T16:23:57.023Z</time></trkpt><trkpt lat="45.6202751" lon="12.3325575"><ele>1.2000000000000002</ele><time>2026-04-24T16:23:59.019Z</time></trkpt><trkpt lat="45.620195" lon="12.3326205"><ele>1.6</ele><time>2026-04-24T16:24:01.025Z</time></trkpt><trkpt lat="45.6200931" lon="12.3326798"><ele>2.0</ele><time>2026-04-24T16:24:03.019Z</time></trkpt><trkpt lat="45.6200049" lon="12.3327235"><ele>2.0</ele><time>2026-04-24T16:24:05.03Z</time></trkpt><trkpt lat="45.6199362" lon="12.3327799"><ele>2.0</ele><time>2026-04-24T16:24:07.024Z</time></trkpt><trkpt lat="45.6198283" lon="12.332834"><ele>2.0</ele><time>2026-04-24T16:24:09.018Z</time></trkpt><trkpt lat="45.6197173" lon="12.3329007"><ele>2.0</ele><time>2026-04-24T16:24:11.013Z</time></trkpt><trkpt lat="45.6196132" lon="12.3329564"><ele>2.0</ele><time>2026-04-24T16:24:13.022Z</time></trkpt><trkpt lat="45.6195454" lon="12.333007"><ele>2.6</ele><time>2026-04-24T16:24:15.033Z</time></trkpt><trkpt lat="45.6194513" lon="12.3330608"><ele>3.2</ele><time>2026-04-24T16:24:17.023Z</time></trkpt><trkpt lat="45.6193631" lon="12.3331122"><ele>3.8</ele><time>2026-04-24T16:24:19.02Z</time></trkpt><trkpt lat="45.6192756" lon="12.3331689"><ele>4.4</ele><time>2026-04-24T16:24:21.009Z</time></trkpt><trkpt lat="45.6191904" lon="12.3332276"><ele>5.0</ele><time>2026-04-24T16:24:23.044Z</time></trkpt><trkpt lat="45.6191069" lon="12.3332826"><ele>5.0</ele><time>2026-04-24T16:24:25.023Z</time></trkpt><trkpt lat="45.6190426" lon="12.3333535"><ele>5.0</ele><time>2026-04-24T16:24:27.026Z</time></trkpt><trkpt lat="45.6189753" lon="12.3334141"><ele>5.0</ele><time>2026-04-24T16:24:29.039Z</time></trkpt><trkpt lat="45.6188875" lon="12.3335007"><ele>5.0</ele><time>2026-04-24T16:24:31.004Z</time></trkpt><trkpt lat="45.6188123" lon="12.3335883"><ele>5.0</ele><time>2026-04-24T16:24:33.012Z</time></trkpt><trkpt lat="45.6187398" lon="12.3336755"><ele>5.0</ele><time>2026-04-24T16:24:35.01Z</time></trkpt><trkpt lat="45.6186655" lon="12.3337847"><ele>5.0</ele><time>2026-04-24T16:24:37.002Z</time></trkpt><trkpt lat="45.6185916" lon="12.3338925"><ele>5.0</ele><time>2026-04-24T16:24:39.035Z</time></trkpt><trkpt lat="45.618529" lon="12.3340333"><ele>5.0</ele><time>2026-04-24T16:24:41.013Z</time></trkpt><trkpt lat="45.6185029" lon="12.3341239"><ele>5.0</ele><time>2026-04-24T16:24:42.027Z</time></trkpt><trkpt lat="45.6184791" lon="12.3342145"><ele>4.6</ele><time>2026-04-24T16:24:43.023Z</time></trkpt><trkpt lat="45.6184535" lon="12.3343737"><ele>4.2</ele><time>2026-04-24T16:24:45.034Z</time></trkpt><trkpt lat="45.61844" lon="12.3345332"><ele>3.8</ele><time>2026-04-24T16:24:47.037Z</time></trkpt><trkpt lat="45.6184433" lon="12.3346642"><ele>3.4</ele><time>2026-04-24T16:24:49.041Z</time></trkpt><trkpt lat="45.6184573" lon="12.3347874"><ele>3.0</ele><time>2026-04-24T16:24:51.025Z</time></trkpt><trkpt lat="45.6185023" lon="12.3349257"><ele>2.8</ele><time>2026-04-24T16:24:53.025Z</time></trkpt><trkpt lat="45.6185513" lon="12.3350509"><ele>2.5999999999999996</ele><time>2026-04-24T16:24:55.031Z</time></trkpt><trkpt lat="45.6186041" lon="12.3351689"><ele>2.4000000000000004</ele><time>2026-04-24T16:24:57.035Z</time></trkpt><trkpt lat="45.6186472" lon="12.3353273"><ele>2.2</ele><time>2026-04-24T16:24:59.03Z</time></trkpt><trkpt lat="45.6186673" lon="12.3354627"><ele>2.0</ele><time>2026-04-24T16:25:01.048Z</time></trkpt><trkpt lat="45.6186602" lon="12.3356135"><ele>2.0</ele><time>2026-04-24T16:25:03.042Z</time></trkpt><trkpt lat="45.6186487" lon="12.3357644"><ele>2.0</ele><time>2026-04-24T16:25:05.033Z</time></trkpt><trkpt lat="45.6186048" lon="12.335898"><ele>2.0</ele><time>2026-04-24T16:25:07.019Z</time></trkpt><trkpt lat="45.6185431" lon="12.3359996"><ele>2.0</ele><time>2026-04-24T16:25:09.024Z</time></trkpt><trkpt lat="45.618464" lon="12.336088"><ele>2.0</ele><time>2026-04-24T16:25:11.023Z</time></trkpt><trkpt lat="45.6183904" lon="12.336135"><ele>2.0</ele><time>2026-04-24T16:25:13.029Z</time></trkpt><trkpt lat="45.6183191" lon="12.336159"><ele>2.0</ele><time>2026-04-24T16:25:15.027Z</time></trkpt><trkpt lat="45.6182263" lon="12.336195"><ele>2.0</ele><time>2026-04-24T16:25:17.03Z</time></trkpt><trkpt lat="45.6181249" lon="12.3362233"><ele>2.0</ele><time>2026-04-24T16:25:19.026Z</time></trkpt><trkpt lat="45.6180356" lon="12.3362448"><ele>2.0</ele><time>2026-04-24T16:25:21.034Z</time></trkpt><trkpt lat="45.6179352" lon="12.3362571"><ele>2.0</ele><time>2026-04-24T16:25:23.025Z</time></trkpt><trkpt lat="45.6178286" lon="12.3362572"><ele>2.0</ele><time>2026-04-24T16:25:25.02Z</time></trkpt><trkpt lat="45.6177048" lon="12.3362468"><ele>2.0</ele><time>2026-04-24T16:25:27.028Z</time></trkpt><trkpt lat="45.6176073" lon="12.3362061"><ele>2.0</ele><time>2026-04-24T16:25:29.005Z</time></trkpt><trkpt lat="45.6174945" lon="12.3361416"><ele>1.6</ele><time>2026-04-24T16:25:31.016Z</time></trkpt><trkpt lat="45.6174043" lon="12.3360649"><ele>1.2000000000000002</ele><time>2026-04-24T16:25:33.024Z</time></trkpt><trkpt lat="45.6173256" lon="12.3360081"><ele>0.8</ele><time>2026-04-24T16:25:35.023Z</time></trkpt><trkpt lat="45.6172319" lon="12.3359406"><ele>0.4</ele><time>2026-04-24T16:25:37.025Z</time></trkpt><trkpt lat="45.617119" lon="12.3358718"><ele>0.0</ele><time>2026-04-24T16:25:39.036Z</time></trkpt><trkpt lat="45.6170136" lon="12.3358006"><ele>0.4</ele><time>2026-04-24T16:25:41.02Z</time></trkpt><trkpt lat="45.6169122" lon="12.3357343"><ele>0.8</ele><time>2026-04-24T16:25:43.027Z</time></trkpt><trkpt lat="45.6168425" lon="12.3356872"><ele>1.2000000000000002</ele><time>2026-04-24T16:25:45.012Z</time></trkpt><trkpt lat="45.616762" lon="12.3356484"><ele>1.6</ele><time>2026-04-24T16:25:47.033Z</time></trkpt><trkpt lat="45.6166734" lon="12.3356093"><ele>2.0</ele><time>2026-04-24T16:25:49.016Z</time></trkpt><trkpt lat="45.6165792" lon="12.3355662"><ele>1.8</ele><time>2026-04-24T16:25:51.024Z</time></trkpt><trkpt lat="45.616493" lon="12.3355418"><ele>1.6</ele><time>2026-04-24T16:25:53.017Z</time></trkpt><trkpt lat="45.6163827" lon="12.3355073"><ele>1.4000000000000001</ele><time>2026-04-24T16:25:55.015Z</time></trkpt><trkpt lat="45.6162852" lon="12.3354893"><ele>1.2000000000000002</ele><time>2026-04-24T16:25:57.018Z</time></trkpt><trkpt lat="45.6161833" lon="12.3354855"><ele>1.0</ele><time>2026-04-24T16:25:59.022Z</time></trkpt><trkpt lat="45.6160799" lon="12.3354721"><ele>1.0</ele><time>2026-04-24T16:26:01.016Z</time></trkpt><trkpt lat="45.6160145" lon="12.3354794"><ele>1.0</ele><time>2026-04-24T16:26:02.038Z</time></trkpt><trkpt lat="45.6159145" lon="12.3354877"><ele>1.0</ele><time>2026-04-24T16:26:04.017Z</time></trkpt><trkpt lat="45.6158166" lon="12.3354873"><ele>1.0</ele><time>2026-04-24T16:26:06.022Z</time></trkpt><trkpt lat="45.6157112" lon="12.3355047"><ele>1.0</ele><time>2026-04-24T16:26:08.015Z</time></trkpt><trkpt lat="45.6156093" lon="12.3355133"><ele>1.0</ele><time>2026-04-24T16:26:10.012Z</time></trkpt><trkpt lat="45.6155059" lon="12.3355176"><ele>1.0</ele><time>2026-04-24T16:26:12.013Z</time></trkpt><trkpt lat="45.6154067" lon="12.3355184"><ele>1.0</ele><time>2026-04-24T16:26:14.01Z</time></trkpt><trkpt lat="45.6153125" lon="12.3355188"><ele>1.0</ele><time>2026-04-24T16:26:16.03Z</time></trkpt><trkpt lat="45.6152128" lon="12.335525"><ele>1.0</ele><time>2026-04-24T16:26:18.038Z</time></trkpt><trkpt lat="45.6151495" lon="12.3355293"><ele>1.1666666666666665</ele><time>2026-04-24T16:26:19.008Z</time></trkpt><trkpt lat="45.615069" lon="12.3355426"><ele>1.3333333333333333</ele><time>2026-04-24T16:26:20.022Z</time></trkpt><trkpt lat="45.614953" lon="12.3355457"><ele>1.5</ele><time>2026-04-24T16:26:22.009Z</time></trkpt><trkpt lat="45.6148587" lon="12.3355404"><ele>1.6666666666666665</ele><time>2026-04-24T16:26:24.019Z</time></trkpt><trkpt lat="45.6147903" lon="12.3355469"><ele>1.8333333333333333</ele><time>2026-04-24T16:26:26.037Z</time></trkpt><trkpt lat="45.614702" lon="12.3355483"><ele>2.0</ele><time>2026-04-24T16:26:28.026Z</time></trkpt><trkpt lat="45.6145966" lon="12.3355435"><ele>2.0</ele><time>2026-04-24T16:26:30.023Z</time></trkpt><trkpt lat="45.6145028" lon="12.3355482"><ele>2.0</ele><time>2026-04-24T16:26:32.017Z</time></trkpt><trkpt lat="45.6144126" lon="12.3355415"><ele>2.0</ele><time>2026-04-24T16:26:34.038Z</time></trkpt><trkpt lat="45.6143087" lon="12.3355323"><ele>2.0</ele><time>2026-04-24T16:26:36.024Z</time></trkpt><trkpt lat="45.6141993" lon="12.335527"><ele>2.0</ele><time>2026-04-24T16:26:38.038Z</time></trkpt><trkpt lat="45.6140977" lon="12.3355244"><ele>2.4000000000000004</ele><time>2026-04-24T16:26:40.023Z</time></trkpt><trkpt lat="45.613992" lon="12.3355303"><ele>2.8000000000000003</ele><time>2026-04-24T16:26:42.003Z</time></trkpt><trkpt lat="45.6138868" lon="12.3355317"><ele>3.2</ele><time>2026-04-24T16:26:44.022Z</time></trkpt><trkpt lat="45.6138053" lon="12.3355292"><ele>3.6</ele><time>2026-04-24T16:26:46.018Z</time></trkpt><trkpt lat="45.6137236" lon="12.3355266"><ele>4.0</ele><time>2026-04-24T16:26:48.028Z</time></trkpt><trkpt lat="45.6136211" lon="12.3355396"><ele>4.2</ele><time>2026-04-24T16:26:50.021Z</time></trkpt><trkpt lat="45.613522" lon="12.3355543"><ele>4.4</ele><time>2026-04-24T16:26:52.007Z</time></trkpt><trkpt lat="45.6134145" lon="12.33559"><ele>4.6</ele><time>2026-04-24T16:26:54.011Z</time></trkpt><trkpt lat="45.6133282" lon="12.3356032"><ele>4.8</ele><time>2026-04-24T16:26:56.027Z</time></trkpt><trkpt lat="45.6132351" lon="12.3355978"><ele>5.0</ele><time>2026-04-24T16:26:58.011Z</time></trkpt><trkpt lat="45.613135" lon="12.3356044"><ele>5.0</ele><time>2026-04-24T16:27:00.031Z</time></trkpt><trkpt lat="45.6130458" lon="12.3356441"><ele>5.0</ele><time>2026-04-24T16:27:02.025Z</time></trkpt><trkpt lat="45.612966" lon="12.3356883"><ele>5.0</ele><time>2026-04-24T16:27:03.006Z</time></trkpt><trkpt lat="45.6129164" lon="12.3357531"><ele>5.0</ele><time>2026-04-24T16:27:04.032Z</time></trkpt><trkpt lat="45.6128385" lon="12.3359041"><ele>5.0</ele><time>2026-04-24T16:27:06.019Z</time></trkpt><trkpt lat="45.6128006" lon="12.3359807"><ele>5.0</ele><time>2026-04-24T16:27:07.003Z</time></trkpt><trkpt lat="45.6127567" lon="12.3361315"><ele>5.0</ele><time>2026-04-24T16:27:09.01Z</time></trkpt><trkpt lat="45.6127234" lon="12.3362317"><ele>5.0</ele><time>2026-04-24T16:27:11.011Z</time></trkpt><trkpt lat="45.6127056" lon="12.3363217"><ele>5.0</ele><time>2026-04-24T16:27:13.011Z</time></trkpt><trkpt lat="45.6126996" lon="12.3364179"><ele>5.0</ele><time>2026-04-24T16:27:15.023Z</time></trkpt><trkpt lat="45.6127161" lon="12.3365133"><ele>5.0</ele><time>2026-04-24T16:27:17.022Z</time></trkpt><trkpt lat="45.6127385" lon="12.3366016"><ele>5.0</ele><time>2026-04-24T16:27:19.019Z</time></trkpt><trkpt lat="45.6127671" lon="12.3367296"><ele>5.0</ele><time>2026-04-24T16:27:21.003Z</time></trkpt><trkpt lat="45.6127957" lon="12.3368457"><ele>5.0</ele><time>2026-04-24T16:27:23.041Z</time></trkpt><trkpt lat="45.6128201" lon="12.3369374"><ele>5.0</ele><time>2026-04-24T16:27:25.017Z</time></trkpt><trkpt lat="45.6128489" lon="12.3370444"><ele>5.0</ele><time>2026-04-24T16:27:28.035Z</time></trkpt><trkpt lat="45.612891" lon="12.3371356"><ele>5.0</ele><time>2026-04-24T16:27:30.008Z</time></trkpt><trkpt lat="45.6129389" lon="12.3372615"><ele>5.0</ele><time>2026-04-24T16:27:33.023Z</time></trkpt><trkpt lat="45.6129867" lon="12.3373315"><ele>5.0</ele><time>2026-04-24T16:27:35.01Z</time></trkpt><trkpt lat="45.6130452" lon="12.3374319"><ele>4.571428571428571</ele><time>2026-04-24T16:27:38.029Z</time></trkpt><trkpt lat="45.6130788" lon="12.3375084"><ele>4.142857142857143</ele><time>2026-04-24T16:27:40.014Z</time></trkpt><trkpt lat="45.6130995" lon="12.3375978"><ele>3.7142857142857144</ele><time>2026-04-24T16:27:43.049Z</time></trkpt><trkpt lat="45.6131072" lon="12.3376906"><ele>3.2857142857142856</ele><time>2026-04-24T16:27:45.019Z</time></trkpt><trkpt lat="45.6130995" lon="12.3377901"><ele>2.8571428571428568</ele><time>2026-04-24T16:27:47.016Z</time></trkpt><trkpt lat="45.6130277" lon="12.3378323"><ele>2.4285714285714284</ele><time>2026-04-24T16:27:49.01Z</time></trkpt><trkpt lat="45.6129612" lon="12.3379302"><ele>2.0</ele><time>2026-04-24T16:27:51.025Z</time></trkpt><trkpt lat="45.6128695" lon="12.3379795"><ele>2.333333333333333</ele><time>2026-04-24T16:27:53.024Z</time></trkpt><trkpt lat="45.6127826" lon="12.3380128"><ele>2.6666666666666665</ele><time>2026-04-24T16:27:55.017Z</time></trkpt><trkpt lat="45.6126972" lon="12.3380419"><ele>3.0</ele><time>2026-04-24T16:27:57.046Z</time></trkpt><trkpt lat="45.6126041" lon="12.3380596"><ele>3.333333333333333</ele><time>2026-04-24T16:27:59.036Z</time></trkpt><trkpt lat="45.6125166" lon="12.3380791"><ele>3.6666666666666665</ele><time>2026-04-24T16:28:01.031Z</time></trkpt><trkpt lat="45.6124551" lon="12.3380053"><ele>4.0</ele><time>2026-04-24T16:28:04.038Z</time></trkpt><trkpt lat="45.6124409" lon="12.3378824"><ele>4.2</ele><time>2026-04-24T16:28:06.03Z</time></trkpt><trkpt lat="45.612443" lon="12.3377387"><ele>4.4</ele><time>2026-04-24T16:28:08.024Z</time></trkpt><trkpt lat="45.6124393" lon="12.3376051"><ele>4.6</ele><time>2026-04-24T16:28:10.026Z</time></trkpt><trkpt lat="45.6124229" lon="12.337483"><ele>4.8</ele><time>2026-04-24T16:28:12.029Z</time></trkpt><trkpt lat="45.6124021" lon="12.3373487"><ele>5.0</ele><time>2026-04-24T16:28:14.02Z</time></trkpt><trkpt lat="45.6123908" lon="12.3372239"><ele>5.0</ele><time>2026-04-24T16:28:16.012Z</time></trkpt><trkpt lat="45.6123783" lon="12.3371127"><ele>5.0</ele><time>2026-04-24T16:28:18.039Z</time></trkpt><trkpt lat="45.6123627" lon="12.3369915"><ele>5.0</ele><time>2026-04-24T16:28:20.045Z</time></trkpt><trkpt lat="45.6123475" lon="12.3368818"><ele>5.0</ele><time>2026-04-24T16:28:22.034Z</time></trkpt><trkpt lat="45.6122837" lon="12.336846"><ele>5.0</ele><time>2026-04-24T16:28:25.023Z</time></trkpt><trkpt lat="45.612218" lon="12.3368676"><ele>5.0</ele><time>2026-04-24T16:28:27.028Z</time></trkpt><trkpt lat="45.612088" lon="12.3368835"><ele>4.8</ele><time>2026-04-24T16:28:30.032Z</time></trkpt><trkpt lat="45.6119759" lon="12.3369102"><ele>4.6</ele><time>2026-04-24T16:28:32.035Z</time></trkpt><trkpt lat="45.6118906" lon="12.3369472"><ele>4.4</ele><time>2026-04-24T16:28:35.033Z</time></trkpt><trkpt lat="45.6117852" lon="12.3369648"><ele>4.2</ele><time>2026-04-24T16:28:37.035Z</time></trkpt><trkpt lat="45.6117095" lon="12.3369775"><ele>4.0</ele><time>2026-04-24T16:28:39.031Z</time></trkpt><trkpt lat="45.6116467" lon="12.3369442"><ele>4.0</ele><time>2026-04-24T16:28:42.019Z</time></trkpt><trkpt lat="45.6116304" lon="12.3368111"><ele>4.0</ele><time>2026-04-24T16:28:45.026Z</time></trkpt><trkpt lat="45.6116139" lon="12.3366747"><ele>4.0</ele><time>2026-04-24T16:28:47.026Z</time></trkpt><trkpt lat="45.611594" lon="12.3365281"><ele>4.0</ele><time>2026-04-24T16:28:49.02Z</time></trkpt><trkpt lat="45.6115907" lon="12.3363821"><ele>4.0</ele><time>2026-04-24T16:28:51.017Z</time></trkpt><trkpt lat="45.611577" lon="12.3362436"><ele>4.2</ele><time>2026-04-24T16:28:53.024Z</time></trkpt><trkpt lat="45.6115658" lon="12.3360927"><ele>4.4</ele><time>2026-04-24T16:28:55.026Z</time></trkpt><trkpt lat="45.6115406" lon="12.3359693"><ele>4.6</ele><time>2026-04-24T16:28:57.03Z</time></trkpt><trkpt lat="45.611537" lon="12.3358433"><ele>4.8</ele><time>2026-04-24T16:28:59.044Z</time></trkpt><trkpt lat="45.6115244" lon="12.3357101"><ele>5.0</ele><time>2026-04-24T16:29:01.04Z</time></trkpt><trkpt lat="45.611513" lon="12.3355676"><ele>4.8</ele><time>2026-04-24T16:29:03.03Z</time></trkpt><trkpt lat="45.611496" lon="12.3354287"><ele>4.6</ele><time>2026-04-24T16:29:05.038Z</time></trkpt><trkpt lat="45.6114792" lon="12.3353353"><ele>4.4</ele><time>2026-04-24T16:29:06.034Z</time></trkpt><trkpt lat="45.6114596" lon="12.335202"><ele>4.2</ele><time>2026-04-24T16:29:08.031Z</time></trkpt><trkpt lat="45.6114381" lon="12.3350357"><ele>4.0</ele><time>2026-04-24T16:29:10.039Z</time></trkpt><trkpt lat="45.6114207" lon="12.3348886"><ele>4.0</ele><time>2026-04-24T16:29:12.049Z</time></trkpt><trkpt lat="45.6114006" lon="12.3347628"><ele>4.0</ele><time>2026-04-24T16:29:14.041Z</time></trkpt><trkpt lat="45.611391" lon="12.3346354"><ele>4.0</ele><time>2026-04-24T16:29:16.028Z</time></trkpt><trkpt lat="45.6113688" lon="12.3344765"><ele>4.0</ele><time>2026-04-24T16:29:18.021Z</time></trkpt><trkpt lat="45.6113574" lon="12.3343509"><ele>4.0</ele><time>2026-04-24T16:29:20.026Z</time></trkpt><trkpt lat="45.6113354" lon="12.3342003"><ele>4.166666666666666</ele><time>2026-04-24T16:29:22.033Z</time></trkpt><trkpt lat="45.6113122" lon="12.3341164"><ele>4.333333333333333</ele><time>2026-04-24T16:29:23.028Z</time></trkpt><trkpt lat="45.6112848" lon="12.3339937"><ele>4.5</ele><time>2026-04-24T16:29:25.03Z</time></trkpt><trkpt lat="45.6112654" lon="12.3338777"><ele>4.666666666666667</ele><time>2026-04-24T16:29:27.014Z</time></trkpt><trkpt lat="45.6112504" lon="12.3337534"><ele>4.833333333333334</ele><time>2026-04-24T16:29:29.036Z</time></trkpt><trkpt lat="45.6112394" lon="12.333636"><ele>5.0</ele><time>2026-04-24T16:29:31.043Z</time></trkpt><trkpt lat="45.6112154" lon="12.333488"><ele>5.166666666666667</ele><time>2026-04-24T16:29:33.027Z</time></trkpt><trkpt lat="45.6112003" lon="12.333399"><ele>5.333333333333334</ele><time>2026-04-24T16:29:34.033Z</time></trkpt><trkpt lat="45.6111488" lon="12.3332494"><ele>5.5</ele><time>2026-04-24T16:29:36.027Z</time></trkpt><trkpt lat="45.6111113" lon="12.3331428"><ele>5.666666666666667</ele><time>2026-04-24T16:29:38.025Z</time></trkpt><trkpt lat="45.6110623" lon="12.3330613"><ele>5.833333333333333</ele><time>2026-04-24T16:29:40.014Z</time></trkpt><trkpt lat="45.6109915" lon="12.333086"><ele>6.0</ele><time>2026-04-24T16:29:42.008Z</time></trkpt><trkpt lat="45.610919" lon="12.3331392"><ele>6.0</ele><time>2026-04-24T16:29:44.013Z</time></trkpt><trkpt lat="45.6108157" lon="12.3332037"><ele>6.0</ele><time>2026-04-24T16:29:46.028Z</time></trkpt><trkpt lat="45.6107023" lon="12.3332539"><ele>6.0</ele><time>2026-04-24T16:29:48.012Z</time></trkpt><trkpt lat="45.6106218" lon="12.3333129"><ele>6.0</ele><time>2026-04-24T16:29:50.038Z</time></trkpt><trkpt lat="45.6105311" lon="12.3333675"><ele>6.0</ele><time>2026-04-24T16:29:52.018Z</time></trkpt><trkpt lat="45.6104361" lon="12.3334135"><ele>6.0</ele><time>2026-04-24T16:29:54.029Z</time></trkpt><trkpt lat="45.6103483" lon="12.3334642"><ele>6.0</ele><time>2026-04-24T16:29:56.017Z</time></trkpt><trkpt lat="45.6102464" lon="12.3335049"><ele>6.0</ele><time>2026-04-24T16:29:58.031Z</time></trkpt><trkpt lat="45.6101618" lon="12.3335466"><ele>6.0</ele><time>2026-04-24T16:30:00.016Z</time></trkpt><trkpt lat="45.6100733" lon="12.3335764"><ele>6.0</ele><time>2026-04-24T16:30:02.027Z</time></trkpt><trkpt lat="45.6099928" lon="12.333599"><ele>6.0</ele><time>2026-04-24T16:30:04.024Z</time></trkpt><trkpt lat="45.6099286" lon="12.3336141"><ele>6.0</ele><time>2026-04-24T16:30:05.016Z</time></trkpt><trkpt lat="45.6098327" lon="12.3336375"><ele>6.0</ele><time>2026-04-24T16:30:07.019Z</time></trkpt><trkpt lat="45.6097419" lon="12.3336718"><ele>6.0</ele><time>2026-04-24T16:30:09.019Z</time></trkpt><trkpt lat="45.6096253" lon="12.3336932"><ele>6.0</ele><time>2026-04-24T16:30:11.024Z</time></trkpt><trkpt lat="45.6095233" lon="12.3337095"><ele>5.6</ele><time>2026-04-24T16:30:13.035Z</time></trkpt><trkpt lat="45.6094232" lon="12.3337313"><ele>5.199999999999999</ele><time>2026-04-24T16:30:15.016Z</time></trkpt><trkpt lat="45.6093288" lon="12.3337523"><ele>4.800000000000001</ele><time>2026-04-24T16:30:17.011Z</time></trkpt><trkpt lat="45.6092369" lon="12.3337496"><ele>4.4</ele><time>2026-04-24T16:30:19.015Z</time></trkpt><trkpt lat="45.6091385" lon="12.3337347"><ele>4.0</ele><time>2026-04-24T16:30:21.019Z</time></trkpt><trkpt lat="45.6090398" lon="12.3337258"><ele>3.9999999999999996</ele><time>2026-04-24T16:30:23.016Z</time></trkpt><trkpt lat="45.6089516" lon="12.3337125"><ele>4.0</ele><time>2026-04-24T16:30:25.03Z</time></trkpt><trkpt lat="45.6088729" lon="12.333692"><ele>4.0</ele><time>2026-04-24T16:30:27.028Z</time></trkpt><trkpt lat="45.6087895" lon="12.3336727"><ele>4.0</ele><time>2026-04-24T16:30:29.027Z</time></trkpt><trkpt lat="45.6087048" lon="12.3336522"><ele>3.9999999999999996</ele><time>2026-04-24T16:30:31.03Z</time></trkpt><trkpt lat="45.6086003" lon="12.3336254"><ele>4.0</ele><time>2026-04-24T16:30:33.031Z</time></trkpt><trkpt lat="45.6084979" lon="12.3336012"><ele>3.6</ele><time>2026-04-24T16:30:35.032Z</time></trkpt><trkpt lat="45.608406" lon="12.333578"><ele>3.2</ele><time>2026-04-24T16:30:37.034Z</time></trkpt><trkpt lat="45.6083132" lon="12.3335515"><ele>2.8000000000000003</ele><time>2026-04-24T16:30:39.01Z</time></trkpt><trkpt lat="45.6082198" lon="12.3335323"><ele>2.4000000000000004</ele><time>2026-04-24T16:30:42.033Z</time></trkpt><trkpt lat="45.60813" lon="12.3334983"><ele>2.0</ele><time>2026-04-24T16:30:44.011Z</time></trkpt><trkpt lat="45.6080281" lon="12.3334367"><ele>1.9999999999999998</ele><time>2026-04-24T16:30:46.037Z</time></trkpt><trkpt lat="45.6079746" lon="12.3333752"><ele>2.0</ele><time>2026-04-24T16:30:48.026Z</time></trkpt><trkpt lat="45.6078894" lon="12.3332871"><ele>2.0</ele><time>2026-04-24T16:30:50.026Z</time></trkpt><trkpt lat="45.607821" lon="12.3332057"><ele>2.0</ele><time>2026-04-24T16:30:52.013Z</time></trkpt><trkpt lat="45.6077693" lon="12.3331489"><ele>1.9999999999999998</ele><time>2026-04-24T16:30:54.028Z</time></trkpt><trkpt lat="45.6077001" lon="12.3331097"><ele>2.0</ele><time>2026-04-24T16:30:56.025Z</time></trkpt><trkpt lat="45.6076179" lon="12.3330957"><ele>2.0</ele><time>2026-04-24T16:30:58.019Z</time></trkpt><trkpt lat="45.6075068" lon="12.3330982"><ele>2.0</ele><time>2026-04-24T16:31:00.046Z</time></trkpt><trkpt lat="45.6074077" lon="12.333096"><ele>2.0</ele><time>2026-04-24T16:31:02.056Z</time></trkpt><trkpt lat="45.6073192" lon="12.3330915"><ele>2.0</ele><time>2026-04-24T16:31:04.041Z</time></trkpt><trkpt lat="45.607227" lon="12.3330968"><ele>2.0</ele><time>2026-04-24T16:31:07.014Z</time></trkpt><trkpt lat="45.607144" lon="12.3330993"><ele>1.9999999999999998</ele><time>2026-04-24T16:31:09.038Z</time></trkpt><trkpt lat="45.6070703" lon="12.3330902"><ele>2.0</ele><time>2026-04-24T16:31:11.018Z</time></trkpt><trkpt lat="45.6069955" lon="12.3330872"><ele>2.0</ele><time>2026-04-24T16:31:13.026Z</time></trkpt><trkpt lat="45.6069123" lon="12.3330874"><ele>2.0</ele><time>2026-04-24T16:31:15.029Z</time></trkpt><trkpt lat="45.6068348" lon="12.3330855"><ele>1.9999999999999998</ele><time>2026-04-24T16:31:17.004Z</time></trkpt><trkpt lat="45.6067664" lon="12.3330754"><ele>2.0</ele><time>2026-04-24T16:31:18.038Z</time></trkpt><trkpt lat="45.6066891" lon="12.3330478"><ele>2.2</ele><time>2026-04-24T16:31:20.016Z</time></trkpt><trkpt lat="45.6065802" lon="12.3330227"><ele>2.4000000000000004</ele><time>2026-04-24T16:31:22.019Z</time></trkpt><trkpt lat="45.6064863" lon="12.3330049"><ele>2.5999999999999996</ele><time>2026-04-24T16:31:24.014Z</time></trkpt><trkpt lat="45.6063985" lon="12.3329883"><ele>2.8</ele><time>2026-04-24T16:31:26.05Z</time></trkpt><trkpt lat="45.606277" lon="12.3329722"><ele>3.0</ele><time>2026-04-24T16:31:29.035Z</time></trkpt><trkpt lat="45.6061943" lon="12.3329567"><ele>3.0</ele><time>2026-04-24T16:31:31.027Z</time></trkpt><trkpt lat="45.606091" lon="12.3329345"><ele>3.0</ele><time>2026-04-24T16:31:33.026Z</time></trkpt><trkpt lat="45.606012" lon="12.3329494"><ele>3.0</ele><time>2026-04-24T16:31:35.022Z</time></trkpt><trkpt lat="45.6059689" lon="12.3330282"><ele>3.0</ele><time>2026-04-24T16:31:37.036Z</time></trkpt><trkpt lat="45.6059414" lon="12.3331294"><ele>3.0</ele><time>2026-04-24T16:31:39.014Z</time></trkpt><trkpt lat="45.6059135" lon="12.3332593"><ele>3.0</ele><time>2026-04-24T16:31:41.023Z</time></trkpt><trkpt lat="45.6058911" lon="12.3333724"><ele>3.3333333333333335</ele><time>2026-04-24T16:31:43.021Z</time></trkpt><trkpt lat="45.6058694" lon="12.3335088"><ele>3.666666666666667</ele><time>2026-04-24T16:31:45.021Z</time></trkpt><trkpt lat="45.6058387" lon="12.3336369"><ele>4.0</ele><time>2026-04-24T16:31:47.041Z</time></trkpt><trkpt lat="45.6058192" lon="12.3337647"><ele>4.333333333333334</ele><time>2026-04-24T16:31:49.036Z</time></trkpt><trkpt lat="45.6057985" lon="12.3338828"><ele>4.666666666666667</ele><time>2026-04-24T16:31:51.018Z</time></trkpt><trkpt lat="45.6057782" lon="12.333977"><ele>5.0</ele><time>2026-04-24T16:31:53.03Z</time></trkpt><trkpt lat="45.6057043" lon="12.3339953"><ele>5.0</ele><time>2026-04-24T16:31:58.011Z</time></trkpt><trkpt lat="45.6056151" lon="12.3339714"><ele>5.0</ele><time>2026-04-24T16:32:01.005Z</time></trkpt><trkpt lat="45.6055395" lon="12.33395"><ele>5.0</ele><time>2026-04-24T16:32:03.014Z</time></trkpt><trkpt lat="45.6054452" lon="12.3339234"><ele>5.0</ele><time>2026-04-24T16:32:05.019Z</time></trkpt><trkpt lat="45.6053661" lon="12.3339151"><ele>5.0</ele><time>2026-04-24T16:32:07.017Z</time></trkpt><trkpt lat="45.6052881" lon="12.3339057"><ele>5.0</ele><time>2026-04-24T16:32:09.023Z</time></trkpt><trkpt lat="45.6051867" lon="12.3338687"><ele>4.833333333333334</ele><time>2026-04-24T16:32:11.028Z</time></trkpt><trkpt lat="45.6051186" lon="12.3338551"><ele>4.666666666666667</ele><time>2026-04-24T16:32:13.035Z</time></trkpt><trkpt lat="45.6050139" lon="12.3338284"><ele>4.5</ele><time>2026-04-24T16:32:15.022Z</time></trkpt><trkpt lat="45.6049331" lon="12.3338092"><ele>4.333333333333333</ele><time>2026-04-24T16:32:17.03Z</time></trkpt><trkpt lat="45.6048507" lon="12.3337947"><ele>4.166666666666666</ele><time>2026-04-24T16:32:19.037Z</time></trkpt><trkpt lat="45.6047821" lon="12.3337921"><ele>4.0</ele><time>2026-04-24T16:32:21.026Z</time></trkpt><trkpt lat="45.6047188" lon="12.3338469"><ele>4.333333333333333</ele><time>2026-04-24T16:32:23.032Z</time></trkpt><trkpt lat="45.6046636" lon="12.3339298"><ele>4.666666666666666</ele><time>2026-04-24T16:32:25.032Z</time></trkpt><trkpt lat="45.604618" lon="12.3340095"><ele>5.0</ele><time>2026-04-24T16:32:28.024Z</time></trkpt><trkpt lat="45.6045929" lon="12.3341312"><ele>5.333333333333333</ele><time>2026-04-24T16:32:31.017Z</time></trkpt><trkpt lat="45.604564" lon="12.3342711"><ele>5.666666666666667</ele><time>2026-04-24T16:32:33.005Z</time></trkpt><trkpt lat="45.6045385" lon="12.334391"><ele>6.0</ele><time>2026-04-24T16:32:35.008Z</time></trkpt><trkpt lat="45.6045178" lon="12.3345197"><ele>6.0</ele><time>2026-04-24T16:32:37.011Z</time></trkpt><trkpt lat="45.6044964" lon="12.334651"><ele>6.0</ele><time>2026-04-24T16:32:39.01Z</time></trkpt><trkpt lat="45.6044709" lon="12.3347594"><ele>6.0</ele><time>2026-04-24T16:32:41.016Z</time></trkpt><trkpt lat="45.6044477" lon="12.3348803"><ele>6.0</ele><time>2026-04-24T16:32:43.035Z</time></trkpt><trkpt lat="45.6044208" lon="12.3350342"><ele>6.0</ele><time>2026-04-24T16:32:45.018Z</time></trkpt><trkpt lat="45.6044017" lon="12.3351877"><ele>5.2</ele><time>2026-04-24T16:32:47.028Z</time></trkpt><trkpt lat="45.6043862" lon="12.3353162"><ele>4.3999999999999995</ele><time>2026-04-24T16:32:49.023Z</time></trkpt><trkpt lat="45.6043617" lon="12.3354497"><ele>3.6</ele><time>2026-04-24T16:32:51.033Z</time></trkpt><trkpt lat="45.6042919" lon="12.3355541"><ele>2.8</ele><time>2026-04-24T16:32:53.022Z</time></trkpt><trkpt lat="45.6042002" lon="12.335617"><ele>2.0</ele><time>2026-04-24T16:32:55.021Z</time></trkpt><trkpt lat="45.6040961" lon="12.3356597"><ele>1.9999999999999998</ele><time>2026-04-24T16:32:57.04Z</time></trkpt><trkpt lat="45.6040221" lon="12.3355543"><ele>2.0</ele><time>2026-04-24T16:33:00.049Z</time></trkpt><trkpt lat="45.6039628" lon="12.3354931"><ele>2.0</ele><time>2026-04-24T16:33:01.029Z</time></trkpt><trkpt lat="45.6038794" lon="12.3355019"><ele>2.0</ele><time>2026-04-24T16:33:04.031Z</time></trkpt><trkpt lat="45.6038201" lon="12.3354197"><ele>1.9999999999999998</ele><time>2026-04-24T16:33:09.025Z</time></trkpt><trkpt lat="45.603794" lon="12.335299"><ele>2.0</ele><time>2026-04-24T16:33:11.015Z</time></trkpt><trkpt lat="45.6037762" lon="12.3352041"><ele>1.9999999999999998</ele><time>2026-04-24T16:33:13.003Z</time></trkpt><trkpt lat="45.6037455" lon="12.3350774"><ele>2.0</ele><time>2026-04-24T16:33:15.023Z</time></trkpt><trkpt lat="45.6037648" lon="12.3351794"><ele>2.0</ele><time>2026-04-24T16:33:22.038Z</time></trkpt><trkpt lat="45.6038024" lon="12.33528"><ele>2.0</ele><time>2026-04-24T16:33:24.006Z</time></trkpt><trkpt lat="45.6038253" lon="12.3354019"><ele>1.9999999999999998</ele><time>2026-04-24T16:33:26.013Z</time></trkpt><trkpt lat="45.6038564" lon="12.3355561"><ele>2.0</ele><time>2026-04-24T16:33:28.018Z</time></trkpt><trkpt lat="45.6038818" lon="12.3356868"><ele>1.9999999999999998</ele><time>2026-04-24T16:33:30.038Z</time></trkpt><trkpt lat="45.6039047" lon="12.3358078"><ele>2.0</ele><time>2026-04-24T16:33:32.015Z</time></trkpt><trkpt lat="45.6039305" lon="12.3359235"><ele>2.0</ele><time>2026-04-24T16:33:34.011Z</time></trkpt><trkpt lat="45.6039595" lon="12.3360536"><ele>2.0</ele><time>2026-04-24T16:33:36.019Z</time></trkpt><trkpt lat="45.6039814" lon="12.3361788"><ele>1.9999999999999998</ele><time>2026-04-24T16:33:38.03Z</time></trkpt><trkpt lat="45.6039981" lon="12.3362758"><ele>2.0</ele><time>2026-04-24T16:33:40.01Z</time></trkpt><trkpt lat="45.6040275" lon="12.3364073"><ele>2.4000000000000004</ele><time>2026-04-24T16:33:42.008Z</time></trkpt><trkpt lat="45.6040597" lon="12.3365463"><ele>2.8000000000000003</ele><time>2026-04-24T16:33:44.018Z</time></trkpt><trkpt lat="45.6040929" lon="12.3367121"><ele>3.2</ele><time>2026-04-24T16:33:46.012Z</time></trkpt><trkpt lat="45.6041159" lon="12.3368644"><ele>3.6</ele><time>2026-04-24T16:33:48.042Z</time></trkpt><trkpt lat="45.6041366" lon="12.3369851"><ele>4.0</ele><time>2026-04-24T16:33:50.028Z</time></trkpt><trkpt lat="45.6041569" lon="12.3370706"><ele>4.0</ele><time>2026-04-24T16:33:52.013Z</time></trkpt><trkpt lat="45.6040935" lon="12.3370245"><ele>3.9999999999999996</ele><time>2026-04-24T16:33:57.011Z</time></trkpt><trkpt lat="45.6040804" lon="12.3369152"><ele>4.0</ele><time>2026-04-24T16:33:59.02Z</time></trkpt><trkpt lat="45.6040683" lon="12.3368113"><ele>4.0</ele><time>2026-04-24T16:34:01.026Z</time></trkpt><trkpt lat="45.6040458" lon="12.336708"><ele>3.9999999999999996</ele><time>2026-04-24T16:34:03.031Z</time></trkpt><trkpt lat="45.6040266" lon="12.3365946"><ele>4.0</ele><time>2026-04-24T16:34:05.015Z</time></trkpt><trkpt lat="45.6040171" lon="12.3365015"><ele>4.0</ele><time>2026-04-24T16:34:07.025Z</time></trkpt><trkpt lat="45.6039415" lon="12.3364571"><ele>3.9999999999999996</ele><time>2026-04-24T16:34:10.03Z</time></trkpt><trkpt lat="45.6038683" lon="12.3363931"><ele>4.0</ele><time>2026-04-24T16:34:13.011Z</time></trkpt><trkpt lat="45.603811" lon="12.3363399"><ele>4.0</ele><time>2026-04-24T16:34:15.019Z</time></trkpt><trkpt lat="45.6037507" lon="12.336303"><ele>4.0</ele><time>2026-04-24T16:34:17.025Z</time></trkpt><trkpt lat="45.6036688" lon="12.336262"><ele>3.9999999999999996</ele><time>2026-04-24T16:34:19.015Z</time></trkpt><trkpt lat="45.6035842" lon="12.336239"><ele>4.0</ele><time>2026-04-24T16:34:21.014Z</time></trkpt><trkpt lat="45.6035015" lon="12.3362167"><ele>4.2</ele><time>2026-04-24T16:34:23.03Z</time></trkpt><trkpt lat="45.6034105" lon="12.3362071"><ele>4.4</ele><time>2026-04-24T16:34:25.022Z</time></trkpt><trkpt lat="45.6033094" lon="12.3361905"><ele>4.6</ele><time>2026-04-24T16:34:27.027Z</time></trkpt><trkpt lat="45.6032006" lon="12.3361768"><ele>4.8</ele><time>2026-04-24T16:34:29.031Z</time></trkpt><trkpt lat="45.6031008" lon="12.3361566"><ele>5.0</ele><time>2026-04-24T16:34:31.027Z</time></trkpt><trkpt lat="45.6030101" lon="12.3361269"><ele>5.0</ele><time>2026-04-24T16:34:33.024Z</time></trkpt><trkpt lat="45.6029289" lon="12.3360713"><ele>5.0</ele><time>2026-04-24T16:34:35.023Z</time></trkpt><trkpt lat="45.6028499" lon="12.3359974"><ele>5.0</ele><time>2026-04-24T16:34:37.026Z</time></trkpt><trkpt lat="45.6027607" lon="12.3359167"><ele>5.0</ele><time>2026-04-24T16:34:39.047Z</time></trkpt><trkpt lat="45.6026878" lon="12.3358117"><ele>5.0</ele><time>2026-04-24T16:34:41.028Z</time></trkpt><trkpt lat="45.6026128" lon="12.335705"><ele>4.8</ele><time>2026-04-24T16:34:43.029Z</time></trkpt><trkpt lat="45.6025401" lon="12.335591"><ele>4.6</ele><time>2026-04-24T16:34:45.043Z</time></trkpt><trkpt lat="45.6024747" lon="12.33548"><ele>4.4</ele><time>2026-04-24T16:34:47.025Z</time></trkpt><trkpt lat="45.6024287" lon="12.3353866"><ele>4.2</ele><time>2026-04-24T16:34:49.037Z</time></trkpt><trkpt lat="45.6023608" lon="12.3352886"><ele>4.0</ele><time>2026-04-24T16:34:51.023Z</time></trkpt><trkpt lat="45.602292" lon="12.3351972"><ele>3.8000000000000003</ele><time>2026-04-24T16:34:53.022Z</time></trkpt><trkpt lat="45.6022434" lon="12.3351365"><ele>3.6000000000000005</ele><time>2026-04-24T16:34:54.035Z</time></trkpt><trkpt lat="45.6021822" lon="12.3350552"><ele>3.4</ele><time>2026-04-24T16:34:56.029Z</time></trkpt><trkpt lat="45.6021134" lon="12.3349664"><ele>3.2</ele><time>2026-04-24T16:34:58.029Z</time></trkpt><trkpt lat="45.6020336" lon="12.3348668"><ele>3.0</ele><time>2026-04-24T16:35:00.039Z</time></trkpt><trkpt lat="45.6019377" lon="12.3347548"><ele>3.0</ele><time>2026-04-24T16:35:02.035Z</time></trkpt><trkpt lat="45.6018775" lon="12.3346885"><ele>3.0</ele><time>2026-04-24T16:35:04.05Z</time></trkpt><trkpt lat="45.6018026" lon="12.3345998"><ele>3.0</ele><time>2026-04-24T16:35:06.032Z</time></trkpt><trkpt lat="45.6017328" lon="12.3345131"><ele>3.0</ele><time>2026-04-24T16:35:08.027Z</time></trkpt><trkpt lat="45.6016543" lon="12.3344214"><ele>3.0</ele><time>2026-04-24T16:35:10.031Z</time></trkpt><trkpt lat="45.6015742" lon="12.3343264"><ele>3.0</ele><time>2026-04-24T16:35:12.042Z</time></trkpt><trkpt lat="45.6015049" lon="12.3342475"><ele>3.0</ele><time>2026-04-24T16:35:14.044Z</time></trkpt><trkpt lat="45.6014525" lon="12.3341812"><ele>3.0</ele><time>2026-04-24T16:35:15.028Z</time></trkpt><trkpt lat="45.60138" lon="12.3340854"><ele>3.0</ele><time>2026-04-24T16:35:17.027Z</time></trkpt><trkpt lat="45.6013239" lon="12.3340227"><ele>3.0</ele><time>2026-04-24T16:35:19.039Z</time></trkpt><trkpt lat="45.601245" lon="12.333933"><ele>3.0</ele><time>2026-04-24T16:35:21.028Z</time></trkpt><trkpt lat="45.6011694" lon="12.3338469"><ele>3.4</ele><time>2026-04-24T16:35:23.029Z</time></trkpt><trkpt lat="45.6010952" lon="12.3337681"><ele>3.8</ele><time>2026-04-24T16:35:25.029Z</time></trkpt><trkpt lat="45.6010194" lon="12.3336827"><ele>4.2</ele><time>2026-04-24T16:35:27.035Z</time></trkpt><trkpt lat="45.6009472" lon="12.3335837"><ele>4.6</ele><time>2026-04-24T16:35:29.03Z</time></trkpt><trkpt lat="45.6008642" lon="12.3334784"><ele>5.0</ele><time>2026-04-24T16:35:31.027Z</time></trkpt><trkpt lat="45.6008021" lon="12.3334032"><ele>5.0</ele><time>2026-04-24T16:35:33.028Z</time></trkpt><trkpt lat="45.6007368" lon="12.3333234"><ele>5.0</ele><time>2026-04-24T16:35:35.028Z</time></trkpt><trkpt lat="45.6006835" lon="12.3332627"><ele>5.0</ele><time>2026-04-24T16:35:36.026Z</time></trkpt><trkpt lat="45.6006149" lon="12.333187"><ele>5.0</ele><time>2026-04-24T16:35:38.039Z</time></trkpt><trkpt lat="45.6005636" lon="12.3331282"><ele>5.0</ele><time>2026-04-24T16:35:39.047Z</time></trkpt><trkpt lat="45.600492" lon="12.3330357"><ele>5.0</ele><time>2026-04-24T16:35:41.038Z</time></trkpt><trkpt lat="45.6004162" lon="12.3329484"><ele>4.6</ele><time>2026-04-24T16:35:43.024Z</time></trkpt><trkpt lat="45.6003392" lon="12.3328628"><ele>4.2</ele><time>2026-04-24T16:35:45.029Z</time></trkpt><trkpt lat="45.6002558" lon="12.3327688"><ele>3.8</ele><time>2026-04-24T16:35:48.028Z</time></trkpt><trkpt lat="45.6001892" lon="12.3326948"><ele>3.4</ele><time>2026-04-24T16:35:50.034Z</time></trkpt><trkpt lat="45.6001028" lon="12.3325862"><ele>3.0</ele><time>2026-04-24T16:35:52.025Z</time></trkpt><trkpt lat="45.6000386" lon="12.3324976"><ele>2.8333333333333335</ele><time>2026-04-24T16:35:54.037Z</time></trkpt><trkpt lat="45.5999821" lon="12.3324278"><ele>2.6666666666666665</ele><time>2026-04-24T16:35:56.047Z</time></trkpt><trkpt lat="45.5998982" lon="12.3323191"><ele>2.5</ele><time>2026-04-24T16:35:59.031Z</time></trkpt><trkpt lat="45.599828" lon="12.3322286"><ele>2.333333333333333</ele><time>2026-04-24T16:36:01.038Z</time></trkpt><trkpt lat="45.5997774" lon="12.3321602"><ele>2.1666666666666665</ele><time>2026-04-24T16:36:03.031Z</time></trkpt><trkpt lat="45.5997311" lon="12.3320922"><ele>2.0</ele><time>2026-04-24T16:36:04.017Z</time></trkpt><trkpt lat="45.5996863" lon="12.3320186"><ele>1.9999999999999998</ele><time>2026-04-24T16:36:06.036Z</time></trkpt><trkpt lat="45.599634" lon="12.3319495"><ele>2.0</ele><time>2026-04-24T16:36:07.031Z</time></trkpt><trkpt lat="45.5995677" lon="12.3318602"><ele>2.0</ele><time>2026-04-24T16:36:09.03Z</time></trkpt><trkpt lat="45.5995247" lon="12.3317901"><ele>2.0</ele><time>2026-04-24T16:36:10.039Z</time></trkpt><trkpt lat="45.599464" lon="12.3316934"><ele>1.9999999999999998</ele><time>2026-04-24T16:36:12.038Z</time></trkpt><trkpt lat="45.5993872" lon="12.3315998"><ele>2.0</ele><time>2026-04-24T16:36:14.036Z</time></trkpt><trkpt lat="45.5993335" lon="12.331523"><ele>2.333333333333333</ele><time>2026-04-24T16:36:17.034Z</time></trkpt><trkpt lat="45.5992899" lon="12.3314549"><ele>2.6666666666666665</ele><time>2026-04-24T16:36:18.028Z</time></trkpt><trkpt lat="45.5992443" lon="12.3313699"><ele>3.0</ele><time>2026-04-24T16:36:20.03Z</time></trkpt><trkpt lat="45.5991819" lon="12.3312685"><ele>3.333333333333333</ele><time>2026-04-24T16:36:22.026Z</time></trkpt><trkpt lat="45.5991342" lon="12.3311865"><ele>3.6666666666666665</ele><time>2026-04-24T16:36:24.041Z</time></trkpt><trkpt lat="45.5990909" lon="12.3310891"><ele>4.0</ele><time>2026-04-24T16:36:26.022Z</time></trkpt><trkpt lat="45.5990429" lon="12.3310023"><ele>4.166666666666666</ele><time>2026-04-24T16:36:27.032Z</time></trkpt><trkpt lat="45.5989882" lon="12.3308885"><ele>4.333333333333333</ele><time>2026-04-24T16:36:30.05Z</time></trkpt><trkpt lat="45.5989442" lon="12.3307794"><ele>4.5</ele><time>2026-04-24T16:36:32.025Z</time></trkpt><trkpt lat="45.5989018" lon="12.3306953"><ele>4.666666666666667</ele><time>2026-04-24T16:36:33.023Z</time></trkpt><trkpt lat="45.5988503" lon="12.3305411"><ele>4.833333333333334</ele><time>2026-04-24T16:36:35.027Z</time></trkpt><trkpt lat="45.5988195" lon="12.3304576"><ele>5.0</ele><time>2026-04-24T16:36:36.023Z</time></trkpt><trkpt lat="45.5987828" lon="12.3303515"><ele>4.666666666666667</ele><time>2026-04-24T16:36:38.03Z</time></trkpt><trkpt lat="45.5987402" lon="12.3302561"><ele>4.333333333333334</ele><time>2026-04-24T16:36:40.027Z</time></trkpt><trkpt lat="45.5987042" lon="12.3301717"><ele>4.0</ele><time>2026-04-24T16:36:41.029Z</time></trkpt><trkpt lat="45.598662" lon="12.3300834"><ele>3.666666666666667</ele><time>2026-04-24T16:36:43.036Z</time></trkpt><trkpt lat="45.5986154" lon="12.3300019"><ele>3.3333333333333335</ele><time>2026-04-24T16:36:44.027Z</time></trkpt><trkpt lat="45.5985499" lon="12.3298829"><ele>3.0</ele><time>2026-04-24T16:36:46.031Z</time></trkpt><trkpt lat="45.5985051" lon="12.3297935"><ele>2.8</ele><time>2026-04-24T16:36:48.027Z</time></trkpt><trkpt lat="45.5984384" lon="12.3296683"><ele>2.5999999999999996</ele><time>2026-04-24T16:36:50.039Z</time></trkpt><trkpt lat="45.5983941" lon="12.3295818"><ele>2.4000000000000004</ele><time>2026-04-24T16:36:52.038Z</time></trkpt><trkpt lat="45.5983264" lon="12.3294577"><ele>2.2</ele><time>2026-04-24T16:36:54.027Z</time></trkpt><trkpt lat="45.5982759" lon="12.32936"><ele>2.0</ele><time>2026-04-24T16:36:56.03Z</time></trkpt><trkpt lat="45.5982268" lon="12.3292892"><ele>1.9999999999999998</ele><time>2026-04-24T16:36:58.06Z</time></trkpt><trkpt lat="45.5981698" lon="12.3291914"><ele>2.0</ele><time>2026-04-24T16:37:00.035Z</time></trkpt><trkpt lat="45.5981183" lon="12.3291295"><ele>2.0</ele><time>2026-04-24T16:37:02.045Z</time></trkpt><trkpt lat="45.5980445" lon="12.329036"><ele>2.0</ele><time>2026-04-24T16:37:04.053Z</time></trkpt><trkpt lat="45.5979651" lon="12.3289497"><ele>1.9999999999999998</ele><time>2026-04-24T16:37:06.03Z</time></trkpt><trkpt lat="45.5978969" lon="12.3288666"><ele>2.0</ele><time>2026-04-24T16:37:08.026Z</time></trkpt><trkpt lat="45.5978271" lon="12.3287965"><ele>2.2</ele><time>2026-04-24T16:37:10.031Z</time></trkpt><trkpt lat="45.5977541" lon="12.3287182"><ele>2.4000000000000004</ele><time>2026-04-24T16:37:12.037Z</time></trkpt><trkpt lat="45.5976815" lon="12.3286309"><ele>2.5999999999999996</ele><time>2026-04-24T16:37:14.07Z</time></trkpt><trkpt lat="45.597611" lon="12.3285343"><ele>2.8</ele><time>2026-04-24T16:37:16.034Z</time></trkpt><trkpt lat="45.5975499" lon="12.3284701"><ele>3.0</ele><time>2026-04-24T16:37:18.041Z</time></trkpt><trkpt lat="45.5974744" lon="12.3283913"><ele>3.0</ele><time>2026-04-24T16:37:20.032Z</time></trkpt><trkpt lat="45.5973884" lon="12.3283033"><ele>3.0</ele><time>2026-04-24T16:37:22.037Z</time></trkpt><trkpt lat="45.5973331" lon="12.328251"><ele>3.0</ele><time>2026-04-24T16:37:23.051Z</time></trkpt><trkpt lat="45.5972578" lon="12.3281975"><ele>3.0</ele><time>2026-04-24T16:37:25.047Z</time></trkpt><trkpt lat="45.5971998" lon="12.3281566"><ele>3.0</ele><time>2026-04-24T16:37:26.044Z</time></trkpt><trkpt lat="45.5971313" lon="12.3281328"><ele>3.0</ele><time>2026-04-24T16:37:28.022Z</time></trkpt><trkpt lat="45.5970697" lon="12.3281105"><ele>2.8333333333333335</ele><time>2026-04-24T16:37:30.023Z</time></trkpt><trkpt lat="45.5969772" lon="12.3280733"><ele>2.6666666666666665</ele><time>2026-04-24T16:37:32.034Z</time></trkpt><trkpt lat="45.5969055" lon="12.3280686"><ele>2.5</ele><time>2026-04-24T16:37:35.029Z</time></trkpt><trkpt lat="45.5968267" lon="12.3280542"><ele>2.333333333333333</ele><time>2026-04-24T16:37:37.021Z</time></trkpt><trkpt lat="45.5967593" lon="12.3280465"><ele>2.1666666666666665</ele><time>2026-04-24T16:37:38.028Z</time></trkpt><trkpt lat="45.5966637" lon="12.3280297"><ele>2.0</ele><time>2026-04-24T16:37:40.037Z</time></trkpt><trkpt lat="45.5966007" lon="12.3280321"><ele>1.9999999999999998</ele><time>2026-04-24T16:37:41.039Z</time></trkpt><trkpt lat="45.5965077" lon="12.3280515"><ele>2.0</ele><time>2026-04-24T16:37:44.029Z</time></trkpt><trkpt lat="45.5964334" lon="12.3280507"><ele>2.0</ele><time>2026-04-24T16:37:45.038Z</time></trkpt><trkpt lat="45.5963378" lon="12.3280712"><ele>2.0</ele><time>2026-04-24T16:37:47.038Z</time></trkpt><trkpt lat="45.5962621" lon="12.3281048"><ele>1.9999999999999998</ele><time>2026-04-24T16:37:49.026Z</time></trkpt><trkpt lat="45.5961642" lon="12.3281518"><ele>2.0</ele><time>2026-04-24T16:37:51.03Z</time></trkpt><trkpt lat="45.5960813" lon="12.3282245"><ele>1.9999999999999998</ele><time>2026-04-24T16:37:53.024Z</time></trkpt><trkpt lat="45.5960224" lon="12.328291"><ele>2.0</ele><time>2026-04-24T16:37:55.031Z</time></trkpt><trkpt lat="45.5959598" lon="12.3283632"><ele>2.0</ele><time>2026-04-24T16:37:57.029Z</time></trkpt><trkpt lat="45.5959033" lon="12.3284563"><ele>2.0</ele><time>2026-04-24T16:37:59.033Z</time></trkpt><trkpt lat="45.595859" lon="12.3285472"><ele>1.9999999999999998</ele><time>2026-04-24T16:38:01.031Z</time></trkpt><trkpt lat="45.5958234" lon="12.3286672"><ele>2.0</ele><time>2026-04-24T16:38:03.025Z</time></trkpt><trkpt lat="45.5957891" lon="12.3287585"><ele>1.9999999999999998</ele><time>2026-04-24T16:38:04.028Z</time></trkpt><trkpt lat="45.5957536" lon="12.3288519"><ele>2.0</ele><time>2026-04-24T16:38:05.029Z</time></trkpt><trkpt lat="45.5957061" lon="12.328968"><ele>2.0</ele><time>2026-04-24T16:38:07.033Z</time></trkpt><trkpt lat="45.5956737" lon="12.3290842"><ele>2.0</ele><time>2026-04-24T16:38:09.021Z</time></trkpt><trkpt lat="45.5956543" lon="12.3291983"><ele>1.9999999999999998</ele><time>2026-04-24T16:38:11.021Z</time></trkpt><trkpt lat="45.5956389" lon="12.3293115"><ele>2.0</ele><time>2026-04-24T16:38:13.02Z</time></trkpt><trkpt lat="45.5956253" lon="12.3294264"><ele>1.9999999999999998</ele><time>2026-04-24T16:38:15.037Z</time></trkpt><trkpt lat="45.5956139" lon="12.3295521"><ele>2.0</ele><time>2026-04-24T16:38:17.036Z</time></trkpt><trkpt lat="45.5956049" lon="12.3296592"><ele>2.0</ele><time>2026-04-24T16:38:19.016Z</time></trkpt><trkpt lat="45.5955914" lon="12.3297861"><ele>2.0</ele><time>2026-04-24T16:38:21.022Z</time></trkpt><trkpt lat="45.5955784" lon="12.3299141"><ele>1.9999999999999998</ele><time>2026-04-24T16:38:23.032Z</time></trkpt><trkpt lat="45.5955787" lon="12.3300346"><ele>2.0</ele><time>2026-04-24T16:38:25.03Z</time></trkpt><trkpt lat="45.5956073" lon="12.3301676"><ele>2.0</ele><time>2026-04-24T16:38:27.035Z</time></trkpt><trkpt lat="45.5956293" lon="12.3303013"><ele>2.0</ele><time>2026-04-24T16:38:29.017Z</time></trkpt><trkpt lat="45.5956564" lon="12.3304568"><ele>2.0</ele><time>2026-04-24T16:38:31.026Z</time></trkpt><trkpt lat="45.5956598" lon="12.3305501"><ele>2.0</ele><time>2026-04-24T16:38:32.029Z</time></trkpt><trkpt lat="45.5956804" lon="12.3307395"><ele>2.0</ele><time>2026-04-24T16:38:34.05Z</time></trkpt><trkpt lat="45.595708" lon="12.3308765"><ele>1.8</ele><time>2026-04-24T16:38:36.021Z</time></trkpt><trkpt lat="45.5957387" lon="12.3309567"><ele>1.6</ele><time>2026-04-24T16:38:38.009Z</time></trkpt><trkpt lat="45.5957809" lon="12.3310746"><ele>1.4000000000000001</ele><time>2026-04-24T16:38:40.03Z</time></trkpt><trkpt lat="45.5958119" lon="12.3311981"><ele>1.2000000000000002</ele><time>2026-04-24T16:38:42.025Z</time></trkpt><trkpt lat="45.5958459" lon="12.3313174"><ele>1.0</ele><time>2026-04-24T16:38:44.032Z</time></trkpt><trkpt lat="45.5958968" lon="12.3314658"><ele>1.4</ele><time>2026-04-24T16:38:46.024Z</time></trkpt><trkpt lat="45.5959265" lon="12.3315953"><ele>1.8</ele><time>2026-04-24T16:38:48.022Z</time></trkpt><trkpt lat="45.5959564" lon="12.3317599"><ele>2.1999999999999997</ele><time>2026-04-24T16:38:50.03Z</time></trkpt><trkpt lat="45.5959781" lon="12.3319268"><ele>2.6</ele><time>2026-04-24T16:38:52.033Z</time></trkpt><trkpt lat="45.5959938" lon="12.3320874"><ele>3.0</ele><time>2026-04-24T16:38:54.031Z</time></trkpt><trkpt lat="45.5960033" lon="12.3322039"><ele>3.4</ele><time>2026-04-24T16:38:56.054Z</time></trkpt><trkpt lat="45.5960204" lon="12.3323219"><ele>3.8</ele><time>2026-04-24T16:38:58.029Z</time></trkpt><trkpt lat="45.5960302" lon="12.3324451"><ele>4.2</ele><time>2026-04-24T16:39:00.03Z</time></trkpt><trkpt lat="45.5960459" lon="12.3325707"><ele>4.6</ele><time>2026-04-24T16:39:02.017Z</time></trkpt><trkpt lat="45.5960804" lon="12.3327194"><ele>5.0</ele><time>2026-04-24T16:39:04.031Z</time></trkpt><trkpt lat="45.5961231" lon="12.3328656"><ele>5.0</ele><time>2026-04-24T16:39:06.027Z</time></trkpt><trkpt lat="45.5961676" lon="12.3330058"><ele>5.0</ele><time>2026-04-24T16:39:08.012Z</time></trkpt><trkpt lat="45.5962252" lon="12.3331594"><ele>5.0</ele><time>2026-04-24T16:39:10.03Z</time></trkpt><trkpt lat="45.5962926" lon="12.3333159"><ele>5.0</ele><time>2026-04-24T16:39:12.025Z</time></trkpt><trkpt lat="45.5963351" lon="12.333408"><ele>5.0</ele><time>2026-04-24T16:39:14.028Z</time></trkpt><trkpt lat="45.5963891" lon="12.3335251"><ele>4.2</ele><time>2026-04-24T16:39:16.037Z</time></trkpt><trkpt lat="45.5964288" lon="12.333623"><ele>3.4</ele><time>2026-04-24T16:39:18.022Z</time></trkpt><trkpt lat="45.5964788" lon="12.3337473"><ele>2.6</ele><time>2026-04-24T16:39:20.029Z</time></trkpt><trkpt lat="45.5965218" lon="12.3338735"><ele>1.8</ele><time>2026-04-24T16:39:22.027Z</time></trkpt><trkpt lat="45.5965704" lon="12.3339941"><ele>1.0</ele><time>2026-04-24T16:39:24.019Z</time></trkpt><trkpt lat="45.5966112" lon="12.3341312"><ele>1.0</ele><time>2026-04-24T16:39:26.034Z</time></trkpt><trkpt lat="45.5966747" lon="12.3342772"><ele>1.0</ele><time>2026-04-24T16:39:28.014Z</time></trkpt><trkpt lat="45.5967269" lon="12.3344062"><ele>1.0</ele><time>2026-04-24T16:39:30.02Z</time></trkpt><trkpt lat="45.5967797" lon="12.3345225"><ele>1.0</ele><time>2026-04-24T16:39:32.028Z</time></trkpt><trkpt lat="45.5968441" lon="12.3346509"><ele>1.0</ele><time>2026-04-24T16:39:34.036Z</time></trkpt><trkpt lat="45.5968905" lon="12.3347586"><ele>1.2000000000000002</ele><time>2026-04-24T16:39:36.016Z</time></trkpt><trkpt lat="45.5969247" lon="12.3348546"><ele>1.4000000000000001</ele><time>2026-04-24T16:39:38.019Z</time></trkpt><trkpt lat="45.5969708" lon="12.3349746"><ele>1.6</ele><time>2026-04-24T16:39:41.016Z</time></trkpt><trkpt lat="45.5970162" lon="12.3350795"><ele>1.8</ele><time>2026-04-24T16:39:43.044Z</time></trkpt><trkpt lat="45.5970672" lon="12.3352146"><ele>2.0</ele><time>2026-04-24T16:39:45.017Z</time></trkpt><trkpt lat="45.5971143" lon="12.3353445"><ele>1.8</ele><time>2026-04-24T16:39:47.02Z</time></trkpt><trkpt lat="45.5971659" lon="12.3354709"><ele>1.6</ele><time>2026-04-24T16:39:49.023Z</time></trkpt><trkpt lat="45.5972111" lon="12.3355737"><ele>1.4000000000000001</ele><time>2026-04-24T16:39:51.026Z</time></trkpt><trkpt lat="45.5972606" lon="12.3356832"><ele>1.2000000000000002</ele><time>2026-04-24T16:39:53.04Z</time></trkpt><trkpt lat="45.5973101" lon="12.3358027"><ele>1.0</ele><time>2026-04-24T16:39:55.033Z</time></trkpt><trkpt lat="45.5973539" lon="12.3359274"><ele>1.0</ele><time>2026-04-24T16:39:57.011Z</time></trkpt><trkpt lat="45.5973957" lon="12.3360557"><ele>1.0</ele><time>2026-04-24T16:39:59.018Z</time></trkpt><trkpt lat="45.5974372" lon="12.3361742"><ele>1.0</ele><time>2026-04-24T16:40:01.037Z</time></trkpt><trkpt lat="45.5974787" lon="12.3362835"><ele>1.0</ele><time>2026-04-24T16:40:03.043Z</time></trkpt><trkpt lat="45.5975186" lon="12.3363967"><ele>1.0</ele><time>2026-04-24T16:40:05.011Z</time></trkpt><trkpt lat="45.5975558" lon="12.3365074"><ele>1.6</ele><time>2026-04-24T16:40:07.03Z</time></trkpt><trkpt lat="45.5975954" lon="12.33664"><ele>2.2</ele><time>2026-04-24T16:40:09.035Z</time></trkpt><trkpt lat="45.5976341" lon="12.3367585"><ele>2.8000000000000003</ele><time>2026-04-24T16:40:11.01Z</time></trkpt><trkpt lat="45.5976759" lon="12.3368804"><ele>3.4000000000000004</ele><time>2026-04-24T16:40:13.022Z</time></trkpt><trkpt lat="45.5977197" lon="12.3369993"><ele>4.0</ele><time>2026-04-24T16:40:15.04Z</time></trkpt><trkpt lat="45.5977675" lon="12.3371107"><ele>3.9999999999999996</ele><time>2026-04-24T16:40:17.026Z</time></trkpt><trkpt lat="45.5978189" lon="12.3372477"><ele>4.0</ele><time>2026-04-24T16:40:19.017Z</time></trkpt><trkpt lat="45.5978506" lon="12.3373288"><ele>4.0</ele><time>2026-04-24T16:40:20.015Z</time></trkpt><trkpt lat="45.5978889" lon="12.3374441"><ele>4.0</ele><time>2026-04-24T16:40:22.016Z</time></trkpt><trkpt lat="45.5979226" lon="12.3375211"><ele>3.9999999999999996</ele><time>2026-04-24T16:40:23.022Z</time></trkpt><trkpt lat="45.5979643" lon="12.3376515"><ele>4.0</ele><time>2026-04-24T16:40:25.022Z</time></trkpt><trkpt lat="45.5979941" lon="12.3377603"><ele>3.833333333333333</ele><time>2026-04-24T16:40:27.016Z</time></trkpt><trkpt lat="45.5980309" lon="12.3378866"><ele>3.6666666666666665</ele><time>2026-04-24T16:40:29.034Z</time></trkpt><trkpt lat="45.5980714" lon="12.3380095"><ele>3.5</ele><time>2026-04-24T16:40:31.012Z</time></trkpt><trkpt lat="45.5981069" lon="12.3381207"><ele>3.333333333333333</ele><time>2026-04-24T16:40:33.01Z</time></trkpt><trkpt lat="45.5981428" lon="12.3382307"><ele>3.1666666666666665</ele><time>2026-04-24T16:40:35.017Z</time></trkpt><trkpt lat="45.5981796" lon="12.3383211"><ele>3.0</ele><time>2026-04-24T16:40:36.017Z</time></trkpt><trkpt lat="45.598243" lon="12.3384654"><ele>3.0</ele><time>2026-04-24T16:40:38.015Z</time></trkpt><trkpt lat="45.598282" lon="12.3385754"><ele>3.0</ele><time>2026-04-24T16:40:40.016Z</time></trkpt><trkpt lat="45.5983153" lon="12.3386719"><ele>3.0</ele><time>2026-04-24T16:40:42.013Z</time></trkpt><trkpt lat="45.5983572" lon="12.3387859"><ele>3.0</ele><time>2026-04-24T16:40:44.039Z</time></trkpt><trkpt lat="45.5983851" lon="12.3388922"><ele>3.0</ele><time>2026-04-24T16:40:46.02Z</time></trkpt><trkpt lat="45.5984167" lon="12.3390069"><ele>3.0</ele><time>2026-04-24T16:40:48.031Z</time></trkpt><trkpt lat="45.5984376" lon="12.3391068"><ele>2.6</ele><time>2026-04-24T16:40:50.013Z</time></trkpt><trkpt lat="45.5984598" lon="12.3392334"><ele>2.1999999999999997</ele><time>2026-04-24T16:40:52.028Z</time></trkpt><trkpt lat="45.598496" lon="12.3393493"><ele>1.8</ele><time>2026-04-24T16:40:54.043Z</time></trkpt><trkpt lat="45.5985477" lon="12.3394887"><ele>1.4</ele><time>2026-04-24T16:40:56.028Z</time></trkpt><trkpt lat="45.5986071" lon="12.3396377"><ele>1.0</ele><time>2026-04-24T16:40:58.019Z</time></trkpt><trkpt lat="45.5986519" lon="12.339764"><ele>1.2000000000000002</ele><time>2026-04-24T16:41:00.041Z</time></trkpt><trkpt lat="45.5986922" lon="12.3398985"><ele>1.4000000000000001</ele><time>2026-04-24T16:41:02.025Z</time></trkpt><trkpt lat="45.598734" lon="12.3400306"><ele>1.6</ele><time>2026-04-24T16:41:04.026Z</time></trkpt><trkpt lat="45.5987731" lon="12.3401619"><ele>1.8</ele><time>2026-04-24T16:41:06.017Z</time></trkpt><trkpt lat="45.5988239" lon="12.3402949"><ele>2.0</ele><time>2026-04-24T16:41:08.019Z</time></trkpt><trkpt lat="45.598871" lon="12.3404161"><ele>1.9999999999999998</ele><time>2026-04-24T16:41:10.027Z</time></trkpt><trkpt lat="45.5989019" lon="12.340504"><ele>2.0</ele><time>2026-04-24T16:41:12.019Z</time></trkpt><trkpt lat="45.5989346" lon="12.3405887"><ele>2.0</ele><time>2026-04-24T16:41:14.037Z</time></trkpt><trkpt lat="45.5989751" lon="12.3406844"><ele>2.0</ele><time>2026-04-24T16:41:16.028Z</time></trkpt><trkpt lat="45.5990274" lon="12.3407951"><ele>1.9999999999999998</ele><time>2026-04-24T16:41:19.03Z</time></trkpt><trkpt lat="45.5990621" lon="12.3409052"><ele>2.0</ele><time>2026-04-24T16:41:21.022Z</time></trkpt><trkpt lat="45.5991012" lon="12.3410561"><ele>1.8333333333333333</ele><time>2026-04-24T16:41:23.029Z</time></trkpt><trkpt lat="45.599124" lon="12.3412131"><ele>1.6666666666666665</ele><time>2026-04-24T16:41:25.033Z</time></trkpt><trkpt lat="45.5991307" lon="12.3413287"><ele>1.5</ele><time>2026-04-24T16:41:27.015Z</time></trkpt><trkpt lat="45.5991158" lon="12.3414363"><ele>1.3333333333333333</ele><time>2026-04-24T16:41:29.036Z</time></trkpt><trkpt lat="45.5990962" lon="12.3415481"><ele>1.1666666666666665</ele><time>2026-04-24T16:41:31.027Z</time></trkpt><trkpt lat="45.599059" lon="12.3416742"><ele>1.0</ele><time>2026-04-24T16:41:33.048Z</time></trkpt><trkpt lat="45.5990104" lon="12.3417877"><ele>0.9999999999999999</ele><time>2026-04-24T16:41:35.023Z</time></trkpt><trkpt lat="45.5989443" lon="12.3418704"><ele>1.0</ele><time>2026-04-24T16:41:37.016Z</time></trkpt><trkpt lat="45.5988714" lon="12.3419537"><ele>1.0</ele><time>2026-04-24T16:41:39.04Z</time></trkpt><trkpt lat="45.5987887" lon="12.3420289"><ele>1.0</ele><time>2026-04-24T16:41:41.019Z</time></trkpt><trkpt lat="45.5987121" lon="12.3420917"><ele>0.9999999999999999</ele><time>2026-04-24T16:41:43.019Z</time></trkpt><trkpt lat="45.5986467" lon="12.34214"><ele>1.0</ele><time>2026-04-24T16:41:45.025Z</time></trkpt><trkpt lat="45.5985818" lon="12.3421719"><ele>0.9999999999999999</ele><time>2026-04-24T16:41:47.02Z</time></trkpt><trkpt lat="45.5985105" lon="12.3421933"><ele>1.0</ele><time>2026-04-24T16:41:49.012Z</time></trkpt><trkpt lat="45.5984069" lon="12.3422088"><ele>1.0</ele><time>2026-04-24T16:41:51.033Z</time></trkpt><trkpt lat="45.5983385" lon="12.3422346"><ele>1.0</ele><time>2026-04-24T16:41:53.028Z</time></trkpt><trkpt lat="45.5982437" lon="12.3422397"><ele>0.9999999999999999</ele><time>2026-04-24T16:41:55.035Z</time></trkpt><trkpt lat="45.5981611" lon="12.3422485"><ele>1.0</ele><time>2026-04-24T16:41:57.032Z</time></trkpt><trkpt lat="45.5980589" lon="12.3422446"><ele>1.0</ele><time>2026-04-24T16:41:59.045Z</time></trkpt><trkpt lat="45.5979552" lon="12.3422427"><ele>1.0</ele><time>2026-04-24T16:42:01.019Z</time></trkpt><trkpt lat="45.5978601" lon="12.3422455"><ele>1.0</ele><time>2026-04-24T16:42:03.023Z</time></trkpt><trkpt lat="45.5977667" lon="12.3422419"><ele>1.0</ele><time>2026-04-24T16:42:05.028Z</time></trkpt><trkpt lat="45.597697" lon="12.3422313"><ele>1.0</ele><time>2026-04-24T16:42:07.033Z</time></trkpt><trkpt lat="45.5975998" lon="12.3422076"><ele>1.0</ele><time>2026-04-24T16:42:09.03Z</time></trkpt><trkpt lat="45.5975092" lon="12.3421902"><ele>1.0</ele><time>2026-04-24T16:42:11.036Z</time></trkpt><trkpt lat="45.5974068" lon="12.3421943"><ele>1.0</ele><time>2026-04-24T16:42:13.035Z</time></trkpt><trkpt lat="45.5973054" lon="12.3422081"><ele>1.0</ele><time>2026-04-24T16:42:15.026Z</time></trkpt><trkpt lat="45.5972092" lon="12.3422274"><ele>1.0</ele><time>2026-04-24T16:42:17.025Z</time></trkpt><trkpt lat="45.5971201" lon="12.3422473"><ele>1.2000000000000002</ele><time>2026-04-24T16:42:19.025Z</time></trkpt><trkpt lat="45.5970263" lon="12.3422784"><ele>1.4000000000000001</ele><time>2026-04-24T16:42:22.029Z</time></trkpt><trkpt lat="45.596944" lon="12.3423221"><ele>1.6</ele><time>2026-04-24T16:42:24.027Z</time></trkpt><trkpt lat="45.5968612" lon="12.342377"><ele>1.8</ele><time>2026-04-24T16:42:26.023Z</time></trkpt><trkpt lat="45.5967706" lon="12.3424674"><ele>2.0</ele><time>2026-04-24T16:42:28.025Z</time></trkpt><trkpt lat="45.5966921" lon="12.3425517"><ele>1.6</ele><time>2026-04-24T16:42:30.035Z</time></trkpt><trkpt lat="45.5966208" lon="12.3426466"><ele>1.2000000000000002</ele><time>2026-04-24T16:42:33.028Z</time></trkpt><trkpt lat="45.5965342" lon="12.3427269"><ele>0.8</ele><time>2026-04-24T16:42:35.018Z</time></trkpt><trkpt lat="45.5964611" lon="12.3428045"><ele>0.4</ele><time>2026-04-24T16:42:37.011Z</time></trkpt><trkpt lat="45.5963835" lon="12.3428841"><ele>0.0</ele><time>2026-04-24T16:42:39.024Z</time></trkpt><trkpt lat="45.5962994" lon="12.3429663"><ele>0.0</ele><time>2026-04-24T16:42:41.027Z</time></trkpt><trkpt lat="45.5962183" lon="12.3430402"><ele>0.0</ele><time>2026-04-24T16:42:43.053Z</time></trkpt><trkpt lat="45.5961356" lon="12.3431118"><ele>0.0</ele><time>2026-04-24T16:42:45.024Z</time></trkpt><trkpt lat="45.5960506" lon="12.3431874"><ele>0.0</ele><time>2026-04-24T16:42:47.022Z</time></trkpt><trkpt lat="45.5959768" lon="12.3432494"><ele>0.0</ele><time>2026-04-24T16:42:49.022Z</time></trkpt><trkpt lat="45.5958992" lon="12.3433244"><ele>0.4</ele><time>2026-04-24T16:42:51.025Z</time></trkpt><trkpt lat="45.595806" lon="12.3434018"><ele>0.8</ele><time>2026-04-24T16:42:53.02Z</time></trkpt><trkpt lat="45.5957287" lon="12.3434754"><ele>1.2000000000000002</ele><time>2026-04-24T16:42:55.022Z</time></trkpt><trkpt lat="45.5956443" lon="12.3435384"><ele>1.6</ele><time>2026-04-24T16:42:57.029Z</time></trkpt><trkpt lat="45.5955616" lon="12.3435987"><ele>2.0</ele><time>2026-04-24T16:42:59.029Z</time></trkpt><trkpt lat="45.5954793" lon="12.3436294"><ele>2.0</ele><time>2026-04-24T16:43:01.025Z</time></trkpt><trkpt lat="45.5953815" lon="12.3436451"><ele>2.0</ele><time>2026-04-24T16:43:03.033Z</time></trkpt><trkpt lat="45.5952826" lon="12.3436691"><ele>2.0</ele><time>2026-04-24T16:43:05.024Z</time></trkpt><trkpt lat="45.5952009" lon="12.3437024"><ele>2.0</ele><time>2026-04-24T16:43:07.046Z</time></trkpt><trkpt lat="45.5951203" lon="12.3437165"><ele>2.0</ele><time>2026-04-24T16:43:09.032Z</time></trkpt><trkpt lat="45.5950322" lon="12.343719"><ele>2.1666666666666665</ele><time>2026-04-24T16:43:11.037Z</time></trkpt><trkpt lat="45.594966" lon="12.3437093"><ele>2.333333333333333</ele><time>2026-04-24T16:43:13.013Z</time></trkpt><trkpt lat="45.5948814" lon="12.3436766"><ele>2.5</ele><time>2026-04-24T16:43:15.027Z</time></trkpt><trkpt lat="45.5947738" lon="12.3436384"><ele>2.6666666666666665</ele><time>2026-04-24T16:43:17.028Z</time></trkpt><trkpt lat="45.5947" lon="12.3435931"><ele>2.8333333333333335</ele><time>2026-04-24T16:43:19.033Z</time></trkpt><trkpt lat="45.5946136" lon="12.3435275"><ele>3.0</ele><time>2026-04-24T16:43:21.026Z</time></trkpt><trkpt lat="45.5945407" lon="12.3434467"><ele>3.0</ele><time>2026-04-24T16:43:23.032Z</time></trkpt><trkpt lat="45.5944687" lon="12.3433426"><ele>3.0</ele><time>2026-04-24T16:43:25.025Z</time></trkpt><trkpt lat="45.5943979" lon="12.3432292"><ele>3.0</ele><time>2026-04-24T16:43:27.032Z</time></trkpt><trkpt lat="45.5943437" lon="12.3431272"><ele>3.0</ele><time>2026-04-24T16:43:29.028Z</time></trkpt><trkpt lat="45.5942894" lon="12.3430157"><ele>3.0</ele><time>2026-04-24T16:43:31.019Z</time></trkpt><trkpt lat="45.5942286" lon="12.3428877"><ele>3.2</ele><time>2026-04-24T16:43:33.028Z</time></trkpt><trkpt lat="45.5941565" lon="12.3427647"><ele>3.4</ele><time>2026-04-24T16:43:35.034Z</time></trkpt><trkpt lat="45.5941027" lon="12.3426529"><ele>3.6000000000000005</ele><time>2026-04-24T16:43:37.039Z</time></trkpt><trkpt lat="45.5940498" lon="12.3425529"><ele>3.8000000000000003</ele><time>2026-04-24T16:43:39.016Z</time></trkpt><trkpt lat="45.593985" lon="12.3424411"><ele>4.0</ele><time>2026-04-24T16:43:41.026Z</time></trkpt><trkpt lat="45.5939115" lon="12.3423505"><ele>4.0</ele><time>2026-04-24T16:43:43.035Z</time></trkpt><trkpt lat="45.5938573" lon="12.3422819"><ele>4.0</ele><time>2026-04-24T16:43:44.022Z</time></trkpt><trkpt lat="45.593782" lon="12.3421998"><ele>4.0</ele><time>2026-04-24T16:43:46.034Z</time></trkpt><trkpt lat="45.5937184" lon="12.3421166"><ele>4.0</ele><time>2026-04-24T16:43:48.02Z</time></trkpt><trkpt lat="45.5936275" lon="12.3420108"><ele>4.0</ele><time>2026-04-24T16:43:50.025Z</time></trkpt><trkpt lat="45.5935611" lon="12.3419312"><ele>3.4000000000000004</ele><time>2026-04-24T16:43:52.033Z</time></trkpt><trkpt lat="45.5934905" lon="12.341851"><ele>2.8000000000000003</ele><time>2026-04-24T16:43:54.013Z</time></trkpt><trkpt lat="45.5934189" lon="12.3417615"><ele>2.2</ele><time>2026-04-24T16:43:56.02Z</time></trkpt><trkpt lat="45.5933359" lon="12.3416751"><ele>1.6</ele><time>2026-04-24T16:43:58.022Z</time></trkpt><trkpt lat="45.5932526" lon="12.3415976"><ele>1.0</ele><time>2026-04-24T16:44:00.046Z</time></trkpt><trkpt lat="45.5931811" lon="12.3415696"><ele>1.0</ele><time>2026-04-24T16:44:02.02Z</time></trkpt><trkpt lat="45.5930833" lon="12.3415607"><ele>1.0</ele><time>2026-04-24T16:44:04.021Z</time></trkpt><trkpt lat="45.5929823" lon="12.3416076"><ele>1.0</ele><time>2026-04-24T16:44:06.017Z</time></trkpt><trkpt lat="45.5928919" lon="12.3416642"><ele>1.0</ele><time>2026-04-24T16:44:08.018Z</time></trkpt><trkpt lat="45.5927937" lon="12.3417285"><ele>1.0</ele><time>2026-04-24T16:44:10.011Z</time></trkpt><trkpt lat="45.5927157" lon="12.3418023"><ele>1.2000000000000002</ele><time>2026-04-24T16:44:12.027Z</time></trkpt><trkpt lat="45.5926183" lon="12.3418844"><ele>1.4000000000000001</ele><time>2026-04-24T16:44:14.036Z</time></trkpt><trkpt lat="45.5925238" lon="12.3419798"><ele>1.6</ele><time>2026-04-24T16:44:16.028Z</time></trkpt><trkpt lat="45.5924692" lon="12.3420254"><ele>1.8</ele><time>2026-04-24T16:44:17.028Z</time></trkpt><trkpt lat="45.5923844" lon="12.3421157"><ele>2.0</ele><time>2026-04-24T16:44:19.027Z</time></trkpt><trkpt lat="45.5922974" lon="12.342208"><ele>1.8</ele><time>2026-04-24T16:44:21.02Z</time></trkpt><trkpt lat="45.5922327" lon="12.3422952"><ele>1.6</ele><time>2026-04-24T16:44:23.014Z</time></trkpt><trkpt lat="45.5921685" lon="12.3423886"><ele>1.4000000000000001</ele><time>2026-04-24T16:44:25.021Z</time></trkpt><trkpt lat="45.5920963" lon="12.3424878"><ele>1.2000000000000002</ele><time>2026-04-24T16:44:27.029Z</time></trkpt><trkpt lat="45.592028" lon="12.3425926"><ele>1.0</ele><time>2026-04-24T16:44:29.034Z</time></trkpt><trkpt lat="45.5919676" lon="12.3427022"><ele>1.2000000000000002</ele><time>2026-04-24T16:44:31.013Z</time></trkpt><trkpt lat="45.5919085" lon="12.3428295"><ele>1.4000000000000001</ele><time>2026-04-24T16:44:33.016Z</time></trkpt><trkpt lat="45.5918798" lon="12.3429455"><ele>1.6</ele><time>2026-04-24T16:44:35.028Z</time></trkpt><trkpt lat="45.5918579" lon="12.3430702"><ele>1.8</ele><time>2026-04-24T16:44:37.021Z</time></trkpt><trkpt lat="45.5918457" lon="12.3432059"><ele>2.0</ele><time>2026-04-24T16:44:39.014Z</time></trkpt><trkpt lat="45.5918422" lon="12.3433192"><ele>1.9999999999999998</ele><time>2026-04-24T16:44:41.034Z</time></trkpt><trkpt lat="45.5918534" lon="12.3434146"><ele>2.0</ele><time>2026-04-24T16:44:43.018Z</time></trkpt><trkpt lat="45.5918717" lon="12.3435122"><ele>2.0</ele><time>2026-04-24T16:44:45.019Z</time></trkpt><trkpt lat="45.5919068" lon="12.3436352"><ele>2.0</ele><time>2026-04-24T16:44:48.027Z</time></trkpt><trkpt lat="45.5919469" lon="12.3437376"><ele>1.9999999999999998</ele><time>2026-04-24T16:44:50.026Z</time></trkpt><trkpt lat="45.5920112" lon="12.3438742"><ele>2.0</ele><time>2026-04-24T16:44:52.032Z</time></trkpt><trkpt lat="45.5920736" lon="12.3439953"><ele>2.0</ele><time>2026-04-24T16:44:54.021Z</time></trkpt><trkpt lat="45.5921369" lon="12.3441165"><ele>2.0</ele><time>2026-04-24T16:44:56.034Z</time></trkpt><trkpt lat="45.5922067" lon="12.3442416"><ele>2.0</ele><time>2026-04-24T16:44:58.013Z</time></trkpt><trkpt lat="45.5922769" lon="12.3443698"><ele>2.0</ele><time>2026-04-24T16:45:00.061Z</time></trkpt><trkpt lat="45.5923359" lon="12.3444885"><ele>2.0</ele><time>2026-04-24T16:45:02.033Z</time></trkpt><trkpt lat="45.5923991" lon="12.3446201"><ele>2.2</ele><time>2026-04-24T16:45:04.029Z</time></trkpt><trkpt lat="45.5924597" lon="12.344745"><ele>2.4000000000000004</ele><time>2026-04-24T16:45:06.017Z</time></trkpt><trkpt lat="45.592517" lon="12.3448548"><ele>2.5999999999999996</ele><time>2026-04-24T16:45:08.037Z</time></trkpt><trkpt lat="45.5925902" lon="12.3449871"><ele>2.8</ele><time>2026-04-24T16:45:10.032Z</time></trkpt><trkpt lat="45.5926474" lon="12.3451"><ele>3.0</ele><time>2026-04-24T16:45:12.028Z</time></trkpt><trkpt lat="45.5927081" lon="12.3452172"><ele>3.0</ele><time>2026-04-24T16:45:14.014Z</time></trkpt><trkpt lat="45.5927727" lon="12.3453335"><ele>3.0</ele><time>2026-04-24T16:45:16.031Z</time></trkpt><trkpt lat="45.5928299" lon="12.3454466"><ele>3.0</ele><time>2026-04-24T16:45:18.024Z</time></trkpt><trkpt lat="45.5928864" lon="12.345557"><ele>3.0</ele><time>2026-04-24T16:45:20.046Z</time></trkpt><trkpt lat="45.5929461" lon="12.3456732"><ele>3.0</ele><time>2026-04-24T16:45:22.019Z</time></trkpt><trkpt lat="45.5929805" lon="12.3457697"><ele>3.0</ele><time>2026-04-24T16:45:24.03Z</time></trkpt><trkpt lat="45.5930066" lon="12.3458917"><ele>3.0</ele><time>2026-04-24T16:45:26.031Z</time></trkpt><trkpt lat="45.5930127" lon="12.3459925"><ele>3.0</ele><time>2026-04-24T16:45:28.02Z</time></trkpt><trkpt lat="45.5930274" lon="12.346123"><ele>3.0</ele><time>2026-04-24T16:45:30.027Z</time></trkpt><trkpt lat="45.593033" lon="12.3462197"><ele>3.0</ele><time>2026-04-24T16:45:31.029Z</time></trkpt><trkpt lat="45.5930432" lon="12.3463714"><ele>3.0</ele><time>2026-04-24T16:45:33.03Z</time></trkpt><trkpt lat="45.5930542" lon="12.3465049"><ele>2.8</ele><time>2026-04-24T16:45:35.025Z</time></trkpt><trkpt lat="45.5930751" lon="12.3466588"><ele>2.5999999999999996</ele><time>2026-04-24T16:45:37.013Z</time></trkpt><trkpt lat="45.5930863" lon="12.3467908"><ele>2.4000000000000004</ele><time>2026-04-24T16:45:39.022Z</time></trkpt><trkpt lat="45.5931028" lon="12.346953"><ele>2.2</ele><time>2026-04-24T16:45:41.037Z</time></trkpt><trkpt lat="45.5931099" lon="12.3471037"><ele>2.0</ele><time>2026-04-24T16:45:43.044Z</time></trkpt><trkpt lat="45.5931201" lon="12.3472581"><ele>1.8</ele><time>2026-04-24T16:45:45.031Z</time></trkpt><trkpt lat="45.5931248" lon="12.3473859"><ele>1.6</ele><time>2026-04-24T16:45:47.021Z</time></trkpt><trkpt lat="45.5931279" lon="12.3475005"><ele>1.4000000000000001</ele><time>2026-04-24T16:45:49.018Z</time></trkpt><trkpt lat="45.5931205" lon="12.3476295"><ele>1.2000000000000002</ele><time>2026-04-24T16:45:51.037Z</time></trkpt><trkpt lat="45.5931176" lon="12.3477652"><ele>1.0</ele><time>2026-04-24T16:45:53.022Z</time></trkpt><trkpt lat="45.5931197" lon="12.3479017"><ele>0.9999999999999999</ele><time>2026-04-24T16:45:55.012Z</time></trkpt><trkpt lat="45.5931254" lon="12.3480301"><ele>1.0</ele><time>2026-04-24T16:45:57.023Z</time></trkpt><trkpt lat="45.5931329" lon="12.3481421"><ele>1.0</ele><time>2026-04-24T16:45:59.039Z</time></trkpt><trkpt lat="45.5931555" lon="12.3482503"><ele>1.0</ele><time>2026-04-24T16:46:01.026Z</time></trkpt><trkpt lat="45.5931903" lon="12.3483659"><ele>0.9999999999999999</ele><time>2026-04-24T16:46:03.033Z</time></trkpt><trkpt lat="45.5932263" lon="12.3484764"><ele>1.0</ele><time>2026-04-24T16:46:05.022Z</time></trkpt><trkpt lat="45.5932703" lon="12.3485889"><ele>1.3333333333333333</ele><time>2026-04-24T16:46:07.021Z</time></trkpt><trkpt lat="45.5933045" lon="12.3486894"><ele>1.6666666666666665</ele><time>2026-04-24T16:46:09.028Z</time></trkpt><trkpt lat="45.5933423" lon="12.3488128"><ele>2.0</ele><time>2026-04-24T16:46:11.017Z</time></trkpt><trkpt lat="45.5933866" lon="12.3489493"><ele>2.3333333333333335</ele><time>2026-04-24T16:46:13.04Z</time></trkpt><trkpt lat="45.5934229" lon="12.349058"><ele>2.6666666666666665</ele><time>2026-04-24T16:46:15.01Z</time></trkpt><trkpt lat="45.5934454" lon="12.3491686"><ele>3.0</ele><time>2026-04-24T16:46:17.043Z</time></trkpt><trkpt lat="45.5934543" lon="12.3492849"><ele>3.1428571428571423</ele><time>2026-04-24T16:46:19.037Z</time></trkpt><trkpt lat="45.593439" lon="12.349384"><ele>3.2857142857142856</ele><time>2026-04-24T16:46:21.033Z</time></trkpt><trkpt lat="45.5934273" lon="12.3495047"><ele>3.4285714285714284</ele><time>2026-04-24T16:46:23.031Z</time></trkpt><trkpt lat="45.5934112" lon="12.3495969"><ele>3.571428571428571</ele><time>2026-04-24T16:46:25.018Z</time></trkpt><trkpt lat="45.5933871" lon="12.3496948"><ele>3.714285714285714</ele><time>2026-04-24T16:46:27.018Z</time></trkpt><trkpt lat="45.5933481" lon="12.3497814"><ele>3.8571428571428568</ele><time>2026-04-24T16:46:29.032Z</time></trkpt><trkpt lat="45.5933078" lon="12.3498672"><ele>4.0</ele><time>2026-04-24T16:46:31.037Z</time></trkpt><trkpt lat="45.5932471" lon="12.3499539"><ele>4.0</ele><time>2026-04-24T16:46:33.029Z</time></trkpt><trkpt lat="45.593192" lon="12.3500215"><ele>3.9999999999999996</ele><time>2026-04-24T16:46:35.024Z</time></trkpt><trkpt lat="45.5931334" lon="12.3500726"><ele>4.0</ele><time>2026-04-24T16:46:37.03Z</time></trkpt><trkpt lat="45.5930617" lon="12.3501317"><ele>4.0</ele><time>2026-04-24T16:46:39.019Z</time></trkpt><trkpt lat="45.5929982" lon="12.3501808"><ele>3.9999999999999996</ele><time>2026-04-24T16:46:41.027Z</time></trkpt><trkpt lat="45.5929421" lon="12.3502272"><ele>4.0</ele><time>2026-04-24T16:46:43.041Z</time></trkpt><trkpt lat="45.5928755" lon="12.3502897"><ele>4.0</ele><time>2026-04-24T16:46:45.042Z</time></trkpt><trkpt lat="45.5927998" lon="12.3503741"><ele>3.8000000000000003</ele><time>2026-04-24T16:46:48.043Z</time></trkpt><trkpt lat="45.5927331" lon="12.3504169"><ele>3.6000000000000005</ele><time>2026-04-24T16:46:50.032Z</time></trkpt><trkpt lat="45.5926392" lon="12.3504983"><ele>3.4</ele><time>2026-04-24T16:46:52.045Z</time></trkpt><trkpt lat="45.5925521" lon="12.3505579"><ele>3.2</ele><time>2026-04-24T16:46:54.04Z</time></trkpt><trkpt lat="45.5924696" lon="12.3506098"><ele>3.0</ele><time>2026-04-24T16:46:56.026Z</time></trkpt><trkpt lat="45.5923904" lon="12.350683"><ele>2.8</ele><time>2026-04-24T16:46:59.045Z</time></trkpt><trkpt lat="45.5922979" lon="12.3507587"><ele>2.5999999999999996</ele><time>2026-04-24T16:47:01.045Z</time></trkpt><trkpt lat="45.5922116" lon="12.3508312"><ele>2.4000000000000004</ele><time>2026-04-24T16:47:03.029Z</time></trkpt><trkpt lat="45.5921269" lon="12.3508871"><ele>2.2</ele><time>2026-04-24T16:47:05.039Z</time></trkpt><trkpt lat="45.5920394" lon="12.3509445"><ele>2.0</ele><time>2026-04-24T16:47:07.035Z</time></trkpt><trkpt lat="45.5919645" lon="12.3509949"><ele>2.0</ele><time>2026-04-24T16:47:09.031Z</time></trkpt><trkpt lat="45.5918597" lon="12.3510384"><ele>2.0</ele><time>2026-04-24T16:47:11.025Z</time></trkpt><trkpt lat="45.5917787" lon="12.3510809"><ele>2.0</ele><time>2026-04-24T16:47:13.03Z</time></trkpt><trkpt lat="45.5916975" lon="12.3511211"><ele>2.0</ele><time>2026-04-24T16:47:15.056Z</time></trkpt><trkpt lat="45.5916135" lon="12.3511629"><ele>2.0</ele><time>2026-04-24T16:47:17.028Z</time></trkpt><trkpt lat="45.5915319" lon="12.3511966"><ele>1.9999999999999998</ele><time>2026-04-24T16:47:19.038Z</time></trkpt><trkpt lat="45.5914521" lon="12.3512299"><ele>2.0</ele><time>2026-04-24T16:47:21.037Z</time></trkpt><trkpt lat="45.5913686" lon="12.3512631"><ele>2.0</ele><time>2026-04-24T16:47:23.027Z</time></trkpt><trkpt lat="45.5912679" lon="12.351303"><ele>2.0</ele><time>2026-04-24T16:47:25.028Z</time></trkpt><trkpt lat="45.5911945" lon="12.3513505"><ele>1.9999999999999998</ele><time>2026-04-24T16:47:28.026Z</time></trkpt><trkpt lat="45.5911204" lon="12.3513877"><ele>2.0</ele><time>2026-04-24T16:47:31.041Z</time></trkpt><trkpt lat="45.5910519" lon="12.3514052"><ele>1.8333333333333333</ele><time>2026-04-24T16:47:33.037Z</time></trkpt><trkpt lat="45.5909605" lon="12.3514139"><ele>1.6666666666666665</ele><time>2026-04-24T16:47:35.024Z</time></trkpt><trkpt lat="45.5908857" lon="12.3514286"><ele>1.5</ele><time>2026-04-24T16:47:37.033Z</time></trkpt><trkpt lat="45.5907805" lon="12.3514502"><ele>1.3333333333333333</ele><time>2026-04-24T16:47:39.025Z</time></trkpt><trkpt lat="45.5906939" lon="12.3514621"><ele>1.1666666666666665</ele><time>2026-04-24T16:47:41.038Z</time></trkpt><trkpt lat="45.5906163" lon="12.351467"><ele>1.0</ele><time>2026-04-24T16:47:43.037Z</time></trkpt><trkpt lat="45.590548" lon="12.3514629"><ele>1.0</ele><time>2026-04-24T16:47:45.032Z</time></trkpt><trkpt lat="45.5904601" lon="12.3514586"><ele>1.0</ele><time>2026-04-24T16:47:47.026Z</time></trkpt><trkpt lat="45.5903521" lon="12.3514141"><ele>1.0</ele><time>2026-04-24T16:47:50.03Z</time></trkpt><trkpt lat="45.5902633" lon="12.3513744"><ele>1.0</ele><time>2026-04-24T16:47:52.046Z</time></trkpt><trkpt lat="45.5901697" lon="12.3513431"><ele>1.0</ele><time>2026-04-24T16:47:54.028Z</time></trkpt><trkpt lat="45.5900837" lon="12.3513135"><ele>1.2000000000000002</ele><time>2026-04-24T16:47:56.02Z</time></trkpt><trkpt lat="45.5899818" lon="12.3512842"><ele>1.4000000000000001</ele><time>2026-04-24T16:47:58.028Z</time></trkpt><trkpt lat="45.58987" lon="12.3512631"><ele>1.6</ele><time>2026-04-24T16:48:00.043Z</time></trkpt><trkpt lat="45.5897744" lon="12.351243"><ele>1.8</ele><time>2026-04-24T16:48:02.051Z</time></trkpt><trkpt lat="45.5897094" lon="12.3512445"><ele>2.0</ele><time>2026-04-24T16:48:04.032Z</time></trkpt><trkpt lat="45.5895991" lon="12.3512486"><ele>2.0</ele><time>2026-04-24T16:48:06.036Z</time></trkpt><trkpt lat="45.5895152" lon="12.3512804"><ele>2.0</ele><time>2026-04-24T16:48:08.036Z</time></trkpt><trkpt lat="45.589446" lon="12.3513554"><ele>2.0</ele><time>2026-04-24T16:48:10.014Z</time></trkpt><trkpt lat="45.5893435" lon="12.3514037"><ele>2.0</ele><time>2026-04-24T16:48:12.025Z</time></trkpt><trkpt lat="45.5892539" lon="12.3514651"><ele>2.0</ele><time>2026-04-24T16:48:14.023Z</time></trkpt><trkpt lat="45.589146" lon="12.3515426"><ele>2.0</ele><time>2026-04-24T16:48:16.023Z</time></trkpt><trkpt lat="45.5890465" lon="12.3516205"><ele>2.0</ele><time>2026-04-24T16:48:18.028Z</time></trkpt><trkpt lat="45.5889342" lon="12.3516799"><ele>2.0</ele><time>2026-04-24T16:48:20.025Z</time></trkpt><trkpt lat="45.5888216" lon="12.3517223"><ele>2.0</ele><time>2026-04-24T16:48:22.024Z</time></trkpt><trkpt lat="45.5887392" lon="12.351779"><ele>2.0</ele><time>2026-04-24T16:48:24.026Z</time></trkpt><trkpt lat="45.5886568" lon="12.3518416"><ele>1.9999999999999998</ele><time>2026-04-24T16:48:26.024Z</time></trkpt><trkpt lat="45.5885863" lon="12.3518918"><ele>2.0</ele><time>2026-04-24T16:48:28.037Z</time></trkpt><trkpt lat="45.5885034" lon="12.3519391"><ele>2.0</ele><time>2026-04-24T16:48:30.036Z</time></trkpt><trkpt lat="45.5884103" lon="12.3520012"><ele>2.0</ele><time>2026-04-24T16:48:32.041Z</time></trkpt><trkpt lat="45.5883379" lon="12.3520787"><ele>1.9999999999999998</ele><time>2026-04-24T16:48:34.026Z</time></trkpt><trkpt lat="45.5882824" lon="12.3521663"><ele>2.0</ele><time>2026-04-24T16:48:36.039Z</time></trkpt><trkpt lat="45.5882472" lon="12.3522733"><ele>1.6666666666666665</ele><time>2026-04-24T16:48:38.048Z</time></trkpt><trkpt lat="45.5882447" lon="12.3523968"><ele>1.3333333333333333</ele><time>2026-04-24T16:48:40.036Z</time></trkpt><trkpt lat="45.5882631" lon="12.3524943"><ele>1.0</ele><time>2026-04-24T16:48:42.038Z</time></trkpt><trkpt lat="45.5882992" lon="12.3525948"><ele>0.6666666666666666</ele><time>2026-04-24T16:48:44.027Z</time></trkpt><trkpt lat="45.5883282" lon="12.3527092"><ele>0.3333333333333333</ele><time>2026-04-24T16:48:46.022Z</time></trkpt><trkpt lat="45.5883653" lon="12.3528186"><ele>0.0</ele><time>2026-04-24T16:48:48.035Z</time></trkpt><trkpt lat="45.5883986" lon="12.3529196"><ele>0.4</ele><time>2026-04-24T16:48:50.016Z</time></trkpt><trkpt lat="45.5884358" lon="12.3530395"><ele>0.8</ele><time>2026-04-24T16:48:52.034Z</time></trkpt><trkpt lat="45.588467" lon="12.353164"><ele>1.2000000000000002</ele><time>2026-04-24T16:48:54.023Z</time></trkpt><trkpt lat="45.588502" lon="12.35329"><ele>1.6</ele><time>2026-04-24T16:48:56.031Z</time></trkpt><trkpt lat="45.58854" lon="12.3534139"><ele>2.0</ele><time>2026-04-24T16:48:58.034Z</time></trkpt><trkpt lat="45.5885892" lon="12.3535491"><ele>2.0</ele><time>2026-04-24T16:49:00.037Z</time></trkpt><trkpt lat="45.5886273" lon="12.3536799"><ele>2.0</ele><time>2026-04-24T16:49:02.038Z</time></trkpt><trkpt lat="45.5886649" lon="12.3538035"><ele>2.0</ele><time>2026-04-24T16:49:04.021Z</time></trkpt><trkpt lat="45.5886954" lon="12.3539328"><ele>2.0</ele><time>2026-04-24T16:49:06.024Z</time></trkpt><trkpt lat="45.5887322" lon="12.354048"><ele>2.0</ele><time>2026-04-24T16:49:08.027Z</time></trkpt><trkpt lat="45.5887888" lon="12.354161"><ele>1.9999999999999998</ele><time>2026-04-24T16:49:10.035Z</time></trkpt><trkpt lat="45.5888433" lon="12.3542479"><ele>2.0</ele><time>2026-04-24T16:49:12.032Z</time></trkpt><trkpt lat="45.5889001" lon="12.3543455"><ele>2.0</ele><time>2026-04-24T16:49:14.042Z</time></trkpt><trkpt lat="45.5889391" lon="12.3544228"><ele>2.0</ele><time>2026-04-24T16:49:16.035Z</time></trkpt><trkpt lat="45.5889795" lon="12.3544993"><ele>1.9999999999999998</ele><time>2026-04-24T16:49:18.044Z</time></trkpt><trkpt lat="45.5890269" lon="12.3545712"><ele>2.0</ele><time>2026-04-24T16:49:20.052Z</time></trkpt><trkpt lat="45.5890923" lon="12.3546516"><ele>1.9999999999999998</ele><time>2026-04-24T16:49:22.04Z</time></trkpt><trkpt lat="45.5891645" lon="12.3547235"><ele>2.0</ele><time>2026-04-24T16:49:24.023Z</time></trkpt><trkpt lat="45.5892347" lon="12.3547847"><ele>2.0</ele><time>2026-04-24T16:49:26.023Z</time></trkpt><trkpt lat="45.5892984" lon="12.3548444"><ele>2.0</ele><time>2026-04-24T16:49:28.017Z</time></trkpt><trkpt lat="45.5893697" lon="12.3549058"><ele>1.9999999999999998</ele><time>2026-04-24T16:49:30.027Z</time></trkpt><trkpt lat="45.5894444" lon="12.354959"><ele>2.0</ele><time>2026-04-24T16:49:32.036Z</time></trkpt><trkpt lat="45.5895183" lon="12.355015"><ele>1.9999999999999998</ele><time>2026-04-24T16:49:34.025Z</time></trkpt><trkpt lat="45.5895901" lon="12.3550658"><ele>2.0</ele><time>2026-04-24T16:49:36.028Z</time></trkpt><trkpt lat="45.5896652" lon="12.3551318"><ele>2.0</ele><time>2026-04-24T16:49:38.03Z</time></trkpt><trkpt lat="45.5897332" lon="12.3551714"><ele>2.0</ele><time>2026-04-24T16:49:40.025Z</time></trkpt><trkpt lat="45.5898169" lon="12.3552223"><ele>1.9999999999999998</ele><time>2026-04-24T16:49:42.025Z</time></trkpt><trkpt lat="45.5898877" lon="12.3552765"><ele>2.0</ele><time>2026-04-24T16:49:44.031Z</time></trkpt><trkpt lat="45.5899786" lon="12.3553349"><ele>2.0</ele><time>2026-04-24T16:49:46.037Z</time></trkpt><trkpt lat="45.5900796" lon="12.3553951"><ele>2.0</ele><time>2026-04-24T16:49:48.014Z</time></trkpt><trkpt lat="45.5901712" lon="12.3554581"><ele>2.0</ele><time>2026-04-24T16:49:50.039Z</time></trkpt><trkpt lat="45.5902596" lon="12.3555162"><ele>2.0</ele><time>2026-04-24T16:49:52.037Z</time></trkpt><trkpt lat="45.5903507" lon="12.3555707"><ele>2.0</ele><time>2026-04-24T16:49:54.032Z</time></trkpt><trkpt lat="45.590441" lon="12.3556273"><ele>1.8333333333333333</ele><time>2026-04-24T16:49:56.027Z</time></trkpt><trkpt lat="45.5905242" lon="12.3556904"><ele>1.6666666666666665</ele><time>2026-04-24T16:49:58.027Z</time></trkpt><trkpt lat="45.5906003" lon="12.3557584"><ele>1.5</ele><time>2026-04-24T16:50:00.032Z</time></trkpt><trkpt lat="45.5906653" lon="12.3558271"><ele>1.3333333333333333</ele><time>2026-04-24T16:50:02.027Z</time></trkpt><trkpt lat="45.5907257" lon="12.3558871"><ele>1.1666666666666665</ele><time>2026-04-24T16:50:04.035Z</time></trkpt><trkpt lat="45.5907905" lon="12.3559648"><ele>1.0</ele><time>2026-04-24T16:50:06.027Z</time></trkpt><trkpt lat="45.5908484" lon="12.3560702"><ele>1.0</ele><time>2026-04-24T16:50:08.029Z</time></trkpt><trkpt lat="45.5909075" lon="12.3561898"><ele>1.0</ele><time>2026-04-24T16:50:10.029Z</time></trkpt><trkpt lat="45.5909534" lon="12.3563159"><ele>1.0</ele><time>2026-04-24T16:50:12.029Z</time></trkpt><trkpt lat="45.5909727" lon="12.3564551"><ele>1.0</ele><time>2026-04-24T16:50:14.045Z</time></trkpt><trkpt lat="45.5909768" lon="12.3566256"><ele>1.0</ele><time>2026-04-24T16:50:16.028Z</time></trkpt><trkpt lat="45.590992" lon="12.3567715"><ele>1.1666666666666665</ele><time>2026-04-24T16:50:18.024Z</time></trkpt><trkpt lat="45.5910009" lon="12.3569022"><ele>1.3333333333333333</ele><time>2026-04-24T16:50:20.023Z</time></trkpt><trkpt lat="45.5910003" lon="12.3570204"><ele>1.5</ele><time>2026-04-24T16:50:22.024Z</time></trkpt><trkpt lat="45.5910012" lon="12.3571385"><ele>1.6666666666666665</ele><time>2026-04-24T16:50:24.047Z</time></trkpt><trkpt lat="45.5909869" lon="12.3572397"><ele>1.8333333333333333</ele><time>2026-04-24T16:50:26.033Z</time></trkpt><trkpt lat="45.5909568" lon="12.3573271"><ele>2.0</ele><time>2026-04-24T16:50:28.034Z</time></trkpt><trkpt lat="45.5909209" lon="12.3574594"><ele>2.0</ele><time>2026-04-24T16:50:31.053Z</time></trkpt><trkpt lat="45.5908758" lon="12.3575657"><ele>2.0</ele><time>2026-04-24T16:50:33.037Z</time></trkpt><trkpt lat="45.5908077" lon="12.357679"><ele>2.0</ele><time>2026-04-24T16:50:35.021Z</time></trkpt><trkpt lat="45.5907441" lon="12.3577692"><ele>2.0</ele><time>2026-04-24T16:50:37.043Z</time></trkpt><trkpt lat="45.5906801" lon="12.3578545"><ele>2.0</ele><time>2026-04-24T16:50:39.037Z</time></trkpt><trkpt lat="45.5906207" lon="12.3579331"><ele>2.0</ele><time>2026-04-24T16:50:41.027Z</time></trkpt><trkpt lat="45.5905517" lon="12.3580262"><ele>2.0</ele><time>2026-04-24T16:50:43.027Z</time></trkpt><trkpt lat="45.5904831" lon="12.3581187"><ele>2.0</ele><time>2026-04-24T16:50:45.042Z</time></trkpt><trkpt lat="45.5904248" lon="12.3581949"><ele>2.0</ele><time>2026-04-24T16:50:47.029Z</time></trkpt><trkpt lat="45.5903601" lon="12.3582672"><ele>2.0</ele><time>2026-04-24T16:50:49.032Z</time></trkpt><trkpt lat="45.5902855" lon="12.3583621"><ele>2.5</ele><time>2026-04-24T16:50:51.029Z</time></trkpt><trkpt lat="45.5902177" lon="12.3584401"><ele>3.0</ele><time>2026-04-24T16:50:53.026Z</time></trkpt><trkpt lat="45.5901392" lon="12.3585199"><ele>3.5</ele><time>2026-04-24T16:50:55.032Z</time></trkpt><trkpt lat="45.5900695" lon="12.3585782"><ele>4.0</ele><time>2026-04-24T16:50:57.053Z</time></trkpt><trkpt lat="45.5900087" lon="12.3586437"><ele>4.5</ele><time>2026-04-24T16:50:59.025Z</time></trkpt><trkpt lat="45.589931" lon="12.3586962"><ele>5.0</ele><time>2026-04-24T16:51:01.027Z</time></trkpt><trkpt lat="45.5898531" lon="12.3587567"><ele>5.0</ele><time>2026-04-24T16:51:03.03Z</time></trkpt><trkpt lat="45.5897778" lon="12.3588241"><ele>5.0</ele><time>2026-04-24T16:51:05.031Z</time></trkpt><trkpt lat="45.5897002" lon="12.3588853"><ele>5.0</ele><time>2026-04-24T16:51:07.028Z</time></trkpt><trkpt lat="45.5896357" lon="12.3588837"><ele>5.0</ele><time>2026-04-24T16:51:09.037Z</time></trkpt><trkpt lat="45.589563" lon="12.358895"><ele>5.0</ele><time>2026-04-24T16:51:11.027Z</time></trkpt><trkpt lat="45.5894657" lon="12.3589055"><ele>5.0</ele><time>2026-04-24T16:51:13.038Z</time></trkpt><trkpt lat="45.5893802" lon="12.3589159"><ele>5.2</ele><time>2026-04-24T16:51:15.039Z</time></trkpt><trkpt lat="45.5892806" lon="12.3589032"><ele>5.4</ele><time>2026-04-24T16:51:17.052Z</time></trkpt><trkpt lat="45.5891824" lon="12.3588904"><ele>5.6</ele><time>2026-04-24T16:51:19.042Z</time></trkpt><trkpt lat="45.5890926" lon="12.3588602"><ele>5.8</ele><time>2026-04-24T16:51:21.031Z</time></trkpt><trkpt lat="45.588987" lon="12.3588408"><ele>6.0</ele><time>2026-04-24T16:51:23.042Z</time></trkpt><trkpt lat="45.5888991" lon="12.3588301"><ele>6.0</ele><time>2026-04-24T16:51:25.026Z</time></trkpt><trkpt lat="45.5887975" lon="12.3588086"><ele>6.0</ele><time>2026-04-24T16:51:27.034Z</time></trkpt><trkpt lat="45.5886984" lon="12.3588014"><ele>6.0</ele><time>2026-04-24T16:51:29.048Z</time></trkpt><trkpt lat="45.5886045" lon="12.3588204"><ele>6.0</ele><time>2026-04-24T16:51:31.029Z</time></trkpt><trkpt lat="45.5885382" lon="12.3588183"><ele>6.0</ele><time>2026-04-24T16:51:32.033Z</time></trkpt><trkpt lat="45.5884417" lon="12.3588334"><ele>6.199999999999999</ele><time>2026-04-24T16:51:34.028Z</time></trkpt><trkpt lat="45.5883421" lon="12.3588664"><ele>6.3999999999999995</ele><time>2026-04-24T16:51:36.023Z</time></trkpt><trkpt lat="45.5882525" lon="12.3588992"><ele>6.6</ele><time>2026-04-24T16:51:38.038Z</time></trkpt><trkpt lat="45.5881695" lon="12.3589218"><ele>6.8</ele><time>2026-04-24T16:51:40.035Z</time></trkpt><trkpt lat="45.5880779" lon="12.35896"><ele>7.0</ele><time>2026-04-24T16:51:42.039Z</time></trkpt><trkpt lat="45.5879831" lon="12.3589904"><ele>6.500000000000001</ele><time>2026-04-24T16:51:44.023Z</time></trkpt><trkpt lat="45.5879006" lon="12.3590346"><ele>6.0</ele><time>2026-04-24T16:51:46.025Z</time></trkpt><trkpt lat="45.5878122" lon="12.3590838"><ele>5.5</ele><time>2026-04-24T16:51:48.023Z</time></trkpt><trkpt lat="45.5877339" lon="12.3591347"><ele>5.0</ele><time>2026-04-24T16:51:50.046Z</time></trkpt><trkpt lat="45.5876494" lon="12.3591693"><ele>4.5</ele><time>2026-04-24T16:51:52.044Z</time></trkpt><trkpt lat="45.5875634" lon="12.3591944"><ele>4.0</ele><time>2026-04-24T16:51:54.026Z</time></trkpt><trkpt lat="45.5874704" lon="12.3592227"><ele>3.8000000000000003</ele><time>2026-04-24T16:51:56.03Z</time></trkpt><trkpt lat="45.587374" lon="12.3592548"><ele>3.6000000000000005</ele><time>2026-04-24T16:51:58.038Z</time></trkpt><trkpt lat="45.5872815" lon="12.3592902"><ele>3.4</ele><time>2026-04-24T16:52:00.019Z</time></trkpt><trkpt lat="45.5872033" lon="12.3593227"><ele>3.2</ele><time>2026-04-24T16:52:02.037Z</time></trkpt><trkpt lat="45.5871068" lon="12.359363"><ele>3.0</ele><time>2026-04-24T16:52:04.034Z</time></trkpt><trkpt lat="45.5870078" lon="12.3593957"><ele>2.8</ele><time>2026-04-24T16:52:06.026Z</time></trkpt><trkpt lat="45.5869183" lon="12.3594289"><ele>2.5999999999999996</ele><time>2026-04-24T16:52:08.048Z</time></trkpt><trkpt lat="45.5868338" lon="12.3594611"><ele>2.4000000000000004</ele><time>2026-04-24T16:52:10.033Z</time></trkpt><trkpt lat="45.5867451" lon="12.3594885"><ele>2.2</ele><time>2026-04-24T16:52:12.023Z</time></trkpt><trkpt lat="45.586658" lon="12.3595316"><ele>2.0</ele><time>2026-04-24T16:52:14.02Z</time></trkpt><trkpt lat="45.5865678" lon="12.3595688"><ele>2.0</ele><time>2026-04-24T16:52:16.022Z</time></trkpt><trkpt lat="45.5864798" lon="12.3595984"><ele>2.0</ele><time>2026-04-24T16:52:18.039Z</time></trkpt><trkpt lat="45.586387" lon="12.359629"><ele>2.0</ele><time>2026-04-24T16:52:20.026Z</time></trkpt><trkpt lat="45.5862933" lon="12.3596611"><ele>2.0</ele><time>2026-04-24T16:52:22.016Z</time></trkpt><trkpt lat="45.5861779" lon="12.3596912"><ele>2.0</ele><time>2026-04-24T16:52:24.03Z</time></trkpt><trkpt lat="45.5860967" lon="12.3597275"><ele>1.4999999999999998</ele><time>2026-04-24T16:52:26.038Z</time></trkpt><trkpt lat="45.5859906" lon="12.359761"><ele>1.0</ele><time>2026-04-24T16:52:28.035Z</time></trkpt><trkpt lat="45.5859006" lon="12.3597913"><ele>0.5</ele><time>2026-04-24T16:52:30.026Z</time></trkpt><trkpt lat="45.5858221" lon="12.3598215"><ele>0.0</ele><time>2026-04-24T16:52:32.012Z</time></trkpt><trkpt lat="45.5857587" lon="12.3598386"><ele>-0.49999999999999994</ele><time>2026-04-24T16:52:33.034Z</time></trkpt><trkpt lat="45.5856778" lon="12.3598813"><ele>-1.0</ele><time>2026-04-24T16:52:35.029Z</time></trkpt><trkpt lat="45.5855838" lon="12.3599247"><ele>-1.0</ele><time>2026-04-24T16:52:37.044Z</time></trkpt><trkpt lat="45.585478" lon="12.3599672"><ele>-1.0</ele><time>2026-04-24T16:52:39.032Z</time></trkpt><trkpt lat="45.5853753" lon="12.3599999"><ele>-1.0</ele><time>2026-04-24T16:52:41.02Z</time></trkpt><trkpt lat="45.5853041" lon="12.3600514"><ele>-1.0</ele><time>2026-04-24T16:52:43.027Z</time></trkpt><trkpt lat="45.585216" lon="12.3601019"><ele>-1.0</ele><time>2026-04-24T16:52:45.028Z</time></trkpt><trkpt lat="45.5851301" lon="12.3601534"><ele>-0.6000000000000001</ele><time>2026-04-24T16:52:47.031Z</time></trkpt><trkpt lat="45.5850424" lon="12.3602056"><ele>-0.20000000000000007</ele><time>2026-04-24T16:52:49.042Z</time></trkpt><trkpt lat="45.5849507" lon="12.3602575"><ele>0.20000000000000007</ele><time>2026-04-24T16:52:51.039Z</time></trkpt><trkpt lat="45.5848594" lon="12.3603136"><ele>0.6000000000000001</ele><time>2026-04-24T16:52:53.028Z</time></trkpt><trkpt lat="45.5847867" lon="12.3603681"><ele>1.0</ele><time>2026-04-24T16:52:55.049Z</time></trkpt><trkpt lat="45.5847077" lon="12.3604183"><ele>1.0</ele><time>2026-04-24T16:52:57.039Z</time></trkpt><trkpt lat="45.5846385" lon="12.3604674"><ele>1.0</ele><time>2026-04-24T16:52:59.028Z</time></trkpt><trkpt lat="45.584545" lon="12.3605112"><ele>1.0</ele><time>2026-04-24T16:53:01.039Z</time></trkpt><trkpt lat="45.5844645" lon="12.3605588"><ele>1.0</ele><time>2026-04-24T16:53:03.045Z</time></trkpt><trkpt lat="45.5843816" lon="12.3606116"><ele>1.0</ele><time>2026-04-24T16:53:05.051Z</time></trkpt><trkpt lat="45.5842869" lon="12.3606622"><ele>1.4</ele><time>2026-04-24T16:53:07.053Z</time></trkpt><trkpt lat="45.5841996" lon="12.3607207"><ele>1.8</ele><time>2026-04-24T16:53:09.046Z</time></trkpt><trkpt lat="45.5841212" lon="12.3607567"><ele>2.1999999999999997</ele><time>2026-04-24T16:53:11.031Z</time></trkpt><trkpt lat="45.5840258" lon="12.3608143"><ele>2.6</ele><time>2026-04-24T16:53:13.028Z</time></trkpt><trkpt lat="45.5839504" lon="12.3608613"><ele>3.0</ele><time>2026-04-24T16:53:15.034Z</time></trkpt><trkpt lat="45.5838596" lon="12.3609375"><ele>3.0</ele><time>2026-04-24T16:53:17.029Z</time></trkpt><trkpt lat="45.5837628" lon="12.3610277"><ele>3.0</ele><time>2026-04-24T16:53:19.037Z</time></trkpt><trkpt lat="45.5837155" lon="12.3611065"><ele>3.0</ele><time>2026-04-24T16:53:20.039Z</time></trkpt><trkpt lat="45.5836824" lon="12.3612061"><ele>3.0</ele><time>2026-04-24T16:53:21.035Z</time></trkpt><trkpt lat="45.5836512" lon="12.3613236"><ele>3.0</ele><time>2026-04-24T16:53:23.057Z</time></trkpt><trkpt lat="45.5836104" lon="12.3614597"><ele>2.8</ele><time>2026-04-24T16:53:26.032Z</time></trkpt><trkpt lat="45.5835615" lon="12.361593"><ele>2.5999999999999996</ele><time>2026-04-24T16:53:28.024Z</time></trkpt><trkpt lat="45.5835018" lon="12.3616873"><ele>2.4000000000000004</ele><time>2026-04-24T16:53:30.02Z</time></trkpt><trkpt lat="45.583437" lon="12.3618016"><ele>2.2</ele><time>2026-04-24T16:53:32.029Z</time></trkpt><trkpt lat="45.5833907" lon="12.3619053"><ele>2.0</ele><time>2026-04-24T16:53:34.032Z</time></trkpt><trkpt lat="45.5833241" lon="12.3619978"><ele>1.9999999999999998</ele><time>2026-04-24T16:53:36.049Z</time></trkpt><trkpt lat="45.5832634" lon="12.3621057"><ele>2.0</ele><time>2026-04-24T16:53:38.053Z</time></trkpt><trkpt lat="45.5831965" lon="12.3622116"><ele>2.0</ele><time>2026-04-24T16:53:40.029Z</time></trkpt><trkpt lat="45.5831373" lon="12.3623077"><ele>2.0</ele><time>2026-04-24T16:53:42.026Z</time></trkpt><trkpt lat="45.5831002" lon="12.3624021"><ele>1.9999999999999998</ele><time>2026-04-24T16:53:44.038Z</time></trkpt><trkpt lat="45.583056" lon="12.3625026"><ele>2.0</ele><time>2026-04-24T16:53:46.02Z</time></trkpt><trkpt lat="45.5830044" lon="12.3626082"><ele>1.6</ele><time>2026-04-24T16:53:48.027Z</time></trkpt><trkpt lat="45.5829509" lon="12.3627084"><ele>1.2000000000000002</ele><time>2026-04-24T16:53:50.019Z</time></trkpt><trkpt lat="45.5829084" lon="12.3628132"><ele>0.8</ele><time>2026-04-24T16:53:52.028Z</time></trkpt><trkpt lat="45.5828741" lon="12.3629316"><ele>0.4</ele><time>2026-04-24T16:53:54.019Z</time></trkpt><trkpt lat="45.5828492" lon="12.3630943"><ele>0.0</ele><time>2026-04-24T16:53:56.026Z</time></trkpt><trkpt lat="45.5828539" lon="12.3632139"><ele>0.0</ele><time>2026-04-24T16:53:58.032Z</time></trkpt><trkpt lat="45.5828745" lon="12.3633294"><ele>0.0</ele><time>2026-04-24T16:54:00.039Z</time></trkpt><trkpt lat="45.5829161" lon="12.3634695"><ele>0.0</ele><time>2026-04-24T16:54:02.019Z</time></trkpt><trkpt lat="45.5829577" lon="12.3635905"><ele>0.0</ele><time>2026-04-24T16:54:04.019Z</time></trkpt><trkpt lat="45.5829936" lon="12.3637048"><ele>0.0</ele><time>2026-04-24T16:54:06.036Z</time></trkpt><trkpt lat="45.5830267" lon="12.3638067"><ele>0.16666666666666666</ele><time>2026-04-24T16:54:08.027Z</time></trkpt><trkpt lat="45.5830595" lon="12.3639098"><ele>0.3333333333333333</ele><time>2026-04-24T16:54:10.021Z</time></trkpt><trkpt lat="45.5830928" lon="12.3640263"><ele>0.5</ele><time>2026-04-24T16:54:12.03Z</time></trkpt><trkpt lat="45.5831272" lon="12.3641511"><ele>0.6666666666666666</ele><time>2026-04-24T16:54:14.036Z</time></trkpt><trkpt lat="45.5831619" lon="12.3642657"><ele>0.8333333333333333</ele><time>2026-04-24T16:54:16.035Z</time></trkpt><trkpt lat="45.5831938" lon="12.3643815"><ele>1.0</ele><time>2026-04-24T16:54:18.022Z</time></trkpt><trkpt lat="45.5832365" lon="12.3644969"><ele>1.0</ele><time>2026-04-24T16:54:20.024Z</time></trkpt><trkpt lat="45.583274" lon="12.364621"><ele>1.0</ele><time>2026-04-24T16:54:22.011Z</time></trkpt><trkpt lat="45.5833089" lon="12.3647491"><ele>1.0</ele><time>2026-04-24T16:54:24.039Z</time></trkpt><trkpt lat="45.5833478" lon="12.3648781"><ele>1.0</ele><time>2026-04-24T16:54:26.03Z</time></trkpt><trkpt lat="45.5833885" lon="12.3650083"><ele>1.0</ele><time>2026-04-24T16:54:28.025Z</time></trkpt><trkpt lat="45.5834249" lon="12.3651292"><ele>0.8</ele><time>2026-04-24T16:54:30.03Z</time></trkpt><trkpt lat="45.5834652" lon="12.365261"><ele>0.6000000000000001</ele><time>2026-04-24T16:54:32.05Z</time></trkpt><trkpt lat="45.5835007" lon="12.3653803"><ele>0.4</ele><time>2026-04-24T16:54:34.042Z</time></trkpt><trkpt lat="45.583541" lon="12.3655014"><ele>0.2</ele><time>2026-04-24T16:54:36.022Z</time></trkpt><trkpt lat="45.5835813" lon="12.3656299"><ele>0.0</ele><time>2026-04-24T16:54:38.04Z</time></trkpt><trkpt lat="45.5836135" lon="12.3657487"><ele>-0.2</ele><time>2026-04-24T16:54:40.031Z</time></trkpt><trkpt lat="45.5836544" lon="12.3658822"><ele>-0.4</ele><time>2026-04-24T16:54:42.028Z</time></trkpt><trkpt lat="45.5836899" lon="12.3660006"><ele>-0.6000000000000001</ele><time>2026-04-24T16:54:44.025Z</time></trkpt><trkpt lat="45.5837256" lon="12.366136"><ele>-0.8</ele><time>2026-04-24T16:54:46.018Z</time></trkpt><trkpt lat="45.5837628" lon="12.3662588"><ele>-1.0</ele><time>2026-04-24T16:54:48.028Z</time></trkpt><trkpt lat="45.5838016" lon="12.3663873"><ele>-1.0</ele><time>2026-04-24T16:54:50.018Z</time></trkpt><trkpt lat="45.5838372" lon="12.3665106"><ele>-1.0</ele><time>2026-04-24T16:54:52.018Z</time></trkpt><trkpt lat="45.5838784" lon="12.3666344"><ele>-1.0</ele><time>2026-04-24T16:54:54.035Z</time></trkpt><trkpt lat="45.583915" lon="12.3667598"><ele>-1.0</ele><time>2026-04-24T16:54:56.034Z</time></trkpt><trkpt lat="45.5839562" lon="12.3668874"><ele>-1.0</ele><time>2026-04-24T16:54:58.014Z</time></trkpt><trkpt lat="45.5839934" lon="12.367019"><ele>-0.9999999999999999</ele><time>2026-04-24T16:55:00.035Z</time></trkpt><trkpt lat="45.5840317" lon="12.3671429"><ele>-1.0</ele><time>2026-04-24T16:55:02.038Z</time></trkpt><trkpt lat="45.5840636" lon="12.3672533"><ele>-1.0</ele><time>2026-04-24T16:55:04.014Z</time></trkpt><trkpt lat="45.5840954" lon="12.3673508"><ele>-1.0</ele><time>2026-04-24T16:55:06.035Z</time></trkpt><trkpt lat="45.5841188" lon="12.3674406"><ele>-0.9999999999999999</ele><time>2026-04-24T16:55:08.033Z</time></trkpt><trkpt lat="45.5841442" lon="12.3675388"><ele>-1.0</ele><time>2026-04-24T16:55:10.032Z</time></trkpt><trkpt lat="45.584167" lon="12.3676594"><ele>-1.2000000000000002</ele><time>2026-04-24T16:55:12.025Z</time></trkpt><trkpt lat="45.584186" lon="12.3677981"><ele>-1.4000000000000001</ele><time>2026-04-24T16:55:14.021Z</time></trkpt><trkpt lat="45.5841986" lon="12.3679336"><ele>-1.6</ele><time>2026-04-24T16:55:16.038Z</time></trkpt><trkpt lat="45.5842077" lon="12.3680627"><ele>-1.8</ele><time>2026-04-24T16:55:18.025Z</time></trkpt><trkpt lat="45.5842116" lon="12.3681927"><ele>-2.0</ele><time>2026-04-24T16:55:20.022Z</time></trkpt><trkpt lat="45.5842074" lon="12.3683175"><ele>-1.6666666666666665</ele><time>2026-04-24T16:55:22.024Z</time></trkpt><trkpt lat="45.5842135" lon="12.3684467"><ele>-1.3333333333333333</ele><time>2026-04-24T16:55:24.024Z</time></trkpt><trkpt lat="45.5842103" lon="12.3685569"><ele>-1.0</ele><time>2026-04-24T16:55:26.025Z</time></trkpt><trkpt lat="45.5842019" lon="12.3686634"><ele>-0.6666666666666666</ele><time>2026-04-24T16:55:28.02Z</time></trkpt><trkpt lat="45.5841747" lon="12.368765"><ele>-0.3333333333333333</ele><time>2026-04-24T16:55:30.024Z</time></trkpt><trkpt lat="45.5841508" lon="12.3688593"><ele>0.0</ele><time>2026-04-24T16:55:32.018Z</time></trkpt><trkpt lat="45.5841366" lon="12.3689585"><ele>0.3333333333333333</ele><time>2026-04-24T16:55:34.018Z</time></trkpt><trkpt lat="45.5841351" lon="12.3690718"><ele>0.6666666666666666</ele><time>2026-04-24T16:55:37.033Z</time></trkpt><trkpt lat="45.58417" lon="12.3691637"><ele>1.0</ele><time>2026-04-24T16:55:41.036Z</time></trkpt><trkpt lat="45.5842452" lon="12.3692288"><ele>1.3333333333333333</ele><time>2026-04-24T16:55:43.031Z</time></trkpt><trkpt lat="45.5843486" lon="12.36933"><ele>1.6666666666666665</ele><time>2026-04-24T16:55:46.028Z</time></trkpt><trkpt lat="45.5844136" lon="12.3693837"><ele>2.0</ele><time>2026-04-24T16:55:49.037Z</time></trkpt><trkpt lat="45.5845163" lon="12.3694598"><ele>1.9999999999999998</ele><time>2026-04-24T16:55:51.014Z</time></trkpt><trkpt lat="45.584575" lon="12.369514"><ele>2.0</ele><time>2026-04-24T16:55:52.016Z</time></trkpt><trkpt lat="45.5846228" lon="12.3696096"><ele>2.0</ele><time>2026-04-24T16:55:54.024Z</time></trkpt><trkpt lat="45.584661" lon="12.369686"><ele>2.0</ele><time>2026-04-24T16:55:56.026Z</time></trkpt><trkpt lat="45.5847083" lon="12.3697756"><ele>1.9999999999999998</ele><time>2026-04-24T16:55:58.022Z</time></trkpt><trkpt lat="45.5847731" lon="12.3698604"><ele>2.0</ele><time>2026-04-24T16:56:00.034Z</time></trkpt><trkpt lat="45.5848415" lon="12.3699535"><ele>2.1666666666666665</ele><time>2026-04-24T16:56:02.026Z</time></trkpt><trkpt lat="45.5848575" lon="12.3700444"><ele>2.333333333333333</ele><time>2026-04-24T16:56:05.021Z</time></trkpt><trkpt lat="45.5848187" lon="12.3701164"><ele>2.5</ele><time>2026-04-24T16:56:08.03Z</time></trkpt><trkpt lat="45.5847501" lon="12.370177"><ele>2.6666666666666665</ele><time>2026-04-24T16:56:11.026Z</time></trkpt><trkpt lat="45.5846584" lon="12.370214"><ele>2.8333333333333335</ele><time>2026-04-24T16:56:14.04Z</time></trkpt><trkpt lat="45.5845732" lon="12.370242"><ele>3.0</ele><time>2026-04-24T16:56:18.022Z</time></trkpt><trkpt lat="45.5845253" lon="12.3703209"><ele>2.9999999999999996</ele><time>2026-04-24T16:56:21.026Z</time></trkpt><trkpt lat="45.5844969" lon="12.3704098"><ele>3.0</ele><time>2026-04-24T16:56:23.022Z</time></trkpt><trkpt lat="45.5844794" lon="12.3704999"><ele>3.0</ele><time>2026-04-24T16:56:26.025Z</time></trkpt><trkpt lat="45.5844732" lon="12.3706044"><ele>3.0</ele><time>2026-04-24T16:56:30.024Z</time></trkpt><trkpt lat="45.58452" lon="12.3706763"><ele>3.0</ele><time>2026-04-24T16:56:34.028Z</time></trkpt><trkpt lat="45.5845904" lon="12.3707211"><ele>2.9999999999999996</ele><time>2026-04-24T16:56:37.024Z</time></trkpt><trkpt lat="45.5846429" lon="12.3708054"><ele>3.0</ele><time>2026-04-24T16:56:40.032Z</time></trkpt><trkpt lat="45.5846166" lon="12.3709093"><ele>3.2</ele><time>2026-04-24T16:56:42.019Z</time></trkpt><trkpt lat="45.5845511" lon="12.3709277"><ele>3.4</ele><time>2026-04-24T16:56:45.029Z</time></trkpt><trkpt lat="45.5844829" lon="12.3709114"><ele>3.6000000000000005</ele><time>2026-04-24T16:56:47.038Z</time></trkpt><trkpt lat="45.5843725" lon="12.3708858"><ele>3.8000000000000003</ele><time>2026-04-24T16:56:49.027Z</time></trkpt><trkpt lat="45.5842478" lon="12.3708831"><ele>4.0</ele><time>2026-04-24T16:56:52.026Z</time></trkpt><trkpt lat="45.5841333" lon="12.3708662"><ele>3.833333333333333</ele><time>2026-04-24T16:56:54.026Z</time></trkpt><trkpt lat="45.5840311" lon="12.3708709"><ele>3.6666666666666665</ele><time>2026-04-24T16:56:56.023Z</time></trkpt><trkpt lat="45.5839603" lon="12.3708789"><ele>3.5</ele><time>2026-04-24T16:56:58.022Z</time></trkpt><trkpt lat="45.583874" lon="12.3708867"><ele>3.333333333333333</ele><time>2026-04-24T16:57:00.013Z</time></trkpt><trkpt lat="45.5837907" lon="12.3708725"><ele>3.1666666666666665</ele><time>2026-04-24T16:57:02.028Z</time></trkpt><trkpt lat="45.5837306" lon="12.3708412"><ele>3.0</ele><time>2026-04-24T16:57:04.034Z</time></trkpt><trkpt lat="45.5836424" lon="12.3708422"><ele>3.0</ele><time>2026-04-24T16:57:07.025Z</time></trkpt><trkpt lat="45.583579" lon="12.3708473"><ele>3.0</ele><time>2026-04-24T16:57:09.032Z</time></trkpt><trkpt lat="45.5834742" lon="12.370844"><ele>3.0</ele><time>2026-04-24T16:57:12.017Z</time></trkpt><trkpt lat="45.5834019" lon="12.3708338"><ele>3.0</ele><time>2026-04-24T16:57:14.032Z</time></trkpt><trkpt lat="45.5832805" lon="12.3708358"><ele>3.0</ele><time>2026-04-24T16:57:16.022Z</time></trkpt><trkpt lat="45.5832171" lon="12.3708606"><ele>3.0</ele><time>2026-04-24T16:57:17.03Z</time></trkpt><trkpt lat="45.5831407" lon="12.3709499"><ele>3.0</ele><time>2026-04-24T16:57:19.023Z</time></trkpt><trkpt lat="45.5830835" lon="12.3710414"><ele>3.0</ele><time>2026-04-24T16:57:21.042Z</time></trkpt><trkpt lat="45.5830014" lon="12.3711452"><ele>3.0</ele><time>2026-04-24T16:57:23.042Z</time></trkpt><trkpt lat="45.5829391" lon="12.3712232"><ele>3.0</ele><time>2026-04-24T16:57:25.025Z</time></trkpt><trkpt lat="45.5828723" lon="12.3713089"><ele>3.0</ele><time>2026-04-24T16:57:27.041Z</time></trkpt><trkpt lat="45.5828144" lon="12.3714015"><ele>2.8333333333333335</ele><time>2026-04-24T16:57:29.052Z</time></trkpt><trkpt lat="45.5827611" lon="12.3714788"><ele>2.6666666666666665</ele><time>2026-04-24T16:57:31.029Z</time></trkpt><trkpt lat="45.5827048" lon="12.3715692"><ele>2.5</ele><time>2026-04-24T16:57:33.017Z</time></trkpt><trkpt lat="45.582652" lon="12.3716591"><ele>2.333333333333333</ele><time>2026-04-24T16:57:35.034Z</time></trkpt><trkpt lat="45.5826295" lon="12.37176"><ele>2.1666666666666665</ele><time>2026-04-24T16:57:37.028Z</time></trkpt><trkpt lat="45.5826139" lon="12.3718731"><ele>2.0</ele><time>2026-04-24T16:57:39.023Z</time></trkpt><trkpt lat="45.5825863" lon="12.371986"><ele>1.9999999999999998</ele><time>2026-04-24T16:57:41.042Z</time></trkpt><trkpt lat="45.5825733" lon="12.372111"><ele>2.0</ele><time>2026-04-24T16:57:43.015Z</time></trkpt><trkpt lat="45.5825496" lon="12.372227"><ele>2.0</ele><time>2026-04-24T16:57:45.024Z</time></trkpt><trkpt lat="45.582527" lon="12.3723392"><ele>2.0</ele><time>2026-04-24T16:57:47.022Z</time></trkpt><trkpt lat="45.5824956" lon="12.3724564"><ele>1.9999999999999998</ele><time>2026-04-24T16:57:49.025Z</time></trkpt><trkpt lat="45.582462" lon="12.3725732"><ele>2.0</ele><time>2026-04-24T16:57:51.021Z</time></trkpt><trkpt lat="45.582429" lon="12.3726972"><ele>1.8333333333333333</ele><time>2026-04-24T16:57:53.035Z</time></trkpt><trkpt lat="45.582393" lon="12.3728175"><ele>1.6666666666666665</ele><time>2026-04-24T16:57:55.019Z</time></trkpt><trkpt lat="45.5823602" lon="12.3729461"><ele>1.5</ele><time>2026-04-24T16:57:57.01Z</time></trkpt><trkpt lat="45.5823267" lon="12.3730454"><ele>1.3333333333333333</ele><time>2026-04-24T16:57:59.02Z</time></trkpt><trkpt lat="45.582275" lon="12.3731373"><ele>1.1666666666666665</ele><time>2026-04-24T16:58:01.015Z</time></trkpt><trkpt lat="45.5822166" lon="12.3732261"><ele>1.0</ele><time>2026-04-24T16:58:03.021Z</time></trkpt><trkpt lat="45.5821638" lon="12.3733288"><ele>1.6666666666666665</ele><time>2026-04-24T16:58:05.025Z</time></trkpt><trkpt lat="45.582118" lon="12.3734152"><ele>2.3333333333333335</ele><time>2026-04-24T16:58:07.021Z</time></trkpt><trkpt lat="45.5820631" lon="12.3734852"><ele>3.0</ele><time>2026-04-24T16:58:09.018Z</time></trkpt><trkpt lat="45.5820147" lon="12.3735621"><ele>3.666666666666667</ele><time>2026-04-24T16:58:11.021Z</time></trkpt><trkpt lat="45.5819593" lon="12.3736541"><ele>4.333333333333334</ele><time>2026-04-24T16:58:13.022Z</time></trkpt><trkpt lat="45.5818976" lon="12.3737482"><ele>5.0</ele><time>2026-04-24T16:58:15.024Z</time></trkpt><trkpt lat="45.5818358" lon="12.3738438"><ele>4.5</ele><time>2026-04-24T16:58:17.014Z</time></trkpt><trkpt lat="45.5817855" lon="12.3739246"><ele>4.0</ele><time>2026-04-24T16:58:19.033Z</time></trkpt><trkpt lat="45.5817406" lon="12.3740073"><ele>3.5</ele><time>2026-04-24T16:58:21.03Z</time></trkpt><trkpt lat="45.5816925" lon="12.374089"><ele>3.0</ele><time>2026-04-24T16:58:23.019Z</time></trkpt><trkpt lat="45.5816419" lon="12.3741942"><ele>2.5</ele><time>2026-04-24T16:58:25.019Z</time></trkpt><trkpt lat="45.5816073" lon="12.3743066"><ele>2.0</ele><time>2026-04-24T16:58:27.039Z</time></trkpt><trkpt lat="45.5815693" lon="12.3743899"><ele>1.9999999999999998</ele><time>2026-04-24T16:58:29.044Z</time></trkpt><trkpt lat="45.581521" lon="12.3744933"><ele>2.0</ele><time>2026-04-24T16:58:31.033Z</time></trkpt><trkpt lat="45.5814949" lon="12.3745772"><ele>2.0</ele><time>2026-04-24T16:58:33.022Z</time></trkpt><trkpt lat="45.5814232" lon="12.3746571"><ele>2.0</ele><time>2026-04-24T16:58:36.036Z</time></trkpt><trkpt lat="45.58137" lon="12.37472"><ele>1.9999999999999998</ele><time>2026-04-24T16:58:38.034Z</time></trkpt><trkpt lat="45.5813129" lon="12.3747823"><ele>2.0</ele><time>2026-04-24T16:58:40.038Z</time></trkpt><trkpt lat="45.5812384" lon="12.3748596"><ele>2.0</ele><time>2026-04-24T16:58:43.029Z</time></trkpt><trkpt lat="45.5811761" lon="12.3748887"><ele>1.9999999999999998</ele><time>2026-04-24T16:58:48.043Z</time></trkpt><trkpt lat="45.5812015" lon="12.374776"><ele>2.0</ele><time>2026-04-24T16:58:54.031Z</time></trkpt><trkpt lat="45.5812476" lon="12.3746927"><ele>2.0</ele><time>2026-04-24T16:58:57.039Z</time></trkpt><trkpt lat="45.5812921" lon="12.374613"><ele>1.9999999999999998</ele><time>2026-04-24T16:58:59.038Z</time></trkpt><trkpt lat="45.5813384" lon="12.3745391"><ele>2.0</ele><time>2026-04-24T16:59:01.035Z</time></trkpt><trkpt lat="45.5813979" lon="12.3744526"><ele>2.0</ele><time>2026-04-24T16:59:03.026Z</time></trkpt><trkpt lat="45.5814462" lon="12.3743403"><ele>2.0</ele><time>2026-04-24T16:59:06.034Z</time></trkpt><trkpt lat="45.5814429" lon="12.3742463"><ele>1.9999999999999998</ele><time>2026-04-24T16:59:09.035Z</time></trkpt><trkpt lat="45.5813936" lon="12.3741893"><ele>2.0</ele><time>2026-04-24T16:59:11.037Z</time></trkpt><trkpt lat="45.5813233" lon="12.374092"><ele>2.0</ele><time>2026-04-24T16:59:14.029Z</time></trkpt><trkpt lat="45.5812623" lon="12.374017"><ele>1.9999999999999998</ele><time>2026-04-24T16:59:16.029Z</time></trkpt><trkpt lat="45.5812147" lon="12.3739521"><ele>2.0</ele><time>2026-04-24T16:59:18.032Z</time></trkpt><trkpt lat="45.5811636" lon="12.3738908"><ele>2.0</ele><time>2026-04-24T16:59:20.036Z</time></trkpt><trkpt lat="45.5810981" lon="12.3738674"><ele>1.8333333333333333</ele><time>2026-04-24T16:59:25.03Z</time></trkpt><trkpt lat="45.5810248" lon="12.374"><ele>1.6666666666666665</ele><time>2026-04-24T16:59:28.036Z</time></trkpt><trkpt lat="45.5809889" lon="12.3740906"><ele>1.5</ele><time>2026-04-24T16:59:29.028Z</time></trkpt><trkpt lat="45.5809437" lon="12.3741849"><ele>1.3333333333333333</ele><time>2026-04-24T16:59:30.036Z</time></trkpt><trkpt lat="45.5808975" lon="12.3742763"><ele>1.1666666666666665</ele><time>2026-04-24T16:59:31.04Z</time></trkpt><trkpt lat="45.5808583" lon="12.3743599"><ele>1.0</ele><time>2026-04-24T16:59:32.037Z</time></trkpt><trkpt lat="45.5808189" lon="12.3744397"><ele>1.0</ele><time>2026-04-24T16:59:33.053Z</time></trkpt><trkpt lat="45.58078" lon="12.3745151"><ele>1.0</ele><time>2026-04-24T16:59:34.022Z</time></trkpt><trkpt lat="45.5807171" lon="12.3746587"><ele>1.0</ele><time>2026-04-24T16:59:36.034Z</time></trkpt><trkpt lat="45.5806462" lon="12.3747857"><ele>1.0</ele><time>2026-04-24T16:59:38.038Z</time></trkpt><trkpt lat="45.5805819" lon="12.3749066"><ele>1.0</ele><time>2026-04-24T16:59:40.037Z</time></trkpt><trkpt lat="45.5805189" lon="12.3750164"><ele>0.8</ele><time>2026-04-24T16:59:42.026Z</time></trkpt><trkpt lat="45.5804415" lon="12.3750951"><ele>0.6000000000000001</ele><time>2026-04-24T16:59:44.033Z</time></trkpt><trkpt lat="45.5803804" lon="12.375196"><ele>0.4</ele><time>2026-04-24T16:59:46.029Z</time></trkpt><trkpt lat="45.5803238" lon="12.3752911"><ele>0.2</ele><time>2026-04-24T16:59:48.034Z</time></trkpt><trkpt lat="45.5802694" lon="12.3753926"><ele>0.0</ele><time>2026-04-24T16:59:50.021Z</time></trkpt><trkpt lat="45.5802127" lon="12.375502"><ele>0.4</ele><time>2026-04-24T16:59:52.017Z</time></trkpt><trkpt lat="45.5801495" lon="12.3756101"><ele>0.8</ele><time>2026-04-24T16:59:54.022Z</time></trkpt><trkpt lat="45.5800834" lon="12.3757153"><ele>1.2000000000000002</ele><time>2026-04-24T16:59:56.034Z</time></trkpt><trkpt lat="45.5800149" lon="12.3758178"><ele>1.6</ele><time>2026-04-24T16:59:58.027Z</time></trkpt><trkpt lat="45.5799475" lon="12.3759235"><ele>2.0</ele><time>2026-04-24T17:00:00.032Z</time></trkpt><trkpt lat="45.579881" lon="12.3760301"><ele>2.0</ele><time>2026-04-24T17:00:02.022Z</time></trkpt><trkpt lat="45.5798153" lon="12.3761357"><ele>2.0</ele><time>2026-04-24T17:00:04.037Z</time></trkpt><trkpt lat="45.5797421" lon="12.3762304"><ele>2.0</ele><time>2026-04-24T17:00:06.028Z</time></trkpt><trkpt lat="45.5796669" lon="12.3763381"><ele>2.0</ele><time>2026-04-24T17:00:08.02Z</time></trkpt><trkpt lat="45.5795967" lon="12.3764526"><ele>2.0</ele><time>2026-04-24T17:00:10.026Z</time></trkpt><trkpt lat="45.5795375" lon="12.376557"><ele>2.0</ele><time>2026-04-24T17:00:12.036Z</time></trkpt><trkpt lat="45.5794734" lon="12.3766675"><ele>2.0</ele><time>2026-04-24T17:00:14.01Z</time></trkpt><trkpt lat="45.5794008" lon="12.3767674"><ele>2.0</ele><time>2026-04-24T17:00:16.025Z</time></trkpt><trkpt lat="45.5793281" lon="12.3768634"><ele>2.0</ele><time>2026-04-24T17:00:18.024Z</time></trkpt><trkpt lat="45.5792708" lon="12.3769666"><ele>2.0</ele><time>2026-04-24T17:00:20.02Z</time></trkpt><trkpt lat="45.5792169" lon="12.3770637"><ele>2.0</ele><time>2026-04-24T17:00:22.026Z</time></trkpt><trkpt lat="45.5791509" lon="12.3771494"><ele>2.0</ele><time>2026-04-24T17:00:24.032Z</time></trkpt><trkpt lat="45.579099" lon="12.3772453"><ele>2.0</ele><time>2026-04-24T17:00:26.023Z</time></trkpt><trkpt lat="45.5790466" lon="12.377333"><ele>2.0</ele><time>2026-04-24T17:00:28.027Z</time></trkpt><trkpt lat="45.5789588" lon="12.3774156"><ele>2.0</ele><time>2026-04-24T17:00:30.044Z</time></trkpt><trkpt lat="45.578874" lon="12.3775053"><ele>1.8</ele><time>2026-04-24T17:00:32.021Z</time></trkpt><trkpt lat="45.5787777" lon="12.3776023"><ele>1.6</ele><time>2026-04-24T17:00:34.019Z</time></trkpt><trkpt lat="45.578685" lon="12.3776841"><ele>1.4000000000000001</ele><time>2026-04-24T17:00:36.016Z</time></trkpt><trkpt lat="45.5786115" lon="12.3777629"><ele>1.2000000000000002</ele><time>2026-04-24T17:00:38.041Z</time></trkpt><trkpt lat="45.5785318" lon="12.3778373"><ele>1.0</ele><time>2026-04-24T17:00:40.023Z</time></trkpt><trkpt lat="45.5784554" lon="12.3779191"><ele>1.0</ele><time>2026-04-24T17:00:42.034Z</time></trkpt><trkpt lat="45.5783781" lon="12.378017"><ele>1.0</ele><time>2026-04-24T17:00:44.019Z</time></trkpt><trkpt lat="45.5782998" lon="12.3781018"><ele>1.0</ele><time>2026-04-24T17:00:46.027Z</time></trkpt><trkpt lat="45.5782138" lon="12.3781998"><ele>1.0</ele><time>2026-04-24T17:00:48.021Z</time></trkpt><trkpt lat="45.5781482" lon="12.378277"><ele>1.0</ele><time>2026-04-24T17:00:50.02Z</time></trkpt><trkpt lat="45.5780778" lon="12.3783635"><ele>0.9999999999999999</ele><time>2026-04-24T17:00:52.024Z</time></trkpt><trkpt lat="45.5780012" lon="12.3784428"><ele>1.0</ele><time>2026-04-24T17:00:54.031Z</time></trkpt><trkpt lat="45.5779355" lon="12.3785238"><ele>1.0</ele><time>2026-04-24T17:00:56.027Z</time></trkpt><trkpt lat="45.5778718" lon="12.3786038"><ele>1.0</ele><time>2026-04-24T17:00:58.029Z</time></trkpt><trkpt lat="45.5778409" lon="12.3786898"><ele>0.9999999999999999</ele><time>2026-04-24T17:01:00.042Z</time></trkpt><trkpt lat="45.5778197" lon="12.3787758"><ele>1.0</ele><time>2026-04-24T17:01:02.024Z</time></trkpt><trkpt lat="45.5777983" lon="12.3788812"><ele>1.1666666666666665</ele><time>2026-04-24T17:01:04.022Z</time></trkpt><trkpt lat="45.5777784" lon="12.3789913"><ele>1.3333333333333333</ele><time>2026-04-24T17:01:06.014Z</time></trkpt><trkpt lat="45.5777515" lon="12.3791134"><ele>1.5</ele><time>2026-04-24T17:01:08.028Z</time></trkpt><trkpt lat="45.5777283" lon="12.3792218"><ele>1.6666666666666665</ele><time>2026-04-24T17:01:10.036Z</time></trkpt><trkpt lat="45.5777053" lon="12.3793271"><ele>1.8333333333333333</ele><time>2026-04-24T17:01:12.022Z</time></trkpt><trkpt lat="45.5776914" lon="12.3794288"><ele>2.0</ele><time>2026-04-24T17:01:14.027Z</time></trkpt><trkpt lat="45.5777003" lon="12.379535"><ele>2.0</ele><time>2026-04-24T17:01:16.024Z</time></trkpt><trkpt lat="45.5777129" lon="12.3796358"><ele>2.0</ele><time>2026-04-24T17:01:18.034Z</time></trkpt><trkpt lat="45.577722" lon="12.3797747"><ele>2.0</ele><time>2026-04-24T17:01:21.02Z</time></trkpt><trkpt lat="45.5777243" lon="12.3799003"><ele>2.0</ele><time>2026-04-24T17:01:23.025Z</time></trkpt><trkpt lat="45.5777299" lon="12.3800438"><ele>2.0</ele><time>2026-04-24T17:01:25.014Z</time></trkpt><trkpt lat="45.5777409" lon="12.3801816"><ele>1.8</ele><time>2026-04-24T17:01:27.033Z</time></trkpt><trkpt lat="45.5777561" lon="12.3803241"><ele>1.6</ele><time>2026-04-24T17:01:29.028Z</time></trkpt><trkpt lat="45.5777697" lon="12.3804689"><ele>1.4000000000000001</ele><time>2026-04-24T17:01:31.023Z</time></trkpt><trkpt lat="45.5777922" lon="12.3806135"><ele>1.2000000000000002</ele><time>2026-04-24T17:01:33.018Z</time></trkpt><trkpt lat="45.5778155" lon="12.3807325"><ele>1.0</ele><time>2026-04-24T17:01:35.02Z</time></trkpt><trkpt lat="45.5778403" lon="12.3808625"><ele>1.6</ele><time>2026-04-24T17:01:37.044Z</time></trkpt><trkpt lat="45.5778678" lon="12.3810017"><ele>2.2</ele><time>2026-04-24T17:01:39.032Z</time></trkpt><trkpt lat="45.5778956" lon="12.3811387"><ele>2.8000000000000003</ele><time>2026-04-24T17:01:41.051Z</time></trkpt><trkpt lat="45.5779186" lon="12.3812742"><ele>3.4000000000000004</ele><time>2026-04-24T17:01:43.019Z</time></trkpt><trkpt lat="45.5779187" lon="12.3814113"><ele>4.0</ele><time>2026-04-24T17:01:45.031Z</time></trkpt><trkpt lat="45.5778916" lon="12.3815254"><ele>3.1666666666666665</ele><time>2026-04-24T17:01:47.029Z</time></trkpt><trkpt lat="45.5778473" lon="12.3816151"><ele>2.333333333333333</ele><time>2026-04-24T17:01:49.035Z</time></trkpt><trkpt lat="45.577802" lon="12.3816836"><ele>1.5</ele><time>2026-04-24T17:01:51.021Z</time></trkpt><trkpt lat="45.5777402" lon="12.3817698"><ele>0.6666666666666666</ele><time>2026-04-24T17:01:53.022Z</time></trkpt><trkpt lat="45.5776571" lon="12.381846"><ele>-0.16666666666666663</ele><time>2026-04-24T17:01:55.021Z</time></trkpt><trkpt lat="45.5775738" lon="12.3818816"><ele>-1.0</ele><time>2026-04-24T17:01:57.029Z</time></trkpt><trkpt lat="45.5774913" lon="12.381911"><ele>-1.0</ele><time>2026-04-24T17:01:59.048Z</time></trkpt><trkpt lat="45.5773894" lon="12.3819409"><ele>-1.0</ele><time>2026-04-24T17:02:01.024Z</time></trkpt><trkpt lat="45.5772812" lon="12.3819505"><ele>-1.0</ele><time>2026-04-24T17:02:03.037Z</time></trkpt><trkpt lat="45.5771867" lon="12.3819617"><ele>-1.0</ele><time>2026-04-24T17:02:05.041Z</time></trkpt><trkpt lat="45.577088" lon="12.3819609"><ele>-1.0</ele><time>2026-04-24T17:02:07.028Z</time></trkpt><trkpt lat="45.5769994" lon="12.381961"><ele>-1.0</ele><time>2026-04-24T17:02:09.023Z</time></trkpt><trkpt lat="45.5769059" lon="12.3819705"><ele>-1.0</ele><time>2026-04-24T17:02:11.039Z</time></trkpt><trkpt lat="45.5768181" lon="12.3819862"><ele>-1.0</ele><time>2026-04-24T17:02:13.037Z</time></trkpt><trkpt lat="45.5767281" lon="12.381993"><ele>-1.0</ele><time>2026-04-24T17:02:15.031Z</time></trkpt><trkpt lat="45.5766365" lon="12.3819904"><ele>-1.0</ele><time>2026-04-24T17:02:17.021Z</time></trkpt><trkpt lat="45.5765477" lon="12.3819921"><ele>-0.9999999999999999</ele><time>2026-04-24T17:02:19.03Z</time></trkpt><trkpt lat="45.5764589" lon="12.3819941"><ele>-1.0</ele><time>2026-04-24T17:02:21.027Z</time></trkpt><trkpt lat="45.5763726" lon="12.3819918"><ele>-1.0</ele><time>2026-04-24T17:02:23.017Z</time></trkpt><trkpt lat="45.576287" lon="12.3819912"><ele>-1.0</ele><time>2026-04-24T17:02:25.041Z</time></trkpt><trkpt lat="45.5762006" lon="12.3819957"><ele>-0.9999999999999999</ele><time>2026-04-24T17:02:27.039Z</time></trkpt><trkpt lat="45.5761134" lon="12.3819996"><ele>-1.0</ele><time>2026-04-24T17:02:29.033Z</time></trkpt><trkpt lat="45.5760333" lon="12.3820008"><ele>-0.4</ele><time>2026-04-24T17:02:31.025Z</time></trkpt><trkpt lat="45.5759394" lon="12.3819929"><ele>0.19999999999999996</ele><time>2026-04-24T17:02:33.03Z</time></trkpt><trkpt lat="45.5758458" lon="12.3820008"><ele>0.8000000000000002</ele><time>2026-04-24T17:02:35.024Z</time></trkpt><trkpt lat="45.5757547" lon="12.3820098"><ele>1.4000000000000001</ele><time>2026-04-24T17:02:37.039Z</time></trkpt><trkpt lat="45.5756639" lon="12.382024"><ele>2.0</ele><time>2026-04-24T17:02:39.043Z</time></trkpt><trkpt lat="45.5755659" lon="12.3820283"><ele>2.0</ele><time>2026-04-24T17:02:41.049Z</time></trkpt><trkpt lat="45.5754738" lon="12.3820358"><ele>2.0</ele><time>2026-04-24T17:02:43.056Z</time></trkpt><trkpt lat="45.5753809" lon="12.3820489"><ele>2.0</ele><time>2026-04-24T17:02:45.019Z</time></trkpt><trkpt lat="45.5752866" lon="12.3820594"><ele>2.0</ele><time>2026-04-24T17:02:47.025Z</time></trkpt><trkpt lat="45.5752087" lon="12.3820693"><ele>2.0</ele><time>2026-04-24T17:02:49.035Z</time></trkpt><trkpt lat="45.5751023" lon="12.3820832"><ele>1.8</ele><time>2026-04-24T17:02:51.031Z</time></trkpt><trkpt lat="45.5750332" lon="12.3821"><ele>1.6</ele><time>2026-04-24T17:02:53.036Z</time></trkpt><trkpt lat="45.5749417" lon="12.3821249"><ele>1.4000000000000001</ele><time>2026-04-24T17:02:55.033Z</time></trkpt><trkpt lat="45.5748438" lon="12.3821449"><ele>1.2000000000000002</ele><time>2026-04-24T17:02:57.036Z</time></trkpt><trkpt lat="45.5747457" lon="12.3821581"><ele>1.0</ele><time>2026-04-24T17:02:59.044Z</time></trkpt><trkpt lat="45.5746569" lon="12.3821758"><ele>0.8333333333333333</ele><time>2026-04-24T17:03:01.034Z</time></trkpt><trkpt lat="45.5745877" lon="12.3821948"><ele>0.6666666666666666</ele><time>2026-04-24T17:03:03.043Z</time></trkpt><trkpt lat="45.5745059" lon="12.3822429"><ele>0.5</ele><time>2026-04-24T17:03:05.041Z</time></trkpt><trkpt lat="45.5744195" lon="12.3823086"><ele>0.3333333333333333</ele><time>2026-04-24T17:03:07.034Z</time></trkpt><trkpt lat="45.5743357" lon="12.3823745"><ele>0.16666666666666666</ele><time>2026-04-24T17:03:09.041Z</time></trkpt><trkpt lat="45.5742645" lon="12.3824369"><ele>0.0</ele><time>2026-04-24T17:03:11.028Z</time></trkpt><trkpt lat="45.5741818" lon="12.3825079"><ele>0.0</ele><time>2026-04-24T17:03:13.029Z</time></trkpt><trkpt lat="45.5741079" lon="12.3825728"><ele>0.0</ele><time>2026-04-24T17:03:15.031Z</time></trkpt><trkpt lat="45.5740363" lon="12.3826375"><ele>0.0</ele><time>2026-04-24T17:03:17.028Z</time></trkpt><trkpt lat="45.5739778" lon="12.3827015"><ele>0.0</ele><time>2026-04-24T17:03:19.032Z</time></trkpt><trkpt lat="45.5738884" lon="12.3827706"><ele>0.0</ele><time>2026-04-24T17:03:21.03Z</time></trkpt><trkpt lat="45.5738218" lon="12.3828263"><ele>0.0</ele><time>2026-04-24T17:03:23.036Z</time></trkpt><trkpt lat="45.5737473" lon="12.3828912"><ele>0.2</ele><time>2026-04-24T17:03:25.026Z</time></trkpt><trkpt lat="45.5736678" lon="12.3829576"><ele>0.4</ele><time>2026-04-24T17:03:27.022Z</time></trkpt><trkpt lat="45.5735838" lon="12.383029"><ele>0.6000000000000001</ele><time>2026-04-24T17:03:29.023Z</time></trkpt><trkpt lat="45.5734964" lon="12.3830991"><ele>0.8</ele><time>2026-04-24T17:03:31.024Z</time></trkpt><trkpt lat="45.5734139" lon="12.383162"><ele>1.0</ele><time>2026-04-24T17:03:33.023Z</time></trkpt><trkpt lat="45.5733476" lon="12.3832173"><ele>1.0</ele><time>2026-04-24T17:03:35.022Z</time></trkpt><trkpt lat="45.5732609" lon="12.3832874"><ele>1.0</ele><time>2026-04-24T17:03:37.021Z</time></trkpt><trkpt lat="45.5731748" lon="12.3833473"><ele>1.0</ele><time>2026-04-24T17:03:39.029Z</time></trkpt><trkpt lat="45.5730982" lon="12.3834209"><ele>1.0</ele><time>2026-04-24T17:03:41.02Z</time></trkpt><trkpt lat="45.5730172" lon="12.3834837"><ele>1.0</ele><time>2026-04-24T17:03:43.038Z</time></trkpt><trkpt lat="45.5729388" lon="12.3835321"><ele>1.1666666666666665</ele><time>2026-04-24T17:03:45.039Z</time></trkpt><trkpt lat="45.5728511" lon="12.3835872"><ele>1.3333333333333333</ele><time>2026-04-24T17:03:47.043Z</time></trkpt><trkpt lat="45.5727664" lon="12.3836437"><ele>1.5</ele><time>2026-04-24T17:03:49.025Z</time></trkpt><trkpt lat="45.5726924" lon="12.3836954"><ele>1.6666666666666665</ele><time>2026-04-24T17:03:51.032Z</time></trkpt><trkpt lat="45.572616" lon="12.3837501"><ele>1.8333333333333333</ele><time>2026-04-24T17:03:53.073Z</time></trkpt><trkpt lat="45.5725361" lon="12.383794"><ele>2.0</ele><time>2026-04-24T17:03:55.047Z</time></trkpt><trkpt lat="45.5724766" lon="12.3838327"><ele>1.9999999999999998</ele><time>2026-04-24T17:03:57.041Z</time></trkpt><trkpt lat="45.57239" lon="12.3838931"><ele>2.0</ele><time>2026-04-24T17:04:00.055Z</time></trkpt><trkpt lat="45.5723197" lon="12.3839487"><ele>2.0</ele><time>2026-04-24T17:04:02.025Z</time></trkpt><trkpt lat="45.5722291" lon="12.3840025"><ele>2.0</ele><time>2026-04-24T17:04:04.024Z</time></trkpt><trkpt lat="45.5721525" lon="12.3840513"><ele>1.9999999999999998</ele><time>2026-04-24T17:04:06.03Z</time></trkpt><trkpt lat="45.572072" lon="12.3840987"><ele>2.0</ele><time>2026-04-24T17:04:08.038Z</time></trkpt><trkpt lat="45.5719942" lon="12.384145"><ele>2.1666666666666665</ele><time>2026-04-24T17:04:10.044Z</time></trkpt><trkpt lat="45.5719165" lon="12.3841911"><ele>2.333333333333333</ele><time>2026-04-24T17:04:12.045Z</time></trkpt><trkpt lat="45.5718259" lon="12.3842374"><ele>2.5</ele><time>2026-04-24T17:04:14.03Z</time></trkpt><trkpt lat="45.5717505" lon="12.3842815"><ele>2.6666666666666665</ele><time>2026-04-24T17:04:16.025Z</time></trkpt><trkpt lat="45.5716744" lon="12.3843247"><ele>2.8333333333333335</ele><time>2026-04-24T17:04:18.036Z</time></trkpt><trkpt lat="45.5715935" lon="12.384365"><ele>3.0</ele><time>2026-04-24T17:04:20.029Z</time></trkpt><trkpt lat="45.5715242" lon="12.384411"><ele>3.0</ele><time>2026-04-24T17:04:22.026Z</time></trkpt><trkpt lat="45.5714448" lon="12.3844566"><ele>3.0</ele><time>2026-04-24T17:04:24.031Z</time></trkpt><trkpt lat="45.571359" lon="12.3845032"><ele>3.0</ele><time>2026-04-24T17:04:26.03Z</time></trkpt><trkpt lat="45.5712912" lon="12.3845538"><ele>3.0</ele><time>2026-04-24T17:04:28.035Z</time></trkpt><trkpt lat="45.5712067" lon="12.3846099"><ele>3.0</ele><time>2026-04-24T17:04:30.036Z</time></trkpt><trkpt lat="45.5711415" lon="12.3846704"><ele>3.0</ele><time>2026-04-24T17:04:32.043Z</time></trkpt><trkpt lat="45.5710723" lon="12.3847294"><ele>2.5</ele><time>2026-04-24T17:04:34.033Z</time></trkpt><trkpt lat="45.5709817" lon="12.3847886"><ele>2.0</ele><time>2026-04-24T17:04:36.035Z</time></trkpt><trkpt lat="45.5708972" lon="12.3848556"><ele>1.5</ele><time>2026-04-24T17:04:38.06Z</time></trkpt><trkpt lat="45.5708262" lon="12.3849173"><ele>1.0</ele><time>2026-04-24T17:04:40.056Z</time></trkpt><trkpt lat="45.570751" lon="12.3849825"><ele>0.5</ele><time>2026-04-24T17:04:42.037Z</time></trkpt><trkpt lat="45.5706878" lon="12.3850532"><ele>0.0</ele><time>2026-04-24T17:04:44.028Z</time></trkpt><trkpt lat="45.5706074" lon="12.3851243"><ele>0.0</ele><time>2026-04-24T17:04:46.035Z</time></trkpt><trkpt lat="45.5705443" lon="12.38519"><ele>0.0</ele><time>2026-04-24T17:04:48.033Z</time></trkpt><trkpt lat="45.5704786" lon="12.3852594"><ele>0.0</ele><time>2026-04-24T17:04:50.03Z</time></trkpt><trkpt lat="45.5704066" lon="12.3853317"><ele>0.0</ele><time>2026-04-24T17:04:52.027Z</time></trkpt><trkpt lat="45.5703278" lon="12.3854072"><ele>0.0</ele><time>2026-04-24T17:04:54.042Z</time></trkpt><trkpt lat="45.5702576" lon="12.3854771"><ele>0.0</ele><time>2026-04-24T17:04:56.03Z</time></trkpt><trkpt lat="45.5701856" lon="12.3855499"><ele>-0.16666666666666666</ele><time>2026-04-24T17:04:58.049Z</time></trkpt><trkpt lat="45.5701131" lon="12.3856182"><ele>-0.3333333333333333</ele><time>2026-04-24T17:05:00.025Z</time></trkpt><trkpt lat="45.5700536" lon="12.3856826"><ele>-0.5</ele><time>2026-04-24T17:05:02.034Z</time></trkpt><trkpt lat="45.5699803" lon="12.3857591"><ele>-0.6666666666666666</ele><time>2026-04-24T17:05:04.054Z</time></trkpt><trkpt lat="45.5699126" lon="12.3858302"><ele>-0.8333333333333333</ele><time>2026-04-24T17:05:06.065Z</time></trkpt><trkpt lat="45.5698419" lon="12.3859025"><ele>-1.0</ele><time>2026-04-24T17:05:08.04Z</time></trkpt><trkpt lat="45.5697677" lon="12.3859801"><ele>-0.9999999999999999</ele><time>2026-04-24T17:05:10.062Z</time></trkpt><trkpt lat="45.5696957" lon="12.3860561"><ele>-1.0</ele><time>2026-04-24T17:05:12.042Z</time></trkpt><trkpt lat="45.5696256" lon="12.386133"><ele>-1.0</ele><time>2026-04-24T17:05:14.028Z</time></trkpt><trkpt lat="45.5695528" lon="12.3862096"><ele>-1.0</ele><time>2026-04-24T17:05:16.034Z</time></trkpt><trkpt lat="45.5694921" lon="12.386278"><ele>-0.9999999999999999</ele><time>2026-04-24T17:05:18.048Z</time></trkpt><trkpt lat="45.5694147" lon="12.3863555"><ele>-1.0</ele><time>2026-04-24T17:05:20.036Z</time></trkpt><trkpt lat="45.5693343" lon="12.3864353"><ele>-0.8333333333333333</ele><time>2026-04-24T17:05:22.039Z</time></trkpt><trkpt lat="45.5692679" lon="12.3865133"><ele>-0.6666666666666666</ele><time>2026-04-24T17:05:24.039Z</time></trkpt><trkpt lat="45.5692227" lon="12.3865814"><ele>-0.5</ele><time>2026-04-24T17:05:26.045Z</time></trkpt><trkpt lat="45.5691607" lon="12.3866698"><ele>-0.3333333333333333</ele><time>2026-04-24T17:05:28.03Z</time></trkpt><trkpt lat="45.5690778" lon="12.3867547"><ele>-0.16666666666666666</ele><time>2026-04-24T17:05:30.04Z</time></trkpt><trkpt lat="45.5690102" lon="12.3868483"><ele>0.0</ele><time>2026-04-24T17:05:32.05Z</time></trkpt><trkpt lat="45.5689661" lon="12.3869437"><ele>0.0</ele><time>2026-04-24T17:05:34.035Z</time></trkpt><trkpt lat="45.5689058" lon="12.387067"><ele>0.0</ele><time>2026-04-24T17:05:36.035Z</time></trkpt><trkpt lat="45.5688621" lon="12.3871578"><ele>0.0</ele><time>2026-04-24T17:05:38.039Z</time></trkpt><trkpt lat="45.5688207" lon="12.3872501"><ele>0.0</ele><time>2026-04-24T17:05:40.039Z</time></trkpt><trkpt lat="45.5687784" lon="12.387344"><ele>0.0</ele><time>2026-04-24T17:05:42.031Z</time></trkpt><trkpt lat="45.5687465" lon="12.3874603"><ele>0.0</ele><time>2026-04-24T17:05:44.022Z</time></trkpt><trkpt lat="45.5687113" lon="12.3875773"><ele>0.2</ele><time>2026-04-24T17:05:46.036Z</time></trkpt><trkpt lat="45.5686772" lon="12.3877011"><ele>0.4</ele><time>2026-04-24T17:05:48.03Z</time></trkpt><trkpt lat="45.5686504" lon="12.3878269"><ele>0.6000000000000001</ele><time>2026-04-24T17:05:50.027Z</time></trkpt><trkpt lat="45.568624" lon="12.3879469"><ele>0.8</ele><time>2026-04-24T17:05:52.048Z</time></trkpt><trkpt lat="45.5685996" lon="12.3880692"><ele>1.0</ele><time>2026-04-24T17:05:54.024Z</time></trkpt><trkpt lat="45.5685771" lon="12.3881903"><ele>1.1666666666666665</ele><time>2026-04-24T17:05:56.036Z</time></trkpt><trkpt lat="45.5685595" lon="12.3883232"><ele>1.3333333333333333</ele><time>2026-04-24T17:05:58.032Z</time></trkpt><trkpt lat="45.5685434" lon="12.3884397"><ele>1.5</ele><time>2026-04-24T17:06:00.04Z</time></trkpt><trkpt lat="45.5685309" lon="12.3885552"><ele>1.6666666666666665</ele><time>2026-04-24T17:06:02.047Z</time></trkpt><trkpt lat="45.5685243" lon="12.3886568"><ele>1.8333333333333333</ele><time>2026-04-24T17:06:04.051Z</time></trkpt><trkpt lat="45.5685128" lon="12.3887627"><ele>2.0</ele><time>2026-04-24T17:06:06.042Z</time></trkpt><trkpt lat="45.5684923" lon="12.3888641"><ele>1.6666666666666665</ele><time>2026-04-24T17:06:08.03Z</time></trkpt><trkpt lat="45.5684728" lon="12.3889762"><ele>1.3333333333333333</ele><time>2026-04-24T17:06:10.039Z</time></trkpt><trkpt lat="45.5684617" lon="12.3890725"><ele>1.0</ele><time>2026-04-24T17:06:12.038Z</time></trkpt><trkpt lat="45.5684407" lon="12.3892078"><ele>0.6666666666666666</ele><time>2026-04-24T17:06:15.033Z</time></trkpt><trkpt lat="45.5684279" lon="12.3893119"><ele>0.3333333333333333</ele><time>2026-04-24T17:06:17.03Z</time></trkpt><trkpt lat="45.5684187" lon="12.3894071"><ele>0.0</ele><time>2026-04-24T17:06:19.029Z</time></trkpt><trkpt lat="45.5684126" lon="12.3894999"><ele>0.0</ele><time>2026-04-24T17:06:21.032Z</time></trkpt><trkpt lat="45.5683997" lon="12.3895929"><ele>0.0</ele><time>2026-04-24T17:06:23.033Z</time></trkpt><trkpt lat="45.5683741" lon="12.3897164"><ele>0.0</ele><time>2026-04-24T17:06:26.029Z</time></trkpt><trkpt lat="45.5683445" lon="12.389833"><ele>0.0</ele><time>2026-04-24T17:06:29.04Z</time></trkpt><trkpt lat="45.5683112" lon="12.3899645"><ele>0.0</ele><time>2026-04-24T17:06:32.055Z</time></trkpt><trkpt lat="45.5682868" lon="12.3901228"><ele>0.16666666666666666</ele><time>2026-04-24T17:06:34.026Z</time></trkpt><trkpt lat="45.5682728" lon="12.390256"><ele>0.3333333333333333</ele><time>2026-04-24T17:06:36.03Z</time></trkpt><trkpt lat="45.5682601" lon="12.390376"><ele>0.5</ele><time>2026-04-24T17:06:38.038Z</time></trkpt><trkpt lat="45.5682393" lon="12.3904913"><ele>0.6666666666666666</ele><time>2026-04-24T17:06:40.044Z</time></trkpt><trkpt lat="45.5682231" lon="12.3905814"><ele>0.8333333333333333</ele><time>2026-04-24T17:06:42.038Z</time></trkpt><trkpt lat="45.5682122" lon="12.3906804"><ele>1.0</ele><time>2026-04-24T17:06:44.029Z</time></trkpt><trkpt lat="45.5681895" lon="12.3907874"><ele>1.1666666666666665</ele><time>2026-04-24T17:06:46.041Z</time></trkpt><trkpt lat="45.5681645" lon="12.3908977"><ele>1.3333333333333333</ele><time>2026-04-24T17:06:48.043Z</time></trkpt><trkpt lat="45.5681438" lon="12.3910172"><ele>1.5</ele><time>2026-04-24T17:06:50.024Z</time></trkpt><trkpt lat="45.5681202" lon="12.3911357"><ele>1.6666666666666665</ele><time>2026-04-24T17:06:52.034Z</time></trkpt><trkpt lat="45.5681038" lon="12.3912579"><ele>1.8333333333333333</ele><time>2026-04-24T17:06:54.044Z</time></trkpt><trkpt lat="45.5680714" lon="12.3913698"><ele>2.0</ele><time>2026-04-24T17:06:56.053Z</time></trkpt><trkpt lat="45.5680374" lon="12.3914702"><ele>2.0</ele><time>2026-04-24T17:06:58.035Z</time></trkpt><trkpt lat="45.5680051" lon="12.3915555"><ele>1.9999999999999998</ele><time>2026-04-24T17:07:00.039Z</time></trkpt><trkpt lat="45.5679638" lon="12.3916641"><ele>2.0</ele><time>2026-04-24T17:07:02.039Z</time></trkpt><trkpt lat="45.5679314" lon="12.3917651"><ele>2.0</ele><time>2026-04-24T17:07:04.034Z</time></trkpt><trkpt lat="45.5679117" lon="12.3918654"><ele>1.9999999999999998</ele><time>2026-04-24T17:07:06.033Z</time></trkpt><trkpt lat="45.5678808" lon="12.3919487"><ele>2.0</ele><time>2026-04-24T17:07:08.033Z</time></trkpt><trkpt lat="45.5678127" lon="12.3919498"><ele>2.0</ele><time>2026-04-24T17:07:12.033Z</time></trkpt><trkpt lat="45.5677577" lon="12.3919053"><ele>1.6666666666666665</ele><time>2026-04-24T17:07:14.031Z</time></trkpt><trkpt lat="45.5677005" lon="12.3918452"><ele>1.3333333333333333</ele><time>2026-04-24T17:07:16.033Z</time></trkpt><trkpt lat="45.5676264" lon="12.3918257"><ele>1.0</ele><time>2026-04-24T17:07:18.038Z</time></trkpt><trkpt lat="45.5675493" lon="12.3918303"><ele>0.6666666666666666</ele><time>2026-04-24T17:07:20.035Z</time></trkpt><trkpt lat="45.5674673" lon="12.3918367"><ele>0.3333333333333333</ele><time>2026-04-24T17:07:22.036Z</time></trkpt><trkpt lat="45.5673797" lon="12.3918668"><ele>0.0</ele><time>2026-04-24T17:07:24.034Z</time></trkpt><trkpt lat="45.5672929" lon="12.3919076"><ele>0.0</ele><time>2026-04-24T17:07:26.026Z</time></trkpt><trkpt lat="45.5672107" lon="12.3919181"><ele>0.0</ele><time>2026-04-24T17:07:28.032Z</time></trkpt><trkpt lat="45.5671253" lon="12.3919013"><ele>0.0</ele><time>2026-04-24T17:07:30.03Z</time></trkpt><trkpt lat="45.5670536" lon="12.3918663"><ele>0.0</ele><time>2026-04-24T17:07:32.04Z</time></trkpt><trkpt lat="45.5669815" lon="12.3918018"><ele>0.0</ele><time>2026-04-24T17:07:34.038Z</time></trkpt><trkpt lat="45.5669092" lon="12.3917108"><ele>0.0</ele><time>2026-04-24T17:07:36.033Z</time></trkpt><trkpt lat="45.5668461" lon="12.3916179"><ele>-0.2</ele><time>2026-04-24T17:07:38.06Z</time></trkpt><trkpt lat="45.5667839" lon="12.391522"><ele>-0.4</ele><time>2026-04-24T17:07:40.04Z</time></trkpt><trkpt lat="45.5667315" lon="12.3914167"><ele>-0.6000000000000001</ele><time>2026-04-24T17:07:42.045Z</time></trkpt><trkpt lat="45.5666842" lon="12.3913103"><ele>-0.8</ele><time>2026-04-24T17:07:44.027Z</time></trkpt><trkpt lat="45.5666328" lon="12.3911899"><ele>-1.0</ele><time>2026-04-24T17:07:46.042Z</time></trkpt><trkpt lat="45.5665935" lon="12.3910739"><ele>-1.0</ele><time>2026-04-24T17:07:48.028Z</time></trkpt><trkpt lat="45.56656" lon="12.390948"><ele>-1.0</ele><time>2026-04-24T17:07:50.048Z</time></trkpt><trkpt lat="45.5665344" lon="12.3908242"><ele>-1.0</ele><time>2026-04-24T17:07:52.049Z</time></trkpt><trkpt lat="45.5665104" lon="12.3906946"><ele>-1.0</ele><time>2026-04-24T17:07:54.027Z</time></trkpt><trkpt lat="45.5664949" lon="12.3905597"><ele>-1.0</ele><time>2026-04-24T17:07:56.046Z</time></trkpt><trkpt lat="45.5664816" lon="12.3904277"><ele>-0.8</ele><time>2026-04-24T17:07:58.028Z</time></trkpt><trkpt lat="45.5664757" lon="12.3902985"><ele>-0.6000000000000001</ele><time>2026-04-24T17:08:00.046Z</time></trkpt><trkpt lat="45.5664855" lon="12.3901703"><ele>-0.4</ele><time>2026-04-24T17:08:02.044Z</time></trkpt><trkpt lat="45.566493" lon="12.3900323"><ele>-0.2</ele><time>2026-04-24T17:08:04.047Z</time></trkpt><trkpt lat="45.5665018" lon="12.3899043"><ele>0.0</ele><time>2026-04-24T17:08:06.033Z</time></trkpt><trkpt lat="45.5665169" lon="12.3897738"><ele>0.0</ele><time>2026-04-24T17:08:08.027Z</time></trkpt><trkpt lat="45.5665356" lon="12.3896455"><ele>0.0</ele><time>2026-04-24T17:08:10.034Z</time></trkpt><trkpt lat="45.5665598" lon="12.389501"><ele>0.0</ele><time>2026-04-24T17:08:12.023Z</time></trkpt><trkpt lat="45.566587" lon="12.3893786"><ele>0.0</ele><time>2026-04-24T17:08:14.026Z</time></trkpt><trkpt lat="45.5666194" lon="12.3892532"><ele>0.0</ele><time>2026-04-24T17:08:16.028Z</time></trkpt><trkpt lat="45.5666582" lon="12.3891327"><ele>0.0</ele><time>2026-04-24T17:08:18.03Z</time></trkpt><trkpt lat="45.5666907" lon="12.3890042"><ele>0.0</ele><time>2026-04-24T17:08:20.038Z</time></trkpt><trkpt lat="45.5667258" lon="12.3888716"><ele>0.0</ele><time>2026-04-24T17:08:22.038Z</time></trkpt><trkpt lat="45.5667635" lon="12.388745"><ele>0.0</ele><time>2026-04-24T17:08:24.025Z</time></trkpt><trkpt lat="45.5668011" lon="12.3886143"><ele>0.0</ele><time>2026-04-24T17:08:26.024Z</time></trkpt><trkpt lat="45.5668378" lon="12.3884918"><ele>0.0</ele><time>2026-04-24T17:08:28.032Z</time></trkpt><trkpt lat="45.5668737" lon="12.3883619"><ele>0.0</ele><time>2026-04-24T17:08:30.021Z</time></trkpt><trkpt lat="45.5669097" lon="12.388232"><ele>0.0</ele><time>2026-04-24T17:08:32.023Z</time></trkpt><trkpt lat="45.566947" lon="12.3881062"><ele>0.0</ele><time>2026-04-24T17:08:34.024Z</time></trkpt><trkpt lat="45.5669877" lon="12.3879767"><ele>0.0</ele><time>2026-04-24T17:08:36.02Z</time></trkpt><trkpt lat="45.567027" lon="12.3878433"><ele>0.2</ele><time>2026-04-24T17:08:38.028Z</time></trkpt><trkpt lat="45.5670625" lon="12.3877063"><ele>0.4</ele><time>2026-04-24T17:08:40.019Z</time></trkpt><trkpt lat="45.5670966" lon="12.3875793"><ele>0.6000000000000001</ele><time>2026-04-24T17:08:42.029Z</time></trkpt><trkpt lat="45.5671314" lon="12.3874627"><ele>0.8</ele><time>2026-04-24T17:08:44.029Z</time></trkpt><trkpt lat="45.5671611" lon="12.3873616"><ele>1.0</ele><time>2026-04-24T17:08:46.035Z</time></trkpt><trkpt lat="45.567208" lon="12.3872471"><ele>1.0</ele><time>2026-04-24T17:08:48.033Z</time></trkpt><trkpt lat="45.5672541" lon="12.3871251"><ele>1.0</ele><time>2026-04-24T17:08:50.043Z</time></trkpt><trkpt lat="45.5672954" lon="12.3869994"><ele>1.0</ele><time>2026-04-24T17:08:52.031Z</time></trkpt><trkpt lat="45.5673376" lon="12.3868934"><ele>1.0</ele><time>2026-04-24T17:08:54.029Z</time></trkpt><trkpt lat="45.5673777" lon="12.3867675"><ele>1.0</ele><time>2026-04-24T17:08:56.034Z</time></trkpt><trkpt lat="45.5674165" lon="12.3866332"><ele>1.0</ele><time>2026-04-24T17:08:58.028Z</time></trkpt><trkpt lat="45.5674514" lon="12.3865001"><ele>1.0</ele><time>2026-04-24T17:09:00.044Z</time></trkpt><trkpt lat="45.5674841" lon="12.3863667"><ele>1.0</ele><time>2026-04-24T17:09:02.033Z</time></trkpt><trkpt lat="45.5675207" lon="12.3862619"><ele>1.0</ele><time>2026-04-24T17:09:04.026Z</time></trkpt><trkpt lat="45.5675557" lon="12.3861364"><ele>1.0</ele><time>2026-04-24T17:09:06.019Z</time></trkpt><trkpt lat="45.5675877" lon="12.3860124"><ele>1.0</ele><time>2026-04-24T17:09:08.037Z</time></trkpt><trkpt lat="45.5676154" lon="12.38589"><ele>1.0</ele><time>2026-04-24T17:09:10.021Z</time></trkpt><trkpt lat="45.5676384" lon="12.3857738"><ele>1.0</ele><time>2026-04-24T17:09:12.043Z</time></trkpt><trkpt lat="45.5676624" lon="12.385651"><ele>1.0</ele><time>2026-04-24T17:09:14.026Z</time></trkpt><trkpt lat="45.5676875" lon="12.3855198"><ele>1.0</ele><time>2026-04-24T17:09:16.02Z</time></trkpt><trkpt lat="45.567712" lon="12.3853911"><ele>1.0</ele><time>2026-04-24T17:09:18.022Z</time></trkpt><trkpt lat="45.5677316" lon="12.3852558"><ele>1.0</ele><time>2026-04-24T17:09:20.028Z</time></trkpt><trkpt lat="45.5677486" lon="12.3851246"><ele>1.0</ele><time>2026-04-24T17:09:22.027Z</time></trkpt><trkpt lat="45.5677652" lon="12.384987"><ele>1.0</ele><time>2026-04-24T17:09:24.034Z</time></trkpt><trkpt lat="45.56778" lon="12.3848496"><ele>1.0</ele><time>2026-04-24T17:09:26.032Z</time></trkpt><trkpt lat="45.5677935" lon="12.3847095"><ele>1.0</ele><time>2026-04-24T17:09:28.036Z</time></trkpt><trkpt lat="45.5677971" lon="12.3845711"><ele>1.0</ele><time>2026-04-24T17:09:30.038Z</time></trkpt><trkpt lat="45.567794" lon="12.3844308"><ele>1.0</ele><time>2026-04-24T17:09:32.039Z</time></trkpt><trkpt lat="45.5677915" lon="12.3842931"><ele>1.0</ele><time>2026-04-24T17:09:34.023Z</time></trkpt><trkpt lat="45.567783" lon="12.3841613"><ele>1.0</ele><time>2026-04-24T17:09:36.022Z</time></trkpt><trkpt lat="45.5677651" lon="12.3840308"><ele>0.9999999999999999</ele><time>2026-04-24T17:09:38.014Z</time></trkpt><trkpt lat="45.5677596" lon="12.3839188"><ele>1.0</ele><time>2026-04-24T17:09:40.019Z</time></trkpt><trkpt lat="45.5677468" lon="12.3838001"><ele>1.0</ele><time>2026-04-24T17:09:42.036Z</time></trkpt><trkpt lat="45.5677287" lon="12.3836804"><ele>1.0</ele><time>2026-04-24T17:09:44.036Z</time></trkpt><trkpt lat="45.5677053" lon="12.3835585"><ele>0.9999999999999999</ele><time>2026-04-24T17:09:46.031Z</time></trkpt><trkpt lat="45.56768" lon="12.3834328"><ele>1.0</ele><time>2026-04-24T17:09:48.028Z</time></trkpt><trkpt lat="45.5676494" lon="12.3833108"><ele>0.6666666666666666</ele><time>2026-04-24T17:09:50.041Z</time></trkpt><trkpt lat="45.5676263" lon="12.3832235"><ele>0.3333333333333333</ele><time>2026-04-24T17:09:52.034Z</time></trkpt><trkpt lat="45.567592" lon="12.3830969"><ele>0.0</ele><time>2026-04-24T17:10:24.022Z</time></trkpt><trkpt lat="45.5675607" lon="12.3830107"><ele>-0.3333333333333333</ele><time>2026-04-24T17:10:26.022Z</time></trkpt><trkpt lat="45.5675279" lon="12.3829254"><ele>-0.6666666666666666</ele><time>2026-04-24T17:10:28.032Z</time></trkpt><trkpt lat="45.5674896" lon="12.3828273"><ele>-1.0</ele><time>2026-04-24T17:10:30.024Z</time></trkpt><trkpt lat="45.5674409" lon="12.3827254"><ele>-1.2000000000000002</ele><time>2026-04-24T17:10:32.031Z</time></trkpt><trkpt lat="45.5673884" lon="12.3826171"><ele>-1.4000000000000001</ele><time>2026-04-24T17:10:34.028Z</time></trkpt><trkpt lat="45.5673413" lon="12.382511"><ele>-1.6</ele><time>2026-04-24T17:10:36.03Z</time></trkpt><trkpt lat="45.5673081" lon="12.3823947"><ele>-1.8</ele><time>2026-04-24T17:10:38.028Z</time></trkpt><trkpt lat="45.5672831" lon="12.3822747"><ele>-2.0</ele><time>2026-04-24T17:10:40.038Z</time></trkpt><trkpt lat="45.5672468" lon="12.3821403"><ele>-2.0</ele><time>2026-04-24T17:10:42.049Z</time></trkpt><trkpt lat="45.5671961" lon="12.3820254"><ele>-2.0</ele><time>2026-04-24T17:10:44.036Z</time></trkpt><trkpt lat="45.567139" lon="12.3819113"><ele>-2.0</ele><time>2026-04-24T17:10:46.036Z</time></trkpt><trkpt lat="45.5670858" lon="12.381799"><ele>-2.0</ele><time>2026-04-24T17:10:48.023Z</time></trkpt><trkpt lat="45.5670327" lon="12.3816895"><ele>-2.0</ele><time>2026-04-24T17:10:50.033Z</time></trkpt><trkpt lat="45.5669725" lon="12.3815633"><ele>-1.8</ele><time>2026-04-24T17:10:52.027Z</time></trkpt><trkpt lat="45.5669218" lon="12.3814617"><ele>-1.6</ele><time>2026-04-24T17:10:54.022Z</time></trkpt><trkpt lat="45.5668671" lon="12.3813487"><ele>-1.4000000000000001</ele><time>2026-04-24T17:10:56.032Z</time></trkpt><trkpt lat="45.5668191" lon="12.3812373"><ele>-1.2000000000000002</ele><time>2026-04-24T17:10:58.023Z</time></trkpt><trkpt lat="45.5667747" lon="12.3811159"><ele>-1.0</ele><time>2026-04-24T17:11:00.046Z</time></trkpt><trkpt lat="45.566721" lon="12.3809883"><ele>-0.8333333333333333</ele><time>2026-04-24T17:11:02.023Z</time></trkpt><trkpt lat="45.5666766" lon="12.380866"><ele>-0.6666666666666666</ele><time>2026-04-24T17:11:04.024Z</time></trkpt><trkpt lat="45.5666305" lon="12.3807358"><ele>-0.5</ele><time>2026-04-24T17:11:06.033Z</time></trkpt><trkpt lat="45.5665974" lon="12.3806201"><ele>-0.3333333333333333</ele><time>2026-04-24T17:11:08.042Z</time></trkpt><trkpt lat="45.5665508" lon="12.3805066"><ele>-0.16666666666666666</ele><time>2026-04-24T17:11:10.033Z</time></trkpt><trkpt lat="45.5665245" lon="12.3804216"><ele>0.0</ele><time>2026-04-24T17:11:12.035Z</time></trkpt><trkpt lat="45.5664897" lon="12.3803121"><ele>0.0</ele><time>2026-04-24T17:11:14.036Z</time></trkpt><trkpt lat="45.56645" lon="12.3802146"><ele>0.0</ele><time>2026-04-24T17:11:16.037Z</time></trkpt><trkpt lat="45.5664164" lon="12.3801214"><ele>0.0</ele><time>2026-04-24T17:11:18.026Z</time></trkpt><trkpt lat="45.5663581" lon="12.380042"><ele>0.0</ele><time>2026-04-24T17:11:21.027Z</time></trkpt><trkpt lat="45.5662642" lon="12.3800025"><ele>0.0</ele><time>2026-04-24T17:11:24.041Z</time></trkpt><trkpt lat="45.5661719" lon="12.3799855"><ele>0.0</ele><time>2026-04-24T17:11:27.043Z</time></trkpt><trkpt lat="45.5661188" lon="12.3800834"><ele>0.0</ele><time>2026-04-24T17:11:30.043Z</time></trkpt><trkpt lat="45.5660369" lon="12.3801287"><ele>0.0</ele><time>2026-04-24T17:11:32.025Z</time></trkpt><trkpt lat="45.5659816" lon="12.3800227"><ele>0.0</ele><time>2026-04-24T17:11:35.047Z</time></trkpt><trkpt lat="45.5659534" lon="12.3799037"><ele>0.0</ele><time>2026-04-24T17:11:37.033Z</time></trkpt><trkpt lat="45.5659326" lon="12.3797893"><ele>0.0</ele><time>2026-04-24T17:11:39.038Z</time></trkpt><trkpt lat="45.5658896" lon="12.3796283"><ele>-0.2</ele><time>2026-04-24T17:11:41.045Z</time></trkpt><trkpt lat="45.5658632" lon="12.3794961"><ele>-0.4</ele><time>2026-04-24T17:11:43.024Z</time></trkpt><trkpt lat="45.5658412" lon="12.3793617"><ele>-0.6000000000000001</ele><time>2026-04-24T17:11:45.034Z</time></trkpt><trkpt lat="45.5658193" lon="12.3792334"><ele>-0.8</ele><time>2026-04-24T17:11:47.037Z</time></trkpt><trkpt lat="45.5658012" lon="12.3790878"><ele>-1.0</ele><time>2026-04-24T17:11:49.027Z</time></trkpt><trkpt lat="45.5657859" lon="12.3789552"><ele>-1.0</ele><time>2026-04-24T17:11:51.046Z</time></trkpt><trkpt lat="45.5657739" lon="12.378824"><ele>-1.0</ele><time>2026-04-24T17:11:53.034Z</time></trkpt><trkpt lat="45.5657557" lon="12.3786864"><ele>-1.0</ele><time>2026-04-24T17:11:55.03Z</time></trkpt><trkpt lat="45.5657458" lon="12.3785547"><ele>-1.0</ele><time>2026-04-24T17:11:57.025Z</time></trkpt><trkpt lat="45.5657443" lon="12.3784044"><ele>-1.0</ele><time>2026-04-24T17:11:59.038Z</time></trkpt><trkpt lat="45.5657454" lon="12.3782798"><ele>-1.0</ele><time>2026-04-24T17:12:01.029Z</time></trkpt><trkpt lat="45.5657388" lon="12.3781201"><ele>-1.0</ele><time>2026-04-24T17:12:03.021Z</time></trkpt><trkpt lat="45.5657343" lon="12.3779679"><ele>-1.0</ele><time>2026-04-24T17:12:05.027Z</time></trkpt><trkpt lat="45.5657385" lon="12.3778203"><ele>-1.0</ele><time>2026-04-24T17:12:07.024Z</time></trkpt><trkpt lat="45.5657336" lon="12.3776744"><ele>-1.0</ele><time>2026-04-24T17:12:09.038Z</time></trkpt><trkpt lat="45.5657321" lon="12.3775288"><ele>-0.6000000000000001</ele><time>2026-04-24T17:12:11.037Z</time></trkpt><trkpt lat="45.5657379" lon="12.3773731"><ele>-0.20000000000000007</ele><time>2026-04-24T17:12:13.043Z</time></trkpt><trkpt lat="45.5657441" lon="12.3772234"><ele>0.20000000000000007</ele><time>2026-04-24T17:12:15.036Z</time></trkpt><trkpt lat="45.5657547" lon="12.3770777"><ele>0.6000000000000001</ele><time>2026-04-24T17:12:17.043Z</time></trkpt><trkpt lat="45.5657576" lon="12.3769361"><ele>1.0</ele><time>2026-04-24T17:12:19.031Z</time></trkpt><trkpt lat="45.5657656" lon="12.3767881"><ele>1.0</ele><time>2026-04-24T17:12:21.034Z</time></trkpt><trkpt lat="45.5657781" lon="12.376644"><ele>1.0</ele><time>2026-04-24T17:12:23.03Z</time></trkpt><trkpt lat="45.5658001" lon="12.376509"><ele>1.0</ele><time>2026-04-24T17:12:25.025Z</time></trkpt><trkpt lat="45.5658269" lon="12.3763755"><ele>1.0</ele><time>2026-04-24T17:12:27.036Z</time></trkpt><trkpt lat="45.5658221" lon="12.376246"><ele>1.0</ele><time>2026-04-24T17:12:29.031Z</time></trkpt><trkpt lat="45.565754" lon="12.3761668"><ele>1.0</ele><time>2026-04-24T17:12:31.042Z</time></trkpt><trkpt lat="45.565643" lon="12.3762173"><ele>1.0</ele><time>2026-04-24T17:12:33.027Z</time></trkpt><trkpt lat="45.5655368" lon="12.3762914"><ele>1.0</ele><time>2026-04-24T17:12:35.018Z</time></trkpt><trkpt lat="45.565441" lon="12.3763609"><ele>1.0</ele><time>2026-04-24T17:12:37.024Z</time></trkpt><trkpt lat="45.565347" lon="12.3764196"><ele>1.0</ele><time>2026-04-24T17:12:39.027Z</time></trkpt><trkpt lat="45.565251" lon="12.3764845"><ele>1.0</ele><time>2026-04-24T17:12:41.038Z</time></trkpt><trkpt lat="45.565152" lon="12.3765343"><ele>1.0</ele><time>2026-04-24T17:12:43.038Z</time></trkpt><trkpt lat="45.5650571" lon="12.376584"><ele>1.0</ele><time>2026-04-24T17:12:45.041Z</time></trkpt><trkpt lat="45.564968" lon="12.3766291"><ele>1.0</ele><time>2026-04-24T17:12:47.022Z</time></trkpt><trkpt lat="45.5648659" lon="12.376661"><ele>1.0</ele><time>2026-04-24T17:12:49.019Z</time></trkpt><trkpt lat="45.5647645" lon="12.3766873"><ele>1.0</ele><time>2026-04-24T17:12:51.042Z</time></trkpt><trkpt lat="45.5646645" lon="12.3767215"><ele>1.0</ele><time>2026-04-24T17:12:53.027Z</time></trkpt><trkpt lat="45.5645634" lon="12.3767152"><ele>1.0</ele><time>2026-04-24T17:12:55.021Z</time></trkpt><trkpt lat="45.5644673" lon="12.3766492"><ele>1.0</ele><time>2026-04-24T17:12:57.028Z</time></trkpt><trkpt lat="45.5643765" lon="12.3765652"><ele>1.0</ele><time>2026-04-24T17:12:59.033Z</time></trkpt><trkpt lat="45.5642945" lon="12.3764794"><ele>1.0</ele><time>2026-04-24T17:13:01.027Z</time></trkpt><trkpt lat="45.5642093" lon="12.3763951"><ele>1.0</ele><time>2026-04-24T17:13:03.029Z</time></trkpt><trkpt lat="45.5641159" lon="12.3763064"><ele>1.0</ele><time>2026-04-24T17:13:05.031Z</time></trkpt><trkpt lat="45.5640391" lon="12.3762222"><ele>1.0</ele><time>2026-04-24T17:13:07.034Z</time></trkpt><trkpt lat="45.5639664" lon="12.3761449"><ele>1.0</ele><time>2026-04-24T17:13:09.038Z</time></trkpt><trkpt lat="45.5639193" lon="12.3760491"><ele>1.0</ele><time>2026-04-24T17:13:11.044Z</time></trkpt><trkpt lat="45.5639384" lon="12.3759279"><ele>1.0</ele><time>2026-04-24T17:13:13.039Z</time></trkpt><trkpt lat="45.5639524" lon="12.3757919"><ele>1.0</ele><time>2026-04-24T17:13:16.029Z</time></trkpt><trkpt lat="45.5639958" lon="12.3757033"><ele>1.0</ele><time>2026-04-24T17:13:18.022Z</time></trkpt><trkpt lat="45.5640522" lon="12.3755935"><ele>1.0</ele><time>2026-04-24T17:13:20.026Z</time></trkpt><trkpt lat="45.5641182" lon="12.3754762"><ele>1.2000000000000002</ele><time>2026-04-24T17:13:22.032Z</time></trkpt><trkpt lat="45.5641834" lon="12.3753705"><ele>1.4000000000000001</ele><time>2026-04-24T17:13:24.024Z</time></trkpt><trkpt lat="45.5642556" lon="12.3752649"><ele>1.6</ele><time>2026-04-24T17:13:26.03Z</time></trkpt><trkpt lat="45.5643264" lon="12.3751643"><ele>1.8</ele><time>2026-04-24T17:13:28.028Z</time></trkpt><trkpt lat="45.5643887" lon="12.3750525"><ele>2.0</ele><time>2026-04-24T17:13:30.037Z</time></trkpt><trkpt lat="45.5644684" lon="12.3749482"><ele>1.8</ele><time>2026-04-24T17:13:32.045Z</time></trkpt><trkpt lat="45.5645477" lon="12.3748409"><ele>1.6</ele><time>2026-04-24T17:13:34.031Z</time></trkpt><trkpt lat="45.5646088" lon="12.3747281"><ele>1.4000000000000001</ele><time>2026-04-24T17:13:36.034Z</time></trkpt><trkpt lat="45.5646836" lon="12.3746077"><ele>1.2000000000000002</ele><time>2026-04-24T17:13:38.041Z</time></trkpt><trkpt lat="45.5647547" lon="12.374483"><ele>1.0</ele><time>2026-04-24T17:13:40.038Z</time></trkpt><trkpt lat="45.5648315" lon="12.3743515"><ele>1.0</ele><time>2026-04-24T17:13:42.033Z</time></trkpt><trkpt lat="45.5649033" lon="12.3742102"><ele>1.0</ele><time>2026-04-24T17:13:44.034Z</time></trkpt><trkpt lat="45.5649369" lon="12.3741316"><ele>1.0</ele><time>2026-04-24T17:13:45.033Z</time></trkpt><trkpt lat="45.5650011" lon="12.3739824"><ele>1.0</ele><time>2026-04-24T17:13:47.034Z</time></trkpt><trkpt lat="45.5650689" lon="12.3738494"><ele>1.0</ele><time>2026-04-24T17:13:49.038Z</time></trkpt><trkpt lat="45.5651371" lon="12.3737071"><ele>0.75</ele><time>2026-04-24T17:13:51.033Z</time></trkpt><trkpt lat="45.5652025" lon="12.3735575"><ele>0.5</ele><time>2026-04-24T17:13:53.039Z</time></trkpt><trkpt lat="45.5652555" lon="12.3734156"><ele>0.25</ele><time>2026-04-24T17:13:55.025Z</time></trkpt><trkpt lat="45.5653155" lon="12.3732723"><ele>0.0</ele><time>2026-04-24T17:13:57.024Z</time></trkpt><trkpt lat="45.5653824" lon="12.373117"><ele>0.2857142857142857</ele><time>2026-04-24T17:13:59.025Z</time></trkpt><trkpt lat="45.5654211" lon="12.3730326"><ele>0.5714285714285714</ele><time>2026-04-24T17:14:00.033Z</time></trkpt><trkpt lat="45.5654608" lon="12.3729479"><ele>0.8571428571428571</ele><time>2026-04-24T17:14:01.034Z</time></trkpt><trkpt lat="45.5654978" lon="12.3728663"><ele>1.1428571428571428</ele><time>2026-04-24T17:14:02.029Z</time></trkpt><trkpt lat="45.5655318" lon="12.3727806"><ele>1.4285714285714284</ele><time>2026-04-24T17:14:03.028Z</time></trkpt><trkpt lat="45.5655744" lon="12.3726998"><ele>1.7142857142857142</ele><time>2026-04-24T17:14:04.044Z</time></trkpt><trkpt lat="45.5656155" lon="12.3726186"><ele>2.0</ele><time>2026-04-24T17:14:05.015Z</time></trkpt><trkpt lat="45.5656568" lon="12.3725384"><ele>2.2857142857142856</ele><time>2026-04-24T17:14:06.033Z</time></trkpt><trkpt lat="45.5656935" lon="12.3724531"><ele>2.571428571428571</ele><time>2026-04-24T17:14:07.043Z</time></trkpt><trkpt lat="45.56573" lon="12.372367"><ele>2.8571428571428568</ele><time>2026-04-24T17:14:08.031Z</time></trkpt><trkpt lat="45.5657674" lon="12.3722827"><ele>3.142857142857143</ele><time>2026-04-24T17:14:09.03Z</time></trkpt><trkpt lat="45.5658047" lon="12.3722001"><ele>3.428571428571428</ele><time>2026-04-24T17:14:10.025Z</time></trkpt><trkpt lat="45.5658462" lon="12.3721224"><ele>3.714285714285714</ele><time>2026-04-24T17:14:11.049Z</time></trkpt><trkpt lat="45.5658827" lon="12.3720404"><ele>4.0</ele><time>2026-04-24T17:14:12.023Z</time></trkpt><trkpt lat="45.5659239" lon="12.3719617"><ele>4.0</ele><time>2026-04-24T17:14:13.031Z</time></trkpt><trkpt lat="45.565966" lon="12.3718851"><ele>3.9999999999999996</ele><time>2026-04-24T17:14:14.025Z</time></trkpt><trkpt lat="45.5660023" lon="12.3718016"><ele>4.0</ele><time>2026-04-24T17:14:15.025Z</time></trkpt><trkpt lat="45.5660388" lon="12.3717196"><ele>4.0</ele><time>2026-04-24T17:14:16.022Z</time></trkpt><trkpt lat="45.5660817" lon="12.3716431"><ele>3.9999999999999996</ele><time>2026-04-24T17:14:17.035Z</time></trkpt><trkpt lat="45.5661172" lon="12.3715569"><ele>4.0</ele><time>2026-04-24T17:14:18.047Z</time></trkpt><trkpt lat="45.566154" lon="12.3714709"><ele>4.0</ele><time>2026-04-24T17:14:19.039Z</time></trkpt><trkpt lat="45.5661857" lon="12.3713786"><ele>3.4285714285714284</ele><time>2026-04-24T17:14:20.028Z</time></trkpt><trkpt lat="45.5662235" lon="12.3712927"><ele>2.8571428571428568</ele><time>2026-04-24T17:14:21.039Z</time></trkpt><trkpt lat="45.5662623" lon="12.3712077"><ele>2.2857142857142856</ele><time>2026-04-24T17:14:22.038Z</time></trkpt><trkpt lat="45.566293" lon="12.3711145"><ele>1.7142857142857142</ele><time>2026-04-24T17:14:23.025Z</time></trkpt><trkpt lat="45.5663169" lon="12.3710159"><ele>1.1428571428571428</ele><time>2026-04-24T17:14:24.047Z</time></trkpt><trkpt lat="45.5663369" lon="12.3709133"><ele>0.5714285714285714</ele><time>2026-04-24T17:14:25.022Z</time></trkpt><trkpt lat="45.5663597" lon="12.3708125"><ele>0.0</ele><time>2026-04-24T17:14:26.02Z</time></trkpt><trkpt lat="45.5663837" lon="12.3707127"><ele>0.0</ele><time>2026-04-24T17:14:27.025Z</time></trkpt><trkpt lat="45.5664097" lon="12.3706132"><ele>0.0</ele><time>2026-04-24T17:14:28.028Z</time></trkpt><trkpt lat="45.5664395" lon="12.3705141"><ele>0.0</ele><time>2026-04-24T17:14:29.027Z</time></trkpt><trkpt lat="45.566467" lon="12.3704134"><ele>0.0</ele><time>2026-04-24T17:14:30.027Z</time></trkpt><trkpt lat="45.5664938" lon="12.3703128"><ele>0.0</ele><time>2026-04-24T17:14:31.024Z</time></trkpt><trkpt lat="45.5665183" lon="12.3702113"><ele>0.0</ele><time>2026-04-24T17:14:32.026Z</time></trkpt><trkpt lat="45.5665441" lon="12.3701114"><ele>-0.14285714285714285</ele><time>2026-04-24T17:14:33.02Z</time></trkpt><trkpt lat="45.566565" lon="12.3700104"><ele>-0.2857142857142857</ele><time>2026-04-24T17:14:34.026Z</time></trkpt><trkpt lat="45.5665888" lon="12.3699119"><ele>-0.42857142857142855</ele><time>2026-04-24T17:14:35.028Z</time></trkpt><trkpt lat="45.5666157" lon="12.3698148"><ele>-0.5714285714285714</ele><time>2026-04-24T17:14:36.018Z</time></trkpt><trkpt lat="45.5666424" lon="12.3697176"><ele>-0.7142857142857142</ele><time>2026-04-24T17:14:37.035Z</time></trkpt><trkpt lat="45.5666716" lon="12.3696221"><ele>-0.8571428571428571</ele><time>2026-04-24T17:14:38.026Z</time></trkpt><trkpt lat="45.5666968" lon="12.3695247"><ele>-1.0</ele><time>2026-04-24T17:14:39.033Z</time></trkpt><trkpt lat="45.5667244" lon="12.3694306"><ele>-0.8571428571428571</ele><time>2026-04-24T17:14:40.035Z</time></trkpt><trkpt lat="45.5667476" lon="12.3693341"><ele>-0.7142857142857142</ele><time>2026-04-24T17:14:41.029Z</time></trkpt><trkpt lat="45.5667758" lon="12.3692418"><ele>-0.5714285714285714</ele><time>2026-04-24T17:14:42.024Z</time></trkpt><trkpt lat="45.5668034" lon="12.3691503"><ele>-0.42857142857142855</ele><time>2026-04-24T17:14:43.024Z</time></trkpt><trkpt lat="45.5668275" lon="12.369058"><ele>-0.2857142857142857</ele><time>2026-04-24T17:14:44.027Z</time></trkpt><trkpt lat="45.5668531" lon="12.3689679"><ele>-0.14285714285714285</ele><time>2026-04-24T17:14:45.023Z</time></trkpt><trkpt lat="45.5668797" lon="12.3688807"><ele>0.0</ele><time>2026-04-24T17:14:46.035Z</time></trkpt><trkpt lat="45.5669034" lon="12.368794"><ele>0.0</ele><time>2026-04-24T17:14:47.024Z</time></trkpt><trkpt lat="45.566922" lon="12.3687069"><ele>0.0</ele><time>2026-04-24T17:14:48.027Z</time></trkpt><trkpt lat="45.5669332" lon="12.368617"><ele>0.0</ele><time>2026-04-24T17:14:49.022Z</time></trkpt><trkpt lat="45.56699" lon="12.3684618"><ele>0.0</ele><time>2026-04-24T17:14:51.012Z</time></trkpt><trkpt lat="45.5670429" lon="12.3683047"><ele>0.0</ele><time>2026-04-24T17:14:53.033Z</time></trkpt><trkpt lat="45.5670856" lon="12.3681444"><ele>0.2</ele><time>2026-04-24T17:14:55.027Z</time></trkpt><trkpt lat="45.5671365" lon="12.3680021"><ele>0.4</ele><time>2026-04-24T17:14:57.047Z</time></trkpt><trkpt lat="45.5671794" lon="12.3678646"><ele>0.6000000000000001</ele><time>2026-04-24T17:14:59.039Z</time></trkpt><trkpt lat="45.567245" lon="12.3677537"><ele>0.8</ele><time>2026-04-24T17:15:01.018Z</time></trkpt><trkpt lat="45.5672902" lon="12.3676375"><ele>1.0</ele><time>2026-04-24T17:15:03.029Z</time></trkpt><trkpt lat="45.567311" lon="12.3675104"><ele>1.0</ele><time>2026-04-24T17:15:05.021Z</time></trkpt><trkpt lat="45.5673505" lon="12.3673854"><ele>1.0</ele><time>2026-04-24T17:15:07.026Z</time></trkpt><trkpt lat="45.5673992" lon="12.3672583"><ele>1.0</ele><time>2026-04-24T17:15:09.019Z</time></trkpt><trkpt lat="45.5674466" lon="12.3671255"><ele>1.0</ele><time>2026-04-24T17:15:11.031Z</time></trkpt><trkpt lat="45.5674892" lon="12.3669942"><ele>1.0</ele><time>2026-04-24T17:15:13.025Z</time></trkpt><trkpt lat="45.5675339" lon="12.3668693"><ele>1.0</ele><time>2026-04-24T17:15:15.025Z</time></trkpt><trkpt lat="45.5675645" lon="12.3667351"><ele>1.0</ele><time>2026-04-24T17:15:17.025Z</time></trkpt><trkpt lat="45.5676106" lon="12.3666063"><ele>1.0</ele><time>2026-04-24T17:15:19.017Z</time></trkpt><trkpt lat="45.5676606" lon="12.3664791"><ele>1.0</ele><time>2026-04-24T17:15:21.033Z</time></trkpt><trkpt lat="45.567709" lon="12.3663492"><ele>1.0</ele><time>2026-04-24T17:15:23.023Z</time></trkpt><trkpt lat="45.5677554" lon="12.3662071"><ele>1.0</ele><time>2026-04-24T17:15:25.026Z</time></trkpt><trkpt lat="45.5677776" lon="12.3660772"><ele>1.0</ele><time>2026-04-24T17:15:27.026Z</time></trkpt><trkpt lat="45.5677946" lon="12.3659445"><ele>1.0</ele><time>2026-04-24T17:15:29.025Z</time></trkpt><trkpt lat="45.5678043" lon="12.3658021"><ele>1.0</ele><time>2026-04-24T17:15:31.021Z</time></trkpt><trkpt lat="45.5678189" lon="12.3656535"><ele>1.0</ele><time>2026-04-24T17:15:33.035Z</time></trkpt><trkpt lat="45.567843" lon="12.3655126"><ele>1.0</ele><time>2026-04-24T17:15:35.025Z</time></trkpt><trkpt lat="45.5678778" lon="12.3653855"><ele>1.0</ele><time>2026-04-24T17:15:37.038Z</time></trkpt><trkpt lat="45.5679185" lon="12.3652641"><ele>1.0</ele><time>2026-04-24T17:15:39.022Z</time></trkpt><trkpt lat="45.567957" lon="12.3651372"><ele>1.0</ele><time>2026-04-24T17:15:41.028Z</time></trkpt><trkpt lat="45.5680019" lon="12.3650037"><ele>1.0</ele><time>2026-04-24T17:15:43.039Z</time></trkpt><trkpt lat="45.5680474" lon="12.3648706"><ele>1.0</ele><time>2026-04-24T17:15:45.027Z</time></trkpt><trkpt lat="45.568092" lon="12.3647302"><ele>1.0</ele><time>2026-04-24T17:15:47.027Z</time></trkpt><trkpt lat="45.5681395" lon="12.3645941"><ele>1.0</ele><time>2026-04-24T17:15:49.028Z</time></trkpt><trkpt lat="45.5681893" lon="12.364456"><ele>1.0</ele><time>2026-04-24T17:15:51.04Z</time></trkpt><trkpt lat="45.5682378" lon="12.3643081"><ele>1.0</ele><time>2026-04-24T17:15:53.042Z</time></trkpt><trkpt lat="45.5682906" lon="12.3641634"><ele>1.0</ele><time>2026-04-24T17:15:55.027Z</time></trkpt><trkpt lat="45.5683399" lon="12.3640199"><ele>1.0</ele><time>2026-04-24T17:15:57.033Z</time></trkpt><trkpt lat="45.5683985" lon="12.3638746"><ele>1.0</ele><time>2026-04-24T17:15:59.021Z</time></trkpt><trkpt lat="45.5684461" lon="12.3637371"><ele>1.0</ele><time>2026-04-24T17:16:01.02Z</time></trkpt><trkpt lat="45.5684826" lon="12.3635979"><ele>1.0</ele><time>2026-04-24T17:16:03.031Z</time></trkpt><trkpt lat="45.568524" lon="12.3634566"><ele>0.9999999999999999</ele><time>2026-04-24T17:16:05.03Z</time></trkpt><trkpt lat="45.5685736" lon="12.3633211"><ele>1.0</ele><time>2026-04-24T17:16:07.026Z</time></trkpt><trkpt lat="45.5686104" lon="12.3632028"><ele>1.0</ele><time>2026-04-24T17:16:09.025Z</time></trkpt><trkpt lat="45.5686431" lon="12.3630834"><ele>1.0</ele><time>2026-04-24T17:16:11.032Z</time></trkpt><trkpt lat="45.5686777" lon="12.3629722"><ele>0.9999999999999999</ele><time>2026-04-24T17:16:13.026Z</time></trkpt><trkpt lat="45.5687095" lon="12.3628827"><ele>1.0</ele><time>2026-04-24T17:16:15.029Z</time></trkpt><trkpt lat="45.568741" lon="12.3627789"><ele>0.8</ele><time>2026-04-24T17:16:17.026Z</time></trkpt><trkpt lat="45.5687681" lon="12.3626507"><ele>0.6000000000000001</ele><time>2026-04-24T17:16:19.029Z</time></trkpt><trkpt lat="45.5687603" lon="12.3625009"><ele>0.4</ele><time>2026-04-24T17:16:21.022Z</time></trkpt><trkpt lat="45.5687291" lon="12.3623656"><ele>0.2</ele><time>2026-04-24T17:16:23.021Z</time></trkpt><trkpt lat="45.5686979" lon="12.3622269"><ele>0.0</ele><time>2026-04-24T17:16:25.034Z</time></trkpt><trkpt lat="45.5686821" lon="12.3620857"><ele>0.0</ele><time>2026-04-24T17:16:27.045Z</time></trkpt><trkpt lat="45.5686524" lon="12.3619599"><ele>0.0</ele><time>2026-04-24T17:16:29.04Z</time></trkpt><trkpt lat="45.568574" lon="12.3618734"><ele>0.0</ele><time>2026-04-24T17:16:31.028Z</time></trkpt><trkpt lat="45.5684811" lon="12.3618251"><ele>0.0</ele><time>2026-04-24T17:16:33.024Z</time></trkpt><trkpt lat="45.5684219" lon="12.3617644"><ele>0.0</ele><time>2026-04-24T17:16:35.041Z</time></trkpt><trkpt lat="45.5684174" lon="12.3616561"><ele>0.0</ele><time>2026-04-24T17:16:48.027Z</time></trkpt><trkpt lat="45.5684944" lon="12.3615893"><ele>0.0</ele><time>2026-04-24T17:16:51.024Z</time></trkpt><trkpt lat="45.5685897" lon="12.3616055"><ele>0.0</ele><time>2026-04-24T17:16:53.033Z</time></trkpt><trkpt lat="45.5687018" lon="12.3616615"><ele>0.0</ele><time>2026-04-24T17:16:55.047Z</time></trkpt><trkpt lat="45.5688007" lon="12.3616401"><ele>0.0</ele><time>2026-04-24T17:16:57.03Z</time></trkpt><trkpt lat="45.5689079" lon="12.3615994"><ele>0.0</ele><time>2026-04-24T17:16:59.025Z</time></trkpt><trkpt lat="45.5690101" lon="12.3615689"><ele>-0.16666666666666666</ele><time>2026-04-24T17:17:01.029Z</time></trkpt><trkpt lat="45.5691009" lon="12.3615367"><ele>-0.3333333333333333</ele><time>2026-04-24T17:17:03.032Z</time></trkpt><trkpt lat="45.56919" lon="12.3615021"><ele>-0.5</ele><time>2026-04-24T17:17:05.04Z</time></trkpt><trkpt lat="45.5692553" lon="12.3614546"><ele>-0.6666666666666666</ele><time>2026-04-24T17:17:08.022Z</time></trkpt><trkpt lat="45.569319" lon="12.3614487"><ele>-0.8333333333333333</ele><time>2026-04-24T17:17:11.024Z</time></trkpt><trkpt lat="45.5694025" lon="12.3613984"><ele>-1.0</ele><time>2026-04-24T17:17:14.021Z</time></trkpt><trkpt lat="45.5694528" lon="12.3612947"><ele>-0.6666666666666666</ele><time>2026-04-24T17:17:16.029Z</time></trkpt><trkpt lat="45.569486" lon="12.3611552"><ele>-0.3333333333333333</ele><time>2026-04-24T17:17:18.04Z</time></trkpt><trkpt lat="45.5695377" lon="12.3610115"><ele>0.0</ele><time>2026-04-24T17:17:20.019Z</time></trkpt><trkpt lat="45.5695705" lon="12.3609327"><ele>0.3333333333333333</ele><time>2026-04-24T17:17:21.02Z</time></trkpt><trkpt lat="45.5696026" lon="12.3608478"><ele>0.6666666666666666</ele><time>2026-04-24T17:17:22.022Z</time></trkpt><trkpt lat="45.5696388" lon="12.360772"><ele>1.0</ele><time>2026-04-24T17:17:23.026Z</time></trkpt><trkpt lat="45.569704" lon="12.3606259"><ele>1.2000000000000002</ele><time>2026-04-24T17:17:25.035Z</time></trkpt><trkpt lat="45.5697567" lon="12.3604968"><ele>1.4000000000000001</ele><time>2026-04-24T17:17:27.031Z</time></trkpt><trkpt lat="45.5697932" lon="12.3603791"><ele>1.6</ele><time>2026-04-24T17:17:29.035Z</time></trkpt><trkpt lat="45.5698437" lon="12.3602364"><ele>1.8</ele><time>2026-04-24T17:17:31.022Z</time></trkpt><trkpt lat="45.5698849" lon="12.360105"><ele>2.0</ele><time>2026-04-24T17:17:33.019Z</time></trkpt><trkpt lat="45.5699312" lon="12.3600038"><ele>2.0</ele><time>2026-04-24T17:17:35.033Z</time></trkpt><trkpt lat="45.569981" lon="12.3598769"><ele>2.0</ele><time>2026-04-24T17:17:37.021Z</time></trkpt><trkpt lat="45.570032" lon="12.3597334"><ele>2.0</ele><time>2026-04-24T17:17:39.013Z</time></trkpt><trkpt lat="45.5700874" lon="12.3596068"><ele>2.0</ele><time>2026-04-24T17:17:41.031Z</time></trkpt><trkpt lat="45.5701389" lon="12.3594745"><ele>2.0</ele><time>2026-04-24T17:17:43.02Z</time></trkpt><trkpt lat="45.5701866" lon="12.3593303"><ele>1.6666666666666665</ele><time>2026-04-24T17:17:45.013Z</time></trkpt><trkpt lat="45.570238" lon="12.3591632"><ele>1.3333333333333333</ele><time>2026-04-24T17:17:47.028Z</time></trkpt><trkpt lat="45.5702668" lon="12.3590778"><ele>1.0</ele><time>2026-04-24T17:17:48.02Z</time></trkpt><trkpt lat="45.5702949" lon="12.3589885"><ele>0.6666666666666666</ele><time>2026-04-24T17:17:49.008Z</time></trkpt><trkpt lat="45.5703194" lon="12.3589016"><ele>0.3333333333333333</ele><time>2026-04-24T17:17:50.032Z</time></trkpt><trkpt lat="45.5703411" lon="12.3588124"><ele>0.0</ele><time>2026-04-24T17:17:51.022Z</time></trkpt><trkpt lat="45.5703648" lon="12.3587246"><ele>0.0</ele><time>2026-04-24T17:17:52.036Z</time></trkpt><trkpt lat="45.5703873" lon="12.3586348"><ele>0.0</ele><time>2026-04-24T17:17:53.03Z</time></trkpt><trkpt lat="45.5704121" lon="12.3585478"><ele>0.0</ele><time>2026-04-24T17:17:54.021Z</time></trkpt><trkpt lat="45.5704379" lon="12.3584608"><ele>0.0</ele><time>2026-04-24T17:17:55.031Z</time></trkpt><trkpt lat="45.5704623" lon="12.3583709"><ele>0.0</ele><time>2026-04-24T17:17:56.025Z</time></trkpt><trkpt lat="45.5704949" lon="12.3582887"><ele>0.0</ele><time>2026-04-24T17:17:57.033Z</time></trkpt><trkpt lat="45.5705235" lon="12.3582031"><ele>0.0</ele><time>2026-04-24T17:17:58.044Z</time></trkpt><trkpt lat="45.570531" lon="12.3581044"><ele>-0.2</ele><time>2026-04-24T17:17:59.036Z</time></trkpt><trkpt lat="45.5705674" lon="12.3579428"><ele>-0.4</ele><time>2026-04-24T17:18:01.028Z</time></trkpt><trkpt lat="45.570606" lon="12.3577965"><ele>-0.6000000000000001</ele><time>2026-04-24T17:18:03.039Z</time></trkpt><trkpt lat="45.5706546" lon="12.3576479"><ele>-0.8</ele><time>2026-04-24T17:18:05.028Z</time></trkpt><trkpt lat="45.5706819" lon="12.3575019"><ele>-1.0</ele><time>2026-04-24T17:18:07.036Z</time></trkpt><trkpt lat="45.5707162" lon="12.3573638"><ele>-1.0</ele><time>2026-04-24T17:18:09.025Z</time></trkpt><trkpt lat="45.5707493" lon="12.3572209"><ele>-1.0</ele><time>2026-04-24T17:18:11.027Z</time></trkpt><trkpt lat="45.5707821" lon="12.3570787"><ele>-1.0</ele><time>2026-04-24T17:18:13.03Z</time></trkpt><trkpt lat="45.5708182" lon="12.356942"><ele>-1.0</ele><time>2026-04-24T17:18:15.018Z</time></trkpt><trkpt lat="45.5708655" lon="12.3568109"><ele>-1.0</ele><time>2026-04-24T17:18:17.028Z</time></trkpt><trkpt lat="45.5709072" lon="12.3566752"><ele>-0.8</ele><time>2026-04-24T17:18:19.032Z</time></trkpt><trkpt lat="45.5709415" lon="12.3565363"><ele>-0.6000000000000001</ele><time>2026-04-24T17:18:21.023Z</time></trkpt><trkpt lat="45.5709707" lon="12.356402"><ele>-0.4</ele><time>2026-04-24T17:18:23.021Z</time></trkpt><trkpt lat="45.5710033" lon="12.3562677"><ele>-0.2</ele><time>2026-04-24T17:18:25.023Z</time></trkpt><trkpt lat="45.5710403" lon="12.3561328"><ele>0.0</ele><time>2026-04-24T17:18:27.026Z</time></trkpt><trkpt lat="45.5710719" lon="12.3559906"><ele>0.0</ele><time>2026-04-24T17:18:29.034Z</time></trkpt><trkpt lat="45.5711113" lon="12.3558466"><ele>0.0</ele><time>2026-04-24T17:18:31.042Z</time></trkpt><trkpt lat="45.5711451" lon="12.3556991"><ele>0.0</ele><time>2026-04-24T17:18:33.024Z</time></trkpt><trkpt lat="45.5711803" lon="12.3555539"><ele>0.0</ele><time>2026-04-24T17:18:35.046Z</time></trkpt><trkpt lat="45.5712241" lon="12.3554128"><ele>0.0</ele><time>2026-04-24T17:18:37.036Z</time></trkpt><trkpt lat="45.5712657" lon="12.3552668"><ele>0.0</ele><time>2026-04-24T17:18:39.05Z</time></trkpt><trkpt lat="45.5713056" lon="12.3551218"><ele>0.0</ele><time>2026-04-24T17:18:41.023Z</time></trkpt><trkpt lat="45.5713453" lon="12.3549833"><ele>0.0</ele><time>2026-04-24T17:18:43.027Z</time></trkpt><trkpt lat="45.571383" lon="12.3548516"><ele>0.0</ele><time>2026-04-24T17:18:45.044Z</time></trkpt><trkpt lat="45.5714188" lon="12.3547192"><ele>0.0</ele><time>2026-04-24T17:18:47.032Z</time></trkpt><trkpt lat="45.5714683" lon="12.3545904"><ele>0.0</ele><time>2026-04-24T17:18:49.029Z</time></trkpt><trkpt lat="45.5715029" lon="12.3544469"><ele>0.0</ele><time>2026-04-24T17:18:51.037Z</time></trkpt><trkpt lat="45.5715546" lon="12.354323"><ele>0.0</ele><time>2026-04-24T17:18:53.038Z</time></trkpt><trkpt lat="45.5716314" lon="12.3542454"><ele>0.0</ele><time>2026-04-24T17:18:55.031Z</time></trkpt><trkpt lat="45.5717195" lon="12.3542072"><ele>0.0</ele><time>2026-04-24T17:18:57.026Z</time></trkpt><trkpt lat="45.5718117" lon="12.3542037"><ele>0.0</ele><time>2026-04-24T17:18:59.039Z</time></trkpt><trkpt lat="45.5719061" lon="12.3542541"><ele>0.0</ele><time>2026-04-24T17:19:01.029Z</time></trkpt><trkpt lat="45.5720083" lon="12.3543092"><ele>0.0</ele><time>2026-04-24T17:19:03.024Z</time></trkpt><trkpt lat="45.5721102" lon="12.354356"><ele>0.0</ele><time>2026-04-24T17:19:05.032Z</time></trkpt><trkpt lat="45.5722041" lon="12.3544028"><ele>0.0</ele><time>2026-04-24T17:19:07.026Z</time></trkpt><trkpt lat="45.5722942" lon="12.3544443"><ele>0.0</ele><time>2026-04-24T17:19:09.047Z</time></trkpt><trkpt lat="45.572384" lon="12.3544957"><ele>0.0</ele><time>2026-04-24T17:19:11.029Z</time></trkpt><trkpt lat="45.5724821" lon="12.3545418"><ele>0.0</ele><time>2026-04-24T17:19:13.022Z</time></trkpt><trkpt lat="45.5725842" lon="12.3545863"><ele>0.0</ele><time>2026-04-24T17:19:15.038Z</time></trkpt><trkpt lat="45.5726868" lon="12.3546289"><ele>0.0</ele><time>2026-04-24T17:19:17.042Z</time></trkpt><trkpt lat="45.5727866" lon="12.3546707"><ele>0.0</ele><time>2026-04-24T17:19:19.04Z</time></trkpt><trkpt lat="45.5728863" lon="12.3547154"><ele>0.0</ele><time>2026-04-24T17:19:21.035Z</time></trkpt><trkpt lat="45.5729854" lon="12.3547633"><ele>0.0</ele><time>2026-04-24T17:19:23.025Z</time></trkpt><trkpt lat="45.5730869" lon="12.3548079"><ele>0.0</ele><time>2026-04-24T17:19:25.022Z</time></trkpt><trkpt lat="45.573188" lon="12.3548551"><ele>0.0</ele><time>2026-04-24T17:19:27.039Z</time></trkpt><trkpt lat="45.5732931" lon="12.3549016"><ele>0.0</ele><time>2026-04-24T17:19:29.045Z</time></trkpt><trkpt lat="45.5733988" lon="12.3549508"><ele>0.0</ele><time>2026-04-24T17:19:31.028Z</time></trkpt><trkpt lat="45.5735032" lon="12.3550052"><ele>0.0</ele><time>2026-04-24T17:19:33.035Z</time></trkpt><trkpt lat="45.5736071" lon="12.3550624"><ele>0.0</ele><time>2026-04-24T17:19:35.035Z</time></trkpt><trkpt lat="45.5737113" lon="12.3551106"><ele>0.0</ele><time>2026-04-24T17:19:37.028Z</time></trkpt><trkpt lat="45.5738135" lon="12.355163"><ele>0.0</ele><time>2026-04-24T17:19:39.035Z</time></trkpt><trkpt lat="45.573915" lon="12.3552101"><ele>0.0</ele><time>2026-04-24T17:19:41.034Z</time></trkpt><trkpt lat="45.5740175" lon="12.3552499"><ele>0.0</ele><time>2026-04-24T17:19:43.03Z</time></trkpt><trkpt lat="45.5741228" lon="12.3552957"><ele>0.0</ele><time>2026-04-24T17:19:45.033Z</time></trkpt><trkpt lat="45.5742283" lon="12.3553452"><ele>0.0</ele><time>2026-04-24T17:19:47.03Z</time></trkpt><trkpt lat="45.574334" lon="12.3553965"><ele>0.0</ele><time>2026-04-24T17:19:49.025Z</time></trkpt><trkpt lat="45.5744385" lon="12.3554493"><ele>0.0</ele><time>2026-04-24T17:19:51.027Z</time></trkpt><trkpt lat="45.5745445" lon="12.3555008"><ele>0.0</ele><time>2026-04-24T17:19:53.044Z</time></trkpt><trkpt lat="45.5746507" lon="12.3555476"><ele>0.0</ele><time>2026-04-24T17:19:55.034Z</time></trkpt><trkpt lat="45.5747587" lon="12.3556006"><ele>0.0</ele><time>2026-04-24T17:19:57.033Z</time></trkpt><trkpt lat="45.5748693" lon="12.3556451"><ele>-0.5</ele><time>2026-04-24T17:19:59.023Z</time></trkpt><trkpt lat="45.5749811" lon="12.3556935"><ele>-1.0</ele><time>2026-04-24T17:20:01.021Z</time></trkpt><trkpt lat="45.5750948" lon="12.3557438"><ele>-1.5</ele><time>2026-04-24T17:20:03.035Z</time></trkpt><trkpt lat="45.5752076" lon="12.3558003"><ele>-2.0</ele><time>2026-04-24T17:20:05.036Z</time></trkpt><trkpt lat="45.5753191" lon="12.3558572"><ele>-1.75</ele><time>2026-04-24T17:20:07.051Z</time></trkpt><trkpt lat="45.57543" lon="12.3559023"><ele>-1.5</ele><time>2026-04-24T17:20:09.038Z</time></trkpt><trkpt lat="45.5755398" lon="12.355957"><ele>-1.25</ele><time>2026-04-24T17:20:11.027Z</time></trkpt><trkpt lat="45.5756514" lon="12.3560129"><ele>-1.0</ele><time>2026-04-24T17:20:13.024Z</time></trkpt><trkpt lat="45.5757623" lon="12.3560667"><ele>-1.0</ele><time>2026-04-24T17:20:15.02Z</time></trkpt><trkpt lat="45.5758735" lon="12.3561189"><ele>-1.0</ele><time>2026-04-24T17:20:17.027Z</time></trkpt><trkpt lat="45.5759865" lon="12.3561663"><ele>-1.0</ele><time>2026-04-24T17:20:19.02Z</time></trkpt><trkpt lat="45.5760986" lon="12.3562162"><ele>-1.0</ele><time>2026-04-24T17:20:21.031Z</time></trkpt><trkpt lat="45.5762107" lon="12.3562678"><ele>-1.0</ele><time>2026-04-24T17:20:23.037Z</time></trkpt><trkpt lat="45.5763194" lon="12.3563229"><ele>-1.0</ele><time>2026-04-24T17:20:25.026Z</time></trkpt><trkpt lat="45.5764293" lon="12.356368"><ele>-1.0</ele><time>2026-04-24T17:20:27.034Z</time></trkpt><trkpt lat="45.5765377" lon="12.356415"><ele>-1.0</ele><time>2026-04-24T17:20:29.017Z</time></trkpt><trkpt lat="45.5766463" lon="12.3564703"><ele>-1.2000000000000002</ele><time>2026-04-24T17:20:31.023Z</time></trkpt><trkpt lat="45.5767543" lon="12.3565234"><ele>-1.4000000000000001</ele><time>2026-04-24T17:20:33.036Z</time></trkpt><trkpt lat="45.576858" lon="12.3565797"><ele>-1.6</ele><time>2026-04-24T17:20:35.035Z</time></trkpt><trkpt lat="45.5769574" lon="12.3566286"><ele>-1.8</ele><time>2026-04-24T17:20:37.031Z</time></trkpt><trkpt lat="45.5770533" lon="12.3566622"><ele>-2.0</ele><time>2026-04-24T17:20:39.051Z</time></trkpt><trkpt lat="45.5771385" lon="12.3567152"><ele>-1.9999999999999998</ele><time>2026-04-24T17:20:41.026Z</time></trkpt><trkpt lat="45.5772149" lon="12.356781"><ele>-2.0</ele><time>2026-04-24T17:20:43.025Z</time></trkpt><trkpt lat="45.5772827" lon="12.3568353"><ele>-2.0</ele><time>2026-04-24T17:20:45.022Z</time></trkpt><trkpt lat="45.577328" lon="12.35697"><ele>-2.0</ele><time>2026-04-24T17:20:48.024Z</time></trkpt><trkpt lat="45.5773957" lon="12.357079"><ele>-1.9999999999999998</ele><time>2026-04-24T17:20:50.038Z</time></trkpt><trkpt lat="45.5774489" lon="12.3571364"><ele>-2.0</ele><time>2026-04-24T17:20:51.036Z</time></trkpt><trkpt lat="45.577577" lon="12.357176"><ele>-2.0</ele><time>2026-04-24T17:20:53.038Z</time></trkpt><trkpt lat="45.5776914" lon="12.3571451"><ele>-2.0</ele><time>2026-04-24T17:20:55.03Z</time></trkpt><trkpt lat="45.5777922" lon="12.3570749"><ele>-2.0</ele><time>2026-04-24T17:20:57.024Z</time></trkpt><trkpt lat="45.577912" lon="12.3570419"><ele>-2.0</ele><time>2026-04-24T17:20:59.032Z</time></trkpt><trkpt lat="45.5780198" lon="12.3570915"><ele>-1.8</ele><time>2026-04-24T17:21:01.024Z</time></trkpt><trkpt lat="45.578118" lon="12.3571409"><ele>-1.6</ele><time>2026-04-24T17:21:03.039Z</time></trkpt><trkpt lat="45.5782227" lon="12.357193"><ele>-1.4000000000000001</ele><time>2026-04-24T17:21:05.02Z</time></trkpt><trkpt lat="45.578321" lon="12.3572403"><ele>-1.2000000000000002</ele><time>2026-04-24T17:21:07.032Z</time></trkpt><trkpt lat="45.5784107" lon="12.3572911"><ele>-1.0</ele><time>2026-04-24T17:21:09.026Z</time></trkpt><trkpt lat="45.5785058" lon="12.3573338"><ele>-1.0</ele><time>2026-04-24T17:21:11.023Z</time></trkpt><trkpt lat="45.5786016" lon="12.3573831"><ele>-1.0</ele><time>2026-04-24T17:21:13.032Z</time></trkpt><trkpt lat="45.5786958" lon="12.3574206"><ele>-1.0</ele><time>2026-04-24T17:21:15.04Z</time></trkpt><trkpt lat="45.5787972" lon="12.3574636"><ele>-1.0</ele><time>2026-04-24T17:21:17.038Z</time></trkpt><trkpt lat="45.5788913" lon="12.3574885"><ele>-1.0</ele><time>2026-04-24T17:21:19.036Z</time></trkpt><trkpt lat="45.5789878" lon="12.3575031"><ele>-0.6666666666666666</ele><time>2026-04-24T17:21:21.035Z</time></trkpt><trkpt lat="45.5790525" lon="12.3575053"><ele>-0.3333333333333333</ele><time>2026-04-24T17:21:22.028Z</time></trkpt><trkpt lat="45.5791317" lon="12.3574962"><ele>0.0</ele><time>2026-04-24T17:21:24.02Z</time></trkpt><trkpt lat="45.5792085" lon="12.3574672"><ele>0.3333333333333333</ele><time>2026-04-24T17:21:26.037Z</time></trkpt><trkpt lat="45.5793051" lon="12.3574388"><ele>0.6666666666666666</ele><time>2026-04-24T17:21:28.023Z</time></trkpt><trkpt lat="45.5793996" lon="12.3573948"><ele>1.0</ele><time>2026-04-24T17:21:30.03Z</time></trkpt><trkpt lat="45.5794741" lon="12.3573499"><ele>1.2000000000000002</ele><time>2026-04-24T17:21:32.023Z</time></trkpt><trkpt lat="45.5795652" lon="12.3572999"><ele>1.4000000000000001</ele><time>2026-04-24T17:21:34.025Z</time></trkpt><trkpt lat="45.5796481" lon="12.3572226"><ele>1.6</ele><time>2026-04-24T17:21:36.038Z</time></trkpt><trkpt lat="45.5797197" lon="12.3571384"><ele>1.8</ele><time>2026-04-24T17:21:38.02Z</time></trkpt><trkpt lat="45.5797914" lon="12.357054"><ele>2.0</ele><time>2026-04-24T17:21:40.029Z</time></trkpt><trkpt lat="45.579848" lon="12.3569704"><ele>2.1666666666666665</ele><time>2026-04-24T17:21:42.028Z</time></trkpt><trkpt lat="45.579909" lon="12.3568828"><ele>2.333333333333333</ele><time>2026-04-24T17:21:44.024Z</time></trkpt><trkpt lat="45.5799617" lon="12.356793"><ele>2.5</ele><time>2026-04-24T17:21:46.026Z</time></trkpt><trkpt lat="45.5800132" lon="12.3567062"><ele>2.6666666666666665</ele><time>2026-04-24T17:21:48.034Z</time></trkpt><trkpt lat="45.580063" lon="12.3566179"><ele>2.8333333333333335</ele><time>2026-04-24T17:21:50.028Z</time></trkpt><trkpt lat="45.580109" lon="12.3565344"><ele>3.0</ele><time>2026-04-24T17:21:52.024Z</time></trkpt><trkpt lat="45.580156" lon="12.3564623"><ele>2.9999999999999996</ele><time>2026-04-24T17:21:54.033Z</time></trkpt><trkpt lat="45.5802191" lon="12.3563864"><ele>3.0</ele><time>2026-04-24T17:21:56.026Z</time></trkpt><trkpt lat="45.580264" lon="12.3563047"><ele>3.0</ele><time>2026-04-24T17:21:58.033Z</time></trkpt><trkpt lat="45.580307" lon="12.3562061"><ele>3.0</ele><time>2026-04-24T17:22:00.04Z</time></trkpt><trkpt lat="45.5803462" lon="12.3561286"><ele>3.0</ele><time>2026-04-24T17:22:02.049Z</time></trkpt><trkpt lat="45.5803879" lon="12.3560396"><ele>2.9999999999999996</ele><time>2026-04-24T17:22:04.039Z</time></trkpt><trkpt lat="45.5804277" lon="12.3559581"><ele>3.0</ele><time>2026-04-24T17:22:06.037Z</time></trkpt><trkpt lat="45.5804778" lon="12.355871"><ele>2.8</ele><time>2026-04-24T17:22:08.024Z</time></trkpt><trkpt lat="45.5805237" lon="12.3557846"><ele>2.5999999999999996</ele><time>2026-04-24T17:22:10.055Z</time></trkpt><trkpt lat="45.5805966" lon="12.3556657"><ele>2.4000000000000004</ele><time>2026-04-24T17:22:12.055Z</time></trkpt><trkpt lat="45.5806564" lon="12.3555704"><ele>2.2</ele><time>2026-04-24T17:22:14.042Z</time></trkpt><trkpt lat="45.5807107" lon="12.3554765"><ele>2.0</ele><time>2026-04-24T17:22:16.034Z</time></trkpt><trkpt lat="45.5807688" lon="12.355361"><ele>2.5</ele><time>2026-04-24T17:22:18.033Z</time></trkpt><trkpt lat="45.5808468" lon="12.3552113"><ele>3.0</ele><time>2026-04-24T17:22:20.031Z</time></trkpt><trkpt lat="45.5809189" lon="12.3550712"><ele>3.5</ele><time>2026-04-24T17:22:22.033Z</time></trkpt><trkpt lat="45.5809847" lon="12.354936"><ele>4.0</ele><time>2026-04-24T17:22:24.028Z</time></trkpt><trkpt lat="45.5810338" lon="12.3547738"><ele>3.8571428571428568</ele><time>2026-04-24T17:22:26.02Z</time></trkpt><trkpt lat="45.5810442" lon="12.3546828"><ele>3.714285714285714</ele><time>2026-04-24T17:22:27.028Z</time></trkpt><trkpt lat="45.581047" lon="12.3545895"><ele>3.571428571428571</ele><time>2026-04-24T17:22:28.021Z</time></trkpt><trkpt lat="45.5810455" lon="12.3544959"><ele>3.4285714285714284</ele><time>2026-04-24T17:22:29.036Z</time></trkpt><trkpt lat="45.5810356" lon="12.3544034"><ele>3.2857142857142856</ele><time>2026-04-24T17:22:30.043Z</time></trkpt><trkpt lat="45.5810215" lon="12.3543147"><ele>3.1428571428571423</ele><time>2026-04-24T17:22:31.029Z</time></trkpt><trkpt lat="45.581" lon="12.3542227"><ele>3.0</ele><time>2026-04-24T17:22:32.035Z</time></trkpt><trkpt lat="45.5809668" lon="12.3541352"><ele>2.9999999999999996</ele><time>2026-04-24T17:22:33.039Z</time></trkpt><trkpt lat="45.5809295" lon="12.3540516"><ele>3.0</ele><time>2026-04-24T17:22:34.042Z</time></trkpt><trkpt lat="45.5808841" lon="12.353975"><ele>3.0</ele><time>2026-04-24T17:22:35.031Z</time></trkpt><trkpt lat="45.5808346" lon="12.3539049"><ele>3.0</ele><time>2026-04-24T17:22:36.029Z</time></trkpt><trkpt lat="45.580781" lon="12.3538424"><ele>3.0</ele><time>2026-04-24T17:22:37.033Z</time></trkpt><trkpt lat="45.58072" lon="12.3537905"><ele>2.9999999999999996</ele><time>2026-04-24T17:22:38.03Z</time></trkpt><trkpt lat="45.580654" lon="12.3537475"><ele>3.0</ele><time>2026-04-24T17:22:39.04Z</time></trkpt><trkpt lat="45.5805852" lon="12.3537159"><ele>2.9999999999999996</ele><time>2026-04-24T17:22:40.042Z</time></trkpt><trkpt lat="45.5805147" lon="12.3536919"><ele>3.0</ele><time>2026-04-24T17:22:41.045Z</time></trkpt><trkpt lat="45.5804423" lon="12.35368"><ele>3.0</ele><time>2026-04-24T17:22:42.038Z</time></trkpt><trkpt lat="45.5803713" lon="12.3536598"><ele>3.0</ele><time>2026-04-24T17:22:43.023Z</time></trkpt><trkpt lat="45.5802961" lon="12.3536648"><ele>3.0</ele><time>2026-04-24T17:22:44.027Z</time></trkpt><trkpt lat="45.5802202" lon="12.3536692"><ele>2.9999999999999996</ele><time>2026-04-24T17:22:45.032Z</time></trkpt><trkpt lat="45.580145" lon="12.3536636"><ele>3.0</ele><time>2026-04-24T17:22:46.027Z</time></trkpt><trkpt lat="45.5800711" lon="12.3536482"><ele>2.8571428571428568</ele><time>2026-04-24T17:22:47.037Z</time></trkpt><trkpt lat="45.5799996" lon="12.3536186"><ele>2.7142857142857144</ele><time>2026-04-24T17:22:48.021Z</time></trkpt><trkpt lat="45.5799278" lon="12.3535869"><ele>2.571428571428571</ele><time>2026-04-24T17:22:49.026Z</time></trkpt><trkpt lat="45.579858" lon="12.3535472"><ele>2.4285714285714284</ele><time>2026-04-24T17:22:50.023Z</time></trkpt><trkpt lat="45.5797909" lon="12.3535049"><ele>2.2857142857142856</ele><time>2026-04-24T17:22:51.044Z</time></trkpt><trkpt lat="45.5797271" lon="12.3534587"><ele>2.142857142857143</ele><time>2026-04-24T17:22:52.029Z</time></trkpt><trkpt lat="45.5796705" lon="12.3534015"><ele>2.0</ele><time>2026-04-24T17:22:53.028Z</time></trkpt><trkpt lat="45.5796178" lon="12.3533422"><ele>2.0</ele><time>2026-04-24T17:22:54.035Z</time></trkpt><trkpt lat="45.5795703" lon="12.3532786"><ele>2.0</ele><time>2026-04-24T17:22:55.035Z</time></trkpt><trkpt lat="45.5795267" lon="12.3532133"><ele>2.0</ele><time>2026-04-24T17:22:56.025Z</time></trkpt><trkpt lat="45.5794594" lon="12.3530747"><ele>2.0</ele><time>2026-04-24T17:22:58.031Z</time></trkpt><trkpt lat="45.5794148" lon="12.3529266"><ele>2.0</ele><time>2026-04-24T17:23:00.04Z</time></trkpt><trkpt lat="45.5793889" lon="12.3527719"><ele>2.0</ele><time>2026-04-24T17:23:02.043Z</time></trkpt><trkpt lat="45.5793762" lon="12.3526119"><ele>2.0</ele><time>2026-04-24T17:23:04.041Z</time></trkpt><trkpt lat="45.5793728" lon="12.3524516"><ele>2.0</ele><time>2026-04-24T17:23:06.042Z</time></trkpt><trkpt lat="45.579384" lon="12.3522947"><ele>2.0</ele><time>2026-04-24T17:23:08.025Z</time></trkpt><trkpt lat="45.5793952" lon="12.3521388"><ele>2.0</ele><time>2026-04-24T17:23:10.023Z</time></trkpt><trkpt lat="45.5794255" lon="12.3519904"><ele>2.0</ele><time>2026-04-24T17:23:12.034Z</time></trkpt><trkpt lat="45.5794666" lon="12.3518432"><ele>2.0</ele><time>2026-04-24T17:23:14.041Z</time></trkpt><trkpt lat="45.5795109" lon="12.351697"><ele>2.0</ele><time>2026-04-24T17:23:16.034Z</time></trkpt><trkpt lat="45.5795518" lon="12.3515459"><ele>2.0</ele><time>2026-04-24T17:23:18.024Z</time></trkpt><trkpt lat="45.5796126" lon="12.3514061"><ele>1.8</ele><time>2026-04-24T17:23:20.036Z</time></trkpt><trkpt lat="45.5796655" lon="12.3512633"><ele>1.6</ele><time>2026-04-24T17:23:22.03Z</time></trkpt><trkpt lat="45.5797174" lon="12.351119"><ele>1.4000000000000001</ele><time>2026-04-24T17:23:24.027Z</time></trkpt><trkpt lat="45.5797652" lon="12.3509726"><ele>1.2000000000000002</ele><time>2026-04-24T17:23:26.039Z</time></trkpt><trkpt lat="45.5798129" lon="12.3508323"><ele>1.0</ele><time>2026-04-24T17:23:28.032Z</time></trkpt><trkpt lat="45.5798576" lon="12.3506977"><ele>1.0</ele><time>2026-04-24T17:23:30.031Z</time></trkpt><trkpt lat="45.5798955" lon="12.350563"><ele>1.0</ele><time>2026-04-24T17:23:32.03Z</time></trkpt><trkpt lat="45.5799738" lon="12.3504875"><ele>1.0</ele><time>2026-04-24T17:23:34.026Z</time></trkpt><trkpt lat="45.5800499" lon="12.350432"><ele>1.0</ele><time>2026-04-24T17:23:36.03Z</time></trkpt><trkpt lat="45.5801328" lon="12.3504119"><ele>1.0</ele><time>2026-04-24T17:23:38.036Z</time></trkpt><trkpt lat="45.5802191" lon="12.3504594"><ele>1.0</ele><time>2026-04-24T17:23:40.034Z</time></trkpt><trkpt lat="45.5803043" lon="12.3505257"><ele>1.0</ele><time>2026-04-24T17:23:42.024Z</time></trkpt><trkpt lat="45.580396" lon="12.350592"><ele>1.0</ele><time>2026-04-24T17:23:44.025Z</time></trkpt><trkpt lat="45.5804901" lon="12.3506618"><ele>1.0</ele><time>2026-04-24T17:23:46.028Z</time></trkpt><trkpt lat="45.5805876" lon="12.3507194"><ele>1.0</ele><time>2026-04-24T17:23:48.041Z</time></trkpt><trkpt lat="45.5806861" lon="12.3507781"><ele>1.25</ele><time>2026-04-24T17:23:50.029Z</time></trkpt><trkpt lat="45.5807977" lon="12.3508558"><ele>1.5</ele><time>2026-04-24T17:23:52.027Z</time></trkpt><trkpt lat="45.5809042" lon="12.3509298"><ele>1.75</ele><time>2026-04-24T17:23:54.037Z</time></trkpt><trkpt lat="45.581" lon="12.3509907"><ele>2.0</ele><time>2026-04-24T17:23:56.035Z</time></trkpt><trkpt lat="45.5810986" lon="12.3510552"><ele>2.4000000000000004</ele><time>2026-04-24T17:23:58.032Z</time></trkpt><trkpt lat="45.581194" lon="12.3511228"><ele>2.8000000000000003</ele><time>2026-04-24T17:24:00.042Z</time></trkpt><trkpt lat="45.5812959" lon="12.3511926"><ele>3.2</ele><time>2026-04-24T17:24:02.033Z</time></trkpt><trkpt lat="45.5813901" lon="12.3512535"><ele>3.6</ele><time>2026-04-24T17:24:04.038Z</time></trkpt><trkpt lat="45.5814863" lon="12.3513108"><ele>4.0</ele><time>2026-04-24T17:24:06.032Z</time></trkpt><trkpt lat="45.581579" lon="12.3513694"><ele>3.8000000000000003</ele><time>2026-04-24T17:24:08.02Z</time></trkpt><trkpt lat="45.5816647" lon="12.351426"><ele>3.6000000000000005</ele><time>2026-04-24T17:24:10.034Z</time></trkpt><trkpt lat="45.5817534" lon="12.3514851"><ele>3.4</ele><time>2026-04-24T17:24:12.036Z</time></trkpt><trkpt lat="45.5818427" lon="12.3515436"><ele>3.2</ele><time>2026-04-24T17:24:14.03Z</time></trkpt><trkpt lat="45.5819322" lon="12.3515988"><ele>3.0</ele><time>2026-04-24T17:24:16.051Z</time></trkpt><trkpt lat="45.582031" lon="12.3516582"><ele>3.0</ele><time>2026-04-24T17:24:18.05Z</time></trkpt><trkpt lat="45.582133" lon="12.3517191"><ele>3.0</ele><time>2026-04-24T17:24:20.019Z</time></trkpt><trkpt lat="45.5822308" lon="12.3517864"><ele>3.0</ele><time>2026-04-24T17:24:22.035Z</time></trkpt><trkpt lat="45.582336" lon="12.3518579"><ele>3.0</ele><time>2026-04-24T17:24:24.046Z</time></trkpt><trkpt lat="45.5824185" lon="12.3519059"><ele>3.0</ele><time>2026-04-24T17:24:26.041Z</time></trkpt><trkpt lat="45.5824784" lon="12.3519478"><ele>3.0</ele><time>2026-04-24T17:24:27.039Z</time></trkpt><trkpt lat="45.5825794" lon="12.3520184"><ele>3.0</ele><time>2026-04-24T17:24:29.037Z</time></trkpt><trkpt lat="45.5826706" lon="12.3521161"><ele>3.0</ele><time>2026-04-24T17:24:31.041Z</time></trkpt><trkpt lat="45.582783" lon="12.3521764"><ele>3.0</ele><time>2026-04-24T17:24:33.035Z</time></trkpt><trkpt lat="45.5828968" lon="12.3522134"><ele>3.0</ele><time>2026-04-24T17:24:35.029Z</time></trkpt><trkpt lat="45.5830051" lon="12.3522791"><ele>3.0</ele><time>2026-04-24T17:24:37.044Z</time></trkpt><trkpt lat="45.5831055" lon="12.3523402"><ele>3.0</ele><time>2026-04-24T17:24:39.036Z</time></trkpt><trkpt lat="45.5832135" lon="12.3524119"><ele>3.0</ele><time>2026-04-24T17:24:41.049Z</time></trkpt><trkpt lat="45.5833098" lon="12.3524816"><ele>3.0</ele><time>2026-04-24T17:24:43.044Z</time></trkpt><trkpt lat="45.583413" lon="12.3525548"><ele>3.0</ele><time>2026-04-24T17:24:45.025Z</time></trkpt><trkpt lat="45.5835038" lon="12.3526167"><ele>3.0</ele><time>2026-04-24T17:24:47.059Z</time></trkpt><trkpt lat="45.5835648" lon="12.3526643"><ele>3.0</ele><time>2026-04-24T17:24:48.02Z</time></trkpt><trkpt lat="45.5836178" lon="12.3527174"><ele>3.0</ele><time>2026-04-24T17:24:49.025Z</time></trkpt><trkpt lat="45.5836749" lon="12.3527816"><ele>3.0</ele><time>2026-04-24T17:24:50.019Z</time></trkpt><trkpt lat="45.5837163" lon="12.3528569"><ele>2.5</ele><time>2026-04-24T17:24:51.039Z</time></trkpt><trkpt lat="45.5837792" lon="12.3530124"><ele>2.0</ele><time>2026-04-24T17:24:53.029Z</time></trkpt><trkpt lat="45.5838541" lon="12.3531383"><ele>1.5</ele><time>2026-04-24T17:24:55.038Z</time></trkpt><trkpt lat="45.5839675" lon="12.3531624"><ele>1.0</ele><time>2026-04-24T17:24:57.031Z</time></trkpt><trkpt lat="45.5840878" lon="12.3531021"><ele>0.9999999999999999</ele><time>2026-04-24T17:24:59.031Z</time></trkpt><trkpt lat="45.5841386" lon="12.3530392"><ele>1.0</ele><time>2026-04-24T17:25:00.042Z</time></trkpt><trkpt lat="45.5841741" lon="12.3529628"><ele>1.0</ele><time>2026-04-24T17:25:01.017Z</time></trkpt><trkpt lat="45.5842017" lon="12.3528816"><ele>1.0</ele><time>2026-04-24T17:25:02.036Z</time></trkpt><trkpt lat="45.5842502" lon="12.3527227"><ele>0.9999999999999999</ele><time>2026-04-24T17:25:04.045Z</time></trkpt><trkpt lat="45.584286" lon="12.3525722"><ele>1.0</ele><time>2026-04-24T17:25:06.028Z</time></trkpt><trkpt lat="45.5843589" lon="12.3524511"><ele>1.0</ele><time>2026-04-24T17:25:08.038Z</time></trkpt><trkpt lat="45.5844137" lon="12.3523196"><ele>1.0</ele><time>2026-04-24T17:25:10.02Z</time></trkpt><trkpt lat="45.5844577" lon="12.3521948"><ele>1.0</ele><time>2026-04-24T17:25:12.046Z</time></trkpt><trkpt lat="45.5844855" lon="12.3520768"><ele>1.0</ele><time>2026-04-24T17:25:14.024Z</time></trkpt><trkpt lat="45.5845196" lon="12.3519579"><ele>1.0</ele><time>2026-04-24T17:25:16.034Z</time></trkpt><trkpt lat="45.584548" lon="12.3518339"><ele>1.6</ele><time>2026-04-24T17:25:18.026Z</time></trkpt><trkpt lat="45.5845835" lon="12.3516994"><ele>2.2</ele><time>2026-04-24T17:25:20.038Z</time></trkpt><trkpt lat="45.5846156" lon="12.351571"><ele>2.8000000000000003</ele><time>2026-04-24T17:25:22.042Z</time></trkpt><trkpt lat="45.5846559" lon="12.351451"><ele>3.4000000000000004</ele><time>2026-04-24T17:25:24.034Z</time></trkpt><trkpt lat="45.5846907" lon="12.3513399"><ele>4.0</ele><time>2026-04-24T17:25:26.019Z</time></trkpt><trkpt lat="45.5847208" lon="12.3512249"><ele>3.9999999999999996</ele><time>2026-04-24T17:25:28.026Z</time></trkpt><trkpt lat="45.5847637" lon="12.351129"><ele>4.0</ele><time>2026-04-24T17:25:30.039Z</time></trkpt><trkpt lat="45.5848052" lon="12.351052"><ele>4.0</ele><time>2026-04-24T17:25:32.029Z</time></trkpt><trkpt lat="45.5848387" lon="12.3509586"><ele>4.0</ele><time>2026-04-24T17:25:34.039Z</time></trkpt><trkpt lat="45.5848655" lon="12.3508043"><ele>3.9999999999999996</ele><time>2026-04-24T17:25:36.021Z</time></trkpt><trkpt lat="45.5848821" lon="12.3506639"><ele>4.0</ele><time>2026-04-24T17:25:38.032Z</time></trkpt><trkpt lat="45.5849158" lon="12.3505845"><ele>3.6666666666666665</ele><time>2026-04-24T17:25:40.02Z</time></trkpt><trkpt lat="45.58496" lon="12.3505058"><ele>3.333333333333333</ele><time>2026-04-24T17:25:42.03Z</time></trkpt><trkpt lat="45.5849867" lon="12.3504217"><ele>3.0</ele><time>2026-04-24T17:25:44.04Z</time></trkpt><trkpt lat="45.5850298" lon="12.3502977"><ele>2.6666666666666665</ele><time>2026-04-24T17:25:46.029Z</time></trkpt><trkpt lat="45.5850639" lon="12.3501932"><ele>2.333333333333333</ele><time>2026-04-24T17:25:48.025Z</time></trkpt><trkpt lat="45.5850975" lon="12.3500712"><ele>2.0</ele><time>2026-04-24T17:25:50.026Z</time></trkpt><trkpt lat="45.5851383" lon="12.3499486"><ele>2.0</ele><time>2026-04-24T17:25:52.026Z</time></trkpt><trkpt lat="45.5851794" lon="12.3498217"><ele>2.0</ele><time>2026-04-24T17:25:54.032Z</time></trkpt><trkpt lat="45.5852216" lon="12.3496878"><ele>2.0</ele><time>2026-04-24T17:25:56.043Z</time></trkpt><trkpt lat="45.5852514" lon="12.3495702"><ele>2.0</ele><time>2026-04-24T17:25:58.028Z</time></trkpt><trkpt lat="45.5852945" lon="12.349447"><ele>2.0</ele><time>2026-04-24T17:26:00.035Z</time></trkpt><trkpt lat="45.5853397" lon="12.3493155"><ele>2.2</ele><time>2026-04-24T17:26:02.023Z</time></trkpt><trkpt lat="45.5853822" lon="12.3491704"><ele>2.4000000000000004</ele><time>2026-04-24T17:26:04.024Z</time></trkpt><trkpt lat="45.585418" lon="12.3490343"><ele>2.5999999999999996</ele><time>2026-04-24T17:26:06.045Z</time></trkpt><trkpt lat="45.5854597" lon="12.348894"><ele>2.8</ele><time>2026-04-24T17:26:08.041Z</time></trkpt><trkpt lat="45.5854868" lon="12.3488051"><ele>3.0</ele><time>2026-04-24T17:26:10.03Z</time></trkpt><trkpt lat="45.5855285" lon="12.3486489"><ele>3.0</ele><time>2026-04-24T17:26:12.023Z</time></trkpt><trkpt lat="45.5855778" lon="12.3485042"><ele>3.0</ele><time>2026-04-24T17:26:14.022Z</time></trkpt><trkpt lat="45.5856183" lon="12.3483984"><ele>3.0</ele><time>2026-04-24T17:26:16.024Z</time></trkpt><trkpt lat="45.5856524" lon="12.3482787"><ele>3.0</ele><time>2026-04-24T17:26:18.032Z</time></trkpt><trkpt lat="45.5856961" lon="12.3481517"><ele>3.0</ele><time>2026-04-24T17:26:20.03Z</time></trkpt><trkpt lat="45.5857381" lon="12.3480325"><ele>3.0</ele><time>2026-04-24T17:26:22.03Z</time></trkpt><trkpt lat="45.5857713" lon="12.347935"><ele>3.0</ele><time>2026-04-24T17:26:26.046Z</time></trkpt><trkpt lat="45.5857947" lon="12.3478256"><ele>3.0</ele><time>2026-04-24T17:26:29.025Z</time></trkpt><trkpt lat="45.585824" lon="12.3477347"><ele>3.0</ele><time>2026-04-24T17:26:31.031Z</time></trkpt><trkpt lat="45.5858575" lon="12.3476212"><ele>3.0</ele><time>2026-04-24T17:26:33.032Z</time></trkpt><trkpt lat="45.5858924" lon="12.3475103"><ele>3.0</ele><time>2026-04-24T17:26:35.021Z</time></trkpt><trkpt lat="45.585936" lon="12.3473927"><ele>3.0</ele><time>2026-04-24T17:26:37.025Z</time></trkpt><trkpt lat="45.5859651" lon="12.3472657"><ele>3.0</ele><time>2026-04-24T17:26:39.033Z</time></trkpt><trkpt lat="45.5859974" lon="12.3471569"><ele>3.0</ele><time>2026-04-24T17:26:41.032Z</time></trkpt><trkpt lat="45.5860479" lon="12.3470072"><ele>3.0</ele><time>2026-04-24T17:26:43.038Z</time></trkpt><trkpt lat="45.5860885" lon="12.3469155"><ele>3.0</ele><time>2026-04-24T17:26:45.024Z</time></trkpt><trkpt lat="45.5861237" lon="12.3468109"><ele>3.0</ele><time>2026-04-24T17:26:47.027Z</time></trkpt><trkpt lat="45.5861551" lon="12.3467071"><ele>3.0</ele><time>2026-04-24T17:26:49.024Z</time></trkpt><trkpt lat="45.5861873" lon="12.3466095"><ele>3.0</ele><time>2026-04-24T17:26:51.041Z</time></trkpt><trkpt lat="45.5862237" lon="12.3464995"><ele>3.0</ele><time>2026-04-24T17:26:53.036Z</time></trkpt><trkpt lat="45.5862595" lon="12.3463841"><ele>3.0</ele><time>2026-04-24T17:26:55.034Z</time></trkpt><trkpt lat="45.5862919" lon="12.3462627"><ele>3.0</ele><time>2026-04-24T17:26:57.029Z</time></trkpt><trkpt lat="45.5863249" lon="12.3461405"><ele>3.2</ele><time>2026-04-24T17:26:59.021Z</time></trkpt><trkpt lat="45.586367" lon="12.3460125"><ele>3.4</ele><time>2026-04-24T17:27:01.018Z</time></trkpt><trkpt lat="45.5864159" lon="12.3458893"><ele>3.6000000000000005</ele><time>2026-04-24T17:27:03.031Z</time></trkpt><trkpt lat="45.586452" lon="12.3457667"><ele>3.8000000000000003</ele><time>2026-04-24T17:27:05.018Z</time></trkpt><trkpt lat="45.586485" lon="12.3456502"><ele>4.0</ele><time>2026-04-24T17:27:07.027Z</time></trkpt><trkpt lat="45.5865194" lon="12.3455186"><ele>4.0</ele><time>2026-04-24T17:27:09.033Z</time></trkpt><trkpt lat="45.5865608" lon="12.345368"><ele>4.0</ele><time>2026-04-24T17:27:11.029Z</time></trkpt><trkpt lat="45.5866066" lon="12.3452296"><ele>4.0</ele><time>2026-04-24T17:27:13.032Z</time></trkpt><trkpt lat="45.586646" lon="12.3451057"><ele>4.0</ele><time>2026-04-24T17:27:15.039Z</time></trkpt><trkpt lat="45.586679" lon="12.3449883"><ele>4.0</ele><time>2026-04-24T17:27:17.036Z</time></trkpt><trkpt lat="45.5867187" lon="12.3448739"><ele>4.0</ele><time>2026-04-24T17:27:19.029Z</time></trkpt><trkpt lat="45.5867541" lon="12.3447337"><ele>4.0</ele><time>2026-04-24T17:27:21.033Z</time></trkpt><trkpt lat="45.5867944" lon="12.3445927"><ele>4.0</ele><time>2026-04-24T17:27:23.038Z</time></trkpt><trkpt lat="45.5868192" lon="12.3444547"><ele>4.0</ele><time>2026-04-24T17:27:25.048Z</time></trkpt><trkpt lat="45.586838" lon="12.3443382"><ele>4.0</ele><time>2026-04-24T17:27:27.023Z</time></trkpt><trkpt lat="45.5868602" lon="12.3442271"><ele>3.833333333333333</ele><time>2026-04-24T17:27:29.042Z</time></trkpt><trkpt lat="45.5868799" lon="12.3441009"><ele>3.6666666666666665</ele><time>2026-04-24T17:27:31.029Z</time></trkpt><trkpt lat="45.5868991" lon="12.3439714"><ele>3.5</ele><time>2026-04-24T17:27:33.022Z</time></trkpt><trkpt lat="45.5869038" lon="12.3438624"><ele>3.333333333333333</ele><time>2026-04-24T17:27:35.036Z</time></trkpt><trkpt lat="45.5869063" lon="12.3437652"><ele>3.1666666666666665</ele><time>2026-04-24T17:27:37.022Z</time></trkpt><trkpt lat="45.5869008" lon="12.3436589"><ele>3.0</ele><time>2026-04-24T17:27:39.027Z</time></trkpt><trkpt lat="45.5869149" lon="12.3435282"><ele>2.8</ele><time>2026-04-24T17:27:41.028Z</time></trkpt><trkpt lat="45.5869158" lon="12.3433933"><ele>2.5999999999999996</ele><time>2026-04-24T17:27:43.027Z</time></trkpt><trkpt lat="45.5869247" lon="12.343257"><ele>2.4000000000000004</ele><time>2026-04-24T17:27:45.021Z</time></trkpt><trkpt lat="45.5869357" lon="12.3431051"><ele>2.2</ele><time>2026-04-24T17:27:47.023Z</time></trkpt><trkpt lat="45.5869447" lon="12.3429623"><ele>2.0</ele><time>2026-04-24T17:27:49.025Z</time></trkpt><trkpt lat="45.5869645" lon="12.3428168"><ele>1.8</ele><time>2026-04-24T17:27:51.028Z</time></trkpt><trkpt lat="45.5869818" lon="12.3426687"><ele>1.6</ele><time>2026-04-24T17:27:53.027Z</time></trkpt><trkpt lat="45.5869932" lon="12.3425232"><ele>1.4000000000000001</ele><time>2026-04-24T17:27:55.021Z</time></trkpt><trkpt lat="45.5869945" lon="12.3423727"><ele>1.2000000000000002</ele><time>2026-04-24T17:27:57.032Z</time></trkpt><trkpt lat="45.5870087" lon="12.3422193"><ele>1.0</ele><time>2026-04-24T17:27:59.024Z</time></trkpt><trkpt lat="45.5870299" lon="12.3420864"><ele>1.0</ele><time>2026-04-24T17:28:01.027Z</time></trkpt><trkpt lat="45.5870439" lon="12.3419685"><ele>1.0</ele><time>2026-04-24T17:28:03.027Z</time></trkpt><trkpt lat="45.5870671" lon="12.341828"><ele>1.0</ele><time>2026-04-24T17:28:05.029Z</time></trkpt><trkpt lat="45.5870924" lon="12.3417001"><ele>1.0</ele><time>2026-04-24T17:28:07.042Z</time></trkpt><trkpt lat="45.5871301" lon="12.3415679"><ele>1.0</ele><time>2026-04-24T17:28:09.031Z</time></trkpt><trkpt lat="45.5871707" lon="12.3414439"><ele>1.2000000000000002</ele><time>2026-04-24T17:28:11.029Z</time></trkpt><trkpt lat="45.5872312" lon="12.3413139"><ele>1.4000000000000001</ele><time>2026-04-24T17:28:13.024Z</time></trkpt><trkpt lat="45.5873022" lon="12.3411883"><ele>1.6</ele><time>2026-04-24T17:28:15.023Z</time></trkpt><trkpt lat="45.5873519" lon="12.3411237"><ele>1.8</ele><time>2026-04-24T17:28:16.024Z</time></trkpt><trkpt lat="45.5874298" lon="12.3410453"><ele>2.0</ele><time>2026-04-24T17:28:18.026Z</time></trkpt><trkpt lat="45.5875222" lon="12.3409684"><ele>2.0</ele><time>2026-04-24T17:28:20.024Z</time></trkpt><trkpt lat="45.5876019" lon="12.3409041"><ele>2.0</ele><time>2026-04-24T17:28:22.027Z</time></trkpt><trkpt lat="45.5876774" lon="12.3408019"><ele>2.0</ele><time>2026-04-24T17:28:24.023Z</time></trkpt><trkpt lat="45.5877391" lon="12.340716"><ele>2.0</ele><time>2026-04-24T17:28:26.025Z</time></trkpt><trkpt lat="45.5878032" lon="12.3406225"><ele>2.0</ele><time>2026-04-24T17:28:28.039Z</time></trkpt><trkpt lat="45.5878906" lon="12.3405103"><ele>2.6</ele><time>2026-04-24T17:28:30.023Z</time></trkpt><trkpt lat="45.5879466" lon="12.3404319"><ele>3.2</ele><time>2026-04-24T17:28:31.022Z</time></trkpt><trkpt lat="45.5880328" lon="12.3403148"><ele>3.8</ele><time>2026-04-24T17:28:33.018Z</time></trkpt><trkpt lat="45.5881149" lon="12.3402162"><ele>4.4</ele><time>2026-04-24T17:28:35.03Z</time></trkpt><trkpt lat="45.5881872" lon="12.3401175"><ele>5.0</ele><time>2026-04-24T17:28:37.021Z</time></trkpt><trkpt lat="45.5882523" lon="12.3400305"><ele>5.0</ele><time>2026-04-24T17:28:39.03Z</time></trkpt><trkpt lat="45.5883154" lon="12.3399595"><ele>5.0</ele><time>2026-04-24T17:28:41.019Z</time></trkpt><trkpt lat="45.5883949" lon="12.3398809"><ele>5.0</ele><time>2026-04-24T17:28:43.022Z</time></trkpt><trkpt lat="45.588489" lon="12.3397747"><ele>5.0</ele><time>2026-04-24T17:28:45.025Z</time></trkpt><trkpt lat="45.58856" lon="12.339683"><ele>5.0</ele><time>2026-04-24T17:28:47.034Z</time></trkpt><trkpt lat="45.588607" lon="12.3396225"><ele>4.8</ele><time>2026-04-24T17:28:48.02Z</time></trkpt><trkpt lat="45.588691" lon="12.3395171"><ele>4.6</ele><time>2026-04-24T17:28:50.02Z</time></trkpt><trkpt lat="45.5887547" lon="12.3394305"><ele>4.4</ele><time>2026-04-24T17:28:52.023Z</time></trkpt><trkpt lat="45.5888175" lon="12.3393423"><ele>4.2</ele><time>2026-04-24T17:28:54.023Z</time></trkpt><trkpt lat="45.5888861" lon="12.3392544"><ele>4.0</ele><time>2026-04-24T17:28:56.034Z</time></trkpt><trkpt lat="45.588974" lon="12.3391509"><ele>3.9999999999999996</ele><time>2026-04-24T17:28:58.039Z</time></trkpt><trkpt lat="45.5890488" lon="12.3390661"><ele>4.0</ele><time>2026-04-24T17:29:00.056Z</time></trkpt><trkpt lat="45.5890999" lon="12.3390107"><ele>4.0</ele><time>2026-04-24T17:29:01.036Z</time></trkpt><trkpt lat="45.5891676" lon="12.3389382"><ele>4.0</ele><time>2026-04-24T17:29:03.024Z</time></trkpt><trkpt lat="45.5892357" lon="12.3388738"><ele>3.9999999999999996</ele><time>2026-04-24T17:29:05.022Z</time></trkpt><trkpt lat="45.5893041" lon="12.338805"><ele>4.0</ele><time>2026-04-24T17:29:07.037Z</time></trkpt><trkpt lat="45.5893717" lon="12.3387258"><ele>3.6</ele><time>2026-04-24T17:29:09.025Z</time></trkpt><trkpt lat="45.5894525" lon="12.3386791"><ele>3.2</ele><time>2026-04-24T17:29:11.024Z</time></trkpt><trkpt lat="45.5895277" lon="12.3386335"><ele>2.8000000000000003</ele><time>2026-04-24T17:29:13.024Z</time></trkpt><trkpt lat="45.5896122" lon="12.3385666"><ele>2.4000000000000004</ele><time>2026-04-24T17:29:15.03Z</time></trkpt><trkpt lat="45.5896891" lon="12.3385053"><ele>2.0</ele><time>2026-04-24T17:29:17.028Z</time></trkpt><trkpt lat="45.5897618" lon="12.3384151"><ele>1.8</ele><time>2026-04-24T17:29:19.023Z</time></trkpt><trkpt lat="45.5898364" lon="12.338315"><ele>1.6</ele><time>2026-04-24T17:29:21.02Z</time></trkpt><trkpt lat="45.5898934" lon="12.3382548"><ele>1.4000000000000001</ele><time>2026-04-24T17:29:23.019Z</time></trkpt><trkpt lat="45.5899775" lon="12.3381616"><ele>1.2000000000000002</ele><time>2026-04-24T17:29:25.026Z</time></trkpt><trkpt lat="45.5900418" lon="12.338073"><ele>1.0</ele><time>2026-04-24T17:29:27.048Z</time></trkpt><trkpt lat="45.5901218" lon="12.3379839"><ele>1.3333333333333333</ele><time>2026-04-24T17:29:29.044Z</time></trkpt><trkpt lat="45.5901948" lon="12.3379217"><ele>1.6666666666666665</ele><time>2026-04-24T17:29:31.03Z</time></trkpt><trkpt lat="45.590265" lon="12.3378655"><ele>2.0</ele><time>2026-04-24T17:29:33.038Z</time></trkpt><trkpt lat="45.5903079" lon="12.3377774"><ele>2.3333333333333335</ele><time>2026-04-24T17:29:35.028Z</time></trkpt><trkpt lat="45.5903348" lon="12.3376816"><ele>2.6666666666666665</ele><time>2026-04-24T17:29:37.033Z</time></trkpt><trkpt lat="45.5903554" lon="12.3375953"><ele>3.0</ele><time>2026-04-24T17:29:40.037Z</time></trkpt><trkpt lat="45.5904227" lon="12.3375085"><ele>3.2</ele><time>2026-04-24T17:29:43.021Z</time></trkpt><trkpt lat="45.5904875" lon="12.33743"><ele>3.4</ele><time>2026-04-24T17:29:45.024Z</time></trkpt><trkpt lat="45.590558" lon="12.3373391"><ele>3.6000000000000005</ele><time>2026-04-24T17:29:47.032Z</time></trkpt><trkpt lat="45.590636" lon="12.3372465"><ele>3.8000000000000003</ele><time>2026-04-24T17:29:49.034Z</time></trkpt><trkpt lat="45.5907133" lon="12.3371668"><ele>4.0</ele><time>2026-04-24T17:29:51.027Z</time></trkpt><trkpt lat="45.590786" lon="12.3370834"><ele>3.6</ele><time>2026-04-24T17:29:53.032Z</time></trkpt><trkpt lat="45.5908562" lon="12.3370067"><ele>3.2</ele><time>2026-04-24T17:29:55.027Z</time></trkpt><trkpt lat="45.5909316" lon="12.3369046"><ele>2.8000000000000003</ele><time>2026-04-24T17:29:57.026Z</time></trkpt><trkpt lat="45.5910082" lon="12.3368114"><ele>2.4000000000000004</ele><time>2026-04-24T17:29:59.022Z</time></trkpt><trkpt lat="45.591096" lon="12.3367363"><ele>2.0</ele><time>2026-04-24T17:30:01.023Z</time></trkpt><trkpt lat="45.5911926" lon="12.3366666"><ele>1.6</ele><time>2026-04-24T17:30:03.024Z</time></trkpt><trkpt lat="45.5912903" lon="12.3365815"><ele>1.2000000000000002</ele><time>2026-04-24T17:30:05.04Z</time></trkpt><trkpt lat="45.5913773" lon="12.3365005"><ele>0.8</ele><time>2026-04-24T17:30:07.046Z</time></trkpt><trkpt lat="45.5914529" lon="12.3364004"><ele>0.4</ele><time>2026-04-24T17:30:09.028Z</time></trkpt><trkpt lat="45.5915232" lon="12.336289"><ele>0.0</ele><time>2026-04-24T17:30:11.031Z</time></trkpt><trkpt lat="45.5915824" lon="12.3361691"><ele>0.6</ele><time>2026-04-24T17:30:13.03Z</time></trkpt><trkpt lat="45.5916527" lon="12.3360299"><ele>1.2</ele><time>2026-04-24T17:30:15.031Z</time></trkpt><trkpt lat="45.5917295" lon="12.3359232"><ele>1.7999999999999998</ele><time>2026-04-24T17:30:17.039Z</time></trkpt><trkpt lat="45.5917997" lon="12.3358124"><ele>2.4</ele><time>2026-04-24T17:30:19.029Z</time></trkpt><trkpt lat="45.5918492" lon="12.3357014"><ele>3.0</ele><time>2026-04-24T17:30:21.028Z</time></trkpt><trkpt lat="45.5918851" lon="12.3355531"><ele>3.0</ele><time>2026-04-24T17:30:23.031Z</time></trkpt><trkpt lat="45.5919251" lon="12.3354432"><ele>3.0</ele><time>2026-04-24T17:30:25.027Z</time></trkpt><trkpt lat="45.591966" lon="12.3353098"><ele>3.0</ele><time>2026-04-24T17:30:27.023Z</time></trkpt><trkpt lat="45.591996" lon="12.3351951"><ele>3.0</ele><time>2026-04-24T17:30:29.035Z</time></trkpt><trkpt lat="45.5920199" lon="12.3350617"><ele>3.0</ele><time>2026-04-24T17:30:31.028Z</time></trkpt><trkpt lat="45.5920707" lon="12.33497"><ele>3.0</ele><time>2026-04-24T17:30:33.03Z</time></trkpt><trkpt lat="45.592148" lon="12.3348949"><ele>3.0</ele><time>2026-04-24T17:30:35.03Z</time></trkpt><trkpt lat="45.5922379" lon="12.334788"><ele>3.0</ele><time>2026-04-24T17:30:37.027Z</time></trkpt><trkpt lat="45.5923341" lon="12.3346812"><ele>3.0</ele><time>2026-04-24T17:30:39.046Z</time></trkpt><trkpt lat="45.592415" lon="12.3345692"><ele>3.0</ele><time>2026-04-24T17:30:41.034Z</time></trkpt><trkpt lat="45.5924937" lon="12.3344461"><ele>3.0</ele><time>2026-04-24T17:30:43.029Z</time></trkpt><trkpt lat="45.5925463" lon="12.3343732"><ele>3.0</ele><time>2026-04-24T17:30:44.023Z</time></trkpt><trkpt lat="45.5926396" lon="12.3342629"><ele>3.0</ele><time>2026-04-24T17:30:46.023Z</time></trkpt><trkpt lat="45.5926909" lon="12.3342044"><ele>3.0</ele><time>2026-04-24T17:30:47.03Z</time></trkpt><trkpt lat="45.5927635" lon="12.3341038"><ele>3.0</ele><time>2026-04-24T17:30:49.036Z</time></trkpt><trkpt lat="45.5928123" lon="12.3340399"><ele>3.0</ele><time>2026-04-24T17:30:50.043Z</time></trkpt><trkpt lat="45.5928559" lon="12.3339623"><ele>3.2</ele><time>2026-04-24T17:30:51.046Z</time></trkpt><trkpt lat="45.5928994" lon="12.3338949"><ele>3.4</ele><time>2026-04-24T17:30:52.04Z</time></trkpt><trkpt lat="45.5929844" lon="12.3337663"><ele>3.6000000000000005</ele><time>2026-04-24T17:30:54.036Z</time></trkpt><trkpt lat="45.5930677" lon="12.3336537"><ele>3.8000000000000003</ele><time>2026-04-24T17:30:56.031Z</time></trkpt><trkpt lat="45.5931632" lon="12.3335677"><ele>4.0</ele><time>2026-04-24T17:30:58.042Z</time></trkpt><trkpt lat="45.5932598" lon="12.3335005"><ele>4.0</ele><time>2026-04-24T17:31:00.023Z</time></trkpt><trkpt lat="45.5933522" lon="12.3334578"><ele>4.0</ele><time>2026-04-24T17:31:02.035Z</time></trkpt><trkpt lat="45.59344" lon="12.3334192"><ele>4.0</ele><time>2026-04-24T17:31:04.031Z</time></trkpt><trkpt lat="45.5935297" lon="12.3333534"><ele>4.0</ele><time>2026-04-24T17:31:06.047Z</time></trkpt><trkpt lat="45.5936158" lon="12.3332648"><ele>4.0</ele><time>2026-04-24T17:31:08.052Z</time></trkpt><trkpt lat="45.5936966" lon="12.3331667"><ele>4.2</ele><time>2026-04-24T17:31:10.039Z</time></trkpt><trkpt lat="45.5937717" lon="12.3330624"><ele>4.4</ele><time>2026-04-24T17:31:12.046Z</time></trkpt><trkpt lat="45.5938416" lon="12.3329654"><ele>4.6</ele><time>2026-04-24T17:31:14.033Z</time></trkpt><trkpt lat="45.5939103" lon="12.3328758"><ele>4.8</ele><time>2026-04-24T17:31:16.047Z</time></trkpt><trkpt lat="45.5939694" lon="12.3327933"><ele>5.0</ele><time>2026-04-24T17:31:18.053Z</time></trkpt><trkpt lat="45.5940138" lon="12.3326943"><ele>4.6</ele><time>2026-04-24T17:31:20.052Z</time></trkpt><trkpt lat="45.5940764" lon="12.3326185"><ele>4.2</ele><time>2026-04-24T17:31:22.023Z</time></trkpt><trkpt lat="45.5941407" lon="12.3325181"><ele>3.8</ele><time>2026-04-24T17:31:24.031Z</time></trkpt><trkpt lat="45.5942117" lon="12.3324088"><ele>3.4</ele><time>2026-04-24T17:31:26.032Z</time></trkpt><trkpt lat="45.5942861" lon="12.3322976"><ele>3.0</ele><time>2026-04-24T17:31:28.03Z</time></trkpt><trkpt lat="45.5943614" lon="12.3321847"><ele>3.0</ele><time>2026-04-24T17:31:30.03Z</time></trkpt><trkpt lat="45.5944395" lon="12.3320717"><ele>3.0</ele><time>2026-04-24T17:31:32.024Z</time></trkpt><trkpt lat="45.5945193" lon="12.3319562"><ele>3.0</ele><time>2026-04-24T17:31:34.023Z</time></trkpt><trkpt lat="45.5945995" lon="12.3318434"><ele>3.0</ele><time>2026-04-24T17:31:36.03Z</time></trkpt><trkpt lat="45.5946736" lon="12.3317336"><ele>3.0</ele><time>2026-04-24T17:31:38.029Z</time></trkpt><trkpt lat="45.5947241" lon="12.3316293"><ele>3.0</ele><time>2026-04-24T17:31:40.028Z</time></trkpt><trkpt lat="45.5947454" lon="12.3315146"><ele>3.0</ele><time>2026-04-24T17:31:42.048Z</time></trkpt><trkpt lat="45.5947245" lon="12.3313477"><ele>3.0</ele><time>2026-04-24T17:31:44.053Z</time></trkpt><trkpt lat="45.5947186" lon="12.3312365"><ele>3.0</ele><time>2026-04-24T17:31:46.044Z</time></trkpt><trkpt lat="45.5947179" lon="12.3311078"><ele>3.0</ele><time>2026-04-24T17:31:48.026Z</time></trkpt><trkpt lat="45.5947099" lon="12.3309992"><ele>3.0</ele><time>2026-04-24T17:31:50.035Z</time></trkpt><trkpt lat="45.5947672" lon="12.3308984"><ele>2.8333333333333335</ele><time>2026-04-24T17:31:53.048Z</time></trkpt><trkpt lat="45.5948608" lon="12.3309048"><ele>2.6666666666666665</ele><time>2026-04-24T17:31:55.038Z</time></trkpt><trkpt lat="45.5949495" lon="12.3308977"><ele>2.5</ele><time>2026-04-24T17:31:57.029Z</time></trkpt><trkpt lat="45.5950435" lon="12.3308958"><ele>2.333333333333333</ele><time>2026-04-24T17:31:59.034Z</time></trkpt><trkpt lat="45.595136" lon="12.3309027"><ele>2.1666666666666665</ele><time>2026-04-24T17:32:01.041Z</time></trkpt><trkpt lat="45.5952078" lon="12.3308607"><ele>2.0</ele><time>2026-04-24T17:32:03.033Z</time></trkpt><trkpt lat="45.595234" lon="12.3307549"><ele>2.0</ele><time>2026-04-24T17:32:05.046Z</time></trkpt><trkpt lat="45.5952148" lon="12.3306307"><ele>2.0</ele><time>2026-04-24T17:32:07.044Z</time></trkpt><trkpt lat="45.5952004" lon="12.3305046"><ele>2.0</ele><time>2026-04-24T17:32:09.025Z</time></trkpt><trkpt lat="45.5951992" lon="12.3303623"><ele>2.0</ele><time>2026-04-24T17:32:11.027Z</time></trkpt><trkpt lat="45.5951908" lon="12.3302455"><ele>2.0</ele><time>2026-04-24T17:32:13.04Z</time></trkpt><trkpt lat="45.5951697" lon="12.3300808"><ele>2.4000000000000004</ele><time>2026-04-24T17:32:15.044Z</time></trkpt><trkpt lat="45.5951535" lon="12.3299517"><ele>2.8000000000000003</ele><time>2026-04-24T17:32:17.05Z</time></trkpt><trkpt lat="45.5951486" lon="12.3298049"><ele>3.2</ele><time>2026-04-24T17:32:19.053Z</time></trkpt><trkpt lat="45.5951458" lon="12.3296901"><ele>3.6</ele><time>2026-04-24T17:32:21.032Z</time></trkpt><trkpt lat="45.5951502" lon="12.3295588"><ele>4.0</ele><time>2026-04-24T17:32:23.045Z</time></trkpt><trkpt lat="45.5951616" lon="12.3294272"><ele>4.166666666666666</ele><time>2026-04-24T17:32:25.033Z</time></trkpt><trkpt lat="45.5951689" lon="12.329296"><ele>4.333333333333333</ele><time>2026-04-24T17:32:27.052Z</time></trkpt><trkpt lat="45.5951846" lon="12.3291584"><ele>4.5</ele><time>2026-04-24T17:32:29.042Z</time></trkpt><trkpt lat="45.5951932" lon="12.3290541"><ele>4.666666666666667</ele><time>2026-04-24T17:32:31.033Z</time></trkpt><trkpt lat="45.5952151" lon="12.3289336"><ele>4.833333333333334</ele><time>2026-04-24T17:32:33.026Z</time></trkpt><trkpt lat="45.5952431" lon="12.3288037"><ele>5.0</ele><time>2026-04-24T17:32:35.042Z</time></trkpt><trkpt lat="45.5952842" lon="12.3286755"><ele>5.142857142857142</ele><time>2026-04-24T17:32:37.028Z</time></trkpt><trkpt lat="45.5953182" lon="12.3285695"><ele>5.285714285714286</ele><time>2026-04-24T17:32:39.047Z</time></trkpt><trkpt lat="45.5953557" lon="12.3284834"><ele>5.428571428571429</ele><time>2026-04-24T17:32:41.027Z</time></trkpt><trkpt lat="45.5953817" lon="12.3283909"><ele>5.571428571428571</ele><time>2026-04-24T17:32:43.025Z</time></trkpt><trkpt lat="45.5954111" lon="12.3283021"><ele>5.714285714285714</ele><time>2026-04-24T17:32:45.033Z</time></trkpt><trkpt lat="45.5954482" lon="12.3282257"><ele>5.857142857142857</ele><time>2026-04-24T17:32:47.036Z</time></trkpt><trkpt lat="45.5954831" lon="12.328143"><ele>6.0</ele><time>2026-04-24T17:32:49.023Z</time></trkpt><trkpt lat="45.5955258" lon="12.3280395"><ele>5.666666666666667</ele><time>2026-04-24T17:32:52.044Z</time></trkpt><trkpt lat="45.5955864" lon="12.3279538"><ele>5.333333333333333</ele><time>2026-04-24T17:32:55.027Z</time></trkpt><trkpt lat="45.5956409" lon="12.3278511"><ele>5.0</ele><time>2026-04-24T17:32:58.023Z</time></trkpt><trkpt lat="45.5957143" lon="12.32779"><ele>4.666666666666666</ele><time>2026-04-24T17:33:01.034Z</time></trkpt><trkpt lat="45.5957996" lon="12.3277193"><ele>4.333333333333333</ele><time>2026-04-24T17:33:04.039Z</time></trkpt><trkpt lat="45.5958598" lon="12.3276741"><ele>4.0</ele><time>2026-04-24T17:33:06.035Z</time></trkpt><trkpt lat="45.5959426" lon="12.3275976"><ele>3.9999999999999996</ele><time>2026-04-24T17:33:09.03Z</time></trkpt><trkpt lat="45.5959978" lon="12.3275521"><ele>4.0</ele><time>2026-04-24T17:33:11.039Z</time></trkpt><trkpt lat="45.5960709" lon="12.3275047"><ele>4.0</ele><time>2026-04-24T17:33:13.037Z</time></trkpt><trkpt lat="45.5961471" lon="12.3274584"><ele>4.0</ele><time>2026-04-24T17:33:15.03Z</time></trkpt><trkpt lat="45.5962063" lon="12.3274218"><ele>3.9999999999999996</ele><time>2026-04-24T17:33:16.054Z</time></trkpt><trkpt lat="45.596286" lon="12.3273796"><ele>4.0</ele><time>2026-04-24T17:33:18.03Z</time></trkpt><trkpt lat="45.5963667" lon="12.3273903"><ele>3.6666666666666665</ele><time>2026-04-24T17:33:20.03Z</time></trkpt><trkpt lat="45.5964421" lon="12.3273894"><ele>3.333333333333333</ele><time>2026-04-24T17:33:22.046Z</time></trkpt><trkpt lat="45.5965083" lon="12.3273821"><ele>3.0</ele><time>2026-04-24T17:33:26.031Z</time></trkpt><trkpt lat="45.5965777" lon="12.3273801"><ele>2.6666666666666665</ele><time>2026-04-24T17:33:30.037Z</time></trkpt><trkpt lat="45.5966683" lon="12.3273811"><ele>2.333333333333333</ele><time>2026-04-24T17:33:34.02Z</time></trkpt><trkpt lat="45.5967552" lon="12.327365"><ele>2.0</ele><time>2026-04-24T17:33:38.047Z</time></trkpt><trkpt lat="45.5968224" lon="12.3273611"><ele>1.9999999999999998</ele><time>2026-04-24T17:33:41.057Z</time></trkpt><trkpt lat="45.596926" lon="12.3273739"><ele>2.0</ele><time>2026-04-24T17:33:43.042Z</time></trkpt><trkpt lat="45.5970109" lon="12.3273707"><ele>2.0</ele><time>2026-04-24T17:33:45.041Z</time></trkpt><trkpt lat="45.5970891" lon="12.3273535"><ele>2.0</ele><time>2026-04-24T17:33:47.035Z</time></trkpt><trkpt lat="45.597171" lon="12.3273309"><ele>1.9999999999999998</ele><time>2026-04-24T17:33:49.029Z</time></trkpt><trkpt lat="45.5972587" lon="12.3273488"><ele>2.0</ele><time>2026-04-24T17:33:52.056Z</time></trkpt><trkpt lat="45.5973114" lon="12.3274121"><ele>2.0</ele><time>2026-04-24T17:33:54.036Z</time></trkpt><trkpt lat="45.5973781" lon="12.3275094"><ele>2.0</ele><time>2026-04-24T17:33:56.032Z</time></trkpt><trkpt lat="45.5974478" lon="12.3276121"><ele>2.0</ele><time>2026-04-24T17:33:58.021Z</time></trkpt><trkpt lat="45.5975061" lon="12.3277402"><ele>2.0</ele><time>2026-04-24T17:34:00.035Z</time></trkpt><trkpt lat="45.5975813" lon="12.327858"><ele>2.0</ele><time>2026-04-24T17:34:02.036Z</time></trkpt><trkpt lat="45.5976454" lon="12.3279413"><ele>1.9999999999999998</ele><time>2026-04-24T17:34:04.034Z</time></trkpt><trkpt lat="45.5976978" lon="12.3280137"><ele>2.0</ele><time>2026-04-24T17:34:06.034Z</time></trkpt><trkpt lat="45.5977682" lon="12.3281016"><ele>2.0</ele><time>2026-04-24T17:34:08.04Z</time></trkpt><trkpt lat="45.5978382" lon="12.3281944"><ele>2.0</ele><time>2026-04-24T17:34:10.039Z</time></trkpt><trkpt lat="45.5979011" lon="12.3282555"><ele>1.9999999999999998</ele><time>2026-04-24T17:34:12.031Z</time></trkpt><trkpt lat="45.5979875" lon="12.3283151"><ele>2.0</ele><time>2026-04-24T17:34:15.035Z</time></trkpt><trkpt lat="45.5980622" lon="12.3283884"><ele>1.8</ele><time>2026-04-24T17:34:17.047Z</time></trkpt><trkpt lat="45.598151" lon="12.3284109"><ele>1.6</ele><time>2026-04-24T17:34:19.022Z</time></trkpt><trkpt lat="45.5982665" lon="12.3283629"><ele>1.4000000000000001</ele><time>2026-04-24T17:34:21.029Z</time></trkpt><trkpt lat="45.598361" lon="12.3283461"><ele>1.2000000000000002</ele><time>2026-04-24T17:34:22.036Z</time></trkpt><trkpt lat="45.5984868" lon="12.3283658"><ele>1.0</ele><time>2026-04-24T17:34:24.024Z</time></trkpt><trkpt lat="45.5985698" lon="12.328374"><ele>1.0</ele><time>2026-04-24T17:34:25.029Z</time></trkpt><trkpt lat="45.5986631" lon="12.3283855"><ele>1.0</ele><time>2026-04-24T17:34:27.029Z</time></trkpt><trkpt lat="45.5987597" lon="12.3283879"><ele>1.0</ele><time>2026-04-24T17:34:29.033Z</time></trkpt><trkpt lat="45.5988258" lon="12.3283842"><ele>1.0</ele><time>2026-04-24T17:34:30.035Z</time></trkpt><trkpt lat="45.5989338" lon="12.3283719"><ele>1.0</ele><time>2026-04-24T17:34:32.045Z</time></trkpt><trkpt lat="45.5990589" lon="12.3283559"><ele>1.6</ele><time>2026-04-24T17:34:34.041Z</time></trkpt><trkpt lat="45.5991711" lon="12.3283328"><ele>2.2</ele><time>2026-04-24T17:34:36.031Z</time></trkpt><trkpt lat="45.5992769" lon="12.3283289"><ele>2.8000000000000003</ele><time>2026-04-24T17:34:38.044Z</time></trkpt><trkpt lat="45.5993772" lon="12.3283066"><ele>3.4000000000000004</ele><time>2026-04-24T17:34:40.038Z</time></trkpt><trkpt lat="45.5994588" lon="12.3282855"><ele>4.0</ele><time>2026-04-24T17:34:42.022Z</time></trkpt><trkpt lat="45.5995498" lon="12.3282648"><ele>4.2</ele><time>2026-04-24T17:34:44.022Z</time></trkpt><trkpt lat="45.5996547" lon="12.3282585"><ele>4.4</ele><time>2026-04-24T17:34:46.017Z</time></trkpt><trkpt lat="45.5997692" lon="12.3282576"><ele>4.6</ele><time>2026-04-24T17:34:48.039Z</time></trkpt><trkpt lat="45.5998713" lon="12.328254"><ele>4.8</ele><time>2026-04-24T17:34:50.038Z</time></trkpt><trkpt lat="45.5999645" lon="12.3282577"><ele>5.0</ele><time>2026-04-24T17:34:52.021Z</time></trkpt><trkpt lat="45.6000333" lon="12.3282097"><ele>5.0</ele><time>2026-04-24T17:34:54.024Z</time></trkpt><trkpt lat="45.6000839" lon="12.3281292"><ele>5.0</ele><time>2026-04-24T17:34:56.031Z</time></trkpt><trkpt lat="45.6001332" lon="12.3280373"><ele>5.0</ele><time>2026-04-24T17:34:58.036Z</time></trkpt><trkpt lat="45.6001846" lon="12.3279309"><ele>5.0</ele><time>2026-04-24T17:35:00.036Z</time></trkpt><trkpt lat="45.6002164" lon="12.3278408"><ele>5.0</ele><time>2026-04-24T17:35:02.022Z</time></trkpt><trkpt lat="45.6002602" lon="12.3277322"><ele>5.0</ele><time>2026-04-24T17:35:04.031Z</time></trkpt><trkpt lat="45.6002944" lon="12.3276195"><ele>4.857142857142857</ele><time>2026-04-24T17:35:06.024Z</time></trkpt><trkpt lat="45.6003333" lon="12.3275089"><ele>4.714285714285714</ele><time>2026-04-24T17:35:08.035Z</time></trkpt><trkpt lat="45.6003723" lon="12.3274322"><ele>4.571428571428571</ele><time>2026-04-24T17:35:10.025Z</time></trkpt><trkpt lat="45.6004374" lon="12.3274013"><ele>4.428571428571429</ele><time>2026-04-24T17:35:23.028Z</time></trkpt><trkpt lat="45.6004543" lon="12.3272924"><ele>4.285714285714286</ele><time>2026-04-24T17:35:26.039Z</time></trkpt><trkpt lat="45.6004165" lon="12.3271888"><ele>4.142857142857142</ele><time>2026-04-24T17:35:28.029Z</time></trkpt><trkpt lat="45.6004047" lon="12.3270942"><ele>4.0</ele><time>2026-04-24T17:35:30.034Z</time></trkpt><trkpt lat="45.6003531" lon="12.3270032"><ele>3.9999999999999996</ele><time>2026-04-24T17:35:32.03Z</time></trkpt><trkpt lat="45.6002886" lon="12.3268934"><ele>4.0</ele><time>2026-04-24T17:35:34.048Z</time></trkpt><trkpt lat="45.6002331" lon="12.326798"><ele>4.0</ele><time>2026-04-24T17:35:36.025Z</time></trkpt><trkpt lat="45.6001828" lon="12.3267097"><ele>4.0</ele><time>2026-04-24T17:35:38.034Z</time></trkpt><trkpt lat="45.6001411" lon="12.326636"><ele>3.9999999999999996</ele><time>2026-04-24T17:35:40.044Z</time></trkpt><trkpt lat="45.600112" lon="12.3265329"><ele>4.0</ele><time>2026-04-24T17:35:42.044Z</time></trkpt><trkpt lat="45.6001049" lon="12.3264306"><ele>3.9999999999999996</ele><time>2026-04-24T17:35:44.022Z</time></trkpt><trkpt lat="45.6001441" lon="12.3263554"><ele>4.0</ele><time>2026-04-24T17:35:46.025Z</time></trkpt><trkpt lat="45.6002305" lon="12.3263257"><ele>4.0</ele><time>2026-04-24T17:35:49.023Z</time></trkpt><trkpt lat="45.6002995" lon="12.326322"><ele>4.0</ele><time>2026-04-24T17:35:52.022Z</time></trkpt><trkpt lat="45.6003411" lon="12.3262074"><ele>3.9999999999999996</ele><time>2026-04-24T17:36:00.034Z</time></trkpt><trkpt lat="45.6003918" lon="12.3261225"><ele>4.0</ele><time>2026-04-24T17:36:02.027Z</time></trkpt><trkpt lat="45.6004353" lon="12.3260498"><ele>3.9999999999999996</ele><time>2026-04-24T17:36:03.036Z</time></trkpt><trkpt lat="45.6004415" lon="12.3258909"><ele>4.0</ele><time>2026-04-24T17:36:05.02Z</time></trkpt><trkpt lat="45.6004289" lon="12.3257211"><ele>4.0</ele><time>2026-04-24T17:36:07.027Z</time></trkpt><trkpt lat="45.6004034" lon="12.3256323"><ele>4.0</ele><time>2026-04-24T17:36:08.04Z</time></trkpt><trkpt lat="45.6003545" lon="12.3255576"><ele>3.9999999999999996</ele><time>2026-04-24T17:36:09.038Z</time></trkpt><trkpt lat="45.6002882" lon="12.3255003"><ele>4.0</ele><time>2026-04-24T17:36:10.044Z</time></trkpt><trkpt lat="45.6002197" lon="12.3254473"><ele>3.833333333333333</ele><time>2026-04-24T17:36:11.026Z</time></trkpt><trkpt lat="45.6001503" lon="12.3254044"><ele>3.6666666666666665</ele><time>2026-04-24T17:36:12.018Z</time></trkpt><trkpt lat="45.6000761" lon="12.3253695"><ele>3.5</ele><time>2026-04-24T17:36:13.026Z</time></trkpt><trkpt lat="45.5999985" lon="12.3253479"><ele>3.333333333333333</ele><time>2026-04-24T17:36:14.017Z</time></trkpt><trkpt lat="45.599922" lon="12.325336"><ele>3.1666666666666665</ele><time>2026-04-24T17:36:15.042Z</time></trkpt><trkpt lat="45.5998453" lon="12.3253118"><ele>3.0</ele><time>2026-04-24T17:36:16.011Z</time></trkpt><trkpt lat="45.5997645" lon="12.3252826"><ele>3.0</ele><time>2026-04-24T17:36:17.053Z</time></trkpt><trkpt lat="45.5996835" lon="12.3252399"><ele>3.0</ele><time>2026-04-24T17:36:18.016Z</time></trkpt><trkpt lat="45.5996039" lon="12.32519"><ele>3.0</ele><time>2026-04-24T17:36:19.02Z</time></trkpt><trkpt lat="45.5995211" lon="12.3251415"><ele>3.0</ele><time>2026-04-24T17:36:20.022Z</time></trkpt><trkpt lat="45.5994407" lon="12.3250888"><ele>3.0</ele><time>2026-04-24T17:36:21.022Z</time></trkpt><trkpt lat="45.5993618" lon="12.3250467"><ele>3.0</ele><time>2026-04-24T17:36:22.02Z</time></trkpt><trkpt lat="45.599285" lon="12.3250023"><ele>3.2857142857142856</ele><time>2026-04-24T17:36:23.034Z</time></trkpt><trkpt lat="45.5992092" lon="12.3249655"><ele>3.571428571428571</ele><time>2026-04-24T17:36:24.031Z</time></trkpt><trkpt lat="45.5991407" lon="12.3249116"><ele>3.8571428571428568</ele><time>2026-04-24T17:36:25.033Z</time></trkpt><trkpt lat="45.599081" lon="12.3248435"><ele>4.142857142857142</ele><time>2026-04-24T17:36:26.041Z</time></trkpt><trkpt lat="45.599023" lon="12.3247784"><ele>4.428571428571429</ele><time>2026-04-24T17:36:27.029Z</time></trkpt><trkpt lat="45.5989708" lon="12.3247081"><ele>4.714285714285714</ele><time>2026-04-24T17:36:28.04Z</time></trkpt><trkpt lat="45.5989158" lon="12.3246512"><ele>5.0</ele><time>2026-04-24T17:36:29.026Z</time></trkpt><trkpt lat="45.5988695" lon="12.3245879"><ele>5.2</ele><time>2026-04-24T17:36:30.024Z</time></trkpt><trkpt lat="45.5987938" lon="12.3244801"><ele>5.4</ele><time>2026-04-24T17:36:32.04Z</time></trkpt><trkpt lat="45.5987692" lon="12.3243736"><ele>5.6</ele><time>2026-04-24T17:36:35.043Z</time></trkpt><trkpt lat="45.5987222" lon="12.3242816"><ele>5.8</ele><time>2026-04-24T17:36:38.025Z</time></trkpt><trkpt lat="45.5986689" lon="12.3241748"><ele>6.0</ele><time>2026-04-24T17:36:40.028Z</time></trkpt><trkpt lat="45.5986012" lon="12.3240787"><ele>6.0</ele><time>2026-04-24T17:36:42.033Z</time></trkpt><trkpt lat="45.5985247" lon="12.3240209"><ele>6.0</ele><time>2026-04-24T17:36:44.026Z</time></trkpt><trkpt lat="45.5984626" lon="12.323959"><ele>6.0</ele><time>2026-04-24T17:36:46.025Z</time></trkpt><trkpt lat="45.5984092" lon="12.3238593"><ele>6.0</ele><time>2026-04-24T17:36:48.031Z</time></trkpt><trkpt lat="45.5983593" lon="12.3237579"><ele>6.0</ele><time>2026-04-24T17:36:50.027Z</time></trkpt><trkpt lat="45.5983216" lon="12.3236606"><ele>6.0</ele><time>2026-04-24T17:36:52.043Z</time></trkpt><trkpt lat="45.5982875" lon="12.3235837"><ele>5.833333333333333</ele><time>2026-04-24T17:36:54.047Z</time></trkpt><trkpt lat="45.5982615" lon="12.3234734"><ele>5.666666666666667</ele><time>2026-04-24T17:36:57.036Z</time></trkpt><trkpt lat="45.5982528" lon="12.3233787"><ele>5.5</ele><time>2026-04-24T17:36:59.024Z</time></trkpt><trkpt lat="45.5982487" lon="12.323276"><ele>5.333333333333334</ele><time>2026-04-24T17:37:01.026Z</time></trkpt><trkpt lat="45.5982424" lon="12.32317"><ele>5.166666666666667</ele><time>2026-04-24T17:37:03.026Z</time></trkpt><trkpt lat="45.5982453" lon="12.3230631"><ele>5.0</ele><time>2026-04-24T17:37:05.02Z</time></trkpt><trkpt lat="45.5982696" lon="12.3229425"><ele>5.0</ele><time>2026-04-24T17:37:07.033Z</time></trkpt><trkpt lat="45.5982842" lon="12.3228115"><ele>5.0</ele><time>2026-04-24T17:37:09.045Z</time></trkpt><trkpt lat="45.5982965" lon="12.3226867"><ele>5.0</ele><time>2026-04-24T17:37:11.033Z</time></trkpt><trkpt lat="45.5983217" lon="12.3225683"><ele>5.0</ele><time>2026-04-24T17:37:13.036Z</time></trkpt><trkpt lat="45.5983508" lon="12.3224415"><ele>5.0</ele><time>2026-04-24T17:37:15.037Z</time></trkpt><trkpt lat="45.5983716" lon="12.3223007"><ele>4.8</ele><time>2026-04-24T17:37:17.047Z</time></trkpt><trkpt lat="45.5984106" lon="12.3221453"><ele>4.6</ele><time>2026-04-24T17:37:19.035Z</time></trkpt><trkpt lat="45.5984362" lon="12.3219949"><ele>4.4</ele><time>2026-04-24T17:37:21.045Z</time></trkpt><trkpt lat="45.5984639" lon="12.3218427"><ele>4.2</ele><time>2026-04-24T17:37:23.022Z</time></trkpt><trkpt lat="45.5985006" lon="12.3216927"><ele>4.0</ele><time>2026-04-24T17:37:25.04Z</time></trkpt><trkpt lat="45.5985468" lon="12.3215362"><ele>4.0</ele><time>2026-04-24T17:37:27.02Z</time></trkpt><trkpt lat="45.5985725" lon="12.3214503"><ele>4.0</ele><time>2026-04-24T17:37:28.042Z</time></trkpt><trkpt lat="45.5986262" lon="12.3212953"><ele>4.0</ele><time>2026-04-24T17:37:30.033Z</time></trkpt><trkpt lat="45.5986666" lon="12.3211511"><ele>4.0</ele><time>2026-04-24T17:37:32.032Z</time></trkpt><trkpt lat="45.5987009" lon="12.3210029"><ele>4.0</ele><time>2026-04-24T17:37:34.025Z</time></trkpt><trkpt lat="45.5987267" lon="12.3208644"><ele>4.0</ele><time>2026-04-24T17:37:36.043Z</time></trkpt><trkpt lat="45.5987681" lon="12.3207105"><ele>4.0</ele><time>2026-04-24T17:37:38.042Z</time></trkpt><trkpt lat="45.5988092" lon="12.3205569"><ele>4.0</ele><time>2026-04-24T17:37:40.042Z</time></trkpt><trkpt lat="45.5988333" lon="12.3204637"><ele>4.0</ele><time>2026-04-24T17:37:41.026Z</time></trkpt><trkpt lat="45.5988745" lon="12.3203063"><ele>4.0</ele><time>2026-04-24T17:37:43.037Z</time></trkpt><trkpt lat="45.5989106" lon="12.3201482"><ele>4.0</ele><time>2026-04-24T17:37:45.045Z</time></trkpt><trkpt lat="45.5989449" lon="12.3199957"><ele>4.0</ele><time>2026-04-24T17:37:47.041Z</time></trkpt><trkpt lat="45.5989763" lon="12.3198493"><ele>4.0</ele><time>2026-04-24T17:37:49.034Z</time></trkpt><trkpt lat="45.5989976" lon="12.3196879"><ele>4.0</ele><time>2026-04-24T17:37:51.037Z</time></trkpt><trkpt lat="45.5990144" lon="12.3196009"><ele>4.0</ele><time>2026-04-24T17:37:52.035Z</time></trkpt><trkpt lat="45.5990442" lon="12.3194364"><ele>4.0</ele><time>2026-04-24T17:37:54.032Z</time></trkpt><trkpt lat="45.5990702" lon="12.3192681"><ele>4.0</ele><time>2026-04-24T17:37:56.039Z</time></trkpt><trkpt lat="45.599108" lon="12.319105"><ele>4.0</ele><time>2026-04-24T17:37:58.039Z</time></trkpt><trkpt lat="45.5991174" lon="12.3190157"><ele>4.0</ele><time>2026-04-24T17:37:59.04Z</time></trkpt><trkpt lat="45.5991431" lon="12.318867"><ele>4.0</ele><time>2026-04-24T17:38:01.016Z</time></trkpt><trkpt lat="45.5991755" lon="12.3187104"><ele>3.8000000000000003</ele><time>2026-04-24T17:38:03.039Z</time></trkpt><trkpt lat="45.5991948" lon="12.318561"><ele>3.6000000000000005</ele><time>2026-04-24T17:38:05.04Z</time></trkpt><trkpt lat="45.5992098" lon="12.3184309"><ele>3.4</ele><time>2026-04-24T17:38:07.04Z</time></trkpt><trkpt lat="45.5992281" lon="12.318293"><ele>3.2</ele><time>2026-04-24T17:38:09.036Z</time></trkpt><trkpt lat="45.5992468" lon="12.3181574"><ele>3.0</ele><time>2026-04-24T17:38:11.043Z</time></trkpt><trkpt lat="45.5992692" lon="12.3180227"><ele>3.3333333333333335</ele><time>2026-04-24T17:38:13.036Z</time></trkpt><trkpt lat="45.5992962" lon="12.3178983"><ele>3.666666666666667</ele><time>2026-04-24T17:38:15.035Z</time></trkpt><trkpt lat="45.5993058" lon="12.3177985"><ele>4.0</ele><time>2026-04-24T17:38:17.027Z</time></trkpt><trkpt lat="45.5992905" lon="12.3177033"><ele>4.333333333333334</ele><time>2026-04-24T17:38:19.037Z</time></trkpt><trkpt lat="45.5992502" lon="12.3176037"><ele>4.666666666666667</ele><time>2026-04-24T17:38:22.023Z</time></trkpt><trkpt lat="45.5991847" lon="12.3175379"><ele>5.0</ele><time>2026-04-24T17:38:24.029Z</time></trkpt><trkpt lat="45.5991116" lon="12.3174659"><ele>5.0</ele><time>2026-04-24T17:38:26.036Z</time></trkpt><trkpt lat="45.5990288" lon="12.3173994"><ele>5.0</ele><time>2026-04-24T17:38:28.027Z</time></trkpt><trkpt lat="45.598938" lon="12.3173214"><ele>5.0</ele><time>2026-04-24T17:38:30.028Z</time></trkpt><trkpt lat="45.5988568" lon="12.3172546"><ele>5.0</ele><time>2026-04-24T17:38:32.035Z</time></trkpt><trkpt lat="45.5987752" lon="12.3171863"><ele>5.0</ele><time>2026-04-24T17:38:34.044Z</time></trkpt><trkpt lat="45.5986834" lon="12.3170814"><ele>5.0</ele><time>2026-04-24T17:38:36.033Z</time></trkpt><trkpt lat="45.5986081" lon="12.3169732"><ele>5.0</ele><time>2026-04-24T17:38:38.024Z</time></trkpt><trkpt lat="45.598526" lon="12.3168693"><ele>5.0</ele><time>2026-04-24T17:38:40.032Z</time></trkpt><trkpt lat="45.598454" lon="12.3167662"><ele>5.0</ele><time>2026-04-24T17:38:42.022Z</time></trkpt><trkpt lat="45.5983767" lon="12.3166873"><ele>5.0</ele><time>2026-04-24T17:38:44.038Z</time></trkpt><trkpt lat="45.5983084" lon="12.3165963"><ele>5.0</ele><time>2026-04-24T17:38:46.037Z</time></trkpt><trkpt lat="45.5982453" lon="12.3164998"><ele>5.0</ele><time>2026-04-24T17:38:48.058Z</time></trkpt><trkpt lat="45.5981768" lon="12.3164315"><ele>5.0</ele><time>2026-04-24T17:38:50.024Z</time></trkpt><trkpt lat="45.5981104" lon="12.3163393"><ele>5.0</ele><time>2026-04-24T17:38:52.034Z</time></trkpt><trkpt lat="45.5980374" lon="12.3162209"><ele>5.0</ele><time>2026-04-24T17:38:54.043Z</time></trkpt><trkpt lat="45.5979951" lon="12.3161468"><ele>5.0</ele><time>2026-04-24T17:38:55.024Z</time></trkpt><trkpt lat="45.5979459" lon="12.3160691"><ele>4.833333333333334</ele><time>2026-04-24T17:38:56.029Z</time></trkpt><trkpt lat="45.597902" lon="12.3159975"><ele>4.666666666666667</ele><time>2026-04-24T17:38:57.027Z</time></trkpt><trkpt lat="45.597855" lon="12.3159168"><ele>4.5</ele><time>2026-04-24T17:38:58.046Z</time></trkpt><trkpt lat="45.5978087" lon="12.3158331"><ele>4.333333333333333</ele><time>2026-04-24T17:38:59.023Z</time></trkpt><trkpt lat="45.5977424" lon="12.3156932"><ele>4.166666666666666</ele><time>2026-04-24T17:39:01.025Z</time></trkpt><trkpt lat="45.597699" lon="12.3155535"><ele>4.0</ele><time>2026-04-24T17:39:03.027Z</time></trkpt><trkpt lat="45.5976742" lon="12.3154102"><ele>3.8000000000000003</ele><time>2026-04-24T17:39:05.029Z</time></trkpt><trkpt lat="45.597659" lon="12.3152639"><ele>3.6000000000000005</ele><time>2026-04-24T17:39:07.023Z</time></trkpt><trkpt lat="45.5976451" lon="12.3151254"><ele>3.4</ele><time>2026-04-24T17:39:09.028Z</time></trkpt><trkpt lat="45.5976301" lon="12.3149903"><ele>3.2</ele><time>2026-04-24T17:39:11.017Z</time></trkpt><trkpt lat="45.5976184" lon="12.3148546"><ele>3.0</ele><time>2026-04-24T17:39:13.036Z</time></trkpt><trkpt lat="45.5976074" lon="12.3147236"><ele>3.0</ele><time>2026-04-24T17:39:15.034Z</time></trkpt><trkpt lat="45.5975941" lon="12.314611"><ele>3.0</ele><time>2026-04-24T17:39:17.045Z</time></trkpt><trkpt lat="45.5975732" lon="12.3145002"><ele>3.0</ele><time>2026-04-24T17:39:19.027Z</time></trkpt><trkpt lat="45.5975465" lon="12.3143773"><ele>3.0</ele><time>2026-04-24T17:39:21.022Z</time></trkpt><trkpt lat="45.5975191" lon="12.3142609"><ele>3.0</ele><time>2026-04-24T17:39:23.037Z</time></trkpt><trkpt lat="45.5974854" lon="12.3141224"><ele>3.0</ele><time>2026-04-24T17:39:25.029Z</time></trkpt><trkpt lat="45.597445" lon="12.3140021"><ele>3.0</ele><time>2026-04-24T17:39:27.036Z</time></trkpt><trkpt lat="45.5974097" lon="12.3138952"><ele>3.0</ele><time>2026-04-24T17:39:29.04Z</time></trkpt><trkpt lat="45.5973405" lon="12.3138217"><ele>3.0</ele><time>2026-04-24T17:39:31.029Z</time></trkpt><trkpt lat="45.5972745" lon="12.3137582"><ele>3.0</ele><time>2026-04-24T17:39:33.032Z</time></trkpt><trkpt lat="45.5972028" lon="12.3136998"><ele>3.0</ele><time>2026-04-24T17:39:35.039Z</time></trkpt><trkpt lat="45.5971452" lon="12.3136491"><ele>3.0</ele><time>2026-04-24T17:39:37.027Z</time></trkpt><trkpt lat="45.597085" lon="12.31359"><ele>3.0</ele><time>2026-04-24T17:39:39.024Z</time></trkpt><trkpt lat="45.5970202" lon="12.3135271"><ele>3.0</ele><time>2026-04-24T17:39:41.035Z</time></trkpt><trkpt lat="45.5969465" lon="12.3134679"><ele>3.0</ele><time>2026-04-24T17:39:43.032Z</time></trkpt><trkpt lat="45.5968734" lon="12.313398"><ele>3.0</ele><time>2026-04-24T17:39:45.04Z</time></trkpt><trkpt lat="45.5968017" lon="12.3133324"><ele>3.0</ele><time>2026-04-24T17:39:47.025Z</time></trkpt><trkpt lat="45.5967438" lon="12.3132774"><ele>3.0</ele><time>2026-04-24T17:39:49.038Z</time></trkpt><trkpt lat="45.5966707" lon="12.3132088"><ele>3.0</ele><time>2026-04-24T17:39:52.033Z</time></trkpt><trkpt lat="45.5966049" lon="12.3131477"><ele>3.0</ele><time>2026-04-24T17:39:54.033Z</time></trkpt><trkpt lat="45.5965398" lon="12.3130779"><ele>3.0</ele><time>2026-04-24T17:39:56.042Z</time></trkpt><trkpt lat="45.5964726" lon="12.3129955"><ele>3.0</ele><time>2026-04-24T17:39:58.039Z</time></trkpt><trkpt lat="45.5963999" lon="12.3129184"><ele>3.0</ele><time>2026-04-24T17:40:00.039Z</time></trkpt><trkpt lat="45.5963248" lon="12.3128379"><ele>3.0</ele><time>2026-04-24T17:40:02.027Z</time></trkpt><trkpt lat="45.5962105" lon="12.3127112"><ele>3.1666666666666665</ele><time>2026-04-24T17:40:05.028Z</time></trkpt><trkpt lat="45.5961408" lon="12.3126409"><ele>3.333333333333333</ele><time>2026-04-24T17:40:07.024Z</time></trkpt><trkpt lat="45.5960844" lon="12.3125879"><ele>3.5</ele><time>2026-04-24T17:40:09.035Z</time></trkpt><trkpt lat="45.5960166" lon="12.3125028"><ele>3.6666666666666665</ele><time>2026-04-24T17:40:12.047Z</time></trkpt><trkpt lat="45.595957" lon="12.3124169"><ele>3.833333333333333</ele><time>2026-04-24T17:40:15.022Z</time></trkpt><trkpt lat="45.5959053" lon="12.3123284"><ele>4.0</ele><time>2026-04-24T17:40:18.043Z</time></trkpt><trkpt lat="45.5958412" lon="12.312266"><ele>4.0</ele><time>2026-04-24T17:40:21.048Z</time></trkpt><trkpt lat="45.5957912" lon="12.3121729"><ele>3.9999999999999996</ele><time>2026-04-24T17:40:24.034Z</time></trkpt><trkpt lat="45.595735" lon="12.3121278"><ele>4.0</ele><time>2026-04-24T17:40:27.048Z</time></trkpt><trkpt lat="45.5956544" lon="12.3121864"><ele>4.0</ele><time>2026-04-24T17:40:31.027Z</time></trkpt><trkpt lat="45.5956142" lon="12.3122652"><ele>3.9999999999999996</ele><time>2026-04-24T17:40:34.023Z</time></trkpt><trkpt lat="45.5955769" lon="12.312341"><ele>4.0</ele><time>2026-04-24T17:40:37.05Z</time></trkpt><trkpt lat="45.5955436" lon="12.312429"><ele>4.0</ele><time>2026-04-24T17:40:40.029Z</time></trkpt><trkpt lat="45.5954962" lon="12.3125327"><ele>4.0</ele><time>2026-04-24T17:40:44.026Z</time></trkpt><trkpt lat="45.5954515" lon="12.3126015"><ele>4.0</ele><time>2026-04-24T17:40:48.025Z</time></trkpt><trkpt lat="45.5954138" lon="12.3126872"><ele>4.0</ele><time>2026-04-24T17:40:53.037Z</time></trkpt><trkpt lat="45.5953497" lon="12.3126762"><ele>4.0</ele><time>2026-04-24T17:40:58.026Z</time></trkpt><trkpt lat="45.5952863" lon="12.3126547"><ele>5.0</ele><time>2026-04-24T17:41:02.027Z</time></trkpt></trkseg></trk></gpx>